<?xml version="1.0" encoding="utf-8"?>
<gpx xmlns:xsi="http://www.w3.org/2001/XMLSchema-instance" xmlns:xsd="http://www.w3.org/2001/XMLSchema" version="1.1" creator="Shapelink.com" xmlns="http://www.topografix.com/GPX/1/1" xmlns:gpxtpx="http://www.garmin.com/xmlschemas/TrackPointExtension/v1">
  <metadata>
    <name>Löpning 9.03 km, 2017-12-02</name>
    <desc></desc>
    <author><name>Bengt-Åke Forslund</name></author> 
    <time>2017-12-02T10:16:52Z</time>
  </metadata>
  <trk>
    <name>Löpning 9.03 km, 2017-12-02</name>
    <trkseg>
      <trkpt lat="62.636086048643" lon="17.96844415343">
        <ele>60.6</ele>
        <time>2017-12-02T10:16:52Z</time>
      </trkpt>
      <trkpt lat="62.636096945113" lon="17.968452367692">
        <ele>60.6</ele>
        <time>2017-12-02T10:16:53Z</time>
      </trkpt>
      <trkpt lat="62.636108847411" lon="17.968472484252">
        <ele>60.6</ele>
        <time>2017-12-02T10:16:54Z</time>
      </trkpt>
      <trkpt lat="62.636122426089" lon="17.968484135093">
        <ele>60.8</ele>
        <time>2017-12-02T10:16:55Z</time>
      </trkpt>
      <trkpt lat="62.636145643952" lon="17.96850031216">
        <ele>60.8</ele>
        <time>2017-12-02T10:16:56Z</time>
      </trkpt>
      <trkpt lat="62.636175064421" lon="17.968503497282">
        <ele>61</ele>
        <time>2017-12-02T10:16:57Z</time>
      </trkpt>
      <trkpt lat="62.636199958664" lon="17.968530989914">
        <ele>60.8</ele>
        <time>2017-12-02T10:16:58Z</time>
      </trkpt>
      <trkpt lat="62.636221751604" lon="17.968554459234">
        <ele>60.8</ele>
        <time>2017-12-02T10:16:59Z</time>
      </trkpt>
      <trkpt lat="62.636245640019" lon="17.968569630473">
        <ele>60.8</ele>
        <time>2017-12-02T10:17:00Z</time>
      </trkpt>
      <trkpt lat="62.636272545918" lon="17.968587148644">
        <ele>60.8</ele>
        <time>2017-12-02T10:17:01Z</time>
      </trkpt>
      <trkpt lat="62.636302217844" lon="17.968607349023">
        <ele>60.8</ele>
        <time>2017-12-02T10:17:02Z</time>
      </trkpt>
      <trkpt lat="62.636331638313" lon="17.968631237438">
        <ele>60.8</ele>
        <time>2017-12-02T10:17:03Z</time>
      </trkpt>
      <trkpt lat="62.636351251959" lon="17.968656299319">
        <ele>60.8</ele>
        <time>2017-12-02T10:17:04Z</time>
      </trkpt>
      <trkpt lat="62.636380420971" lon="17.968695358973">
        <ele>60.8</ele>
        <time>2017-12-02T10:17:05Z</time>
      </trkpt>
      <trkpt lat="62.636402800644" lon="17.968733077523">
        <ele>60.8</ele>
        <time>2017-12-02T10:17:06Z</time>
      </trkpt>
      <trkpt lat="62.636421995195" lon="17.968775322299">
        <ele>60.8</ele>
        <time>2017-12-02T10:17:07Z</time>
      </trkpt>
      <trkpt lat="62.636439513366" lon="17.968812621754">
        <ele>61</ele>
        <time>2017-12-02T10:17:08Z</time>
      </trkpt>
      <trkpt lat="62.636456360985" lon="17.968848244829">
        <ele>61</ele>
        <time>2017-12-02T10:17:09Z</time>
      </trkpt>
      <trkpt lat="62.636472789509" lon="17.968890573424">
        <ele>61</ele>
        <time>2017-12-02T10:17:10Z</time>
      </trkpt>
      <trkpt lat="62.636489888585" lon="17.968930219811">
        <ele>61</ele>
        <time>2017-12-02T10:17:11Z</time>
      </trkpt>
      <trkpt lat="62.636505646557" lon="17.9689663458">
        <ele>61</ele>
        <time>2017-12-02T10:17:12Z</time>
      </trkpt>
      <trkpt lat="62.636521488348" lon="17.96901076987">
        <ele>61</ele>
        <time>2017-12-02T10:17:13Z</time>
      </trkpt>
      <trkpt lat="62.636536827225" lon="17.96906189946">
        <ele>61</ele>
        <time>2017-12-02T10:17:14Z</time>
      </trkpt>
      <trkpt lat="62.636555351224" lon="17.969073969396">
        <ele>61</ele>
        <time>2017-12-02T10:17:15Z</time>
      </trkpt>
      <trkpt lat="62.636566834427" lon="17.969133564705">
        <ele>61</ele>
        <time>2017-12-02T10:17:16Z</time>
      </trkpt>
      <trkpt lat="62.63658167039" lon="17.969182095906">
        <ele>61.2</ele>
        <time>2017-12-02T10:17:17Z</time>
      </trkpt>
      <trkpt lat="62.636593824145" lon="17.96922702289">
        <ele>61.2</ele>
        <time>2017-12-02T10:17:18Z</time>
      </trkpt>
      <trkpt lat="62.636607151366" lon="17.969266836915">
        <ele>61.2</ele>
        <time>2017-12-02T10:17:19Z</time>
      </trkpt>
      <trkpt lat="62.636619724216" lon="17.969327354233">
        <ele>61.2</ele>
        <time>2017-12-02T10:17:20Z</time>
      </trkpt>
      <trkpt lat="62.636630620686" lon="17.969369431371">
        <ele>61.4</ele>
        <time>2017-12-02T10:17:21Z</time>
      </trkpt>
      <trkpt lat="62.636642942079" lon="17.969422656436">
        <ele>61.4</ele>
        <time>2017-12-02T10:17:22Z</time>
      </trkpt>
      <trkpt lat="62.636652413626" lon="17.969474959492">
        <ele>61.4</ele>
        <time>2017-12-02T10:17:23Z</time>
      </trkpt>
      <trkpt lat="62.636661801354" lon="17.969518377734">
        <ele>61.4</ele>
        <time>2017-12-02T10:17:24Z</time>
      </trkpt>
      <trkpt lat="62.636674877118" lon="17.969574620283">
        <ele>61.4</ele>
        <time>2017-12-02T10:17:25Z</time>
      </trkpt>
      <trkpt lat="62.636685186855" lon="17.969619128172">
        <ele>61.4</ele>
        <time>2017-12-02T10:17:26Z</time>
      </trkpt>
      <trkpt lat="62.636694239307" lon="17.969663803699">
        <ele>61.4</ele>
        <time>2017-12-02T10:17:27Z</time>
      </trkpt>
      <trkpt lat="62.636703710854" lon="17.969706551389">
        <ele>61.6</ele>
        <time>2017-12-02T10:17:28Z</time>
      </trkpt>
      <trkpt lat="62.636715529333" lon="17.969742342102">
        <ele>61.6</ele>
        <time>2017-12-02T10:17:29Z</time>
      </trkpt>
      <trkpt lat="62.636731538762" lon="17.969800428669">
        <ele>61.6</ele>
        <time>2017-12-02T10:17:30Z</time>
      </trkpt>
      <trkpt lat="62.636748721657" lon="17.969850384793">
        <ele>61.6</ele>
        <time>2017-12-02T10:17:31Z</time>
      </trkpt>
      <trkpt lat="62.636764814905" lon="17.969895479415">
        <ele>61.8</ele>
        <time>2017-12-02T10:17:32Z</time>
      </trkpt>
      <trkpt lat="62.63678115961" lon="17.969932862689">
        <ele>61.8</ele>
        <time>2017-12-02T10:17:33Z</time>
      </trkpt>
      <trkpt lat="62.63679708522" lon="17.969972341438">
        <ele>61.8</ele>
        <time>2017-12-02T10:17:34Z</time>
      </trkpt>
      <trkpt lat="62.636821141273" lon="17.970003354468">
        <ele>61.8</ele>
        <time>2017-12-02T10:17:35Z</time>
      </trkpt>
      <trkpt lat="62.636841174014" lon="17.970037384982">
        <ele>62</ele>
        <time>2017-12-02T10:17:36Z</time>
      </trkpt>
      <trkpt lat="62.636862799316" lon="17.970068062736">
        <ele>61.8</ele>
        <time>2017-12-02T10:17:37Z</time>
      </trkpt>
      <trkpt lat="62.636887525921" lon="17.97009957868">
        <ele>61.8</ele>
        <time>2017-12-02T10:17:38Z</time>
      </trkpt>
      <trkpt lat="62.636913258354" lon="17.970131346081">
        <ele>62</ele>
        <time>2017-12-02T10:17:39Z</time>
      </trkpt>
      <trkpt lat="62.636938320235" lon="17.970146182044">
        <ele>62</ele>
        <time>2017-12-02T10:17:40Z</time>
      </trkpt>
      <trkpt lat="62.636967405428" lon="17.970167220613">
        <ele>62</ele>
        <time>2017-12-02T10:17:41Z</time>
      </trkpt>
      <trkpt lat="62.636997580268" lon="17.970181050748">
        <ele>62</ele>
        <time>2017-12-02T10:17:42Z</time>
      </trkpt>
      <trkpt lat="62.637030353497" lon="17.970186834259">
        <ele>62</ele>
        <time>2017-12-02T10:17:43Z</time>
      </trkpt>
      <trkpt lat="62.637066311848" lon="17.970188510639">
        <ele>62</ele>
        <time>2017-12-02T10:17:44Z</time>
      </trkpt>
      <trkpt lat="62.637104952407" lon="17.970173423219">
        <ele>62</ele>
        <time>2017-12-02T10:17:45Z</time>
      </trkpt>
      <trkpt lat="62.637146358993" lon="17.970154563944">
        <ele>61.8</ele>
        <time>2017-12-02T10:17:46Z</time>
      </trkpt>
      <trkpt lat="62.63719019633" lon="17.970137716325">
        <ele>61.6</ele>
        <time>2017-12-02T10:17:47Z</time>
      </trkpt>
      <trkpt lat="62.637229926536" lon="17.970117013032">
        <ele>61.6</ele>
        <time>2017-12-02T10:17:48Z</time>
      </trkpt>
      <trkpt lat="62.637272003674" lon="17.970091615875">
        <ele>61</ele>
        <time>2017-12-02T10:17:49Z</time>
      </trkpt>
      <trkpt lat="62.637318104124" lon="17.970066973089">
        <ele>60.6</ele>
        <time>2017-12-02T10:17:50Z</time>
      </trkpt>
      <trkpt lat="62.637361103271" lon="17.97004593452">
        <ele>60</ele>
        <time>2017-12-02T10:17:51Z</time>
      </trkpt>
      <trkpt lat="62.637405024427" lon="17.9700308471">
        <ele>59.8</ele>
        <time>2017-12-02T10:17:52Z</time>
      </trkpt>
      <trkpt lat="62.637449951411" lon="17.97002497977">
        <ele>59</ele>
        <time>2017-12-02T10:17:53Z</time>
      </trkpt>
      <trkpt lat="62.637492950558" lon="17.970022884295">
        <ele>59</ele>
        <time>2017-12-02T10:17:54Z</time>
      </trkpt>
      <trkpt lat="62.637529411823" lon="17.970057166266">
        <ele>58.8</ele>
        <time>2017-12-02T10:17:55Z</time>
      </trkpt>
      <trkpt lat="62.637562604147" lon="17.970078540111">
        <ele>58.6</ele>
        <time>2017-12-02T10:17:56Z</time>
      </trkpt>
      <trkpt lat="62.637593449539" lon="17.970113744091">
        <ele>58.6</ele>
        <time>2017-12-02T10:17:57Z</time>
      </trkpt>
      <trkpt lat="62.637624797845" lon="17.970160012179">
        <ele>58.6</ele>
        <time>2017-12-02T10:17:58Z</time>
      </trkpt>
      <trkpt lat="62.637650781735" lon="17.970195635254">
        <ele>58.6</ele>
        <time>2017-12-02T10:17:59Z</time>
      </trkpt>
      <trkpt lat="62.637669305734" lon="17.970270904716">
        <ele>58.8</ele>
        <time>2017-12-02T10:18:00Z</time>
      </trkpt>
      <trkpt lat="62.637689422294" lon="17.970319771193">
        <ele>58.8</ele>
        <time>2017-12-02T10:18:01Z</time>
      </trkpt>
      <trkpt lat="62.637708281569" lon="17.970373415353">
        <ele>59</ele>
        <time>2017-12-02T10:18:02Z</time>
      </trkpt>
      <trkpt lat="62.637724374817" lon="17.970430999006">
        <ele>59.2</ele>
        <time>2017-12-02T10:18:03Z</time>
      </trkpt>
      <trkpt lat="62.637733846364" lon="17.970478775836">
        <ele>59.2</ele>
        <time>2017-12-02T10:18:04Z</time>
      </trkpt>
      <trkpt lat="62.637753711467" lon="17.970542226819">
        <ele>59.2</ele>
        <time>2017-12-02T10:18:05Z</time>
      </trkpt>
      <trkpt lat="62.637768463611" lon="17.970588578726">
        <ele>59.4</ele>
        <time>2017-12-02T10:18:06Z</time>
      </trkpt>
      <trkpt lat="62.637782126108" lon="17.970640546506">
        <ele>59.4</ele>
        <time>2017-12-02T10:18:07Z</time>
      </trkpt>
      <trkpt lat="62.637795620967" lon="17.970685557309">
        <ele>59.6</ele>
        <time>2017-12-02T10:18:08Z</time>
      </trkpt>
      <trkpt lat="62.637811630396" lon="17.970719168728">
        <ele>59.4</ele>
        <time>2017-12-02T10:18:09Z</time>
      </trkpt>
      <trkpt lat="62.637824287065" lon="17.9707936">
        <ele>59.6</ele>
        <time>2017-12-02T10:18:10Z</time>
      </trkpt>
      <trkpt lat="62.637833507155" lon="17.970849088178">
        <ele>59.6</ele>
        <time>2017-12-02T10:18:11Z</time>
      </trkpt>
      <trkpt lat="62.637842224331" lon="17.97090759384">
        <ele>59.6</ele>
        <time>2017-12-02T10:18:12Z</time>
      </trkpt>
      <trkpt lat="62.637849348946" lon="17.970961321819">
        <ele>59.6</ele>
        <time>2017-12-02T10:18:13Z</time>
      </trkpt>
      <trkpt lat="62.637857479389" lon="17.971011361762">
        <ele>59.8</ele>
        <time>2017-12-02T10:18:14Z</time>
      </trkpt>
      <trkpt lat="62.637870052239" lon="17.971058048945">
        <ele>59.8</ele>
        <time>2017-12-02T10:18:15Z</time>
      </trkpt>
      <trkpt lat="62.6378716448" lon="17.971123343946">
        <ele>59.8</ele>
        <time>2017-12-02T10:18:16Z</time>
      </trkpt>
      <trkpt lat="62.637880948709" lon="17.971172378061">
        <ele>59.8</ele>
        <time>2017-12-02T10:18:17Z</time>
      </trkpt>
      <trkpt lat="62.637890839351" lon="17.971222418004">
        <ele>59.8</ele>
        <time>2017-12-02T10:18:18Z</time>
      </trkpt>
      <trkpt lat="62.637901903459" lon="17.971271116843">
        <ele>60</ele>
        <time>2017-12-02T10:18:19Z</time>
      </trkpt>
      <trkpt lat="62.637912045558" lon="17.971319564225">
        <ele>60</ele>
        <time>2017-12-02T10:18:20Z</time>
      </trkpt>
      <trkpt lat="62.637920343639" lon="17.971365077942">
        <ele>60</ele>
        <time>2017-12-02T10:18:21Z</time>
      </trkpt>
      <trkpt lat="62.637929563729" lon="17.971415453161">
        <ele>60</ele>
        <time>2017-12-02T10:18:22Z</time>
      </trkpt>
      <trkpt lat="62.637934592869" lon="17.971467588579">
        <ele>60.2</ele>
        <time>2017-12-02T10:18:23Z</time>
      </trkpt>
      <trkpt lat="62.637939789647" lon="17.971511509735">
        <ele>60.2</ele>
        <time>2017-12-02T10:18:24Z</time>
      </trkpt>
      <trkpt lat="62.637946159891" lon="17.971563812791">
        <ele>60.4</ele>
        <time>2017-12-02T10:18:25Z</time>
      </trkpt>
      <trkpt lat="62.637952446316" lon="17.971610080879">
        <ele>60.4</ele>
        <time>2017-12-02T10:18:26Z</time>
      </trkpt>
      <trkpt lat="62.637958313646" lon="17.971655426958">
        <ele>60.6</ele>
        <time>2017-12-02T10:18:27Z</time>
      </trkpt>
      <trkpt lat="62.637964935347" lon="17.971705383082">
        <ele>60.6</ele>
        <time>2017-12-02T10:18:28Z</time>
      </trkpt>
      <trkpt lat="62.637967617555" lon="17.971756512672">
        <ele>60.6</ele>
        <time>2017-12-02T10:18:29Z</time>
      </trkpt>
      <trkpt lat="62.637970886496" lon="17.971809067185">
        <ele>60.6</ele>
        <time>2017-12-02T10:18:30Z</time>
      </trkpt>
      <trkpt lat="62.637974909808" lon="17.971864555363">
        <ele>60.6</ele>
        <time>2017-12-02T10:18:31Z</time>
      </trkpt>
      <trkpt lat="62.637979519853" lon="17.971916942238">
        <ele>60.6</ele>
        <time>2017-12-02T10:18:32Z</time>
      </trkpt>
      <trkpt lat="62.637989913409" lon="17.971959187014">
        <ele>60.6</ele>
        <time>2017-12-02T10:18:33Z</time>
      </trkpt>
      <trkpt lat="62.637982872613" lon="17.972014256097">
        <ele>60.6</ele>
        <time>2017-12-02T10:18:34Z</time>
      </trkpt>
      <trkpt lat="62.637984884269" lon="17.97206681061">
        <ele>60.6</ele>
        <time>2017-12-02T10:18:35Z</time>
      </trkpt>
      <trkpt lat="62.637991003056" lon="17.972119784218">
        <ele>60.6</ele>
        <time>2017-12-02T10:18:36Z</time>
      </trkpt>
      <trkpt lat="62.637996032196" lon="17.972172003455">
        <ele>60.6</ele>
        <time>2017-12-02T10:18:37Z</time>
      </trkpt>
      <trkpt lat="62.637998630585" lon="17.972227994547">
        <ele>60.8</ele>
        <time>2017-12-02T10:18:38Z</time>
      </trkpt>
      <trkpt lat="62.638001145155" lon="17.972285997295">
        <ele>60.8</ele>
        <time>2017-12-02T10:18:39Z</time>
      </trkpt>
      <trkpt lat="62.638003659725" lon="17.972323967302">
        <ele>60.8</ele>
        <time>2017-12-02T10:18:40Z</time>
      </trkpt>
      <trkpt lat="62.638008185951" lon="17.972362607861">
        <ele>61</ele>
        <time>2017-12-02T10:18:41Z</time>
      </trkpt>
      <trkpt lat="62.638010951978" lon="17.97240376299">
        <ele>61</ele>
        <time>2017-12-02T10:18:42Z</time>
      </trkpt>
      <trkpt lat="62.638016903127" lon="17.97244567249">
        <ele>61.2</ele>
        <time>2017-12-02T10:18:43Z</time>
      </trkpt>
      <trkpt lat="62.638020926439" lon="17.972490264198">
        <ele>61.2</ele>
        <time>2017-12-02T10:18:44Z</time>
      </trkpt>
      <trkpt lat="62.638023608647" lon="17.972538627761">
        <ele>61.4</ele>
        <time>2017-12-02T10:18:45Z</time>
      </trkpt>
      <trkpt lat="62.638030230348" lon="17.972591769007">
        <ele>61.6</ele>
        <time>2017-12-02T10:18:46Z</time>
      </trkpt>
      <trkpt lat="62.638033583108" lon="17.972642898597">
        <ele>61.6</ele>
        <time>2017-12-02T10:18:47Z</time>
      </trkpt>
      <trkpt lat="62.638034505117" lon="17.972690172513">
        <ele>61.8</ele>
        <time>2017-12-02T10:18:48Z</time>
      </trkpt>
      <trkpt lat="62.638037019687" lon="17.97273903899">
        <ele>61.8</ele>
        <time>2017-12-02T10:18:49Z</time>
      </trkpt>
      <trkpt lat="62.638039450438" lon="17.972788743657">
        <ele>61.8</ele>
        <time>2017-12-02T10:18:50Z</time>
      </trkpt>
      <trkpt lat="62.638039701895" lon="17.972837274858">
        <ele>62</ele>
        <time>2017-12-02T10:18:51Z</time>
      </trkpt>
      <trkpt lat="62.638039366619" lon="17.972887901534">
        <ele>62</ele>
        <time>2017-12-02T10:18:52Z</time>
      </trkpt>
      <trkpt lat="62.638038696067" lon="17.972935929821">
        <ele>62</ele>
        <time>2017-12-02T10:18:53Z</time>
      </trkpt>
      <trkpt lat="62.638041881189" lon="17.97297959952">
        <ele>62.2</ele>
        <time>2017-12-02T10:18:54Z</time>
      </trkpt>
      <trkpt lat="62.638043725207" lon="17.973029220368">
        <ele>62.2</ele>
        <time>2017-12-02T10:18:55Z</time>
      </trkpt>
      <trkpt lat="62.638042970836" lon="17.973078673578">
        <ele>62.2</ele>
        <time>2017-12-02T10:18:56Z</time>
      </trkpt>
      <trkpt lat="62.638043306112" lon="17.973123432924">
        <ele>62.2</ele>
        <time>2017-12-02T10:18:57Z</time>
      </trkpt>
      <trkpt lat="62.638040707723" lon="17.973169701012">
        <ele>62.4</ele>
        <time>2017-12-02T10:18:58Z</time>
      </trkpt>
      <trkpt lat="62.638041294456" lon="17.973208509209">
        <ele>62.4</ele>
        <time>2017-12-02T10:18:59Z</time>
      </trkpt>
      <trkpt lat="62.638041042999" lon="17.97325117308">
        <ele>62.6</ele>
        <time>2017-12-02T10:19:00Z</time>
      </trkpt>
      <trkpt lat="62.638040204809" lon="17.97329224439">
        <ele>62.8</ele>
        <time>2017-12-02T10:19:01Z</time>
      </trkpt>
      <trkpt lat="62.638041545913" lon="17.973332645148">
        <ele>63</ele>
        <time>2017-12-02T10:19:02Z</time>
      </trkpt>
      <trkpt lat="62.638042970836" lon="17.973372878268">
        <ele>63</ele>
        <time>2017-12-02T10:19:03Z</time>
      </trkpt>
      <trkpt lat="62.638038360791" lon="17.973414787768">
        <ele>63.2</ele>
        <time>2017-12-02T10:19:04Z</time>
      </trkpt>
      <trkpt lat="62.638036013859" lon="17.973456361992">
        <ele>63.4</ele>
        <time>2017-12-02T10:19:05Z</time>
      </trkpt>
      <trkpt lat="62.638033499289" lon="17.973498774406">
        <ele>63.6</ele>
        <time>2017-12-02T10:19:06Z</time>
      </trkpt>
      <trkpt lat="62.638031571452" lon="17.973540516268">
        <ele>63.6</ele>
        <time>2017-12-02T10:19:07Z</time>
      </trkpt>
      <trkpt lat="62.638032661099" lon="17.973585024157">
        <ele>63.6</ele>
        <time>2017-12-02T10:19:08Z</time>
      </trkpt>
      <trkpt lat="62.638037438782" lon="17.973628693856">
        <ele>63.6</ele>
        <time>2017-12-02T10:19:09Z</time>
      </trkpt>
      <trkpt lat="62.638032661099" lon="17.973672531193">
        <ele>63.8</ele>
        <time>2017-12-02T10:19:10Z</time>
      </trkpt>
      <trkpt lat="62.63803173909" lon="17.973716871444">
        <ele>63.8</ele>
        <time>2017-12-02T10:19:11Z</time>
      </trkpt>
      <trkpt lat="62.638031403814" lon="17.973766827568">
        <ele>63.8</ele>
        <time>2017-12-02T10:19:12Z</time>
      </trkpt>
      <trkpt lat="62.638030314167" lon="17.973816029321">
        <ele>64</ele>
        <time>2017-12-02T10:19:13Z</time>
      </trkpt>
      <trkpt lat="62.638031655271" lon="17.973862884142">
        <ele>64</ele>
        <time>2017-12-02T10:19:14Z</time>
      </trkpt>
      <trkpt lat="62.638034002203" lon="17.973910409515">
        <ele>63.8</ele>
        <time>2017-12-02T10:19:15Z</time>
      </trkpt>
      <trkpt lat="62.638036935868" lon="17.973958689259">
        <ele>63.8</ele>
        <time>2017-12-02T10:19:16Z</time>
      </trkpt>
      <trkpt lat="62.638040875361" lon="17.974005376442">
        <ele>63.8</ele>
        <time>2017-12-02T10:19:17Z</time>
      </trkpt>
      <trkpt lat="62.638045736863" lon="17.974050973978">
        <ele>63.8</ele>
        <time>2017-12-02T10:19:18Z</time>
      </trkpt>
      <trkpt lat="62.638052274745" lon="17.974095984781">
        <ele>63.8</ele>
        <time>2017-12-02T10:19:19Z</time>
      </trkpt>
      <trkpt lat="62.638058225894" lon="17.974148287837">
        <ele>63.8</ele>
        <time>2017-12-02T10:19:20Z</time>
      </trkpt>
      <trkpt lat="62.638062500663" lon="17.974194807382">
        <ele>64</ele>
        <time>2017-12-02T10:19:21Z</time>
      </trkpt>
      <trkpt lat="62.638068116536" lon="17.974251552845">
        <ele>63.8</ele>
        <time>2017-12-02T10:19:22Z</time>
      </trkpt>
      <trkpt lat="62.638074905875" lon="17.974300922236">
        <ele>64</ele>
        <time>2017-12-02T10:19:23Z</time>
      </trkpt>
      <trkpt lat="62.638079096825" lon="17.97434920198">
        <ele>64</ele>
        <time>2017-12-02T10:19:24Z</time>
      </trkpt>
      <trkpt lat="62.638083958327" lon="17.974400163932">
        <ele>63.8</ele>
        <time>2017-12-02T10:19:25Z</time>
      </trkpt>
      <trkpt lat="62.63808454506" lon="17.974453891911">
        <ele>63.8</ele>
        <time>2017-12-02T10:19:26Z</time>
      </trkpt>
      <trkpt lat="62.638083539232" lon="17.974506194967">
        <ele>63.8</ele>
        <time>2017-12-02T10:19:27Z</time>
      </trkpt>
      <trkpt lat="62.638075408789" lon="17.974564030077">
        <ele>63.8</ele>
        <time>2017-12-02T10:19:28Z</time>
      </trkpt>
      <trkpt lat="62.638065853423" lon="17.974619518255">
        <ele>63.8</ele>
        <time>2017-12-02T10:19:29Z</time>
      </trkpt>
      <trkpt lat="62.638053951125" lon="17.974674922614">
        <ele>63.8</ele>
        <time>2017-12-02T10:19:30Z</time>
      </trkpt>
      <trkpt lat="62.638041965008" lon="17.974730746068">
        <ele>64</ele>
        <time>2017-12-02T10:19:31Z</time>
      </trkpt>
      <trkpt lat="62.638035008031" lon="17.974772907025">
        <ele>64</ele>
        <time>2017-12-02T10:19:32Z</time>
      </trkpt>
      <trkpt lat="62.638034421298" lon="17.974806602263">
        <ele>64</ele>
        <time>2017-12-02T10:19:33Z</time>
      </trkpt>
      <trkpt lat="62.638013215091" lon="17.974848847039">
        <ele>64</ele>
        <time>2017-12-02T10:19:34Z</time>
      </trkpt>
      <trkpt lat="62.637998462947" lon="17.974884553933">
        <ele>64</ele>
        <time>2017-12-02T10:19:35Z</time>
      </trkpt>
      <trkpt lat="62.637981531509" lon="17.974914561135">
        <ele>64</ele>
        <time>2017-12-02T10:19:36Z</time>
      </trkpt>
      <trkpt lat="62.63796719846" lon="17.974943897785">
        <ele>64</ele>
        <time>2017-12-02T10:19:37Z</time>
      </trkpt>
      <trkpt lat="62.637957475456" lon="17.974973569711">
        <ele>64.2</ele>
        <time>2017-12-02T10:19:38Z</time>
      </trkpt>
      <trkpt lat="62.63794121457" lon="17.974994692099">
        <ele>64.2</ele>
        <time>2017-12-02T10:19:39Z</time>
      </trkpt>
      <trkpt lat="62.637928976996" lon="17.975026627138">
        <ele>64.6</ele>
        <time>2017-12-02T10:19:40Z</time>
      </trkpt>
      <trkpt lat="62.637918164345" lon="17.97505663434">
        <ele>64.8</ele>
        <time>2017-12-02T10:19:41Z</time>
      </trkpt>
      <trkpt lat="62.637905759133" lon="17.975086390085">
        <ele>65</ele>
        <time>2017-12-02T10:19:42Z</time>
      </trkpt>
      <trkpt lat="62.637892934826" lon="17.975115642916">
        <ele>65.2</ele>
        <time>2017-12-02T10:19:43Z</time>
      </trkpt>
      <trkpt lat="62.637879942881" lon="17.975137771132">
        <ele>65.2</ele>
        <time>2017-12-02T10:19:44Z</time>
      </trkpt>
      <trkpt lat="62.637867202393" lon="17.975165096126">
        <ele>65.4</ele>
        <time>2017-12-02T10:19:45Z</time>
      </trkpt>
      <trkpt lat="62.637853120801" lon="17.97519242112">
        <ele>65.4</ele>
        <time>2017-12-02T10:19:46Z</time>
      </trkpt>
      <trkpt lat="62.637841637598" lon="17.975218321191">
        <ele>65.4</ele>
        <time>2017-12-02T10:19:47Z</time>
      </trkpt>
      <trkpt lat="62.637827556006" lon="17.975245143271">
        <ele>65.6</ele>
        <time>2017-12-02T10:19:48Z</time>
      </trkpt>
      <trkpt lat="62.637810289292" lon="17.975275066654">
        <ele>65.6</ele>
        <time>2017-12-02T10:19:49Z</time>
      </trkpt>
      <trkpt lat="62.637795453329" lon="17.975301972553">
        <ele>65.8</ele>
        <time>2017-12-02T10:19:50Z</time>
      </trkpt>
      <trkpt lat="62.637782209927" lon="17.975325022778">
        <ele>65.8</ele>
        <time>2017-12-02T10:19:51Z</time>
      </trkpt>
      <trkpt lat="62.637768212154" lon="17.97535251541">
        <ele>66</ele>
        <time>2017-12-02T10:19:52Z</time>
      </trkpt>
      <trkpt lat="62.637755471666" lon="17.975372967246">
        <ele>66</ele>
        <time>2017-12-02T10:19:53Z</time>
      </trkpt>
      <trkpt lat="62.63774507811" lon="17.975392245616">
        <ele>66</ele>
        <time>2017-12-02T10:19:54Z</time>
      </trkpt>
      <trkpt lat="62.637730409785" lon="17.975416469307">
        <ele>66.2</ele>
        <time>2017-12-02T10:19:55Z</time>
      </trkpt>
      <trkpt lat="62.637716076736" lon="17.975429461252">
        <ele>66.2</ele>
        <time>2017-12-02T10:19:56Z</time>
      </trkpt>
      <trkpt lat="62.637704761171" lon="17.975443961939">
        <ele>66.4</ele>
        <time>2017-12-02T10:19:57Z</time>
      </trkpt>
      <trkpt lat="62.637692104502" lon="17.975459384635">
        <ele>66.6</ele>
        <time>2017-12-02T10:19:58Z</time>
      </trkpt>
      <trkpt lat="62.637678190548" lon="17.975467263621">
        <ele>66.8</ele>
        <time>2017-12-02T10:19:59Z</time>
      </trkpt>
      <trkpt lat="62.637664863327" lon="17.975483021593">
        <ele>66.8</ele>
        <time>2017-12-02T10:20:00Z</time>
      </trkpt>
      <trkpt lat="62.637647931889" lon="17.975492409321">
        <ele>67.2</ele>
        <time>2017-12-02T10:20:01Z</time>
      </trkpt>
      <trkpt lat="62.637632425374" lon="17.975508837845">
        <ele>67.4</ele>
        <time>2017-12-02T10:20:02Z</time>
      </trkpt>
      <trkpt lat="62.637618092325" lon="17.975518560849">
        <ele>67.4</ele>
        <time>2017-12-02T10:20:03Z</time>
      </trkpt>
      <trkpt lat="62.63760258581" lon="17.975530295509">
        <ele>67.6</ele>
        <time>2017-12-02T10:20:04Z</time>
      </trkpt>
      <trkpt lat="62.637584564725" lon="17.975544377101">
        <ele>67.8</ele>
        <time>2017-12-02T10:20:05Z</time>
      </trkpt>
      <trkpt lat="62.637569142029" lon="17.975554770657">
        <ele>68</ele>
        <time>2017-12-02T10:20:06Z</time>
      </trkpt>
      <trkpt lat="62.637553886971" lon="17.975564074566">
        <ele>68</ele>
        <time>2017-12-02T10:20:07Z</time>
      </trkpt>
      <trkpt lat="62.637537542266" lon="17.975570193353">
        <ele>68.2</ele>
        <time>2017-12-02T10:20:08Z</time>
      </trkpt>
      <trkpt lat="62.637522371027" lon="17.975574719579">
        <ele>68.2</ele>
        <time>2017-12-02T10:20:09Z</time>
      </trkpt>
      <trkpt lat="62.637510552548" lon="17.975590309913">
        <ele>68.2</ele>
        <time>2017-12-02T10:20:10Z</time>
      </trkpt>
      <trkpt lat="62.63749697387" lon="17.97560313422">
        <ele>68.2</ele>
        <time>2017-12-02T10:20:11Z</time>
      </trkpt>
      <trkpt lat="62.637480964441" lon="17.975613695414">
        <ele>68.4</ele>
        <time>2017-12-02T10:20:12Z</time>
      </trkpt>
      <trkpt lat="62.637465877021" lon="17.97562576535">
        <ele>68.6</ele>
        <time>2017-12-02T10:20:13Z</time>
      </trkpt>
      <trkpt lat="62.637452801257" lon="17.975635572173">
        <ele>68.6</ele>
        <time>2017-12-02T10:20:14Z</time>
      </trkpt>
      <trkpt lat="62.637437797656" lon="17.975643283521">
        <ele>68.6</ele>
        <time>2017-12-02T10:20:15Z</time>
      </trkpt>
      <trkpt lat="62.637428326109" lon="17.97565174924">
        <ele>68.8</ele>
        <time>2017-12-02T10:20:16Z</time>
      </trkpt>
      <trkpt lat="62.637404689151" lon="17.975668848316">
        <ele>69</ele>
        <time>2017-12-02T10:20:17Z</time>
      </trkpt>
      <trkpt lat="62.637388092989" lon="17.975680499157">
        <ele>69.2</ele>
        <time>2017-12-02T10:20:18Z</time>
      </trkpt>
      <trkpt lat="62.637373257026" lon="17.975699358432">
        <ele>69.2</ele>
        <time>2017-12-02T10:20:19Z</time>
      </trkpt>
      <trkpt lat="62.637356577045" lon="17.975709668169">
        <ele>69.6</ele>
        <time>2017-12-02T10:20:20Z</time>
      </trkpt>
      <trkpt lat="62.637347440774" lon="17.975732634575">
        <ele>69.6</ele>
        <time>2017-12-02T10:20:21Z</time>
      </trkpt>
      <trkpt lat="62.637330928431" lon="17.975749146918">
        <ele>69.8</ele>
        <time>2017-12-02T10:20:22Z</time>
      </trkpt>
      <trkpt lat="62.637319529047" lon="17.97576993403">
        <ele>70</ele>
        <time>2017-12-02T10:20:23Z</time>
      </trkpt>
      <trkpt lat="62.637305615093" lon="17.975785356726">
        <ele>70.2</ele>
        <time>2017-12-02T10:20:24Z</time>
      </trkpt>
      <trkpt lat="62.637293964252" lon="17.975807987856">
        <ele>70.2</ele>
        <time>2017-12-02T10:20:25Z</time>
      </trkpt>
      <trkpt lat="62.637282229592" lon="17.97582106362">
        <ele>70.4</ele>
        <time>2017-12-02T10:20:26Z</time>
      </trkpt>
      <trkpt lat="62.637270411113" lon="17.975829529339">
        <ele>70.4</ele>
        <time>2017-12-02T10:20:27Z</time>
      </trkpt>
      <trkpt lat="62.637260855747" lon="17.975855597048">
        <ele>70.4</ele>
        <time>2017-12-02T10:20:28Z</time>
      </trkpt>
      <trkpt lat="62.637249540182" lon="17.975875126875">
        <ele>70.4</ele>
        <time>2017-12-02T10:20:29Z</time>
      </trkpt>
      <trkpt lat="62.637241242101" lon="17.975901948955">
        <ele>70.6</ele>
        <time>2017-12-02T10:20:30Z</time>
      </trkpt>
      <trkpt lat="62.637230932364" lon="17.975927262293">
        <ele>70.6</ele>
        <time>2017-12-02T10:20:31Z</time>
      </trkpt>
      <trkpt lat="62.637224478301" lon="17.975956347486">
        <ele>70.8</ele>
        <time>2017-12-02T10:20:32Z</time>
      </trkpt>
      <trkpt lat="62.637223472473" lon="17.975989455991">
        <ele>70.8</ele>
        <time>2017-12-02T10:20:33Z</time>
      </trkpt>
      <trkpt lat="62.63720360737" lon="17.976020888116">
        <ele>71</ele>
        <time>2017-12-02T10:20:34Z</time>
      </trkpt>
      <trkpt lat="62.63719941642" lon="17.976065563643">
        <ele>71.2</ele>
        <time>2017-12-02T10:20:35Z</time>
      </trkpt>
      <trkpt lat="62.637192459443" lon="17.976100851442">
        <ele>71.4</ele>
        <time>2017-12-02T10:20:36Z</time>
      </trkpt>
      <trkpt lat="62.637187095027" lon="17.976136390698">
        <ele>71.8</ele>
        <time>2017-12-02T10:20:37Z</time>
      </trkpt>
      <trkpt lat="62.63717929986" lon="17.976173438696">
        <ele>71.8</ele>
        <time>2017-12-02T10:20:38Z</time>
      </trkpt>
      <trkpt lat="62.637165972639" lon="17.976209480866">
        <ele>72</ele>
        <time>2017-12-02T10:20:39Z</time>
      </trkpt>
      <trkpt lat="62.637168906304" lon="17.976247534692">
        <ele>72.2</ele>
        <time>2017-12-02T10:20:40Z</time>
      </trkpt>
      <trkpt lat="62.637161446413" lon="17.976284666509">
        <ele>72.4</ele>
        <time>2017-12-02T10:20:41Z</time>
      </trkpt>
      <trkpt lat="62.637154237979" lon="17.976320876317">
        <ele>72.4</ele>
        <time>2017-12-02T10:20:42Z</time>
      </trkpt>
      <trkpt lat="62.637146778088" lon="17.976358846324">
        <ele>72.4</ele>
        <time>2017-12-02T10:20:43Z</time>
      </trkpt>
      <trkpt lat="62.637140826939" lon="17.976396648693">
        <ele>72.4</ele>
        <time>2017-12-02T10:20:44Z</time>
      </trkpt>
      <trkpt lat="62.637137474179" lon="17.976430595388">
        <ele>72.6</ele>
        <time>2017-12-02T10:20:45Z</time>
      </trkpt>
      <trkpt lat="62.637124230777" lon="17.976469906499">
        <ele>72.6</ele>
        <time>2017-12-02T10:20:46Z</time>
      </trkpt>
      <trkpt lat="62.637120375103" lon="17.9765016739">
        <ele>72.6</ele>
        <time>2017-12-02T10:20:47Z</time>
      </trkpt>
      <trkpt lat="62.637119201637" lon="17.976533944215">
        <ele>72.8</ele>
        <time>2017-12-02T10:20:48Z</time>
      </trkpt>
      <trkpt lat="62.637111238832" lon="17.976584319434">
        <ele>73</ele>
        <time>2017-12-02T10:20:49Z</time>
      </trkpt>
      <trkpt lat="62.637110400642" lon="17.976618769043">
        <ele>73</ele>
        <time>2017-12-02T10:20:50Z</time>
      </trkpt>
      <trkpt lat="62.637106796425" lon="17.976659505077">
        <ele>73</ele>
        <time>2017-12-02T10:20:51Z</time>
      </trkpt>
      <trkpt lat="62.637103946579" lon="17.97670367769">
        <ele>73</ele>
        <time>2017-12-02T10:20:52Z</time>
      </trkpt>
      <trkpt lat="62.637103276027" lon="17.976747515027">
        <ele>73.2</ele>
        <time>2017-12-02T10:20:53Z</time>
      </trkpt>
      <trkpt lat="62.637104868588" lon="17.976793028744">
        <ele>73.2</ele>
        <time>2017-12-02T10:20:54Z</time>
      </trkpt>
      <trkpt lat="62.63710386276" lon="17.976836866081">
        <ele>73.2</ele>
        <time>2017-12-02T10:20:55Z</time>
      </trkpt>
      <trkpt lat="62.637103108389" lon="17.97688388854">
        <ele>73.2</ele>
        <time>2017-12-02T10:20:56Z</time>
      </trkpt>
      <trkpt lat="62.637099504172" lon="17.976933090293">
        <ele>73.2</ele>
        <time>2017-12-02T10:20:57Z</time>
      </trkpt>
      <trkpt lat="62.637105455321" lon="17.9769794422">
        <ele>73.4</ele>
        <time>2017-12-02T10:20:58Z</time>
      </trkpt>
      <trkpt lat="62.637105203864" lon="17.977034176007">
        <ele>73.4</ele>
        <time>2017-12-02T10:20:59Z</time>
      </trkpt>
      <trkpt lat="62.637108724262" lon="17.977084970321">
        <ele>73.2</ele>
        <time>2017-12-02T10:21:00Z</time>
      </trkpt>
      <trkpt lat="62.637112663755" lon="17.977138530662">
        <ele>73.2</ele>
        <time>2017-12-02T10:21:01Z</time>
      </trkpt>
      <trkpt lat="62.637112831393" lon="17.97718815151">
        <ele>73.4</ele>
        <time>2017-12-02T10:21:02Z</time>
      </trkpt>
      <trkpt lat="62.637111825565" lon="17.977236179797">
        <ele>73.2</ele>
        <time>2017-12-02T10:21:03Z</time>
      </trkpt>
      <trkpt lat="62.637107634615" lon="17.977283202256">
        <ele>73.2</ele>
        <time>2017-12-02T10:21:04Z</time>
      </trkpt>
      <trkpt lat="62.63710218638" lon="17.977335170036">
        <ele>73.2</ele>
        <time>2017-12-02T10:21:05Z</time>
      </trkpt>
      <trkpt lat="62.63709715724" lon="17.977379342649">
        <ele>73.2</ele>
        <time>2017-12-02T10:21:06Z</time>
      </trkpt>
      <trkpt lat="62.637088691521" lon="17.977426029832">
        <ele>73.2</ele>
        <time>2017-12-02T10:21:07Z</time>
      </trkpt>
      <trkpt lat="62.637076873042" lon="17.977471124454">
        <ele>73.2</ele>
        <time>2017-12-02T10:21:08Z</time>
      </trkpt>
      <trkpt lat="62.637067988228" lon="17.977511776669">
        <ele>73.2</ele>
        <time>2017-12-02T10:21:09Z</time>
      </trkpt>
      <trkpt lat="62.637056253568" lon="17.977551003961">
        <ele>73.2</ele>
        <time>2017-12-02T10:21:10Z</time>
      </trkpt>
      <trkpt lat="62.637041082329" lon="17.977594086927">
        <ele>73.2</ele>
        <time>2017-12-02T10:21:11Z</time>
      </trkpt>
      <trkpt lat="62.637030604954" lon="17.977639516825">
        <ele>73.4</ele>
        <time>2017-12-02T10:21:12Z</time>
      </trkpt>
      <trkpt lat="62.637019876122" lon="17.977681677782">
        <ele>73.2</ele>
        <time>2017-12-02T10:21:13Z</time>
      </trkpt>
      <trkpt lat="62.637010153118" lon="17.977719899246">
        <ele>73.4</ele>
        <time>2017-12-02T10:21:14Z</time>
      </trkpt>
      <trkpt lat="62.637003699055" lon="17.977763485126">
        <ele>73.4</ele>
        <time>2017-12-02T10:21:15Z</time>
      </trkpt>
      <trkpt lat="62.636995903888" lon="17.977800616943">
        <ele>73.6</ele>
        <time>2017-12-02T10:21:16Z</time>
      </trkpt>
      <trkpt lat="62.636990874748" lon="17.977840179511">
        <ele>73.6</ele>
        <time>2017-12-02T10:21:17Z</time>
      </trkpt>
      <trkpt lat="62.63699070711" lon="17.977872785102">
        <ele>73.6</ele>
        <time>2017-12-02T10:21:18Z</time>
      </trkpt>
      <trkpt lat="62.636985510332" lon="17.977930452574">
        <ele>73.6</ele>
        <time>2017-12-02T10:21:19Z</time>
      </trkpt>
      <trkpt lat="62.636983414857" lon="17.977971523884">
        <ele>73.8</ele>
        <time>2017-12-02T10:21:20Z</time>
      </trkpt>
      <trkpt lat="62.636977044613" lon="17.978015612678">
        <ele>73.8</ele>
        <time>2017-12-02T10:21:21Z</time>
      </trkpt>
      <trkpt lat="62.63696975236" lon="17.978059198558">
        <ele>73.8</ele>
        <time>2017-12-02T10:21:22Z</time>
      </trkpt>
      <trkpt lat="62.636964304125" lon="17.978097503841">
        <ele>73.8</ele>
        <time>2017-12-02T10:21:23Z</time>
      </trkpt>
      <trkpt lat="62.636962124831" lon="17.978132037269">
        <ele>73.8</ele>
        <time>2017-12-02T10:21:24Z</time>
      </trkpt>
      <trkpt lat="62.6369496358" lon="17.978172438027">
        <ele>73.8</ele>
        <time>2017-12-02T10:21:25Z</time>
      </trkpt>
      <trkpt lat="62.636941170081" lon="17.978206971455">
        <ele>73.8</ele>
        <time>2017-12-02T10:21:26Z</time>
      </trkpt>
      <trkpt lat="62.63693371019" lon="17.978238990313">
        <ele>74</ele>
        <time>2017-12-02T10:21:27Z</time>
      </trkpt>
      <trkpt lat="62.63692784286" lon="17.978280229261">
        <ele>74</ele>
        <time>2017-12-02T10:21:28Z</time>
      </trkpt>
      <trkpt lat="62.636923232815" lon="17.978315684698">
        <ele>74</ele>
        <time>2017-12-02T10:21:29Z</time>
      </trkpt>
      <trkpt lat="62.636913006897" lon="17.978356672189">
        <ele>74</ele>
        <time>2017-12-02T10:21:30Z</time>
      </trkpt>
      <trkpt lat="62.636905295549" lon="17.978393887825">
        <ele>74</ele>
        <time>2017-12-02T10:21:31Z</time>
      </trkpt>
      <trkpt lat="62.636897332744" lon="17.978432612203">
        <ele>74</ele>
        <time>2017-12-02T10:21:32Z</time>
      </trkpt>
      <trkpt lat="62.636893393251" lon="17.978469073468">
        <ele>74</ele>
        <time>2017-12-02T10:21:33Z</time>
      </trkpt>
      <trkpt lat="62.636878976383" lon="17.978514838642">
        <ele>74</ele>
        <time>2017-12-02T10:21:34Z</time>
      </trkpt>
      <trkpt lat="62.636872103225" lon="17.978552641011">
        <ele>74</ele>
        <time>2017-12-02T10:21:35Z</time>
      </trkpt>
      <trkpt lat="62.636863637506" lon="17.978583234946">
        <ele>74</ele>
        <time>2017-12-02T10:21:36Z</time>
      </trkpt>
      <trkpt lat="62.636850645561" lon="17.978608296827">
        <ele>74.2</ele>
        <time>2017-12-02T10:21:37Z</time>
      </trkpt>
      <trkpt lat="62.636835558141" lon="17.978631263233">
        <ele>74.2</ele>
        <time>2017-12-02T10:21:38Z</time>
      </trkpt>
      <trkpt lat="62.636824410214" lon="17.978652720897">
        <ele>74.2</ele>
        <time>2017-12-02T10:21:39Z</time>
      </trkpt>
      <trkpt lat="62.636801695265" lon="17.978670406706">
        <ele>74.4</ele>
        <time>2017-12-02T10:21:40Z</time>
      </trkpt>
      <trkpt lat="62.636786859302" lon="17.978686583773">
        <ele>74.4</ele>
        <time>2017-12-02T10:21:41Z</time>
      </trkpt>
      <trkpt lat="62.636773783538" lon="17.978707538523">
        <ele>74.2</ele>
        <time>2017-12-02T10:21:42Z</time>
      </trkpt>
      <trkpt lat="62.636758779937" lon="17.978725894884">
        <ele>74.4</ele>
        <time>2017-12-02T10:21:43Z</time>
      </trkpt>
      <trkpt lat="62.636745452716" lon="17.978739138286">
        <ele>74.4</ele>
        <time>2017-12-02T10:21:44Z</time>
      </trkpt>
      <trkpt lat="62.636725587613" lon="17.978751711136">
        <ele>74.4</ele>
        <time>2017-12-02T10:21:45Z</time>
      </trkpt>
      <trkpt lat="62.636707147433" lon="17.978755818267">
        <ele>74.6</ele>
        <time>2017-12-02T10:21:46Z</time>
      </trkpt>
      <trkpt lat="62.636689964538" lon="17.97875975776">
        <ele>74.6</ele>
        <time>2017-12-02T10:21:47Z</time>
      </trkpt>
      <trkpt lat="62.636676888774" lon="17.978766547099">
        <ele>74.8</ele>
        <time>2017-12-02T10:21:48Z</time>
      </trkpt>
      <trkpt lat="62.636659789698" lon="17.97876059595">
        <ele>74.8</ele>
        <time>2017-12-02T10:21:49Z</time>
      </trkpt>
      <trkpt lat="62.636635817464" lon="17.978765876547">
        <ele>74.8</ele>
        <time>2017-12-02T10:21:50Z</time>
      </trkpt>
      <trkpt lat="62.636618383112" lon="17.978767050013">
        <ele>74.8</ele>
        <time>2017-12-02T10:21:51Z</time>
      </trkpt>
      <trkpt lat="62.636600026751" lon="17.97877065423">
        <ele>75</ele>
        <time>2017-12-02T10:21:52Z</time>
      </trkpt>
      <trkpt lat="62.636581502752" lon="17.978773252619">
        <ele>75</ele>
        <time>2017-12-02T10:21:53Z</time>
      </trkpt>
      <trkpt lat="62.636564738952" lon="17.97876981604">
        <ele>75.2</ele>
        <time>2017-12-02T10:21:54Z</time>
      </trkpt>
      <trkpt lat="62.636544370935" lon="17.978778030302">
        <ele>75.2</ele>
        <time>2017-12-02T10:21:55Z</time>
      </trkpt>
      <trkpt lat="62.636525008746" lon="17.978775180456">
        <ele>75.4</ele>
        <time>2017-12-02T10:21:56Z</time>
      </trkpt>
      <trkpt lat="62.636508328765" lon="17.978773587895">
        <ele>75.4</ele>
        <time>2017-12-02T10:21:57Z</time>
      </trkpt>
      <trkpt lat="62.636490223861" lon="17.978775599551">
        <ele>75.6</ele>
        <time>2017-12-02T10:21:58Z</time>
      </trkpt>
      <trkpt lat="62.636471951319" lon="17.9787731688">
        <ele>75.6</ele>
        <time>2017-12-02T10:21:59Z</time>
      </trkpt>
      <trkpt lat="62.636453762596" lon="17.978775180456">
        <ele>75.8</ele>
        <time>2017-12-02T10:22:00Z</time>
      </trkpt>
      <trkpt lat="62.636438507538" lon="17.978775348094">
        <ele>76</ele>
        <time>2017-12-02T10:22:01Z</time>
      </trkpt>
      <trkpt lat="62.63642409067" lon="17.97877735975">
        <ele>76.2</ele>
        <time>2017-12-02T10:22:02Z</time>
      </trkpt>
      <trkpt lat="62.636411936915" lon="17.97878741803">
        <ele>76.2</ele>
        <time>2017-12-02T10:22:03Z</time>
      </trkpt>
      <trkpt lat="62.636396765676" lon="17.978779455225">
        <ele>76.4</ele>
        <time>2017-12-02T10:22:04Z</time>
      </trkpt>
      <trkpt lat="62.636382684084" lon="17.978783059442">
        <ele>76.4</ele>
        <time>2017-12-02T10:22:05Z</time>
      </trkpt>
      <trkpt lat="62.636368937768" lon="17.978790267876">
        <ele>76.6</ele>
        <time>2017-12-02T10:22:06Z</time>
      </trkpt>
      <trkpt lat="62.636353515072" lon="17.978793033903">
        <ele>76.8</ele>
        <time>2017-12-02T10:22:07Z</time>
      </trkpt>
      <trkpt lat="62.636342367145" lon="17.978802002536">
        <ele>77</ele>
        <time>2017-12-02T10:22:08Z</time>
      </trkpt>
      <trkpt lat="62.636335493987" lon="17.978814826843">
        <ele>77</ele>
        <time>2017-12-02T10:22:09Z</time>
      </trkpt>
      <trkpt lat="62.636319065463" lon="17.978819855983">
        <ele>77.4</ele>
        <time>2017-12-02T10:22:10Z</time>
      </trkpt>
      <trkpt lat="62.636307079346" lon="17.978835530136">
        <ele>77.4</ele>
        <time>2017-12-02T10:22:11Z</time>
      </trkpt>
      <trkpt lat="62.636292913935" lon="17.978848102986">
        <ele>77.6</ele>
        <time>2017-12-02T10:22:12Z</time>
      </trkpt>
      <trkpt lat="62.636279754352" lon="17.978865704976">
        <ele>77.6</ele>
        <time>2017-12-02T10:22:13Z</time>
      </trkpt>
      <trkpt lat="62.63626818733" lon="17.978888168468">
        <ele>77.8</ele>
        <time>2017-12-02T10:22:14Z</time>
      </trkpt>
      <trkpt lat="62.636250250064" lon="17.978904010259">
        <ele>78</ele>
        <time>2017-12-02T10:22:15Z</time>
      </trkpt>
      <trkpt lat="62.636241029974" lon="17.978924378276">
        <ele>78</ele>
        <time>2017-12-02T10:22:16Z</time>
      </trkpt>
      <trkpt lat="62.636230217323" lon="17.978942231723">
        <ele>78.2</ele>
        <time>2017-12-02T10:22:17Z</time>
      </trkpt>
      <trkpt lat="62.636219237034" lon="17.978956564772">
        <ele>78.4</ele>
        <time>2017-12-02T10:22:18Z</time>
      </trkpt>
      <trkpt lat="62.636217728292" lon="17.978971903649">
        <ele>78.4</ele>
        <time>2017-12-02T10:22:19Z</time>
      </trkpt>
      <trkpt lat="62.636202473234" lon="17.978987493983">
        <ele>78.8</ele>
        <time>2017-12-02T10:22:20Z</time>
      </trkpt>
      <trkpt lat="62.636196186809" lon="17.979001575575">
        <ele>79.2</ele>
        <time>2017-12-02T10:22:21Z</time>
      </trkpt>
      <trkpt lat="62.636189481289" lon="17.979019931936">
        <ele>79.4</ele>
        <time>2017-12-02T10:22:22Z</time>
      </trkpt>
      <trkpt lat="62.636180009742" lon="17.979035438451">
        <ele>79.6</ele>
        <time>2017-12-02T10:22:23Z</time>
      </trkpt>
      <trkpt lat="62.636170622014" lon="17.979048598034">
        <ele>79.8</ele>
        <time>2017-12-02T10:22:24Z</time>
      </trkpt>
      <trkpt lat="62.636164335589" lon="17.979073073182">
        <ele>80.2</ele>
        <time>2017-12-02T10:22:25Z</time>
      </trkpt>
      <trkpt lat="62.636153942033" lon="17.979092351552">
        <ele>80.4</ele>
        <time>2017-12-02T10:22:26Z</time>
      </trkpt>
      <trkpt lat="62.636147404151" lon="17.979110456456">
        <ele>80.6</ele>
        <time>2017-12-02T10:22:27Z</time>
      </trkpt>
      <trkpt lat="62.63613826788" lon="17.979130070102">
        <ele>81</ele>
        <time>2017-12-02T10:22:28Z</time>
      </trkpt>
      <trkpt lat="62.636127119953" lon="17.979149767567">
        <ele>81</ele>
        <time>2017-12-02T10:22:29Z</time>
      </trkpt>
      <trkpt lat="62.63612066589" lon="17.979183295167">
        <ele>81.2</ele>
        <time>2017-12-02T10:22:30Z</time>
      </trkpt>
      <trkpt lat="62.636111529619" lon="17.979210955437">
        <ele>81.4</ele>
        <time>2017-12-02T10:22:31Z</time>
      </trkpt>
      <trkpt lat="62.63610390209" lon="17.979241633191">
        <ele>81.4</ele>
        <time>2017-12-02T10:22:32Z</time>
      </trkpt>
      <trkpt lat="62.636100381692" lon="17.979273819687">
        <ele>81.4</ele>
        <time>2017-12-02T10:22:33Z</time>
      </trkpt>
      <trkpt lat="62.63609049105" lon="17.979310029495">
        <ele>81.6</ele>
        <time>2017-12-02T10:22:34Z</time>
      </trkpt>
      <trkpt lat="62.636081857693" lon="17.979345317294">
        <ele>81.8</ele>
        <time>2017-12-02T10:22:35Z</time>
      </trkpt>
      <trkpt lat="62.636073978707" lon="17.979378258161">
        <ele>81.8</ele>
        <time>2017-12-02T10:22:36Z</time>
      </trkpt>
      <trkpt lat="62.636065764445" lon="17.979409690286">
        <ele>82</ele>
        <time>2017-12-02T10:22:37Z</time>
      </trkpt>
      <trkpt lat="62.636058807468" lon="17.979445900094">
        <ele>82</ele>
        <time>2017-12-02T10:22:38Z</time>
      </trkpt>
      <trkpt lat="62.636052604862" lon="17.979486384671">
        <ele>82.2</ele>
        <time>2017-12-02T10:22:39Z</time>
      </trkpt>
      <trkpt lat="62.636046486075" lon="17.97955352369">
        <ele>82.2</ele>
        <time>2017-12-02T10:22:40Z</time>
      </trkpt>
      <trkpt lat="62.636040451107" lon="17.979623428736">
        <ele>82.2</ele>
        <time>2017-12-02T10:22:41Z</time>
      </trkpt>
      <trkpt lat="62.636035338148" lon="17.979713366523">
        <ele>81.8</ele>
        <time>2017-12-02T10:22:42Z</time>
      </trkpt>
      <trkpt lat="62.636030476646" lon="17.979828533829">
        <ele>81.4</ele>
        <time>2017-12-02T10:22:43Z</time>
      </trkpt>
      <trkpt lat="62.636025531325" lon="17.979948143542">
        <ele>80.8</ele>
        <time>2017-12-02T10:22:44Z</time>
      </trkpt>
      <trkpt lat="62.636033997044" lon="17.980063897581">
        <ele>79.6</ele>
        <time>2017-12-02T10:22:45Z</time>
      </trkpt>
      <trkpt lat="62.636039193822" lon="17.980184261665">
        <ele>78.6</ele>
        <time>2017-12-02T10:22:46Z</time>
      </trkpt>
      <trkpt lat="62.636048833007" lon="17.980299764247">
        <ele>78</ele>
        <time>2017-12-02T10:22:47Z</time>
      </trkpt>
      <trkpt lat="62.636059645658" lon="17.980403532169">
        <ele>77.4</ele>
        <time>2017-12-02T10:22:48Z</time>
      </trkpt>
      <trkpt lat="62.636071380318" lon="17.980509479385">
        <ele>76.8</ele>
        <time>2017-12-02T10:22:49Z</time>
      </trkpt>
      <trkpt lat="62.636085042815" lon="17.980611906203">
        <ele>76.4</ele>
        <time>2017-12-02T10:22:50Z</time>
      </trkpt>
      <trkpt lat="62.636097112751" lon="17.980702933637">
        <ele>76.2</ele>
        <time>2017-12-02T10:22:51Z</time>
      </trkpt>
      <trkpt lat="62.636111278162" lon="17.98078901575">
        <ele>76</ele>
        <time>2017-12-02T10:22:52Z</time>
      </trkpt>
      <trkpt lat="62.636125359754" lon="17.980881719564">
        <ele>75.8</ele>
        <time>2017-12-02T10:22:53Z</time>
      </trkpt>
      <trkpt lat="62.63613742969" lon="17.980958581587">
        <ele>75.8</ele>
        <time>2017-12-02T10:22:54Z</time>
      </trkpt>
      <trkpt lat="62.636153942033" lon="17.981056649817">
        <ele>75.6</ele>
        <time>2017-12-02T10:22:55Z</time>
      </trkpt>
      <trkpt lat="62.636166598702" lon="17.981140636455">
        <ele>75.6</ele>
        <time>2017-12-02T10:22:56Z</time>
      </trkpt>
      <trkpt lat="62.636178081905" lon="17.981224623093">
        <ele>75.4</ele>
        <time>2017-12-02T10:22:57Z</time>
      </trkpt>
      <trkpt lat="62.636188643099" lon="17.981304586419">
        <ele>75.4</ele>
        <time>2017-12-02T10:22:58Z</time>
      </trkpt>
      <trkpt lat="62.636202557053" lon="17.981364181728">
        <ele>75.2</ele>
        <time>2017-12-02T10:22:59Z</time>
      </trkpt>
      <trkpt lat="62.636214459351" lon="17.981430566376">
        <ele>75</ele>
        <time>2017-12-02T10:23:00Z</time>
      </trkpt>
      <trkpt lat="62.636230049685" lon="17.981489994047">
        <ele>75</ele>
        <time>2017-12-02T10:23:01Z</time>
      </trkpt>
      <trkpt lat="62.63624220344" lon="17.981565347328">
        <ele>75</ele>
        <time>2017-12-02T10:23:02Z</time>
      </trkpt>
      <trkpt lat="62.636247819313" lon="17.981626032284">
        <ele>75</ele>
        <time>2017-12-02T10:23:03Z</time>
      </trkpt>
      <trkpt lat="62.636254608652" lon="17.981696188787">
        <ele>75.2</ele>
        <time>2017-12-02T10:23:04Z</time>
      </trkpt>
      <trkpt lat="62.636267600597" lon="17.981775481561">
        <ele>75.4</ele>
        <time>2017-12-02T10:23:05Z</time>
      </trkpt>
      <trkpt lat="62.63628411294" lon="17.981846392435">
        <ele>75.6</ele>
        <time>2017-12-02T10:23:06Z</time>
      </trkpt>
      <trkpt lat="62.636297272523" lon="17.981918476775">
        <ele>75.6</ele>
        <time>2017-12-02T10:23:07Z</time>
      </trkpt>
      <trkpt lat="62.636308839545" lon="17.981985867251">
        <ele>75.6</ele>
        <time>2017-12-02T10:23:08Z</time>
      </trkpt>
      <trkpt lat="62.636314539237" lon="17.982051246071">
        <ele>75.6</ele>
        <time>2017-12-02T10:23:09Z</time>
      </trkpt>
      <trkpt lat="62.636319400739" lon="17.982126180257">
        <ele>75.4</ele>
        <time>2017-12-02T10:23:10Z</time>
      </trkpt>
      <trkpt lat="62.636321244757" lon="17.982192984">
        <ele>75.4</ele>
        <time>2017-12-02T10:23:11Z</time>
      </trkpt>
      <trkpt lat="62.636321412395" lon="17.982255345336">
        <ele>75.4</ele>
        <time>2017-12-02T10:23:12Z</time>
      </trkpt>
      <trkpt lat="62.636323340232" lon="17.982314102455">
        <ele>75.4</ele>
        <time>2017-12-02T10:23:13Z</time>
      </trkpt>
      <trkpt lat="62.636321160938" lon="17.982372021384">
        <ele>75.4</ele>
        <time>2017-12-02T10:23:14Z</time>
      </trkpt>
      <trkpt lat="62.636318814006" lon="17.982437903118">
        <ele>75.4</ele>
        <time>2017-12-02T10:23:15Z</time>
      </trkpt>
      <trkpt lat="62.636317472902" lon="17.982501018825">
        <ele>75.4</ele>
        <time>2017-12-02T10:23:16Z</time>
      </trkpt>
      <trkpt lat="62.636317137626" lon="17.982558099564">
        <ele>75.4</ele>
        <time>2017-12-02T10:23:17Z</time>
      </trkpt>
      <trkpt lat="62.636320825662" lon="17.982599841426">
        <ele>75.4</ele>
        <time>2017-12-02T10:23:18Z</time>
      </trkpt>
      <trkpt lat="62.636307917536" lon="17.982677541639">
        <ele>75.4</ele>
        <time>2017-12-02T10:23:19Z</time>
      </trkpt>
      <trkpt lat="62.636307330803" lon="17.982737220767">
        <ele>75.4</ele>
        <time>2017-12-02T10:23:20Z</time>
      </trkpt>
      <trkpt lat="62.636304900052" lon="17.982795223515">
        <ele>75.4</ele>
        <time>2017-12-02T10:23:21Z</time>
      </trkpt>
      <trkpt lat="62.636304397138" lon="17.982845850191">
        <ele>75.4</ele>
        <time>2017-12-02T10:23:22Z</time>
      </trkpt>
      <trkpt lat="62.636304397138" lon="17.982900081084">
        <ele>75.6</ele>
        <time>2017-12-02T10:23:23Z</time>
      </trkpt>
      <trkpt lat="62.636302804577" lon="17.982956323633">
        <ele>75.4</ele>
        <time>2017-12-02T10:23:24Z</time>
      </trkpt>
      <trkpt lat="62.636306911708" lon="17.983007956137">
        <ele>75.6</ele>
        <time>2017-12-02T10:23:25Z</time>
      </trkpt>
      <trkpt lat="62.636307079346" lon="17.983059840098">
        <ele>75.6</ele>
        <time>2017-12-02T10:23:26Z</time>
      </trkpt>
      <trkpt lat="62.636310767382" lon="17.983116753199">
        <ele>75.8</ele>
        <time>2017-12-02T10:23:27Z</time>
      </trkpt>
      <trkpt lat="62.636316550893" lon="17.983175091223">
        <ele>75.8</ele>
        <time>2017-12-02T10:23:28Z</time>
      </trkpt>
      <trkpt lat="62.636322334404" lon="17.983202332398">
        <ele>75.8</ele>
        <time>2017-12-02T10:23:29Z</time>
      </trkpt>
      <trkpt lat="62.636321412395" lon="17.983286989588">
        <ele>75.8</ele>
        <time>2017-12-02T10:23:30Z</time>
      </trkpt>
      <trkpt lat="62.636320071291" lon="17.983340130834">
        <ele>76</ele>
        <time>2017-12-02T10:23:31Z</time>
      </trkpt>
      <trkpt lat="62.636313784866" lon="17.98338908113">
        <ele>75.8</ele>
        <time>2017-12-02T10:23:32Z</time>
      </trkpt>
      <trkpt lat="62.636311605572" lon="17.983428559879">
        <ele>75.8</ele>
        <time>2017-12-02T10:23:33Z</time>
      </trkpt>
      <trkpt lat="62.636311605572" lon="17.983462171298">
        <ele>75.8</ele>
        <time>2017-12-02T10:23:34Z</time>
      </trkpt>
      <trkpt lat="62.636298445989" lon="17.983506846825">
        <ele>76</ele>
        <time>2017-12-02T10:23:35Z</time>
      </trkpt>
      <trkpt lat="62.636290147908" lon="17.983548923963">
        <ele>76</ele>
        <time>2017-12-02T10:23:36Z</time>
      </trkpt>
      <trkpt lat="62.636284196759" lon="17.98358773216">
        <ele>76</ele>
        <time>2017-12-02T10:23:37Z</time>
      </trkpt>
      <trkpt lat="62.636278664705" lon="17.983625283072">
        <ele>76.2</ele>
        <time>2017-12-02T10:23:38Z</time>
      </trkpt>
      <trkpt lat="62.636272797375" lon="17.983657804844">
        <ele>76.2</ele>
        <time>2017-12-02T10:23:39Z</time>
      </trkpt>
      <trkpt lat="62.636261314172" lon="17.983706000769">
        <ele>76.2</ele>
        <time>2017-12-02T10:23:40Z</time>
      </trkpt>
      <trkpt lat="62.636255027747" lon="17.983747491174">
        <ele>76.2</ele>
        <time>2017-12-02T10:23:41Z</time>
      </trkpt>
      <trkpt lat="62.636245891476" lon="17.983788227208">
        <ele>76.4</ele>
        <time>2017-12-02T10:23:42Z</time>
      </trkpt>
      <trkpt lat="62.636238180128" lon="17.983825610482">
        <ele>76.4</ele>
        <time>2017-12-02T10:23:43Z</time>
      </trkpt>
      <trkpt lat="62.636233989178" lon="17.983853270752">
        <ele>76.4</ele>
        <time>2017-12-02T10:23:44Z</time>
      </trkpt>
      <trkpt lat="62.636224517631" lon="17.98389702427">
        <ele>76.6</ele>
        <time>2017-12-02T10:23:45Z</time>
      </trkpt>
      <trkpt lat="62.636213872618" lon="17.983949243507">
        <ele>76.8</ele>
        <time>2017-12-02T10:23:46Z</time>
      </trkpt>
      <trkpt lat="62.636209681668" lon="17.983991572102">
        <ele>76.8</ele>
        <time>2017-12-02T10:23:47Z</time>
      </trkpt>
      <trkpt lat="62.636208256745" lon="17.984027865729">
        <ele>77</ele>
        <time>2017-12-02T10:23:48Z</time>
      </trkpt>
      <trkpt lat="62.636219488491" lon="17.98407639693">
        <ele>77</ele>
        <time>2017-12-02T10:23:49Z</time>
      </trkpt>
      <trkpt lat="62.636207921469" lon="17.98414680489">
        <ele>77.2</ele>
        <time>2017-12-02T10:23:50Z</time>
      </trkpt>
      <trkpt lat="62.63620699946" lon="17.984198605032">
        <ele>77.4</ele>
        <time>2017-12-02T10:23:51Z</time>
      </trkpt>
      <trkpt lat="62.636201383587" lon="17.984248477337">
        <ele>77.4</ele>
        <time>2017-12-02T10:23:52Z</time>
      </trkpt>
      <trkpt lat="62.636197444094" lon="17.984297762909">
        <ele>77.6</ele>
        <time>2017-12-02T10:23:53Z</time>
      </trkpt>
      <trkpt lat="62.636199958664" lon="17.984342522255">
        <ele>77.6</ele>
        <time>2017-12-02T10:23:54Z</time>
      </trkpt>
      <trkpt lat="62.6361952648" lon="17.984396501691">
        <ele>77.6</ele>
        <time>2017-12-02T10:23:55Z</time>
      </trkpt>
      <trkpt lat="62.636199791026" lon="17.984439081743">
        <ele>77.6</ele>
        <time>2017-12-02T10:23:56Z</time>
      </trkpt>
      <trkpt lat="62.63620197032" lon="17.984482667623">
        <ele>77.6</ele>
        <time>2017-12-02T10:23:57Z</time>
      </trkpt>
      <trkpt lat="62.636200126302" lon="17.984536982335">
        <ele>77.6</ele>
        <time>2017-12-02T10:23:58Z</time>
      </trkpt>
      <trkpt lat="62.636201467406" lon="17.984590542676">
        <ele>77.6</ele>
        <time>2017-12-02T10:23:59Z</time>
      </trkpt>
      <trkpt lat="62.636192582592" lon="17.984632033081">
        <ele>77.8</ele>
        <time>2017-12-02T10:24:00Z</time>
      </trkpt>
      <trkpt lat="62.636190570936" lon="17.984671930925">
        <ele>77.8</ele>
        <time>2017-12-02T10:24:01Z</time>
      </trkpt>
      <trkpt lat="62.636189816565" lon="17.984710152389">
        <ele>77.8</ele>
        <time>2017-12-02T10:24:02Z</time>
      </trkpt>
      <trkpt lat="62.636188978375" lon="17.984745943102">
        <ele>78</ele>
        <time>2017-12-02T10:24:03Z</time>
      </trkpt>
      <trkpt lat="62.636198198465" lon="17.984779219245">
        <ele>78</ele>
        <time>2017-12-02T10:24:04Z</time>
      </trkpt>
      <trkpt lat="62.636186799081" lon="17.984842167314">
        <ele>78.2</ele>
        <time>2017-12-02T10:24:05Z</time>
      </trkpt>
      <trkpt lat="62.636187218176" lon="17.984886675203">
        <ele>78.4</ele>
        <time>2017-12-02T10:24:06Z</time>
      </trkpt>
      <trkpt lat="62.636184200692" lon="17.98493135073">
        <ele>78.4</ele>
        <time>2017-12-02T10:24:07Z</time>
      </trkpt>
      <trkpt lat="62.63618185376" lon="17.984973679325">
        <ele>78.6</ele>
        <time>2017-12-02T10:24:08Z</time>
      </trkpt>
      <trkpt lat="62.636182356674" lon="17.985009134762">
        <ele>78.6</ele>
        <time>2017-12-02T10:24:09Z</time>
      </trkpt>
      <trkpt lat="62.636176992258" lon="17.98505037371">
        <ele>78.8</ele>
        <time>2017-12-02T10:24:10Z</time>
      </trkpt>
      <trkpt lat="62.636173639498" lon="17.985089014269">
        <ele>78.8</ele>
        <time>2017-12-02T10:24:11Z</time>
      </trkpt>
      <trkpt lat="62.636162826847" lon="17.985139724764">
        <ele>79</ele>
        <time>2017-12-02T10:24:12Z</time>
      </trkpt>
      <trkpt lat="62.636154109671" lon="17.985191524906">
        <ele>79.2</ele>
        <time>2017-12-02T10:24:13Z</time>
      </trkpt>
      <trkpt lat="62.636151343644" lon="17.985231087474">
        <ele>79.2</ele>
        <time>2017-12-02T10:24:14Z</time>
      </trkpt>
      <trkpt lat="62.636149499626" lon="17.985275260087">
        <ele>79.2</ele>
        <time>2017-12-02T10:24:15Z</time>
      </trkpt>
      <trkpt lat="62.636146985056" lon="17.985318259234">
        <ele>79.2</ele>
        <time>2017-12-02T10:24:16Z</time>
      </trkpt>
      <trkpt lat="62.636144554305" lon="17.98536553315">
        <ele>79.4</ele>
        <time>2017-12-02T10:24:17Z</time>
      </trkpt>
      <trkpt lat="62.636139608984" lon="17.985415489274">
        <ele>79.4</ele>
        <time>2017-12-02T10:24:18Z</time>
      </trkpt>
      <trkpt lat="62.63614916435" lon="17.985441137888">
        <ele>79.4</ele>
        <time>2017-12-02T10:24:19Z</time>
      </trkpt>
      <trkpt lat="62.636143464658" lon="17.985493608582">
        <ele>79.4</ele>
        <time>2017-12-02T10:24:20Z</time>
      </trkpt>
      <trkpt lat="62.636140195717" lon="17.985535098987">
        <ele>79.4</ele>
        <time>2017-12-02T10:24:21Z</time>
      </trkpt>
      <trkpt lat="62.636138854613" lon="17.985575751202">
        <ele>79.4</ele>
        <time>2017-12-02T10:24:22Z</time>
      </trkpt>
      <trkpt lat="62.636133406378" lon="17.985616654874">
        <ele>79.4</ele>
        <time>2017-12-02T10:24:23Z</time>
      </trkpt>
      <trkpt lat="62.636124102469" lon="17.985660156935">
        <ele>79.4</ele>
        <time>2017-12-02T10:24:24Z</time>
      </trkpt>
      <trkpt lat="62.636118654234" lon="17.985702569349">
        <ele>79.4</ele>
        <time>2017-12-02T10:24:25Z</time>
      </trkpt>
      <trkpt lat="62.636107422488" lon="17.985739617347">
        <ele>79.4</ele>
        <time>2017-12-02T10:24:26Z</time>
      </trkpt>
      <trkpt lat="62.636098956769" lon="17.985771803843">
        <ele>79.6</ele>
        <time>2017-12-02T10:24:27Z</time>
      </trkpt>
      <trkpt lat="62.636087054471" lon="17.985802146321">
        <ele>79.6</ele>
        <time>2017-12-02T10:24:28Z</time>
      </trkpt>
      <trkpt lat="62.636074146345" lon="17.985830896238">
        <ele>79.6</ele>
        <time>2017-12-02T10:24:29Z</time>
      </trkpt>
      <trkpt lat="62.636053107776" lon="17.985870207349">
        <ele>79.8</ele>
        <time>2017-12-02T10:24:30Z</time>
      </trkpt>
      <trkpt lat="62.636030728103" lon="17.985899795456">
        <ele>79.8</ele>
        <time>2017-12-02T10:24:31Z</time>
      </trkpt>
      <trkpt lat="62.636012204104" lon="17.985928377735">
        <ele>80</ele>
        <time>2017-12-02T10:24:32Z</time>
      </trkpt>
      <trkpt lat="62.636000637082" lon="17.98595813348">
        <ele>80.2</ele>
        <time>2017-12-02T10:24:33Z</time>
      </trkpt>
      <trkpt lat="62.635976748667" lon="17.985966850656">
        <ele>80.2</ele>
        <time>2017-12-02T10:24:34Z</time>
      </trkpt>
      <trkpt lat="62.635958476125" lon="17.985988811234">
        <ele>80.2</ele>
        <time>2017-12-02T10:24:35Z</time>
      </trkpt>
      <trkpt lat="62.635937186099" lon="17.98600088117">
        <ele>80.4</ele>
        <time>2017-12-02T10:24:36Z</time>
      </trkpt>
      <trkpt lat="62.635916734263" lon="17.986013286382">
        <ele>80.6</ele>
        <time>2017-12-02T10:24:37Z</time>
      </trkpt>
      <trkpt lat="62.635897288255" lon="17.986023931395">
        <ele>80.6</ele>
        <time>2017-12-02T10:24:38Z</time>
      </trkpt>
      <trkpt lat="62.635881865559" lon="17.986031810381">
        <ele>80.6</ele>
        <time>2017-12-02T10:24:39Z</time>
      </trkpt>
      <trkpt lat="62.63585663604" lon="17.98606206904">
        <ele>80.6</ele>
        <time>2017-12-02T10:24:40Z</time>
      </trkpt>
      <trkpt lat="62.635838698774" lon="17.986081515048">
        <ele>80.6</ele>
        <time>2017-12-02T10:24:41Z</time>
      </trkpt>
      <trkpt lat="62.635820342413" lon="17.986099452314">
        <ele>80.8</ele>
        <time>2017-12-02T10:24:42Z</time>
      </trkpt>
      <trkpt lat="62.635802321328" lon="17.986118898322">
        <ele>80.6</ele>
        <time>2017-12-02T10:24:43Z</time>
      </trkpt>
      <trkpt lat="62.635789748478" lon="17.986139685434">
        <ele>80.8</ele>
        <time>2017-12-02T10:24:44Z</time>
      </trkpt>
      <trkpt lat="62.635773990506" lon="17.986170027912">
        <ele>80.8</ele>
        <time>2017-12-02T10:24:45Z</time>
      </trkpt>
      <trkpt lat="62.635759322181" lon="17.986196347078">
        <ele>81</ele>
        <time>2017-12-02T10:24:46Z</time>
      </trkpt>
      <trkpt lat="62.635746162598" lon="17.986220738407">
        <ele>81</ele>
        <time>2017-12-02T10:24:47Z</time>
      </trkpt>
      <trkpt lat="62.63573761306" lon="17.986242866623">
        <ele>81</ele>
        <time>2017-12-02T10:24:48Z</time>
      </trkpt>
      <trkpt lat="62.635728812065" lon="17.986275220757">
        <ele>81.2</ele>
        <time>2017-12-02T10:24:49Z</time>
      </trkpt>
      <trkpt lat="62.635719508156" lon="17.98630514414">
        <ele>81.2</ele>
        <time>2017-12-02T10:24:50Z</time>
      </trkpt>
      <trkpt lat="62.635709030781" lon="17.986331044211">
        <ele>81.4</ele>
        <time>2017-12-02T10:24:51Z</time>
      </trkpt>
      <trkpt lat="62.635695871198" lon="17.986359207395">
        <ele>81.6</ele>
        <time>2017-12-02T10:24:52Z</time>
      </trkpt>
      <trkpt lat="62.635683801262" lon="17.986389968968">
        <ele>81.8</ele>
        <time>2017-12-02T10:24:53Z</time>
      </trkpt>
      <trkpt lat="62.635673742982" lon="17.986420059989">
        <ele>82</ele>
        <time>2017-12-02T10:24:54Z</time>
      </trkpt>
      <trkpt lat="62.635656643906" lon="17.986452917037">
        <ele>82</ele>
        <time>2017-12-02T10:24:55Z</time>
      </trkpt>
      <trkpt lat="62.635645076884" lon="17.986487701922">
        <ele>82.2</ele>
        <time>2017-12-02T10:24:56Z</time>
      </trkpt>
      <trkpt lat="62.635634850966" lon="17.986521816255">
        <ele>82.2</ele>
        <time>2017-12-02T10:24:57Z</time>
      </trkpt>
      <trkpt lat="62.635624876505" lon="17.986551907276">
        <ele>82.2</ele>
        <time>2017-12-02T10:24:58Z</time>
      </trkpt>
      <trkpt lat="62.635613812397" lon="17.98658090865">
        <ele>82.2</ele>
        <time>2017-12-02T10:24:59Z</time>
      </trkpt>
      <trkpt lat="62.635603670298" lon="17.9866102453">
        <ele>82.2</ele>
        <time>2017-12-02T10:25:00Z</time>
      </trkpt>
      <trkpt lat="62.635594450208" lon="17.986640168683">
        <ele>82.2</ele>
        <time>2017-12-02T10:25:01Z</time>
      </trkpt>
      <trkpt lat="62.63558506248" lon="17.986666823125">
        <ele>82.2</ele>
        <time>2017-12-02T10:25:02Z</time>
      </trkpt>
      <trkpt lat="62.635573830734" lon="17.986687023504">
        <ele>82.2</ele>
        <time>2017-12-02T10:25:03Z</time>
      </trkpt>
      <trkpt lat="62.635570980888" lon="17.986721389294">
        <ele>82.2</ele>
        <time>2017-12-02T10:25:04Z</time>
      </trkpt>
      <trkpt lat="62.635558994771" lon="17.986754078704">
        <ele>82.4</ele>
        <time>2017-12-02T10:25:05Z</time>
      </trkpt>
      <trkpt lat="62.635550529052" lon="17.986787773942">
        <ele>82.4</ele>
        <time>2017-12-02T10:25:06Z</time>
      </trkpt>
      <trkpt lat="62.635537537107" lon="17.986821217723">
        <ele>82.4</ele>
        <time>2017-12-02T10:25:07Z</time>
      </trkpt>
      <trkpt lat="62.635525718628" lon="17.986854326228">
        <ele>82.6</ele>
        <time>2017-12-02T10:25:08Z</time>
      </trkpt>
      <trkpt lat="62.63551968366" lon="17.986885842172">
        <ele>82.8</ele>
        <time>2017-12-02T10:25:09Z</time>
      </trkpt>
      <trkpt lat="62.635504177145" lon="17.986930685337">
        <ele>83</ele>
        <time>2017-12-02T10:25:10Z</time>
      </trkpt>
      <trkpt lat="62.635490263191" lon="17.986963542385">
        <ele>83</ele>
        <time>2017-12-02T10:25:11Z</time>
      </trkpt>
      <trkpt lat="62.63547777416" lon="17.9869958127">
        <ele>83.2</ele>
        <time>2017-12-02T10:25:12Z</time>
      </trkpt>
      <trkpt lat="62.635464530758" lon="17.987023808246">
        <ele>83.2</ele>
        <time>2017-12-02T10:25:13Z</time>
      </trkpt>
      <trkpt lat="62.635449527157" lon="17.987048115756">
        <ele>83.2</ele>
        <time>2017-12-02T10:25:14Z</time>
      </trkpt>
      <trkpt lat="62.63544257018" lon="17.98707795532">
        <ele>83.2</ele>
        <time>2017-12-02T10:25:15Z</time>
      </trkpt>
      <trkpt lat="62.635426979846" lon="17.987109387445">
        <ele>83.4</ele>
        <time>2017-12-02T10:25:16Z</time>
      </trkpt>
      <trkpt lat="62.635413401168" lon="17.987142412131">
        <ele>83.4</ele>
        <time>2017-12-02T10:25:17Z</time>
      </trkpt>
      <trkpt lat="62.635402672336" lon="17.987173425161">
        <ele>83.6</ele>
        <time>2017-12-02T10:25:18Z</time>
      </trkpt>
      <trkpt lat="62.63538138231" lon="17.987197900309">
        <ele>83.6</ele>
        <time>2017-12-02T10:25:19Z</time>
      </trkpt>
      <trkpt lat="62.635369312374" lon="17.987235786497">
        <ele>83.8</ele>
        <time>2017-12-02T10:25:20Z</time>
      </trkpt>
      <trkpt lat="62.635352800031" lon="17.987263865862">
        <ele>83.8</ele>
        <time>2017-12-02T10:25:21Z</time>
      </trkpt>
      <trkpt lat="62.635337293516" lon="17.98729169377">
        <ele>83.8</ele>
        <time>2017-12-02T10:25:22Z</time>
      </trkpt>
      <trkpt lat="62.635324720666" lon="17.987321114239">
        <ele>84</ele>
        <time>2017-12-02T10:25:23Z</time>
      </trkpt>
      <trkpt lat="62.635317763689" lon="17.987351372898">
        <ele>84</ele>
        <time>2017-12-02T10:25:24Z</time>
      </trkpt>
      <trkpt lat="62.635296557482" lon="17.987376770055">
        <ele>84.2</ele>
        <time>2017-12-02T10:25:25Z</time>
      </trkpt>
      <trkpt lat="62.63528331408" lon="17.987402753945">
        <ele>84.2</ele>
        <time>2017-12-02T10:25:26Z</time>
      </trkpt>
      <trkpt lat="62.635270657411" lon="17.987428905473">
        <ele>84.2</ele>
        <time>2017-12-02T10:25:27Z</time>
      </trkpt>
      <trkpt lat="62.635259509484" lon="17.987456733381">
        <ele>84.2</ele>
        <time>2017-12-02T10:25:28Z</time>
      </trkpt>
      <trkpt lat="62.635253223059" lon="17.987485650936">
        <ele>84.4</ele>
        <time>2017-12-02T10:25:29Z</time>
      </trkpt>
      <trkpt lat="62.635230172834" lon="17.987519346174">
        <ele>84.4</ele>
        <time>2017-12-02T10:25:30Z</time>
      </trkpt>
      <trkpt lat="62.635217264708" lon="17.987550107747">
        <ele>84.6</ele>
        <time>2017-12-02T10:25:31Z</time>
      </trkpt>
      <trkpt lat="62.635202177288" lon="17.987578522388">
        <ele>84.6</ele>
        <time>2017-12-02T10:25:32Z</time>
      </trkpt>
      <trkpt lat="62.635185581126" lon="17.987603248993">
        <ele>84.8</ele>
        <time>2017-12-02T10:25:33Z</time>
      </trkpt>
      <trkpt lat="62.635183904746" lon="17.987625209571">
        <ele>84.8</ele>
        <time>2017-12-02T10:25:34Z</time>
      </trkpt>
      <trkpt lat="62.635158675227" lon="17.987653540393">
        <ele>85</ele>
        <time>2017-12-02T10:25:35Z</time>
      </trkpt>
      <trkpt lat="62.635144761273" lon="17.987676674437">
        <ele>85</ele>
        <time>2017-12-02T10:25:36Z</time>
      </trkpt>
      <trkpt lat="62.635129170939" lon="17.987703161241">
        <ele>85.2</ele>
        <time>2017-12-02T10:25:37Z</time>
      </trkpt>
      <trkpt lat="62.635115759899" lon="17.98772922895">
        <ele>85.4</ele>
        <time>2017-12-02T10:25:38Z</time>
      </trkpt>
      <trkpt lat="62.63510477961" lon="17.987750770433">
        <ele>85.4</ele>
        <time>2017-12-02T10:25:39Z</time>
      </trkpt>
      <trkpt lat="62.635090362742" lon="17.98777449121">
        <ele>85.6</ele>
        <time>2017-12-02T10:25:40Z</time>
      </trkpt>
      <trkpt lat="62.635079214815" lon="17.987799804548">
        <ele>85.6</ele>
        <time>2017-12-02T10:25:41Z</time>
      </trkpt>
      <trkpt lat="62.635065636137" lon="17.987828219189">
        <ele>85.6</ele>
        <time>2017-12-02T10:25:42Z</time>
      </trkpt>
      <trkpt lat="62.635050213441" lon="17.987853951622">
        <ele>85.8</ele>
        <time>2017-12-02T10:25:43Z</time>
      </trkpt>
      <trkpt lat="62.63503437165" lon="17.987878091494">
        <ele>85.8</ele>
        <time>2017-12-02T10:25:44Z</time>
      </trkpt>
      <trkpt lat="62.635023307542" lon="17.987905416488">
        <ele>85.8</ele>
        <time>2017-12-02T10:25:45Z</time>
      </trkpt>
      <trkpt lat="62.635010567054" lon="17.987929640179">
        <ele>85.8</ele>
        <time>2017-12-02T10:25:46Z</time>
      </trkpt>
      <trkpt lat="62.634997658928" lon="17.987951768395">
        <ele>85.8</ele>
        <time>2017-12-02T10:25:47Z</time>
      </trkpt>
      <trkpt lat="62.634981817137" lon="17.987971214403">
        <ele>86</ele>
        <time>2017-12-02T10:25:48Z</time>
      </trkpt>
      <trkpt lat="62.634972680866" lon="17.987999880501">
        <ele>86</ele>
        <time>2017-12-02T10:25:49Z</time>
      </trkpt>
      <trkpt lat="62.634950720288" lon="17.988014381188">
        <ele>86</ele>
        <time>2017-12-02T10:25:50Z</time>
      </trkpt>
      <trkpt lat="62.63493881799" lon="17.988030306798">
        <ele>86.2</ele>
        <time>2017-12-02T10:25:51Z</time>
      </trkpt>
      <trkpt lat="62.63492289238" lon="17.988050339539">
        <ele>86.2</ele>
        <time>2017-12-02T10:25:52Z</time>
      </trkpt>
      <trkpt lat="62.634905709485" lon="17.988073222126">
        <ele>86.4</ele>
        <time>2017-12-02T10:25:53Z</time>
      </trkpt>
      <trkpt lat="62.634893891006" lon="17.988100211844">
        <ele>86.6</ele>
        <time>2017-12-02T10:25:54Z</time>
      </trkpt>
      <trkpt lat="62.634872181885" lon="17.988095685618">
        <ele>86.8</ele>
        <time>2017-12-02T10:25:55Z</time>
      </trkpt>
      <trkpt lat="62.634856926827" lon="17.988096607627">
        <ele>87</ele>
        <time>2017-12-02T10:25:56Z</time>
      </trkpt>
      <trkpt lat="62.634843180511" lon="17.988098535464">
        <ele>87.2</ele>
        <time>2017-12-02T10:25:57Z</time>
      </trkpt>
      <trkpt lat="62.634827254901" lon="17.988099457473">
        <ele>87.2</ele>
        <time>2017-12-02T10:25:58Z</time>
      </trkpt>
      <trkpt lat="62.634811916024" lon="17.988098703102">
        <ele>87.4</ele>
        <time>2017-12-02T10:25:59Z</time>
      </trkpt>
      <trkpt lat="62.634794062577" lon="17.988096020894">
        <ele>87.4</ele>
        <time>2017-12-02T10:26:00Z</time>
      </trkpt>
      <trkpt lat="62.634777382596" lon="17.988095685618">
        <ele>87.4</ele>
        <time>2017-12-02T10:26:01Z</time>
      </trkpt>
      <trkpt lat="62.634760199701" lon="17.988097697274">
        <ele>87.6</ele>
        <time>2017-12-02T10:26:02Z</time>
      </trkpt>
      <trkpt lat="62.634747040118" lon="17.988098619283">
        <ele>87.4</ele>
        <time>2017-12-02T10:26:03Z</time>
      </trkpt>
      <trkpt lat="62.634735556915" lon="17.988109851029">
        <ele>87.6</ele>
        <time>2017-12-02T10:26:04Z</time>
      </trkpt>
      <trkpt lat="62.634720553314" lon="17.988107001183">
        <ele>87.4</ele>
        <time>2017-12-02T10:26:05Z</time>
      </trkpt>
      <trkpt lat="62.63469239013" lon="17.988106582088">
        <ele>87.4</ele>
        <time>2017-12-02T10:26:06Z</time>
      </trkpt>
      <trkpt lat="62.634673530855" lon="17.988111359771">
        <ele>87.6</ele>
        <time>2017-12-02T10:26:07Z</time>
      </trkpt>
      <trkpt lat="62.634655677408" lon="17.988111862685">
        <ele>87.6</ele>
        <time>2017-12-02T10:26:08Z</time>
      </trkpt>
      <trkpt lat="62.634645786766" lon="17.988113287608">
        <ele>87.6</ele>
        <time>2017-12-02T10:26:09Z</time>
      </trkpt>
      <trkpt lat="62.634624748197" lon="17.988108426106">
        <ele>87.6</ele>
        <time>2017-12-02T10:26:10Z</time>
      </trkpt>
      <trkpt lat="62.634596501194" lon="17.988113874341">
        <ele>87.6</ele>
        <time>2017-12-02T10:26:11Z</time>
      </trkpt>
      <trkpt lat="62.634576887548" lon="17.988116388911">
        <ele>87.8</ele>
        <time>2017-12-02T10:26:12Z</time>
      </trkpt>
      <trkpt lat="62.634559620834" lon="17.988116975644">
        <ele>87.8</ele>
        <time>2017-12-02T10:26:13Z</time>
      </trkpt>
      <trkpt lat="62.634547718536" lon="17.988119657852">
        <ele>87.8</ele>
        <time>2017-12-02T10:26:14Z</time>
      </trkpt>
      <trkpt lat="62.634526009415" lon="17.988136924566">
        <ele>88</ele>
        <time>2017-12-02T10:26:15Z</time>
      </trkpt>
      <trkpt lat="62.634508742701" lon="17.988138433308">
        <ele>88</ele>
        <time>2017-12-02T10:26:16Z</time>
      </trkpt>
      <trkpt lat="62.634492481815" lon="17.988133907082">
        <ele>88</ele>
        <time>2017-12-02T10:26:17Z</time>
      </trkpt>
      <trkpt lat="62.63447446073" lon="17.988132817435">
        <ele>88.2</ele>
        <time>2017-12-02T10:26:18Z</time>
      </trkpt>
      <trkpt lat="62.634459624767" lon="17.988127955933">
        <ele>88.2</ele>
        <time>2017-12-02T10:26:19Z</time>
      </trkpt>
      <trkpt lat="62.634433054144" lon="17.988137762756">
        <ele>88.2</ele>
        <time>2017-12-02T10:26:20Z</time>
      </trkpt>
      <trkpt lat="62.634413189041" lon="17.988145390285">
        <ele>88.4</ele>
        <time>2017-12-02T10:26:21Z</time>
      </trkpt>
      <trkpt lat="62.634392401929" lon="17.988151509072">
        <ele>88.4</ele>
        <time>2017-12-02T10:26:22Z</time>
      </trkpt>
      <trkpt lat="62.63437052517" lon="17.988156286755">
        <ele>88.4</ele>
        <time>2017-12-02T10:26:23Z</time>
      </trkpt>
      <trkpt lat="62.634356611216" lon="17.98815502947">
        <ele>88.6</ele>
        <time>2017-12-02T10:26:24Z</time>
      </trkpt>
      <trkpt lat="62.634323167435" lon="17.98817598422">
        <ele>88.6</ele>
        <time>2017-12-02T10:26:25Z</time>
      </trkpt>
      <trkpt lat="62.63430263178" lon="17.988185791043">
        <ele>88.6</ele>
        <time>2017-12-02T10:26:26Z</time>
      </trkpt>
      <trkpt lat="62.634290226568" lon="17.988192831839">
        <ele>88.8</ele>
        <time>2017-12-02T10:26:27Z</time>
      </trkpt>
      <trkpt lat="62.634251669828" lon="17.9881944244">
        <ele>88.8</ele>
        <time>2017-12-02T10:26:28Z</time>
      </trkpt>
      <trkpt lat="62.634237001503" lon="17.988205823784">
        <ele>88.8</ele>
        <time>2017-12-02T10:26:29Z</time>
      </trkpt>
      <trkpt lat="62.634198863858" lon="17.988203728309">
        <ele>89</ele>
        <time>2017-12-02T10:26:30Z</time>
      </trkpt>
      <trkpt lat="62.634171706502" lon="17.98819610078">
        <ele>89</ele>
        <time>2017-12-02T10:26:31Z</time>
      </trkpt>
      <trkpt lat="62.634151589942" lon="17.988188054156">
        <ele>89</ele>
        <time>2017-12-02T10:26:32Z</time>
      </trkpt>
      <trkpt lat="62.634141112567" lon="17.988182941197">
        <ele>89</ele>
        <time>2017-12-02T10:26:33Z</time>
      </trkpt>
      <trkpt lat="62.634110434813" lon="17.988166680311">
        <ele>88.8</ele>
        <time>2017-12-02T10:26:34Z</time>
      </trkpt>
      <trkpt lat="62.634086211122" lon="17.988169530157">
        <ele>88.8</ele>
        <time>2017-12-02T10:26:35Z</time>
      </trkpt>
      <trkpt lat="62.634060143413" lon="17.988162740818">
        <ele>89</ele>
        <time>2017-12-02T10:26:36Z</time>
      </trkpt>
      <trkpt lat="62.634035919722" lon="17.988149748873">
        <ele>89</ele>
        <time>2017-12-02T10:26:37Z</time>
      </trkpt>
      <trkpt lat="62.634015384067" lon="17.988134661453">
        <ele>89</ele>
        <time>2017-12-02T10:26:38Z</time>
      </trkpt>
      <trkpt lat="62.633999793733" lon="17.988118400567">
        <ele>89</ele>
        <time>2017-12-02T10:26:39Z</time>
      </trkpt>
      <trkpt lat="62.633972804015" lon="17.988110353943">
        <ele>89.2</ele>
        <time>2017-12-02T10:26:40Z</time>
      </trkpt>
      <trkpt lat="62.633951933084" lon="17.988095685618">
        <ele>89.4</ele>
        <time>2017-12-02T10:26:41Z</time>
      </trkpt>
      <trkpt lat="62.633930140144" lon="17.988080598198">
        <ele>89.4</ele>
        <time>2017-12-02T10:26:42Z</time>
      </trkpt>
      <trkpt lat="62.633914046896" lon="17.98806199038">
        <ele>89.6</ele>
        <time>2017-12-02T10:26:43Z</time>
      </trkpt>
      <trkpt lat="62.633902060779" lon="17.988062493294">
        <ele>89.4</ele>
        <time>2017-12-02T10:26:44Z</time>
      </trkpt>
      <trkpt lat="62.633874484328" lon="17.9880435502">
        <ele>89.6</ele>
        <time>2017-12-02T10:26:45Z</time>
      </trkpt>
      <trkpt lat="62.633856547062" lon="17.988029049513">
        <ele>89.6</ele>
        <time>2017-12-02T10:26:46Z</time>
      </trkpt>
      <trkpt lat="62.633837855425" lon="17.988015554654">
        <ele>89.8</ele>
        <time>2017-12-02T10:26:47Z</time>
      </trkpt>
      <trkpt lat="62.633821929815" lon="17.98800080251">
        <ele>89.8</ele>
        <time>2017-12-02T10:26:48Z</time>
      </trkpt>
      <trkpt lat="62.633804495463" lon="17.987993007343">
        <ele>89.8</ele>
        <time>2017-12-02T10:26:49Z</time>
      </trkpt>
      <trkpt lat="62.633778260116" lon="17.987970208575">
        <ele>89.8</ele>
        <time>2017-12-02T10:26:50Z</time>
      </trkpt>
      <trkpt lat="62.633759149384" lon="17.987955288793">
        <ele>90</ele>
        <time>2017-12-02T10:26:51Z</time>
      </trkpt>
      <trkpt lat="62.633739116643" lon="17.987950427291">
        <ele>90</ele>
        <time>2017-12-02T10:26:52Z</time>
      </trkpt>
      <trkpt lat="62.633717072246" lon="17.987947661264">
        <ele>90</ele>
        <time>2017-12-02T10:26:53Z</time>
      </trkpt>
      <trkpt lat="62.633695027849" lon="17.987941877753">
        <ele>90</ele>
        <time>2017-12-02T10:26:54Z</time>
      </trkpt>
      <trkpt lat="62.633674995108" lon="17.987924108125">
        <ele>90.2</ele>
        <time>2017-12-02T10:26:55Z</time>
      </trkpt>
      <trkpt lat="62.633655716738" lon="17.987915642406">
        <ele>90.2</ele>
        <time>2017-12-02T10:26:56Z</time>
      </trkpt>
      <trkpt lat="62.633638282386" lon="17.987902063728">
        <ele>90.2</ele>
        <time>2017-12-02T10:26:57Z</time>
      </trkpt>
      <trkpt lat="62.633619339292" lon="17.987891418715">
        <ele>90.4</ele>
        <time>2017-12-02T10:26:58Z</time>
      </trkpt>
      <trkpt lat="62.63360190494" lon="17.987885719023">
        <ele>90.6</ele>
        <time>2017-12-02T10:26:59Z</time>
      </trkpt>
      <trkpt lat="62.633585560235" lon="17.98785244288">
        <ele>90.6</ele>
        <time>2017-12-02T10:27:00Z</time>
      </trkpt>
      <trkpt lat="62.63357005372" lon="17.987838277469">
        <ele>90.8</ele>
        <time>2017-12-02T10:27:01Z</time>
      </trkpt>
      <trkpt lat="62.633552703187" lon="17.987824614972">
        <ele>91.2</ele>
        <time>2017-12-02T10:27:02Z</time>
      </trkpt>
      <trkpt lat="62.633534598283" lon="17.987805168964">
        <ele>91.4</ele>
        <time>2017-12-02T10:27:03Z</time>
      </trkpt>
      <trkpt lat="62.633519091768" lon="17.987795613598">
        <ele>91.4</ele>
        <time>2017-12-02T10:27:04Z</time>
      </trkpt>
      <trkpt lat="62.633504171986" lon="17.987767701871">
        <ele>91.6</ele>
        <time>2017-12-02T10:27:05Z</time>
      </trkpt>
      <trkpt lat="62.633489503661" lon="17.987750518976">
        <ele>91.6</ele>
        <time>2017-12-02T10:27:06Z</time>
      </trkpt>
      <trkpt lat="62.633470979662" lon="17.987728306941">
        <ele>91.6</ele>
        <time>2017-12-02T10:27:07Z</time>
      </trkpt>
      <trkpt lat="62.633452455663" lon="17.987706514001">
        <ele>91.6</ele>
        <time>2017-12-02T10:27:08Z</time>
      </trkpt>
      <trkpt lat="62.633437871157" lon="17.987681200663">
        <ele>91.6</ele>
        <time>2017-12-02T10:27:09Z</time>
      </trkpt>
      <trkpt lat="62.63342001771" lon="17.987655552049">
        <ele>91.6</ele>
        <time>2017-12-02T10:27:10Z</time>
      </trkpt>
      <trkpt lat="62.633404678833" lon="17.987634262023">
        <ele>91.6</ele>
        <time>2017-12-02T10:27:11Z</time>
      </trkpt>
      <trkpt lat="62.633391938345" lon="17.987611295617">
        <ele>91.8</ele>
        <time>2017-12-02T10:27:12Z</time>
      </trkpt>
      <trkpt lat="62.633378024391" lon="17.987584724994">
        <ele>91.8</ele>
        <time>2017-12-02T10:27:13Z</time>
      </trkpt>
      <trkpt lat="62.633363272247" lon="17.987561674769">
        <ele>91.8</ele>
        <time>2017-12-02T10:27:14Z</time>
      </trkpt>
      <trkpt lat="62.633350196483" lon="17.987530661739">
        <ele>92</ele>
        <time>2017-12-02T10:27:15Z</time>
      </trkpt>
      <trkpt lat="62.633337791271" lon="17.987501492727">
        <ele>92</ele>
        <time>2017-12-02T10:27:16Z</time>
      </trkpt>
      <trkpt lat="62.63332530224" lon="17.987466624023">
        <ele>92.4</ele>
        <time>2017-12-02T10:27:17Z</time>
      </trkpt>
      <trkpt lat="62.633311807381" lon="17.987427229093">
        <ele>92.6</ele>
        <time>2017-12-02T10:27:18Z</time>
      </trkpt>
      <trkpt lat="62.633298061065" lon="17.987384397584">
        <ele>92.8</ele>
        <time>2017-12-02T10:27:19Z</time>
      </trkpt>
      <trkpt lat="62.633278028324" lon="17.987320946601">
        <ele>93</ele>
        <time>2017-12-02T10:27:20Z</time>
      </trkpt>
      <trkpt lat="62.633262018895" lon="17.987255483962">
        <ele>93</ele>
        <time>2017-12-02T10:27:21Z</time>
      </trkpt>
      <trkpt lat="62.63324399781" lon="17.987175269179">
        <ele>92.8</ele>
        <time>2017-12-02T10:27:22Z</time>
      </trkpt>
      <trkpt lat="62.633230251494" lon="17.987086672496">
        <ele>92.8</ele>
        <time>2017-12-02T10:27:23Z</time>
      </trkpt>
      <trkpt lat="62.63321885211" lon="17.98699748908">
        <ele>92.4</ele>
        <time>2017-12-02T10:27:24Z</time>
      </trkpt>
      <trkpt lat="62.633202507405" lon="17.986911909881">
        <ele>91.4</ele>
        <time>2017-12-02T10:27:25Z</time>
      </trkpt>
      <trkpt lat="62.633194628419" lon="17.98683404203">
        <ele>90.8</ele>
        <time>2017-12-02T10:27:26Z</time>
      </trkpt>
      <trkpt lat="62.633188761089" lon="17.986754330161">
        <ele>90.4</ele>
        <time>2017-12-02T10:27:27Z</time>
      </trkpt>
      <trkpt lat="62.633181887931" lon="17.986662129261">
        <ele>89.8</ele>
        <time>2017-12-02T10:27:28Z</time>
      </trkpt>
      <trkpt lat="62.633176523515" lon="17.986574035492">
        <ele>89.6</ele>
        <time>2017-12-02T10:27:29Z</time>
      </trkpt>
      <trkpt lat="62.633169315081" lon="17.986497341107">
        <ele>89.4</ele>
        <time>2017-12-02T10:27:30Z</time>
      </trkpt>
      <trkpt lat="62.633159675896" lon="17.986418215971">
        <ele>89.6</ele>
        <time>2017-12-02T10:27:31Z</time>
      </trkpt>
      <trkpt lat="62.633155820222" lon="17.986324338691">
        <ele>89.8</ele>
        <time>2017-12-02T10:27:32Z</time>
      </trkpt>
      <trkpt lat="62.633156239317" lon="17.986230461411">
        <ele>89.8</ele>
        <time>2017-12-02T10:27:33Z</time>
      </trkpt>
      <trkpt lat="62.633156071679" lon="17.986124262738">
        <ele>90</ele>
        <time>2017-12-02T10:27:34Z</time>
      </trkpt>
      <trkpt lat="62.63315934062" lon="17.986010185079">
        <ele>89.8</ele>
        <time>2017-12-02T10:27:35Z</time>
      </trkpt>
      <trkpt lat="62.633162358104" lon="17.985909769917">
        <ele>89.4</ele>
        <time>2017-12-02T10:27:36Z</time>
      </trkpt>
      <trkpt lat="62.63316688433" lon="17.985810695859">
        <ele>88.6</ele>
        <time>2017-12-02T10:27:37Z</time>
      </trkpt>
      <trkpt lat="62.633172248746" lon="17.985719081692">
        <ele>87.8</ele>
        <time>2017-12-02T10:27:38Z</time>
      </trkpt>
      <trkpt lat="62.633180211551" lon="17.985644901877">
        <ele>87.4</ele>
        <time>2017-12-02T10:27:39Z</time>
      </trkpt>
      <trkpt lat="62.633177194067" lon="17.985503499224">
        <ele>87.4</ele>
        <time>2017-12-02T10:27:40Z</time>
      </trkpt>
      <trkpt lat="62.633182474664" lon="17.985387661366">
        <ele>87.4</ele>
        <time>2017-12-02T10:27:41Z</time>
      </trkpt>
      <trkpt lat="62.633190269831" lon="17.985266878187">
        <ele>87.6</ele>
        <time>2017-12-02T10:27:42Z</time>
      </trkpt>
      <trkpt lat="62.633200998663" lon="17.985142909886">
        <ele>87.4</ele>
        <time>2017-12-02T10:27:43Z</time>
      </trkpt>
      <trkpt lat="62.633213990608" lon="17.985028413132">
        <ele>87</ele>
        <time>2017-12-02T10:27:44Z</time>
      </trkpt>
      <trkpt lat="62.633232849883" lon="17.984908551962">
        <ele>86</ele>
        <time>2017-12-02T10:27:45Z</time>
      </trkpt>
      <trkpt lat="62.633250032778" lon="17.984800341633">
        <ele>85.2</ele>
        <time>2017-12-02T10:27:46Z</time>
      </trkpt>
      <trkpt lat="62.63326830532" lon="17.984704787973">
        <ele>84.6</ele>
        <time>2017-12-02T10:27:47Z</time>
      </trkpt>
      <trkpt lat="62.633284817663" lon="17.984622310077">
        <ele>84.2</ele>
        <time>2017-12-02T10:27:48Z</time>
      </trkpt>
      <trkpt lat="62.633300910911" lon="17.984548465538">
        <ele>84</ele>
        <time>2017-12-02T10:27:49Z</time>
      </trkpt>
      <trkpt lat="62.63332697862" lon="17.984481661795">
        <ele>84</ele>
        <time>2017-12-02T10:27:50Z</time>
      </trkpt>
      <trkpt lat="62.633343407144" lon="17.984418210812">
        <ele>84</ele>
        <time>2017-12-02T10:27:51Z</time>
      </trkpt>
      <trkpt lat="62.633352459596" lon="17.98435635239">
        <ele>84</ele>
        <time>2017-12-02T10:27:52Z</time>
      </trkpt>
      <trkpt lat="62.6333621826" lon="17.984286028249">
        <ele>84.2</ele>
        <time>2017-12-02T10:27:53Z</time>
      </trkpt>
      <trkpt lat="62.63337643183" lon="17.984222577266">
        <ele>84.4</ele>
        <time>2017-12-02T10:27:54Z</time>
      </trkpt>
      <trkpt lat="62.633371905604" lon="17.984201873973">
        <ele>84.6</ele>
        <time>2017-12-02T10:27:55Z</time>
      </trkpt>
      <trkpt lat="62.633377856753" lon="17.984116797688">
        <ele>84.8</ele>
        <time>2017-12-02T10:27:56Z</time>
      </trkpt>
      <trkpt lat="62.633380203685" lon="17.98405879494">
        <ele>84.8</ele>
        <time>2017-12-02T10:27:57Z</time>
      </trkpt>
      <trkpt lat="62.633382466798" lon="17.983990482455">
        <ele>84.8</ele>
        <time>2017-12-02T10:27:58Z</time>
      </trkpt>
      <trkpt lat="62.633384143178" lon="17.983927618205">
        <ele>85</ele>
        <time>2017-12-02T10:27:59Z</time>
      </trkpt>
      <trkpt lat="62.633387160662" lon="17.983859808634">
        <ele>84.8</ele>
        <time>2017-12-02T10:28:00Z</time>
      </trkpt>
      <trkpt lat="62.633391686888" lon="17.983799542773">
        <ele>85</ele>
        <time>2017-12-02T10:28:01Z</time>
      </trkpt>
      <trkpt lat="62.633400152607" lon="17.983731397926">
        <ele>85</ele>
        <time>2017-12-02T10:28:02Z</time>
      </trkpt>
      <trkpt lat="62.633407863955" lon="17.983662750165">
        <ele>85.2</ele>
        <time>2017-12-02T10:28:03Z</time>
      </trkpt>
      <trkpt lat="62.633416581131" lon="17.983600724105">
        <ele>85.2</ele>
        <time>2017-12-02T10:28:04Z</time>
      </trkpt>
      <trkpt lat="62.633424124841" lon="17.983539703873">
        <ele>85.2</ele>
        <time>2017-12-02T10:28:05Z</time>
      </trkpt>
      <trkpt lat="62.633433177293" lon="17.983485808256">
        <ele>85.2</ele>
        <time>2017-12-02T10:28:06Z</time>
      </trkpt>
      <trkpt lat="62.633441559193" lon="17.983430403897">
        <ele>85.2</ele>
        <time>2017-12-02T10:28:07Z</time>
      </trkpt>
      <trkpt lat="62.633450276369" lon="17.983371646778">
        <ele>85.2</ele>
        <time>2017-12-02T10:28:08Z</time>
      </trkpt>
      <trkpt lat="62.633459747916" lon="17.98331783498">
        <ele>85.2</ele>
        <time>2017-12-02T10:28:09Z</time>
      </trkpt>
      <trkpt lat="62.633468297454" lon="17.983274752014">
        <ele>85.2</ele>
        <time>2017-12-02T10:28:10Z</time>
      </trkpt>
      <trkpt lat="62.633488330195" lon="17.983214989067">
        <ele>85.2</ele>
        <time>2017-12-02T10:28:11Z</time>
      </trkpt>
      <trkpt lat="62.63350551309" lon="17.983168804798">
        <ele>85.2</ele>
        <time>2017-12-02T10:28:12Z</time>
      </trkpt>
      <trkpt lat="62.633522947442" lon="17.983111304964">
        <ele>85.4</ele>
        <time>2017-12-02T10:28:13Z</time>
      </trkpt>
      <trkpt lat="62.633538118681" lon="17.983056235881">
        <ele>85.4</ele>
        <time>2017-12-02T10:28:14Z</time>
      </trkpt>
      <trkpt lat="62.633545327115" lon="17.983004854834">
        <ele>85.4</ele>
        <time>2017-12-02T10:28:15Z</time>
      </trkpt>
      <trkpt lat="62.633554379567" lon="17.982940146566">
        <ele>85.4</ele>
        <time>2017-12-02T10:28:16Z</time>
      </trkpt>
      <trkpt lat="62.633566533322" lon="17.982886250949">
        <ele>85.4</ele>
        <time>2017-12-02T10:28:17Z</time>
      </trkpt>
      <trkpt lat="62.633583213303" lon="17.982832271513">
        <ele>85.4</ele>
        <time>2017-12-02T10:28:18Z</time>
      </trkpt>
      <trkpt lat="62.63360106675" lon="17.982784159407">
        <ele>85.4</ele>
        <time>2017-12-02T10:28:19Z</time>
      </trkpt>
      <trkpt lat="62.633610538297" lon="17.98273948388">
        <ele>85.6</ele>
        <time>2017-12-02T10:28:20Z</time>
      </trkpt>
      <trkpt lat="62.633623446423" lon="17.982690198308">
        <ele>85.6</ele>
        <time>2017-12-02T10:28:21Z</time>
      </trkpt>
      <trkpt lat="62.633633504703" lon="17.982626160592">
        <ele>85.4</ele>
        <time>2017-12-02T10:28:22Z</time>
      </trkpt>
      <trkpt lat="62.633645323182" lon="17.982574192812">
        <ele>85.4</ele>
        <time>2017-12-02T10:28:23Z</time>
      </trkpt>
      <trkpt lat="62.633659153317" lon="17.982537563909">
        <ele>85.4</ele>
        <time>2017-12-02T10:28:24Z</time>
      </trkpt>
      <trkpt lat="62.633674995108" lon="17.982476627496">
        <ele>85.2</ele>
        <time>2017-12-02T10:28:25Z</time>
      </trkpt>
      <trkpt lat="62.633690669261" lon="17.982419379119">
        <ele>85.2</ele>
        <time>2017-12-02T10:28:26Z</time>
      </trkpt>
      <trkpt lat="62.633699218799" lon="17.982369422995">
        <ele>85.2</ele>
        <time>2017-12-02T10:28:27Z</time>
      </trkpt>
      <trkpt lat="62.633704918491" lon="17.982317203758">
        <ele>85.2</ele>
        <time>2017-12-02T10:28:28Z</time>
      </trkpt>
      <trkpt lat="62.633709109441" lon="17.982268588738">
        <ele>85.2</ele>
        <time>2017-12-02T10:28:29Z</time>
      </trkpt>
      <trkpt lat="62.633708019794" lon="17.98221310056">
        <ele>85.2</ele>
        <time>2017-12-02T10:28:30Z</time>
      </trkpt>
      <trkpt lat="62.633707684518" lon="17.982158366753">
        <ele>85.2</ele>
        <time>2017-12-02T10:28:31Z</time>
      </trkpt>
      <trkpt lat="62.633705169948" lon="17.982114277959">
        <ele>85.2</ele>
        <time>2017-12-02T10:28:32Z</time>
      </trkpt>
      <trkpt lat="62.633707684518" lon="17.982070440622">
        <ele>85.2</ele>
        <time>2017-12-02T10:28:33Z</time>
      </trkpt>
      <trkpt lat="62.633713551848" lon="17.982015036263">
        <ele>85.2</ele>
        <time>2017-12-02T10:28:34Z</time>
      </trkpt>
      <trkpt lat="62.633714306219" lon="17.98196918727">
        <ele>85.2</ele>
        <time>2017-12-02T10:28:35Z</time>
      </trkpt>
      <trkpt lat="62.633715982599" lon="17.98190883759">
        <ele>85.2</ele>
        <time>2017-12-02T10:28:36Z</time>
      </trkpt>
      <trkpt lat="62.633715312047" lon="17.98184848791">
        <ele>85.2</ele>
        <time>2017-12-02T10:28:37Z</time>
      </trkpt>
      <trkpt lat="62.633710953459" lon="17.981800543442">
        <ele>85.4</ele>
        <time>2017-12-02T10:28:38Z</time>
      </trkpt>
      <trkpt lat="62.633703912663" lon="17.98176802167">
        <ele>85.4</ele>
        <time>2017-12-02T10:28:39Z</time>
      </trkpt>
      <trkpt lat="62.633714557676" lon="17.981704570687">
        <ele>85.6</ele>
        <time>2017-12-02T10:28:40Z</time>
      </trkpt>
      <trkpt lat="62.63372344249" lon="17.981665846309">
        <ele>85.6</ele>
        <time>2017-12-02T10:28:41Z</time>
      </trkpt>
      <trkpt lat="62.633731489114" lon="17.98162217661">
        <ele>85.6</ele>
        <time>2017-12-02T10:28:42Z</time>
      </trkpt>
      <trkpt lat="62.633738697548" lon="17.981573310133">
        <ele>85.8</ele>
        <time>2017-12-02T10:28:43Z</time>
      </trkpt>
      <trkpt lat="62.633743056136" lon="17.981526874407">
        <ele>85.6</ele>
        <time>2017-12-02T10:28:44Z</time>
      </trkpt>
      <trkpt lat="62.633746157439" lon="17.981470883315">
        <ele>85.8</ele>
        <time>2017-12-02T10:28:45Z</time>
      </trkpt>
      <trkpt lat="62.633752108588" lon="17.981417490612">
        <ele>85.8</ele>
        <time>2017-12-02T10:28:46Z</time>
      </trkpt>
      <trkpt lat="62.633756467176" lon="17.981360409873">
        <ele>85.8</ele>
        <time>2017-12-02T10:28:47Z</time>
      </trkpt>
      <trkpt lat="62.633769040026" lon="17.981309112645">
        <ele>85.8</ele>
        <time>2017-12-02T10:28:48Z</time>
      </trkpt>
      <trkpt lat="62.63378211579" lon="17.981268376611">
        <ele>85.8</ele>
        <time>2017-12-02T10:28:49Z</time>
      </trkpt>
      <trkpt lat="62.633792425527" lon="17.981214480994">
        <ele>85.6</ele>
        <time>2017-12-02T10:28:50Z</time>
      </trkpt>
      <trkpt lat="62.633796951753" lon="17.98116117211">
        <ele>85.8</ele>
        <time>2017-12-02T10:28:51Z</time>
      </trkpt>
      <trkpt lat="62.633807680585" lon="17.981117334773">
        <ele>85.8</ele>
        <time>2017-12-02T10:28:52Z</time>
      </trkpt>
      <trkpt lat="62.633820169616" lon="17.981074167988">
        <ele>85.8</ele>
        <time>2017-12-02T10:28:53Z</time>
      </trkpt>
      <trkpt lat="62.633828719154" lon="17.981032761402">
        <ele>86</ele>
        <time>2017-12-02T10:28:54Z</time>
      </trkpt>
      <trkpt lat="62.633844393307" lon="17.981003173295">
        <ele>85.8</ele>
        <time>2017-12-02T10:28:55Z</time>
      </trkpt>
      <trkpt lat="62.633857301433" lon="17.980942236882">
        <ele>86</ele>
        <time>2017-12-02T10:28:56Z</time>
      </trkpt>
      <trkpt lat="62.633867275894" lon="17.980895968794">
        <ele>86.2</ele>
        <time>2017-12-02T10:28:57Z</time>
      </trkpt>
      <trkpt lat="62.633886218988" lon="17.980853891656">
        <ele>86.2</ele>
        <time>2017-12-02T10:28:58Z</time>
      </trkpt>
      <trkpt lat="62.633903318064" lon="17.980816005468">
        <ele>86.2</ele>
        <time>2017-12-02T10:28:59Z</time>
      </trkpt>
      <trkpt lat="62.633917818751" lon="17.980756829254">
        <ele>86.2</ele>
        <time>2017-12-02T10:29:00Z</time>
      </trkpt>
      <trkpt lat="62.633932822352" lon="17.980711483175">
        <ele>86.4</ele>
        <time>2017-12-02T10:29:01Z</time>
      </trkpt>
      <trkpt lat="62.633942293899" lon="17.980664879811">
        <ele>86.6</ele>
        <time>2017-12-02T10:29:02Z</time>
      </trkpt>
      <trkpt lat="62.633954112378" lon="17.980619366094">
        <ele>86.6</ele>
        <time>2017-12-02T10:29:03Z</time>
      </trkpt>
      <trkpt lat="62.63396903216" lon="17.980577959508">
        <ele>86.8</ele>
        <time>2017-12-02T10:29:04Z</time>
      </trkpt>
      <trkpt lat="62.633989232539" lon="17.980530266497">
        <ele>86.8</ele>
        <time>2017-12-02T10:29:05Z</time>
      </trkpt>
      <trkpt lat="62.634006666891" lon="17.980491793576">
        <ele>86.8</ele>
        <time>2017-12-02T10:29:06Z</time>
      </trkpt>
      <trkpt lat="62.634028124555" lon="17.980452650103">
        <ele>86.8</ele>
        <time>2017-12-02T10:29:07Z</time>
      </trkpt>
      <trkpt lat="62.634044553079" lon="17.980406214377">
        <ele>87</ele>
        <time>2017-12-02T10:29:08Z</time>
      </trkpt>
      <trkpt lat="62.634055701006" lon="17.980361035936">
        <ele>87</ele>
        <time>2017-12-02T10:29:09Z</time>
      </trkpt>
      <trkpt lat="62.634084031828" lon="17.980326251051">
        <ele>87</ele>
        <time>2017-12-02T10:29:10Z</time>
      </trkpt>
      <trkpt lat="62.634109680442" lon="17.980274283271">
        <ele>87</ele>
        <time>2017-12-02T10:29:11Z</time>
      </trkpt>
      <trkpt lat="62.634131976296" lon="17.980234636884">
        <ele>87</ele>
        <time>2017-12-02T10:29:12Z</time>
      </trkpt>
      <trkpt lat="62.634152344313" lon="17.980192643565">
        <ele>87</ele>
        <time>2017-12-02T10:29:13Z</time>
      </trkpt>
      <trkpt lat="62.634167515552" lon="17.9801561823">
        <ele>87</ele>
        <time>2017-12-02T10:29:14Z</time>
      </trkpt>
      <trkpt lat="62.634190398139" lon="17.980102202864">
        <ele>86.8</ele>
        <time>2017-12-02T10:29:15Z</time>
      </trkpt>
      <trkpt lat="62.6342087545" lon="17.98005224674">
        <ele>87</ele>
        <time>2017-12-02T10:29:16Z</time>
      </trkpt>
      <trkpt lat="62.634227278499" lon="17.980015701656">
        <ele>86.8</ele>
        <time>2017-12-02T10:29:17Z</time>
      </trkpt>
      <trkpt lat="62.634244629032" lon="17.979975552355">
        <ele>86.8</ele>
        <time>2017-12-02T10:29:18Z</time>
      </trkpt>
      <trkpt lat="62.63426239866" lon="17.979934313407">
        <ele>86.8</ele>
        <time>2017-12-02T10:29:19Z</time>
      </trkpt>
      <trkpt lat="62.634275390605" lon="17.97988209417">
        <ele>86.8</ele>
        <time>2017-12-02T10:29:20Z</time>
      </trkpt>
      <trkpt lat="62.634285281247" lon="17.979827192725">
        <ele>86.8</ele>
        <time>2017-12-02T10:29:21Z</time>
      </trkpt>
      <trkpt lat="62.634297015907" lon="17.979770363443">
        <ele>86.8</ele>
        <time>2017-12-02T10:29:22Z</time>
      </trkpt>
      <trkpt lat="62.634309421119" lon="17.979724346812">
        <ele>86.8</ele>
        <time>2017-12-02T10:29:23Z</time>
      </trkpt>
      <trkpt lat="62.634318725028" lon="17.979673049584">
        <ele>86.8</ele>
        <time>2017-12-02T10:29:24Z</time>
      </trkpt>
      <trkpt lat="62.634326017281" lon="17.979616052664">
        <ele>86.8</ele>
        <time>2017-12-02T10:29:25Z</time>
      </trkpt>
      <trkpt lat="62.634336327018" lon="17.979564839255">
        <ele>86.8</ele>
        <time>2017-12-02T10:29:26Z</time>
      </trkpt>
      <trkpt lat="62.634343870728" lon="17.979511530371">
        <ele>86.8</ele>
        <time>2017-12-02T10:29:27Z</time>
      </trkpt>
      <trkpt lat="62.634355856845" lon="17.97945545546">
        <ele>86.8</ele>
        <time>2017-12-02T10:29:28Z</time>
      </trkpt>
      <trkpt lat="62.634369938437" lon="17.979396195427">
        <ele>86.8</ele>
        <time>2017-12-02T10:29:29Z</time>
      </trkpt>
      <trkpt lat="62.634380080536" lon="17.979357722506">
        <ele>86.8</ele>
        <time>2017-12-02T10:29:30Z</time>
      </trkpt>
      <trkpt lat="62.63438812716" lon="17.979309442762">
        <ele>86.8</ele>
        <time>2017-12-02T10:29:31Z</time>
      </trkpt>
      <trkpt lat="62.634398688354" lon="17.979261749751">
        <ele>86.8</ele>
        <time>2017-12-02T10:29:32Z</time>
      </trkpt>
      <trkpt lat="62.634409417186" lon="17.979206680668">
        <ele>86.8</ele>
        <time>2017-12-02T10:29:33Z</time>
      </trkpt>
      <trkpt lat="62.634416374163" lon="17.979151443947">
        <ele>87</ele>
        <time>2017-12-02T10:29:34Z</time>
      </trkpt>
      <trkpt lat="62.634433221782" lon="17.979099979081">
        <ele>87</ele>
        <time>2017-12-02T10:29:35Z</time>
      </trkpt>
      <trkpt lat="62.634443196243" lon="17.979043987989">
        <ele>87</ele>
        <time>2017-12-02T10:29:36Z</time>
      </trkpt>
      <trkpt lat="62.634455098541" lon="17.978988080716">
        <ele>86.8</ele>
        <time>2017-12-02T10:29:37Z</time>
      </trkpt>
      <trkpt lat="62.634470437418" lon="17.978937370221">
        <ele>86.8</ele>
        <time>2017-12-02T10:29:38Z</time>
      </trkpt>
      <trkpt lat="62.634485692476" lon="17.978892107961">
        <ele>86.8</ele>
        <time>2017-12-02T10:29:39Z</time>
      </trkpt>
      <trkpt lat="62.63450882652" lon="17.978879199835">
        <ele>86.8</ele>
        <time>2017-12-02T10:29:40Z</time>
      </trkpt>
      <trkpt lat="62.634536151514" lon="17.978874003057">
        <ele>86.8</ele>
        <time>2017-12-02T10:29:41Z</time>
      </trkpt>
      <trkpt lat="62.634556268074" lon="17.978867213718">
        <ele>86.8</ele>
        <time>2017-12-02T10:29:42Z</time>
      </trkpt>
      <trkpt lat="62.634573786245" lon="17.978859921465">
        <ele>87</ele>
        <time>2017-12-02T10:29:43Z</time>
      </trkpt>
      <trkpt lat="62.634589041303" lon="17.978851791022">
        <ele>87</ele>
        <time>2017-12-02T10:29:44Z</time>
      </trkpt>
      <trkpt lat="62.634613181175" lon="17.978845839873">
        <ele>86.8</ele>
        <time>2017-12-02T10:29:45Z</time>
      </trkpt>
      <trkpt lat="62.634636399038" lon="17.978848522081">
        <ele>86.8</ele>
        <time>2017-12-02T10:29:46Z</time>
      </trkpt>
      <trkpt lat="62.634662131471" lon="17.978858496542">
        <ele>86.8</ele>
        <time>2017-12-02T10:29:47Z</time>
      </trkpt>
      <trkpt lat="62.634686438981" lon="17.978867800451">
        <ele>86.8</ele>
        <time>2017-12-02T10:29:48Z</time>
      </trkpt>
      <trkpt lat="62.634708651016" lon="17.978873835419">
        <ele>86.8</ele>
        <time>2017-12-02T10:29:49Z</time>
      </trkpt>
      <trkpt lat="62.634744609367" lon="17.978886492088">
        <ele>86.6</ele>
        <time>2017-12-02T10:29:50Z</time>
      </trkpt>
      <trkpt lat="62.634774700388" lon="17.978894873988">
        <ele>86.4</ele>
        <time>2017-12-02T10:29:51Z</time>
      </trkpt>
      <trkpt lat="62.634807892712" lon="17.978903842621">
        <ele>86.4</ele>
        <time>2017-12-02T10:29:52Z</time>
      </trkpt>
      <trkpt lat="62.634840833579" lon="17.978913062711">
        <ele>86.2</ele>
        <time>2017-12-02T10:29:53Z</time>
      </trkpt>
      <trkpt lat="62.634872014247" lon="17.978925132647">
        <ele>86</ele>
        <time>2017-12-02T10:29:54Z</time>
      </trkpt>
      <trkpt lat="62.634903865467" lon="17.978939549515">
        <ele>86</ele>
        <time>2017-12-02T10:29:55Z</time>
      </trkpt>
      <trkpt lat="62.634934962316" lon="17.978942231723">
        <ele>85.8</ele>
        <time>2017-12-02T10:29:56Z</time>
      </trkpt>
      <trkpt lat="62.634964466604" lon="17.978949021062">
        <ele>85.6</ele>
        <time>2017-12-02T10:29:57Z</time>
      </trkpt>
      <trkpt lat="62.634994054711" lon="17.97895840879">
        <ele>85.6</ele>
        <time>2017-12-02T10:29:58Z</time>
      </trkpt>
      <trkpt lat="62.635020457696" lon="17.978969808174">
        <ele>85.6</ele>
        <time>2017-12-02T10:29:59Z</time>
      </trkpt>
      <trkpt lat="62.635048201785" lon="17.978971652192">
        <ele>85.4</ele>
        <time>2017-12-02T10:30:00Z</time>
      </trkpt>
      <trkpt lat="62.63507376658" lon="17.978979698816">
        <ele>85.6</ele>
        <time>2017-12-02T10:30:01Z</time>
      </trkpt>
      <trkpt lat="62.635100085746" lon="17.978990343829">
        <ele>85.4</ele>
        <time>2017-12-02T10:30:02Z</time>
      </trkpt>
      <trkpt lat="62.635125901998" lon="17.97900031829">
        <ele>85.4</ele>
        <time>2017-12-02T10:30:03Z</time>
      </trkpt>
      <trkpt lat="62.635155238648" lon="17.979001407937">
        <ele>85.6</ele>
        <time>2017-12-02T10:30:04Z</time>
      </trkpt>
      <trkpt lat="62.635184994393" lon="17.979007526724">
        <ele>85.6</ele>
        <time>2017-12-02T10:30:05Z</time>
      </trkpt>
      <trkpt lat="62.635212151749" lon="17.979010628027">
        <ele>85.4</ele>
        <time>2017-12-02T10:30:06Z</time>
      </trkpt>
      <trkpt lat="62.635240901666" lon="17.979016076262">
        <ele>85.4</ele>
        <time>2017-12-02T10:30:07Z</time>
      </trkpt>
      <trkpt lat="62.635268059022" lon="17.979016411538">
        <ele>85.2</ele>
        <time>2017-12-02T10:30:08Z</time>
      </trkpt>
      <trkpt lat="62.635291779799" lon="17.97901121476">
        <ele>85</ele>
        <time>2017-12-02T10:30:09Z</time>
      </trkpt>
      <trkpt lat="62.635329498349" lon="17.979021021583">
        <ele>84.8</ele>
        <time>2017-12-02T10:30:10Z</time>
      </trkpt>
      <trkpt lat="62.635357493895" lon="17.979025296352">
        <ele>84.6</ele>
        <time>2017-12-02T10:30:11Z</time>
      </trkpt>
      <trkpt lat="62.635386243812" lon="17.979023452334">
        <ele>84.6</ele>
        <time>2017-12-02T10:30:12Z</time>
      </trkpt>
      <trkpt lat="62.635418095032" lon="17.979014399882">
        <ele>84.6</ele>
        <time>2017-12-02T10:30:13Z</time>
      </trkpt>
      <trkpt lat="62.635449359519" lon="17.979001910851">
        <ele>84.4</ele>
        <time>2017-12-02T10:30:14Z</time>
      </trkpt>
      <trkpt lat="62.635484982594" lon="17.978993361313">
        <ele>84.4</ele>
        <time>2017-12-02T10:30:15Z</time>
      </trkpt>
      <trkpt lat="62.635513145778" lon="17.978969975812">
        <ele>84.4</ele>
        <time>2017-12-02T10:30:16Z</time>
      </trkpt>
      <trkpt lat="62.635544996998" lon="17.978960671903">
        <ele>84.2</ele>
        <time>2017-12-02T10:30:17Z</time>
      </trkpt>
      <trkpt lat="62.635578273141" lon="17.978952206184">
        <ele>84</ele>
        <time>2017-12-02T10:30:18Z</time>
      </trkpt>
      <trkpt lat="62.635606687782" lon="17.978934268918">
        <ele>84</ele>
        <time>2017-12-02T10:30:19Z</time>
      </trkpt>
      <trkpt lat="62.635650525119" lon="17.97893493947">
        <ele>83.8</ele>
        <time>2017-12-02T10:30:20Z</time>
      </trkpt>
      <trkpt lat="62.635686064375" lon="17.978933346909">
        <ele>83.4</ele>
        <time>2017-12-02T10:30:21Z</time>
      </trkpt>
      <trkpt lat="62.635721352174" lon="17.978934268918">
        <ele>83.4</ele>
        <time>2017-12-02T10:30:22Z</time>
      </trkpt>
      <trkpt lat="62.635754544498" lon="17.978938376049">
        <ele>83.2</ele>
        <time>2017-12-02T10:30:23Z</time>
      </trkpt>
      <trkpt lat="62.63578622808" lon="17.978940555343">
        <ele>83.2</ele>
        <time>2017-12-02T10:30:24Z</time>
      </trkpt>
      <trkpt lat="62.635812714884" lon="17.978938459868">
        <ele>83</ele>
        <time>2017-12-02T10:30:25Z</time>
      </trkpt>
      <trkpt lat="62.635845655751" lon="17.978951870908">
        <ele>82.8</ele>
        <time>2017-12-02T10:30:26Z</time>
      </trkpt>
      <trkpt lat="62.635868705976" lon="17.978956229496">
        <ele>82.6</ele>
        <time>2017-12-02T10:30:27Z</time>
      </trkpt>
      <trkpt lat="62.635887397613" lon="17.978961174817">
        <ele>82.6</ele>
        <time>2017-12-02T10:30:28Z</time>
      </trkpt>
      <trkpt lat="62.635904664327" lon="17.978967545061">
        <ele>82.4</ele>
        <time>2017-12-02T10:30:29Z</time>
      </trkpt>
      <trkpt lat="62.635924780887" lon="17.97898187811">
        <ele>82.4</ele>
        <time>2017-12-02T10:30:30Z</time>
      </trkpt>
      <trkpt lat="62.635938108108" lon="17.978989254182">
        <ele>82.4</ele>
        <time>2017-12-02T10:30:31Z</time>
      </trkpt>
      <trkpt lat="62.635953111709" lon="17.978999815376">
        <ele>82.4</ele>
        <time>2017-12-02T10:30:32Z</time>
      </trkpt>
      <trkpt lat="62.635969372595" lon="17.979020770126">
        <ele>82.6</ele>
        <time>2017-12-02T10:30:33Z</time>
      </trkpt>
      <trkpt lat="62.635983286549" lon="17.979043652713">
        <ele>82.8</ele>
        <time>2017-12-02T10:30:34Z</time>
      </trkpt>
      <trkpt lat="62.635760076552" lon="17.986178996545">
        <ele>81.6</ele>
        <time>2017-12-02T10:32:43Z</time>
      </trkpt>
      <trkpt lat="62.635749515358" lon="17.986202130589">
        <ele>81.6</ele>
        <time>2017-12-02T10:32:44Z</time>
      </trkpt>
      <trkpt lat="62.635741217277" lon="17.986217218009">
        <ele>81.6</ele>
        <time>2017-12-02T10:32:45Z</time>
      </trkpt>
      <trkpt lat="62.635731578092" lon="17.986235239094">
        <ele>81.6</ele>
        <time>2017-12-02T10:32:46Z</time>
      </trkpt>
      <trkpt lat="62.635724788753" lon="17.986264659563">
        <ele>81.8</ele>
        <time>2017-12-02T10:32:47Z</time>
      </trkpt>
      <trkpt lat="62.635709617514" lon="17.98629257129">
        <ele>82</ele>
        <time>2017-12-02T10:32:48Z</time>
      </trkpt>
      <trkpt lat="62.635701906166" lon="17.986331379487">
        <ele>82</ele>
        <time>2017-12-02T10:32:49Z</time>
      </trkpt>
      <trkpt lat="62.635688495126" lon="17.986368092209">
        <ele>82.2</ele>
        <time>2017-12-02T10:32:50Z</time>
      </trkpt>
      <trkpt lat="62.635671479869" lon="17.98639985961">
        <ele>82.2</ele>
        <time>2017-12-02T10:32:51Z</time>
      </trkpt>
      <trkpt lat="62.635660751037" lon="17.986428693346">
        <ele>82.4</ele>
        <time>2017-12-02T10:32:52Z</time>
      </trkpt>
      <trkpt lat="62.635646082712" lon="17.986468004457">
        <ele>82.6</ele>
        <time>2017-12-02T10:32:53Z</time>
      </trkpt>
      <trkpt lat="62.635640299201" lon="17.986503040799">
        <ele>82.6</ele>
        <time>2017-12-02T10:32:54Z</time>
      </trkpt>
      <trkpt lat="62.635620937012" lon="17.98654570467">
        <ele>82.8</ele>
        <time>2017-12-02T10:32:55Z</time>
      </trkpt>
      <trkpt lat="62.635610291999" lon="17.986603623599">
        <ele>82.8</ele>
        <time>2017-12-02T10:32:56Z</time>
      </trkpt>
      <trkpt lat="62.635591013629" lon="17.986642599434">
        <ele>82.8</ele>
        <time>2017-12-02T10:32:57Z</time>
      </trkpt>
      <trkpt lat="62.635580536254" lon="17.98667897688">
        <ele>82.8</ele>
        <time>2017-12-02T10:32:58Z</time>
      </trkpt>
      <trkpt lat="62.635567963404" lon="17.986707810616">
        <ele>83</ele>
        <time>2017-12-02T10:32:59Z</time>
      </trkpt>
      <trkpt lat="62.635558324219" lon="17.986745361528">
        <ele>83</ele>
        <time>2017-12-02T10:33:00Z</time>
      </trkpt>
      <trkpt lat="62.635545835188" lon="17.986772518884">
        <ele>83.2</ele>
        <time>2017-12-02T10:33:01Z</time>
      </trkpt>
      <trkpt lat="62.635532424148" lon="17.98680051443">
        <ele>83.2</ele>
        <time>2017-12-02T10:33:02Z</time>
      </trkpt>
      <trkpt lat="62.635523539334" lon="17.986833958211">
        <ele>83.2</ele>
        <time>2017-12-02T10:33:03Z</time>
      </trkpt>
      <trkpt lat="62.635506356439" lon="17.986865306517">
        <ele>83.4</ele>
        <time>2017-12-02T10:33:04Z</time>
      </trkpt>
      <trkpt lat="62.635495208512" lon="17.986911742243">
        <ele>83.4</ele>
        <time>2017-12-02T10:33:05Z</time>
      </trkpt>
      <trkpt lat="62.635477355065" lon="17.986943593463">
        <ele>83.6</ele>
        <time>2017-12-02T10:33:06Z</time>
      </trkpt>
      <trkpt lat="62.635465117491" lon="17.986978713624">
        <ele>83.8</ele>
        <time>2017-12-02T10:33:07Z</time>
      </trkpt>
      <trkpt lat="62.635453718107" lon="17.987016935088">
        <ele>83.8</ele>
        <time>2017-12-02T10:33:08Z</time>
      </trkpt>
      <trkpt lat="62.635436619031" lon="17.987038057476">
        <ele>84</ele>
        <time>2017-12-02T10:33:09Z</time>
      </trkpt>
      <trkpt lat="62.635425890199" lon="17.987067561764">
        <ele>84</ele>
        <time>2017-12-02T10:33:10Z</time>
      </trkpt>
      <trkpt lat="62.635410802779" lon="17.987102681925">
        <ele>84.2</ele>
        <time>2017-12-02T10:33:11Z</time>
      </trkpt>
      <trkpt lat="62.635394122798" lon="17.987131264204">
        <ele>84.2</ele>
        <time>2017-12-02T10:33:12Z</time>
      </trkpt>
      <trkpt lat="62.635383729242" lon="17.987160684673">
        <ele>84.2</ele>
        <time>2017-12-02T10:33:13Z</time>
      </trkpt>
      <trkpt lat="62.635368725641" lon="17.987199073775">
        <ele>84.2</ele>
        <time>2017-12-02T10:33:14Z</time>
      </trkpt>
      <trkpt lat="62.635358583542" lon="17.987233774841">
        <ele>84.2</ele>
        <time>2017-12-02T10:33:15Z</time>
      </trkpt>
      <trkpt lat="62.635342071199" lon="17.987266128975">
        <ele>84.6</ele>
        <time>2017-12-02T10:33:16Z</time>
      </trkpt>
      <trkpt lat="62.635334527489" lon="17.987302841697">
        <ele>84.6</ele>
        <time>2017-12-02T10:33:17Z</time>
      </trkpt>
      <trkpt lat="62.635312483092" lon="17.987328322673">
        <ele>84.8</ele>
        <time>2017-12-02T10:33:18Z</time>
      </trkpt>
      <trkpt lat="62.635304520287" lon="17.987366208861">
        <ele>84.8</ele>
        <time>2017-12-02T10:33:19Z</time>
      </trkpt>
      <trkpt lat="62.635283230261" lon="17.98739060019">
        <ele>85</ele>
        <time>2017-12-02T10:33:20Z</time>
      </trkpt>
      <trkpt lat="62.635272082334" lon="17.987423792514">
        <ele>84.8</ele>
        <time>2017-12-02T10:33:21Z</time>
      </trkpt>
      <trkpt lat="62.635255569991" lon="17.987452542431">
        <ele>85</ele>
        <time>2017-12-02T10:33:22Z</time>
      </trkpt>
      <trkpt lat="62.635241320761" lon="17.987483220185">
        <ele>84.8</ele>
        <time>2017-12-02T10:33:23Z</time>
      </trkpt>
      <trkpt lat="62.635229250825" lon="17.987504845487">
        <ele>85</ele>
        <time>2017-12-02T10:33:24Z</time>
      </trkpt>
      <trkpt lat="62.635212822301" lon="17.987530158825">
        <ele>85</ele>
        <time>2017-12-02T10:33:25Z</time>
      </trkpt>
      <trkpt lat="62.635201422917" lon="17.987559579294">
        <ele>85.2</ele>
        <time>2017-12-02T10:33:26Z</time>
      </trkpt>
      <trkpt lat="62.635183653289" lon="17.987584976451">
        <ele>85.2</ele>
        <time>2017-12-02T10:33:27Z</time>
      </trkpt>
      <trkpt lat="62.635172673" lon="17.987615738024">
        <ele>85.2</ele>
        <time>2017-12-02T10:33:28Z</time>
      </trkpt>
      <trkpt lat="62.635154149001" lon="17.987642643923">
        <ele>85.4</ele>
        <time>2017-12-02T10:33:29Z</time>
      </trkpt>
      <trkpt lat="62.635140235047" lon="17.987670304193">
        <ele>85.6</ele>
        <time>2017-12-02T10:33:30Z</time>
      </trkpt>
      <trkpt lat="62.635130679681" lon="17.987700395214">
        <ele>85.6</ele>
        <time>2017-12-02T10:33:31Z</time>
      </trkpt>
      <trkpt lat="62.635115089347" lon="17.98772587619">
        <ele>85.8</ele>
        <time>2017-12-02T10:33:32Z</time>
      </trkpt>
      <trkpt lat="62.63510813237" lon="17.987755883392">
        <ele>85.8</ele>
        <time>2017-12-02T10:33:33Z</time>
      </trkpt>
      <trkpt lat="62.635088434905" lon="17.987780190902">
        <ele>86</ele>
        <time>2017-12-02T10:33:34Z</time>
      </trkpt>
      <trkpt lat="62.635073682761" lon="17.987817155081">
        <ele>86.2</ele>
        <time>2017-12-02T10:33:35Z</time>
      </trkpt>
      <trkpt lat="62.635062618653" lon="17.987848754844">
        <ele>86.4</ele>
        <time>2017-12-02T10:33:36Z</time>
      </trkpt>
      <trkpt lat="62.635043675559" lon="17.987866189196">
        <ele>86.6</ele>
        <time>2017-12-02T10:33:37Z</time>
      </trkpt>
      <trkpt lat="62.635034790745" lon="17.987893262733">
        <ele>86.6</ele>
        <time>2017-12-02T10:33:38Z</time>
      </trkpt>
      <trkpt lat="62.635022301714" lon="17.987919917175">
        <ele>86.8</ele>
        <time>2017-12-02T10:33:39Z</time>
      </trkpt>
      <trkpt lat="62.635005118819" lon="17.987942213029">
        <ele>86.8</ele>
        <time>2017-12-02T10:33:40Z</time>
      </trkpt>
      <trkpt lat="62.634995982548" lon="17.98796559853">
        <ele>87</ele>
        <time>2017-12-02T10:33:41Z</time>
      </trkpt>
      <trkpt lat="62.634979721662" lon="17.987992672067">
        <ele>87</ele>
        <time>2017-12-02T10:33:42Z</time>
      </trkpt>
      <trkpt lat="62.634970753029" lon="17.988005580193">
        <ele>87.2</ele>
        <time>2017-12-02T10:33:43Z</time>
      </trkpt>
      <trkpt lat="62.634954492143" lon="17.988020751432">
        <ele>87.2</ele>
        <time>2017-12-02T10:33:44Z</time>
      </trkpt>
      <trkpt lat="62.634937309248" lon="17.98803097735">
        <ele>87.2</ele>
        <time>2017-12-02T10:33:45Z</time>
      </trkpt>
      <trkpt lat="62.634921551276" lon="17.988051345367">
        <ele>87.2</ele>
        <time>2017-12-02T10:33:46Z</time>
      </trkpt>
      <trkpt lat="62.63490026125" lon="17.988054614308">
        <ele>87.2</ele>
        <time>2017-12-02T10:33:47Z</time>
      </trkpt>
      <trkpt lat="62.63488014469" lon="17.988080849655">
        <ele>87.2</ele>
        <time>2017-12-02T10:33:48Z</time>
      </trkpt>
      <trkpt lat="62.634864554356" lon="17.988091075573">
        <ele>87.2</ele>
        <time>2017-12-02T10:33:49Z</time>
      </trkpt>
      <trkpt lat="62.634838486647" lon="17.988097948731">
        <ele>87.4</ele>
        <time>2017-12-02T10:33:50Z</time>
      </trkpt>
      <trkpt lat="62.634820297924" lon="17.988114293436">
        <ele>87.4</ele>
        <time>2017-12-02T10:33:51Z</time>
      </trkpt>
      <trkpt lat="62.634798253527" lon="17.98812317825">
        <ele>87.6</ele>
        <time>2017-12-02T10:33:52Z</time>
      </trkpt>
      <trkpt lat="62.634771766723" lon="17.98813323653">
        <ele>87.6</ele>
        <time>2017-12-02T10:33:53Z</time>
      </trkpt>
      <trkpt lat="62.634753326543" lon="17.988140361145">
        <ele>87.6</ele>
        <time>2017-12-02T10:33:54Z</time>
      </trkpt>
      <trkpt lat="62.634728097024" lon="17.988131727788">
        <ele>88</ele>
        <time>2017-12-02T10:33:55Z</time>
      </trkpt>
      <trkpt lat="62.634706806998" lon="17.98815167671">
        <ele>88</ele>
        <time>2017-12-02T10:33:56Z</time>
      </trkpt>
      <trkpt lat="62.6346865228" lon="17.988144803552">
        <ele>88.2</ele>
        <time>2017-12-02T10:33:57Z</time>
      </trkpt>
      <trkpt lat="62.634668250258" lon="17.988148491588">
        <ele>88.4</ele>
        <time>2017-12-02T10:33:58Z</time>
      </trkpt>
      <trkpt lat="62.634649223345" lon="17.988155532384">
        <ele>88.6</ele>
        <time>2017-12-02T10:33:59Z</time>
      </trkpt>
      <trkpt lat="62.634624161464" lon="17.988155197108">
        <ele>88.6</ele>
        <time>2017-12-02T10:34:00Z</time>
      </trkpt>
      <trkpt lat="62.634603374352" lon="17.988173553469">
        <ele>88.8</ele>
        <time>2017-12-02T10:34:01Z</time>
      </trkpt>
      <trkpt lat="62.634579737394" lon="17.9881776606">
        <ele>89</ele>
        <time>2017-12-02T10:34:02Z</time>
      </trkpt>
      <trkpt lat="62.634559788472" lon="17.98818855707">
        <ele>89</ele>
        <time>2017-12-02T10:34:03Z</time>
      </trkpt>
      <trkpt lat="62.634540929197" lon="17.988182773559">
        <ele>89</ele>
        <time>2017-12-02T10:34:04Z</time>
      </trkpt>
      <trkpt lat="62.634519974447" lon="17.988200459368">
        <ele>89.2</ele>
        <time>2017-12-02T10:34:05Z</time>
      </trkpt>
      <trkpt lat="62.634496505127" lon="17.988204901775">
        <ele>89.2</ele>
        <time>2017-12-02T10:34:06Z</time>
      </trkpt>
      <trkpt lat="62.63447865168" lon="17.98821873191">
        <ele>89.2</ele>
        <time>2017-12-02T10:34:07Z</time>
      </trkpt>
      <trkpt lat="62.6344602115" lon="17.988215630607">
        <ele>89.4</ele>
        <time>2017-12-02T10:34:08Z</time>
      </trkpt>
      <trkpt lat="62.634436993637" lon="17.988239854298">
        <ele>89.4</ele>
        <time>2017-12-02T10:34:09Z</time>
      </trkpt>
      <trkpt lat="62.634418637276" lon="17.98823381933">
        <ele>89.4</ele>
        <time>2017-12-02T10:34:10Z</time>
      </trkpt>
      <trkpt lat="62.634400364734" lon="17.988236501538">
        <ele>89.6</ele>
        <time>2017-12-02T10:34:11Z</time>
      </trkpt>
      <trkpt lat="62.634382092192" lon="17.988238429375">
        <ele>89.4</ele>
        <time>2017-12-02T10:34:12Z</time>
      </trkpt>
      <trkpt lat="62.634366250401" lon="17.988229963656">
        <ele>89.6</ele>
        <time>2017-12-02T10:34:13Z</time>
      </trkpt>
      <trkpt lat="62.63434789404" lon="17.988230885665">
        <ele>89.6</ele>
        <time>2017-12-02T10:34:14Z</time>
      </trkpt>
      <trkpt lat="62.634317300105" lon="17.988233316416">
        <ele>89.6</ele>
        <time>2017-12-02T10:34:15Z</time>
      </trkpt>
      <trkpt lat="62.634301458314" lon="17.988241111583">
        <ele>89.8</ele>
        <time>2017-12-02T10:34:16Z</time>
      </trkpt>
      <trkpt lat="62.634275893519" lon="17.988235244253">
        <ele>89.8</ele>
        <time>2017-12-02T10:34:17Z</time>
      </trkpt>
      <trkpt lat="62.634255441683" lon="17.988234406063">
        <ele>89.8</ele>
        <time>2017-12-02T10:34:18Z</time>
      </trkpt>
      <trkpt lat="62.634228954879" lon="17.988223090498">
        <ele>89.8</ele>
        <time>2017-12-02T10:34:19Z</time>
      </trkpt>
      <trkpt lat="62.634209173595" lon="17.988223509593">
        <ele>89.8</ele>
        <time>2017-12-02T10:34:20Z</time>
      </trkpt>
      <trkpt lat="62.634181345687" lon="17.988225856525">
        <ele>89.8</ele>
        <time>2017-12-02T10:34:21Z</time>
      </trkpt>
      <trkpt lat="62.634157457272" lon="17.988229293104">
        <ele>89.8</ele>
        <time>2017-12-02T10:34:22Z</time>
      </trkpt>
      <trkpt lat="62.634129880821" lon="17.988228371095">
        <ele>89.8</ele>
        <time>2017-12-02T10:34:23Z</time>
      </trkpt>
      <trkpt lat="62.634109177528" lon="17.988215714426">
        <ele>89.8</ele>
        <time>2017-12-02T10:34:24Z</time>
      </trkpt>
      <trkpt lat="62.634083528914" lon="17.988207416345">
        <ele>89.8</ele>
        <time>2017-12-02T10:34:25Z</time>
      </trkpt>
      <trkpt lat="62.634063077078" lon="17.988199537359">
        <ele>90</ele>
        <time>2017-12-02T10:34:26Z</time>
      </trkpt>
      <trkpt lat="62.634042457604" lon="17.988182941197">
        <ele>90</ele>
        <time>2017-12-02T10:34:27Z</time>
      </trkpt>
      <trkpt lat="62.634023011596" lon="17.988180510446">
        <ele>90.2</ele>
        <time>2017-12-02T10:34:28Z</time>
      </trkpt>
      <trkpt lat="62.634001470113" lon="17.988157963135">
        <ele>90.2</ele>
        <time>2017-12-02T10:34:29Z</time>
      </trkpt>
      <trkpt lat="62.633980012449" lon="17.988148156312">
        <ele>90.4</ele>
        <time>2017-12-02T10:34:30Z</time>
      </trkpt>
      <trkpt lat="62.633959057699" lon="17.98812485463">
        <ele>90.4</ele>
        <time>2017-12-02T10:34:31Z</time>
      </trkpt>
      <trkpt lat="62.633938438225" lon="17.988118903481">
        <ele>90.4</ele>
        <time>2017-12-02T10:34:32Z</time>
      </trkpt>
      <trkpt lat="62.633919998045" lon="17.988097529636">
        <ele>90.4</ele>
        <time>2017-12-02T10:34:33Z</time>
      </trkpt>
      <trkpt lat="62.63390532972" lon="17.988093422505">
        <ele>90.4</ele>
        <time>2017-12-02T10:34:34Z</time>
      </trkpt>
      <trkpt lat="62.633886470445" lon="17.988066516606">
        <ele>90.4</ele>
        <time>2017-12-02T10:34:35Z</time>
      </trkpt>
      <trkpt lat="62.63386677298" lon="17.988063163846">
        <ele>90.6</ele>
        <time>2017-12-02T10:34:36Z</time>
      </trkpt>
      <trkpt lat="62.633845902049" lon="17.988038101965">
        <ele>90.6</ele>
        <time>2017-12-02T10:34:37Z</time>
      </trkpt>
      <trkpt lat="62.633826372222" lon="17.988036928499">
        <ele>90.8</ele>
        <time>2017-12-02T10:34:38Z</time>
      </trkpt>
      <trkpt lat="62.633807429128" lon="17.988018823595">
        <ele>90.8</ele>
        <time>2017-12-02T10:34:39Z</time>
      </trkpt>
      <trkpt lat="62.633785049455" lon="17.988000886329">
        <ele>90.8</ele>
        <time>2017-12-02T10:34:40Z</time>
      </trkpt>
      <trkpt lat="62.633763759429" lon="17.987990157497">
        <ele>91</ele>
        <time>2017-12-02T10:34:41Z</time>
      </trkpt>
      <trkpt lat="62.633745319249" lon="17.98797062767">
        <ele>91</ele>
        <time>2017-12-02T10:34:42Z</time>
      </trkpt>
      <trkpt lat="62.63372847163" lon="17.987956043164">
        <ele>91.2</ele>
        <time>2017-12-02T10:34:43Z</time>
      </trkpt>
      <trkpt lat="62.633706846328" lon="17.987929975455">
        <ele>91.2</ele>
        <time>2017-12-02T10:34:44Z</time>
      </trkpt>
      <trkpt lat="62.633689411976" lon="17.98791363075">
        <ele>91.2</ele>
        <time>2017-12-02T10:34:45Z</time>
      </trkpt>
      <trkpt lat="62.633675833298" lon="17.987899632977">
        <ele>91.4</ele>
        <time>2017-12-02T10:34:46Z</time>
      </trkpt>
      <trkpt lat="62.63366057824" lon="17.987893262733">
        <ele>91.2</ele>
        <time>2017-12-02T10:34:47Z</time>
      </trkpt>
      <trkpt lat="62.633643982078" lon="17.98787339763">
        <ele>91.2</ele>
        <time>2017-12-02T10:34:48Z</time>
      </trkpt>
      <trkpt lat="62.633631073952" lon="17.987868955223">
        <ele>91.4</ele>
        <time>2017-12-02T10:34:49Z</time>
      </trkpt>
      <trkpt lat="62.63361028684" lon="17.98785831021">
        <ele>91.4</ele>
        <time>2017-12-02T10:34:50Z</time>
      </trkpt>
      <trkpt lat="62.633597043438" lon="17.987833835062">
        <ele>91.6</ele>
        <time>2017-12-02T10:34:51Z</time>
      </trkpt>
      <trkpt lat="62.633582542751" lon="17.987822016583">
        <ele>91.6</ele>
        <time>2017-12-02T10:34:52Z</time>
      </trkpt>
      <trkpt lat="62.633568125883" lon="17.987795697417">
        <ele>91.6</ele>
        <time>2017-12-02T10:34:53Z</time>
      </trkpt>
      <trkpt lat="62.633553625196" lon="17.987788321345">
        <ele>91.8</ele>
        <time>2017-12-02T10:34:54Z</time>
      </trkpt>
      <trkpt lat="62.633534179188" lon="17.987756553944">
        <ele>92</ele>
        <time>2017-12-02T10:34:55Z</time>
      </trkpt>
      <trkpt lat="62.633516912474" lon="17.987744819284">
        <ele>92.2</ele>
        <time>2017-12-02T10:34:56Z</time>
      </trkpt>
      <trkpt lat="62.633503249977" lon="17.987712297512">
        <ele>92.2</ele>
        <time>2017-12-02T10:34:57Z</time>
      </trkpt>
      <trkpt lat="62.633489084566" lon="17.987700059938">
        <ele>92.4</ele>
        <time>2017-12-02T10:34:58Z</time>
      </trkpt>
      <trkpt lat="62.633469973834" lon="17.987667035252">
        <ele>92.4</ele>
        <time>2017-12-02T10:34:59Z</time>
      </trkpt>
      <trkpt lat="62.633454299681" lon="17.987653037479">
        <ele>92.6</ele>
        <time>2017-12-02T10:35:00Z</time>
      </trkpt>
      <trkpt lat="62.633436110958" lon="17.987626047761">
        <ele>92.6</ele>
        <time>2017-12-02T10:35:01Z</time>
      </trkpt>
      <trkpt lat="62.633418173692" lon="17.987601237337">
        <ele>92.8</ele>
        <time>2017-12-02T10:35:02Z</time>
      </trkpt>
      <trkpt lat="62.633405433204" lon="17.987582294243">
        <ele>92.8</ele>
        <time>2017-12-02T10:35:03Z</time>
      </trkpt>
      <trkpt lat="62.633393111811" lon="17.987559746932">
        <ele>93</ele>
        <time>2017-12-02T10:35:04Z</time>
      </trkpt>
      <trkpt lat="62.633378024391" lon="17.987536026155">
        <ele>93.2</ele>
        <time>2017-12-02T10:35:05Z</time>
      </trkpt>
      <trkpt lat="62.633362853152" lon="17.987500067804">
        <ele>93.6</ele>
        <time>2017-12-02T10:35:06Z</time>
      </trkpt>
      <trkpt lat="62.633353633062" lon="17.987461762521">
        <ele>93.6</ele>
        <time>2017-12-02T10:35:07Z</time>
      </trkpt>
      <trkpt lat="62.633338797099" lon="17.987426977636">
        <ele>93.6</ele>
        <time>2017-12-02T10:35:08Z</time>
      </trkpt>
      <trkpt lat="62.63332194948" lon="17.987380290453">
        <ele>93.8</ele>
        <time>2017-12-02T10:35:09Z</time>
      </trkpt>
      <trkpt lat="62.633306694422" lon="17.987336201659">
        <ele>93.8</ele>
        <time>2017-12-02T10:35:10Z</time>
      </trkpt>
      <trkpt lat="62.633291607002" lon="17.987276187255">
        <ele>94</ele>
        <time>2017-12-02T10:35:11Z</time>
      </trkpt>
      <trkpt lat="62.633270903709" lon="17.987206366028">
        <ele>93.8</ele>
        <time>2017-12-02T10:35:12Z</time>
      </trkpt>
      <trkpt lat="62.633246093285" lon="17.987105364133">
        <ele>93.8</ele>
        <time>2017-12-02T10:35:13Z</time>
      </trkpt>
      <trkpt lat="62.633224551802" lon="17.987009810473">
        <ele>93.4</ele>
        <time>2017-12-02T10:35:14Z</time>
      </trkpt>
      <trkpt lat="62.633208877649" lon="17.986914340632">
        <ele>93.4</ele>
        <time>2017-12-02T10:35:15Z</time>
      </trkpt>
      <trkpt lat="62.633195131333" lon="17.98682398375">
        <ele>93</ele>
        <time>2017-12-02T10:35:16Z</time>
      </trkpt>
      <trkpt lat="62.633185575967" lon="17.986714767593">
        <ele>92.8</ele>
        <time>2017-12-02T10:35:17Z</time>
      </trkpt>
      <trkpt lat="62.63316353157" lon="17.986655675198">
        <ele>92.6</ele>
        <time>2017-12-02T10:35:18Z</time>
      </trkpt>
      <trkpt lat="62.633157245145" lon="17.986572694388">
        <ele>92.2</ele>
        <time>2017-12-02T10:35:19Z</time>
      </trkpt>
      <trkpt lat="62.633142409182" lon="17.986503208437">
        <ele>92</ele>
        <time>2017-12-02T10:35:20Z</time>
      </trkpt>
      <trkpt lat="62.633137044766" lon="17.986411929546">
        <ele>91.8</ele>
        <time>2017-12-02T10:35:21Z</time>
      </trkpt>
      <trkpt lat="62.633124220459" lon="17.986331547125">
        <ele>91.4</ele>
        <time>2017-12-02T10:35:22Z</time>
      </trkpt>
      <trkpt lat="62.633123130812" lon="17.98622719247">
        <ele>91</ele>
        <time>2017-12-02T10:35:23Z</time>
      </trkpt>
      <trkpt lat="62.633123214631" lon="17.986132560819">
        <ele>90.4</ele>
        <time>2017-12-02T10:35:24Z</time>
      </trkpt>
      <trkpt lat="62.633133272911" lon="17.9860402761">
        <ele>89.8</ele>
        <time>2017-12-02T10:35:25Z</time>
      </trkpt>
      <trkpt lat="62.633136458033" lon="17.985938100739">
        <ele>89.4</ele>
        <time>2017-12-02T10:35:26Z</time>
      </trkpt>
      <trkpt lat="62.633139810793" lon="17.985841205975">
        <ele>88.8</ele>
        <time>2017-12-02T10:35:27Z</time>
      </trkpt>
      <trkpt lat="62.63314173863" lon="17.985753866577">
        <ele>88.2</ele>
        <time>2017-12-02T10:35:28Z</time>
      </trkpt>
      <trkpt lat="62.633144169381" lon="17.985667868283">
        <ele>87.8</ele>
        <time>2017-12-02T10:35:29Z</time>
      </trkpt>
      <trkpt lat="62.633146432494" lon="17.985576589392">
        <ele>87.6</ele>
        <time>2017-12-02T10:35:30Z</time>
      </trkpt>
      <trkpt lat="62.633149449978" lon="17.985485142863">
        <ele>87.4</ele>
        <time>2017-12-02T10:35:31Z</time>
      </trkpt>
      <trkpt lat="62.63315347329" lon="17.98537726781">
        <ele>87.4</ele>
        <time>2017-12-02T10:35:32Z</time>
      </trkpt>
      <trkpt lat="62.633165627045" lon="17.985262351961">
        <ele>87.4</ele>
        <time>2017-12-02T10:35:33Z</time>
      </trkpt>
      <trkpt lat="62.633176607334" lon="17.985172833269">
        <ele>87.2</ele>
        <time>2017-12-02T10:35:34Z</time>
      </trkpt>
      <trkpt lat="62.633195634247" lon="17.985025814743">
        <ele>87</ele>
        <time>2017-12-02T10:35:35Z</time>
      </trkpt>
      <trkpt lat="62.633212733323" lon="17.984916430948">
        <ele>86.8</ele>
        <time>2017-12-02T10:35:36Z</time>
      </trkpt>
      <trkpt lat="62.633231676417" lon="17.984814758501">
        <ele>86.4</ele>
        <time>2017-12-02T10:35:37Z</time>
      </trkpt>
      <trkpt lat="62.633251122425" lon="17.984716690271">
        <ele>86</ele>
        <time>2017-12-02T10:35:38Z</time>
      </trkpt>
      <trkpt lat="62.633266545121" lon="17.984649467433">
        <ele>85.6</ele>
        <time>2017-12-02T10:35:39Z</time>
      </trkpt>
      <trkpt lat="62.63328506912" lon="17.9845650617">
        <ele>85.2</ele>
        <time>2017-12-02T10:35:40Z</time>
      </trkpt>
      <trkpt lat="62.633308706078" lon="17.984474285723">
        <ele>85.2</ele>
        <time>2017-12-02T10:35:41Z</time>
      </trkpt>
      <trkpt lat="62.633324883145" lon="17.984404799772">
        <ele>85.2</ele>
        <time>2017-12-02T10:35:42Z</time>
      </trkpt>
      <trkpt lat="62.633333265045" lon="17.98432450117">
        <ele>85.2</ele>
        <time>2017-12-02T10:35:43Z</time>
      </trkpt>
      <trkpt lat="62.633334438511" lon="17.984252333011">
        <ele>85.4</ele>
        <time>2017-12-02T10:35:44Z</time>
      </trkpt>
      <trkpt lat="62.633339886746" lon="17.984175051893">
        <ele>85.6</ele>
        <time>2017-12-02T10:35:45Z</time>
      </trkpt>
      <trkpt lat="62.633347262818" lon="17.984139177361">
        <ele>86</ele>
        <time>2017-12-02T10:35:46Z</time>
      </trkpt>
      <trkpt lat="62.633364445713" lon="17.984089724151">
        <ele>85.8</ele>
        <time>2017-12-02T10:35:47Z</time>
      </trkpt>
      <trkpt lat="62.633374001079" lon="17.984012359214">
        <ele>85.8</ele>
        <time>2017-12-02T10:35:48Z</time>
      </trkpt>
      <trkpt lat="62.63337810821" lon="17.983905489989">
        <ele>85.8</ele>
        <time>2017-12-02T10:35:49Z</time>
      </trkpt>
      <trkpt lat="62.633389507594" lon="17.983850001811">
        <ele>85.8</ele>
        <time>2017-12-02T10:35:50Z</time>
      </trkpt>
      <trkpt lat="62.633402248082" lon="17.983785377362">
        <ele>85.8</ele>
        <time>2017-12-02T10:35:51Z</time>
      </trkpt>
      <trkpt lat="62.633423035194" lon="17.983735505057">
        <ele>85.8</ele>
        <time>2017-12-02T10:35:52Z</time>
      </trkpt>
      <trkpt lat="62.633438038795" lon="17.983662163432">
        <ele>86</ele>
        <time>2017-12-02T10:35:53Z</time>
      </trkpt>
      <trkpt lat="62.633444409039" lon="17.983591336377">
        <ele>86</ele>
        <time>2017-12-02T10:35:54Z</time>
      </trkpt>
      <trkpt lat="62.633453712948" lon="17.983526460471">
        <ele>86</ele>
        <time>2017-12-02T10:35:55Z</time>
      </trkpt>
      <trkpt lat="62.633462597762" lon="17.983462758031">
        <ele>86</ele>
        <time>2017-12-02T10:35:56Z</time>
      </trkpt>
      <trkpt lat="62.633472236947" lon="17.983413640097">
        <ele>86</ele>
        <time>2017-12-02T10:35:57Z</time>
      </trkpt>
      <trkpt lat="62.633482965779" lon="17.983359325385">
        <ele>86</ele>
        <time>2017-12-02T10:35:58Z</time>
      </trkpt>
      <trkpt lat="62.633494700439" lon="17.983305345949">
        <ele>86.2</ele>
        <time>2017-12-02T10:35:59Z</time>
      </trkpt>
      <trkpt lat="62.633507440927" lon="17.983226891365">
        <ele>86</ele>
        <time>2017-12-02T10:36:00Z</time>
      </trkpt>
      <trkpt lat="62.633515152275" lon="17.983150699894">
        <ele>86.2</ele>
        <time>2017-12-02T10:36:01Z</time>
      </trkpt>
      <trkpt lat="62.633532167532" lon="17.983097055734">
        <ele>86.2</ele>
        <time>2017-12-02T10:36:02Z</time>
      </trkpt>
      <trkpt lat="62.633546835857" lon="17.983032515104">
        <ele>86.2</ele>
        <time>2017-12-02T10:36:03Z</time>
      </trkpt>
      <trkpt lat="62.633557061775" lon="17.98298423536">
        <ele>86.2</ele>
        <time>2017-12-02T10:36:04Z</time>
      </trkpt>
      <trkpt lat="62.633571813919" lon="17.982938218729">
        <ele>86.2</ele>
        <time>2017-12-02T10:36:05Z</time>
      </trkpt>
      <trkpt lat="62.633581453104" lon="17.982886418587">
        <ele>86.4</ele>
        <time>2017-12-02T10:36:06Z</time>
      </trkpt>
      <trkpt lat="62.633597630171" lon="17.982824392527">
        <ele>86.4</ele>
        <time>2017-12-02T10:36:07Z</time>
      </trkpt>
      <trkpt lat="62.63360274313" lon="17.982778711172">
        <ele>86.4</ele>
        <time>2017-12-02T10:36:08Z</time>
      </trkpt>
      <trkpt lat="62.63362034512" lon="17.982726156659">
        <ele>86.4</ele>
        <time>2017-12-02T10:36:09Z</time>
      </trkpt>
      <trkpt lat="62.6336304034" lon="17.982684750073">
        <ele>86.4</ele>
        <time>2017-12-02T10:36:10Z</time>
      </trkpt>
      <trkpt lat="62.633645239363" lon="17.982616772864">
        <ele>86.4</ele>
        <time>2017-12-02T10:36:11Z</time>
      </trkpt>
      <trkpt lat="62.633645826096" lon="17.982525326335">
        <ele>86.4</ele>
        <time>2017-12-02T10:36:12Z</time>
      </trkpt>
      <trkpt lat="62.633661500249" lon="17.982466904492">
        <ele>86.4</ele>
        <time>2017-12-02T10:36:13Z</time>
      </trkpt>
      <trkpt lat="62.633671139434" lon="17.98240504607">
        <ele>86.4</ele>
        <time>2017-12-02T10:36:14Z</time>
      </trkpt>
      <trkpt lat="62.633683460827" lon="17.98235056372">
        <ele>86.4</ele>
        <time>2017-12-02T10:36:15Z</time>
      </trkpt>
      <trkpt lat="62.633689579614" lon="17.982289794945">
        <ele>86.4</ele>
        <time>2017-12-02T10:36:16Z</time>
      </trkpt>
      <trkpt lat="62.633692261822" lon="17.982227433609">
        <ele>86.4</ele>
        <time>2017-12-02T10:36:17Z</time>
      </trkpt>
      <trkpt lat="62.633699051161" lon="17.982172113069">
        <ele>86.4</ele>
        <time>2017-12-02T10:36:18Z</time>
      </trkpt>
      <trkpt lat="62.633703996482" lon="17.982125342067">
        <ele>86.4</ele>
        <time>2017-12-02T10:36:19Z</time>
      </trkpt>
      <trkpt lat="62.633712797477" lon="17.982078487246">
        <ele>86.4</ele>
        <time>2017-12-02T10:36:20Z</time>
      </trkpt>
      <trkpt lat="62.633712043106" lon="17.982032302977">
        <ele>86.4</ele>
        <time>2017-12-02T10:36:21Z</time>
      </trkpt>
      <trkpt lat="62.633717323703" lon="17.981978323541">
        <ele>86.4</ele>
        <time>2017-12-02T10:36:22Z</time>
      </trkpt>
      <trkpt lat="62.633724364499" lon="17.981950076538">
        <ele>86.4</ele>
        <time>2017-12-02T10:36:23Z</time>
      </trkpt>
      <trkpt lat="62.633725873241" lon="17.98188369189">
        <ele>86.4</ele>
        <time>2017-12-02T10:36:24Z</time>
      </trkpt>
      <trkpt lat="62.633725286508" lon="17.981828874264">
        <ele>86.4</ele>
        <time>2017-12-02T10:36:25Z</time>
      </trkpt>
      <trkpt lat="62.633729477458" lon="17.981767770213">
        <ele>86.4</ele>
        <time>2017-12-02T10:36:26Z</time>
      </trkpt>
      <trkpt lat="62.633732159666" lon="17.981705911791">
        <ele>86.4</ele>
        <time>2017-12-02T10:36:27Z</time>
      </trkpt>
      <trkpt lat="62.633736350616" lon="17.981657045314">
        <ele>86.6</ele>
        <time>2017-12-02T10:36:28Z</time>
      </trkpt>
      <trkpt lat="62.633740290109" lon="17.981581692033">
        <ele>86.6</ele>
        <time>2017-12-02T10:36:29Z</time>
      </trkpt>
      <trkpt lat="62.633751354217" lon="17.98153165209">
        <ele>86.6</ele>
        <time>2017-12-02T10:36:30Z</time>
      </trkpt>
      <trkpt lat="62.633759903755" lon="17.981460992673">
        <ele>86.8</ele>
        <time>2017-12-02T10:36:31Z</time>
      </trkpt>
      <trkpt lat="62.633766525456" lon="17.98142017282">
        <ele>86.8</ele>
        <time>2017-12-02T10:36:32Z</time>
      </trkpt>
      <trkpt lat="62.633774991175" lon="17.981350519231">
        <ele>86.8</ele>
        <time>2017-12-02T10:36:33Z</time>
      </trkpt>
      <trkpt lat="62.633777673383" lon="17.981299892555">
        <ele>86.6</ele>
        <time>2017-12-02T10:36:34Z</time>
      </trkpt>
      <trkpt lat="62.633789156586" lon="17.981244655834">
        <ele>86.6</ele>
        <time>2017-12-02T10:36:35Z</time>
      </trkpt>
      <trkpt lat="62.633797622305" lon="17.981179444652">
        <ele>86.6</ele>
        <time>2017-12-02T10:36:36Z</time>
      </trkpt>
      <trkpt lat="62.633807596766" lon="17.981127141596">
        <ele>86.6</ele>
        <time>2017-12-02T10:36:37Z</time>
      </trkpt>
      <trkpt lat="62.633823270919" lon="17.981081041146">
        <ele>86.6</ele>
        <time>2017-12-02T10:36:38Z</time>
      </trkpt>
      <trkpt lat="62.633841040547" lon="17.981051453039">
        <ele>86.8</ele>
        <time>2017-12-02T10:36:39Z</time>
      </trkpt>
      <trkpt lat="62.633852775207" lon="17.980998227974">
        <ele>86.8</ele>
        <time>2017-12-02T10:36:40Z</time>
      </trkpt>
      <trkpt lat="62.633872472672" lon="17.980956569931">
        <ele>87</ele>
        <time>2017-12-02T10:36:41Z</time>
      </trkpt>
      <trkpt lat="62.633886721902" lon="17.980902255219">
        <ele>87</ele>
        <time>2017-12-02T10:36:42Z</time>
      </trkpt>
      <trkpt lat="62.633900384399" lon="17.980866045411">
        <ele>87.2</ele>
        <time>2017-12-02T10:36:43Z</time>
      </trkpt>
      <trkpt lat="62.633920752416" lon="17.980829667965">
        <ele>87.2</ele>
        <time>2017-12-02T10:36:44Z</time>
      </trkpt>
      <trkpt lat="62.633934582551" lon="17.980780550031">
        <ele>87.4</ele>
        <time>2017-12-02T10:36:45Z</time>
      </trkpt>
      <trkpt lat="62.633955788758" lon="17.980733443753">
        <ele>87.4</ele>
        <time>2017-12-02T10:36:46Z</time>
      </trkpt>
      <trkpt lat="62.633974983309" lon="17.980673094073">
        <ele>87.6</ele>
        <time>2017-12-02T10:36:47Z</time>
      </trkpt>
      <trkpt lat="62.633993423489" lon="17.980637219541">
        <ele>87.6</ele>
        <time>2017-12-02T10:36:48Z</time>
      </trkpt>
      <trkpt lat="62.634007672719" lon="17.980597321697">
        <ele>87.8</ele>
        <time>2017-12-02T10:36:49Z</time>
      </trkpt>
      <trkpt lat="62.63402267632" lon="17.980533535438">
        <ele>87.8</ele>
        <time>2017-12-02T10:36:50Z</time>
      </trkpt>
      <trkpt lat="62.634033991885" lon="17.980501684218">
        <ele>87.8</ele>
        <time>2017-12-02T10:36:51Z</time>
      </trkpt>
      <trkpt lat="62.634055281911" lon="17.980461954012">
        <ele>87.8</ele>
        <time>2017-12-02T10:36:52Z</time>
      </trkpt>
      <trkpt lat="62.634071207521" lon="17.980428342593">
        <ele>87.8</ele>
        <time>2017-12-02T10:36:53Z</time>
      </trkpt>
      <trkpt lat="62.634086714036" lon="17.980384002342">
        <ele>87.8</ele>
        <time>2017-12-02T10:36:54Z</time>
      </trkpt>
      <trkpt lat="62.634110267175" lon="17.980366903266">
        <ele>87.8</ele>
        <time>2017-12-02T10:36:55Z</time>
      </trkpt>
      <trkpt lat="62.634132730667" lon="17.980326251051">
        <ele>87.8</ele>
        <time>2017-12-02T10:36:56Z</time>
      </trkpt>
      <trkpt lat="62.634146644621" lon="17.980271601063">
        <ele>88</ele>
        <time>2017-12-02T10:36:57Z</time>
      </trkpt>
      <trkpt lat="62.634164749525" lon="17.980231200305">
        <ele>87.8</ele>
        <time>2017-12-02T10:36:58Z</time>
      </trkpt>
      <trkpt lat="62.634184111714" lon="17.980186440959">
        <ele>88</ele>
        <time>2017-12-02T10:36:59Z</time>
      </trkpt>
      <trkpt lat="62.634206994301" lon="17.980138328853">
        <ele>87.8</ele>
        <time>2017-12-02T10:37:00Z</time>
      </trkpt>
      <trkpt lat="62.634221914083" lon="17.980096167896">
        <ele>87.8</ele>
        <time>2017-12-02T10:37:01Z</time>
      </trkpt>
      <trkpt lat="62.634238174969" lon="17.980048139609">
        <ele>87.8</ele>
        <time>2017-12-02T10:37:02Z</time>
      </trkpt>
      <trkpt lat="62.634250496362" lon="17.979999356951">
        <ele>88</ele>
        <time>2017-12-02T10:37:03Z</time>
      </trkpt>
      <trkpt lat="62.634263739764" lon="17.979954597605">
        <ele>88</ele>
        <time>2017-12-02T10:37:04Z</time>
      </trkpt>
      <trkpt lat="62.634277653718" lon="17.979867425845">
        <ele>88</ele>
        <time>2017-12-02T10:37:05Z</time>
      </trkpt>
      <trkpt lat="62.634292657319" lon="17.979822331223">
        <ele>88</ele>
        <time>2017-12-02T10:37:06Z</time>
      </trkpt>
      <trkpt lat="62.634315707544" lon="17.979771536909">
        <ele>88</ele>
        <time>2017-12-02T10:37:07Z</time>
      </trkpt>
      <trkpt lat="62.634324340901" lon="17.979713450342">
        <ele>88</ele>
        <time>2017-12-02T10:37:08Z</time>
      </trkpt>
      <trkpt lat="62.634334315362" lon="17.97966835572">
        <ele>88.2</ele>
        <time>2017-12-02T10:37:09Z</time>
      </trkpt>
      <trkpt lat="62.634347474945" lon="17.979599875597">
        <ele>88</ele>
        <time>2017-12-02T10:37:10Z</time>
      </trkpt>
      <trkpt lat="62.634358203777" lon="17.979529802913">
        <ele>88</ele>
        <time>2017-12-02T10:37:11Z</time>
      </trkpt>
      <trkpt lat="62.634356108302" lon="17.979473141269">
        <ele>87.8</ele>
        <time>2017-12-02T10:37:12Z</time>
      </trkpt>
      <trkpt lat="62.634365831306" lon="17.979422095498">
        <ele>87.8</ele>
        <time>2017-12-02T10:37:13Z</time>
      </trkpt>
      <trkpt lat="62.634374548482" lon="17.979361829637">
        <ele>87.8</ele>
        <time>2017-12-02T10:37:14Z</time>
      </trkpt>
      <trkpt lat="62.634385193495" lon="17.979317237929">
        <ele>87.8</ele>
        <time>2017-12-02T10:37:15Z</time>
      </trkpt>
      <trkpt lat="62.634401454381" lon="17.979266695072">
        <ele>87.8</ele>
        <time>2017-12-02T10:37:16Z</time>
      </trkpt>
      <trkpt lat="62.634418721095" lon="17.979230652902">
        <ele>87.8</ele>
        <time>2017-12-02T10:37:17Z</time>
      </trkpt>
      <trkpt lat="62.634438921474" lon="17.979187653755">
        <ele>88</ele>
        <time>2017-12-02T10:37:18Z</time>
      </trkpt>
      <trkpt lat="62.634449650306" lon="17.979156976001">
        <ele>88</ele>
        <time>2017-12-02T10:37:19Z</time>
      </trkpt>
      <trkpt lat="62.634459121853" lon="17.979088998792">
        <ele>88</ele>
        <time>2017-12-02T10:37:20Z</time>
      </trkpt>
      <trkpt lat="62.634463228984" lon="17.979044658541">
        <ele>88</ele>
        <time>2017-12-02T10:37:21Z</time>
      </trkpt>
      <trkpt lat="62.6344853572" lon="17.97892907214">
        <ele>88</ele>
        <time>2017-12-02T10:37:23Z</time>
      </trkpt>
      <trkpt lat="62.634501701905" lon="17.97889135359">
        <ele>88</ele>
        <time>2017-12-02T10:37:24Z</time>
      </trkpt>
      <trkpt lat="62.634521567008" lon="17.978858831818">
        <ele>88</ele>
        <time>2017-12-02T10:37:25Z</time>
      </trkpt>
      <trkpt lat="62.634543108491" lon="17.978845839873">
        <ele>87.8</ele>
        <time>2017-12-02T10:37:26Z</time>
      </trkpt>
      <trkpt lat="62.634565320526" lon="17.978839637267">
        <ele>88</ele>
        <time>2017-12-02T10:37:27Z</time>
      </trkpt>
      <trkpt lat="62.634581078498" lon="17.978834775765">
        <ele>87.8</ele>
        <time>2017-12-02T10:37:28Z</time>
      </trkpt>
      <trkpt lat="62.63459851285" lon="17.978831171548">
        <ele>88</ele>
        <time>2017-12-02T10:37:29Z</time>
      </trkpt>
      <trkpt lat="62.634612510623" lon="17.978819353069">
        <ele>88</ele>
        <time>2017-12-02T10:37:30Z</time>
      </trkpt>
      <trkpt lat="62.63463036407" lon="17.978815581214">
        <ele>88</ele>
        <time>2017-12-02T10:37:31Z</time>
      </trkpt>
      <trkpt lat="62.634654168666" lon="17.978817173775">
        <ele>88</ele>
        <time>2017-12-02T10:37:32Z</time>
      </trkpt>
      <trkpt lat="62.634672944122" lon="17.97882094563">
        <ele>88</ele>
        <time>2017-12-02T10:37:33Z</time>
      </trkpt>
      <trkpt lat="62.634706471722" lon="17.978837374154">
        <ele>88</ele>
        <time>2017-12-02T10:37:34Z</time>
      </trkpt>
      <trkpt lat="62.634730779232" lon="17.978855059963">
        <ele>87.8</ele>
        <time>2017-12-02T10:37:35Z</time>
      </trkpt>
      <trkpt lat="62.634756846941" lon="17.978869476831">
        <ele>87.8</ele>
        <time>2017-12-02T10:37:36Z</time>
      </trkpt>
      <trkpt lat="62.634783082288" lon="17.97888045712">
        <ele>87.8</ele>
        <time>2017-12-02T10:37:37Z</time>
      </trkpt>
      <trkpt lat="62.63481057492" lon="17.978893700522">
        <ele>87.6</ele>
        <time>2017-12-02T10:37:38Z</time>
      </trkpt>
      <trkpt lat="62.634833708964" lon="17.978900406042">
        <ele>87.4</ele>
        <time>2017-12-02T10:37:39Z</time>
      </trkpt>
      <trkpt lat="62.634864973451" lon="17.978914152358">
        <ele>87.4</ele>
        <time>2017-12-02T10:37:40Z</time>
      </trkpt>
      <trkpt lat="62.634888610409" lon="17.978912895073">
        <ele>87.4</ele>
        <time>2017-12-02T10:37:41Z</time>
      </trkpt>
      <trkpt lat="62.634908224055" lon="17.978922198982">
        <ele>87</ele>
        <time>2017-12-02T10:37:42Z</time>
      </trkpt>
      <trkpt lat="62.634927502425" lon="17.978931419072">
        <ele>87</ele>
        <time>2017-12-02T10:37:43Z</time>
      </trkpt>
      <trkpt lat="62.634950049736" lon="17.9789408068">
        <ele>87</ele>
        <time>2017-12-02T10:37:44Z</time>
      </trkpt>
      <trkpt lat="62.634975111617" lon="17.978952625279">
        <ele>86.8</ele>
        <time>2017-12-02T10:37:45Z</time>
      </trkpt>
      <trkpt lat="62.634993467978" lon="17.97896008517">
        <ele>86.8</ele>
        <time>2017-12-02T10:37:46Z</time>
      </trkpt>
      <trkpt lat="62.635014674185" lon="17.978969975812">
        <ele>86.6</ele>
        <time>2017-12-02T10:37:47Z</time>
      </trkpt>
      <trkpt lat="62.635035880392" lon="17.978977519522">
        <ele>86.6</ele>
        <time>2017-12-02T10:37:48Z</time>
      </trkpt>
      <trkpt lat="62.635056751323" lon="17.978984979413">
        <ele>86.6</ele>
        <time>2017-12-02T10:37:49Z</time>
      </trkpt>
      <trkpt lat="62.635080639738" lon="17.978994534779">
        <ele>86.6</ele>
        <time>2017-12-02T10:37:50Z</time>
      </trkpt>
      <trkpt lat="62.635102600316" lon="17.979002581403">
        <ele>86.6</ele>
        <time>2017-12-02T10:37:51Z</time>
      </trkpt>
      <trkpt lat="62.635127829835" lon="17.979008197276">
        <ele>86.6</ele>
        <time>2017-12-02T10:37:52Z</time>
      </trkpt>
      <trkpt lat="62.635156160657" lon="17.979015740986">
        <ele>86.4</ele>
        <time>2017-12-02T10:37:53Z</time>
      </trkpt>
      <trkpt lat="62.635182563642" lon="17.979016914452">
        <ele>86.4</ele>
        <time>2017-12-02T10:37:54Z</time>
      </trkpt>
      <trkpt lat="62.635213911948" lon="17.979021189221">
        <ele>86.2</ele>
        <time>2017-12-02T10:37:55Z</time>
      </trkpt>
      <trkpt lat="62.635245763168" lon="17.979026385999">
        <ele>86</ele>
        <time>2017-12-02T10:37:56Z</time>
      </trkpt>
      <trkpt lat="62.635275602732" lon="17.979034432623">
        <ele>86</ele>
        <time>2017-12-02T10:37:57Z</time>
      </trkpt>
      <trkpt lat="62.635300161699" lon="17.979023955248">
        <ele>86</ele>
        <time>2017-12-02T10:37:58Z</time>
      </trkpt>
      <trkpt lat="62.635328911616" lon="17.979027810922">
        <ele>85.8</ele>
        <time>2017-12-02T10:37:59Z</time>
      </trkpt>
      <trkpt lat="62.635355146963" lon="17.979030744587">
        <ele>85.8</ele>
        <time>2017-12-02T10:38:00Z</time>
      </trkpt>
      <trkpt lat="62.635383561604" lon="17.979032420967">
        <ele>85.8</ele>
        <time>2017-12-02T10:38:01Z</time>
      </trkpt>
      <trkpt lat="62.635415915738" lon="17.979028313836">
        <ele>85.6</ele>
        <time>2017-12-02T10:38:02Z</time>
      </trkpt>
      <trkpt lat="62.63543754104" lon="17.979020602488">
        <ele>85.6</ele>
        <time>2017-12-02T10:38:03Z</time>
      </trkpt>
      <trkpt lat="62.635472577382" lon="17.979013477873">
        <ele>85.4</ele>
        <time>2017-12-02T10:38:04Z</time>
      </trkpt>
      <trkpt lat="62.635494118865" lon="17.978998725729">
        <ele>85.4</ele>
        <time>2017-12-02T10:38:05Z</time>
      </trkpt>
      <trkpt lat="62.635531753596" lon="17.97899528915">
        <ele>85.2</ele>
        <time>2017-12-02T10:38:06Z</time>
      </trkpt>
      <trkpt lat="62.635561844617" lon="17.978988751268">
        <ele>85.2</ele>
        <time>2017-12-02T10:38:07Z</time>
      </trkpt>
      <trkpt lat="62.635597551511" lon="17.978983805947">
        <ele>85</ele>
        <time>2017-12-02T10:38:08Z</time>
      </trkpt>
      <trkpt lat="62.635628480722" lon="17.978976262237">
        <ele>84.8</ele>
        <time>2017-12-02T10:38:09Z</time>
      </trkpt>
      <trkpt lat="62.635668210928" lon="17.978979698816">
        <ele>84.8</ele>
        <time>2017-12-02T10:38:10Z</time>
      </trkpt>
      <trkpt lat="62.635702744356" lon="17.978984141223">
        <ele>84.6</ele>
        <time>2017-12-02T10:38:11Z</time>
      </trkpt>
      <trkpt lat="62.635737361603" lon="17.978971736011">
        <ele>84.2</ele>
        <time>2017-12-02T10:38:12Z</time>
      </trkpt>
      <trkpt lat="62.635762172027" lon="17.978970311088">
        <ele>84</ele>
        <time>2017-12-02T10:38:13Z</time>
      </trkpt>
      <trkpt lat="62.635794107066" lon="17.978973747667">
        <ele>84</ele>
        <time>2017-12-02T10:38:14Z</time>
      </trkpt>
      <trkpt lat="62.635814977997" lon="17.978969975812">
        <ele>83.6</ele>
        <time>2017-12-02T10:38:15Z</time>
      </trkpt>
      <trkpt lat="62.635847583588" lon="17.978979866454">
        <ele>83.6</ele>
        <time>2017-12-02T10:38:16Z</time>
      </trkpt>
      <trkpt lat="62.635869795623" lon="17.978982213386">
        <ele>83.6</ele>
        <time>2017-12-02T10:38:17Z</time>
      </trkpt>
      <trkpt lat="62.635889409269" lon="17.978992858399">
        <ele>83.4</ele>
        <time>2017-12-02T10:38:18Z</time>
      </trkpt>
      <trkpt lat="62.635909190553" lon="17.979001491756">
        <ele>83.2</ele>
        <time>2017-12-02T10:38:19Z</time>
      </trkpt>
      <trkpt lat="62.635923188326" lon="17.97900534743">
        <ele>83.2</ele>
        <time>2017-12-02T10:38:20Z</time>
      </trkpt>
      <trkpt lat="62.635935342081" lon="17.979009035466">
        <ele>83.2</ele>
        <time>2017-12-02T10:38:21Z</time>
      </trkpt>
      <trkpt lat="62.635957973211" lon="17.979016746814">
        <ele>83.4</ele>
        <time>2017-12-02T10:38:22Z</time>
      </trkpt>
      <trkpt lat="62.635980101427" lon="17.979027391827">
        <ele>83.4</ele>
        <time>2017-12-02T10:38:23Z</time>
      </trkpt>
      <trkpt lat="62.635996865227" lon="17.979033762071">
        <ele>83.6</ele>
        <time>2017-12-02T10:38:24Z</time>
      </trkpt>
      <trkpt lat="62.636011030638" lon="17.97904641874">
        <ele>83.8</ele>
        <time>2017-12-02T10:38:25Z</time>
      </trkpt>
      <trkpt lat="62.63603181775" lon="17.979080868349">
        <ele>83.8</ele>
        <time>2017-12-02T10:38:26Z</time>
      </trkpt>
      <trkpt lat="62.636040702564" lon="17.979108696257">
        <ele>83.8</ele>
        <time>2017-12-02T10:38:27Z</time>
      </trkpt>
      <trkpt lat="62.636044139143" lon="17.979161418408">
        <ele>83.8</ele>
        <time>2017-12-02T10:38:28Z</time>
      </trkpt>
      <trkpt lat="62.636040702564" lon="17.979190000687">
        <ele>84</ele>
        <time>2017-12-02T10:38:29Z</time>
      </trkpt>
      <trkpt lat="62.63603517051" lon="17.979210871618">
        <ele>84</ele>
        <time>2017-12-02T10:38:30Z</time>
      </trkpt>
      <trkpt lat="62.636031398655" lon="17.979224869391">
        <ele>84</ele>
        <time>2017-12-02T10:38:31Z</time>
      </trkpt>
      <trkpt lat="62.636031398655" lon="17.979228222151">
        <ele>83.8</ele>
        <time>2017-12-02T10:38:32Z</time>
      </trkpt>
      <trkpt lat="62.636031733931" lon="17.979227803056">
        <ele>83.8</ele>
        <time>2017-12-02T10:38:33Z</time>
      </trkpt>
      <trkpt lat="62.636035002872" lon="17.979220594622">
        <ele>83.8</ele>
        <time>2017-12-02T10:38:34Z</time>
      </trkpt>
      <trkpt lat="62.635986220214" lon="17.979665338236">
        <ele>83.4</ele>
        <time>2017-12-02T10:38:45Z</time>
      </trkpt>
      <trkpt lat="62.635980604341" lon="17.979783774483">
        <ele>83.4</ele>
        <time>2017-12-02T10:38:46Z</time>
      </trkpt>
      <trkpt lat="62.63597984997" lon="17.979914364485">
        <ele>82.8</ele>
        <time>2017-12-02T10:38:47Z</time>
      </trkpt>
      <trkpt lat="62.635982783635" lon="17.980033890379">
        <ele>82.4</ele>
        <time>2017-12-02T10:38:48Z</time>
      </trkpt>
      <trkpt lat="62.635989740612" lon="17.980140005233">
        <ele>82</ele>
        <time>2017-12-02T10:38:49Z</time>
      </trkpt>
      <trkpt lat="62.636005498584" lon="17.980269002674">
        <ele>81.2</ele>
        <time>2017-12-02T10:38:50Z</time>
      </trkpt>
      <trkpt lat="62.636020753642" lon="17.980377380641">
        <ele>80.8</ele>
        <time>2017-12-02T10:38:51Z</time>
      </trkpt>
      <trkpt lat="62.636049503559" lon="17.980456589596">
        <ele>80.2</ele>
        <time>2017-12-02T10:38:52Z</time>
      </trkpt>
      <trkpt lat="62.636066937911" lon="17.980571253988">
        <ele>79.6</ele>
        <time>2017-12-02T10:38:53Z</time>
      </trkpt>
      <trkpt lat="62.636084875177" lon="17.980645014708">
        <ele>79.2</ele>
        <time>2017-12-02T10:38:54Z</time>
      </trkpt>
      <trkpt lat="62.636100381692" lon="17.980730426269">
        <ele>78.8</ele>
        <time>2017-12-02T10:38:55Z</time>
      </trkpt>
      <trkpt lat="62.636114882379" lon="17.980819861142">
        <ele>78.2</ele>
        <time>2017-12-02T10:38:56Z</time>
      </trkpt>
      <trkpt lat="62.636124353926" lon="17.980910301843">
        <ele>77.8</ele>
        <time>2017-12-02T10:38:57Z</time>
      </trkpt>
      <trkpt lat="62.63613994426" lon="17.981000910182">
        <ele>77.2</ele>
        <time>2017-12-02T10:38:58Z</time>
      </trkpt>
      <trkpt lat="62.636152936205" lon="17.981088668675">
        <ele>76.8</ele>
        <time>2017-12-02T10:38:59Z</time>
      </trkpt>
      <trkpt lat="62.636166347245" lon="17.981173242046">
        <ele>76.4</ele>
        <time>2017-12-02T10:39:00Z</time>
      </trkpt>
      <trkpt lat="62.636175315878" lon="17.981248427689">
        <ele>76.4</ele>
        <time>2017-12-02T10:39:01Z</time>
      </trkpt>
      <trkpt lat="62.636184452149" lon="17.981315650527">
        <ele>76.4</ele>
        <time>2017-12-02T10:39:02Z</time>
      </trkpt>
      <trkpt lat="62.636194678067" lon="17.981397709328">
        <ele>76.6</ele>
        <time>2017-12-02T10:39:03Z</time>
      </trkpt>
      <trkpt lat="62.636214710808" lon="17.98146459689">
        <ele>76.8</ele>
        <time>2017-12-02T10:39:04Z</time>
      </trkpt>
      <trkpt lat="62.636225020545" lon="17.981560402007">
        <ele>77</ele>
        <time>2017-12-02T10:39:05Z</time>
      </trkpt>
      <trkpt lat="62.636223930898" lon="17.981651429441">
        <ele>77</ele>
        <time>2017-12-02T10:39:06Z</time>
      </trkpt>
      <trkpt lat="62.636242622535" lon="17.981717143537">
        <ele>77</ele>
        <time>2017-12-02T10:39:07Z</time>
      </trkpt>
      <trkpt lat="62.636255446842" lon="17.981790317524">
        <ele>77</ele>
        <time>2017-12-02T10:39:08Z</time>
      </trkpt>
      <trkpt lat="62.636266762407" lon="17.981854774335">
        <ele>77</ele>
        <time>2017-12-02T10:39:09Z</time>
      </trkpt>
      <trkpt lat="62.636277742696" lon="17.981944460665">
        <ele>76.8</ele>
        <time>2017-12-02T10:39:10Z</time>
      </trkpt>
      <trkpt lat="62.6362874657" lon="17.98202786057">
        <ele>76.8</ele>
        <time>2017-12-02T10:39:11Z</time>
      </trkpt>
      <trkpt lat="62.636293584487" lon="17.982092233562">
        <ele>76.8</ele>
        <time>2017-12-02T10:39:12Z</time>
      </trkpt>
      <trkpt lat="62.636294674134" lon="17.98215694183">
        <ele>76.8</ele>
        <time>2017-12-02T10:39:13Z</time>
      </trkpt>
      <trkpt lat="62.636311270296" lon="17.982204970117">
        <ele>76.8</ele>
        <time>2017-12-02T10:39:14Z</time>
      </trkpt>
      <trkpt lat="62.636313030495" lon="17.982263811055">
        <ele>76.8</ele>
        <time>2017-12-02T10:39:15Z</time>
      </trkpt>
      <trkpt lat="62.63631847873" lon="17.982344444933">
        <ele>76.8</ele>
        <time>2017-12-02T10:39:16Z</time>
      </trkpt>
      <trkpt lat="62.636309426278" lon="17.982415020531">
        <ele>76.8</ele>
        <time>2017-12-02T10:39:17Z</time>
      </trkpt>
      <trkpt lat="62.636303558948" lon="17.982485009396">
        <ele>76.6</ele>
        <time>2017-12-02T10:39:18Z</time>
      </trkpt>
      <trkpt lat="62.636304983871" lon="17.982545694352">
        <ele>76.6</ele>
        <time>2017-12-02T10:39:19Z</time>
      </trkpt>
      <trkpt lat="62.636297021066" lon="17.98260118253">
        <ele>76.6</ele>
        <time>2017-12-02T10:39:20Z</time>
      </trkpt>
      <trkpt lat="62.636297356342" lon="17.982657425079">
        <ele>76.6</ele>
        <time>2017-12-02T10:39:21Z</time>
      </trkpt>
      <trkpt lat="62.636290231727" lon="17.982733365093">
        <ele>76.6</ele>
        <time>2017-12-02T10:39:22Z</time>
      </trkpt>
      <trkpt lat="62.636288722985" lon="17.9827964808">
        <ele>76.6</ele>
        <time>2017-12-02T10:39:23Z</time>
      </trkpt>
      <trkpt lat="62.636284280578" lon="17.982853310082">
        <ele>76.8</ele>
        <time>2017-12-02T10:39:24Z</time>
      </trkpt>
      <trkpt lat="62.636280508723" lon="17.982908127708">
        <ele>76.8</ele>
        <time>2017-12-02T10:39:25Z</time>
      </trkpt>
      <trkpt lat="62.6362790838" lon="17.982964034981">
        <ele>76.8</ele>
        <time>2017-12-02T10:39:26Z</time>
      </trkpt>
      <trkpt lat="62.636276485411" lon="17.983022289186">
        <ele>76.8</ele>
        <time>2017-12-02T10:39:27Z</time>
      </trkpt>
      <trkpt lat="62.636281849827" lon="17.983080208115">
        <ele>76.8</ele>
        <time>2017-12-02T10:39:28Z</time>
      </trkpt>
      <trkpt lat="62.636286124596" lon="17.983141228347">
        <ele>76.8</ele>
        <time>2017-12-02T10:39:29Z</time>
      </trkpt>
      <trkpt lat="62.636284532035" lon="17.983199734009">
        <ele>77</ele>
        <time>2017-12-02T10:39:30Z</time>
      </trkpt>
      <trkpt lat="62.636278664705" lon="17.983265280467">
        <ele>76.8</ele>
        <time>2017-12-02T10:39:31Z</time>
      </trkpt>
      <trkpt lat="62.636277826515" lon="17.983317415885">
        <ele>76.8</ele>
        <time>2017-12-02T10:39:32Z</time>
      </trkpt>
      <trkpt lat="62.636272881194" lon="17.983382040334">
        <ele>76.8</ele>
        <time>2017-12-02T10:39:33Z</time>
      </trkpt>
      <trkpt lat="62.636279502895" lon="17.983435097761">
        <ele>77</ele>
        <time>2017-12-02T10:39:34Z</time>
      </trkpt>
      <trkpt lat="62.636288136252" lon="17.983466362248">
        <ele>77</ele>
        <time>2017-12-02T10:39:35Z</time>
      </trkpt>
      <trkpt lat="62.636276736868" lon="17.983517659476">
        <ele>77</ele>
        <time>2017-12-02T10:39:36Z</time>
      </trkpt>
      <trkpt lat="62.63627740742" lon="17.983567112686">
        <ele>77.2</ele>
        <time>2017-12-02T10:39:37Z</time>
      </trkpt>
      <trkpt lat="62.636269696072" lon="17.983618242276">
        <ele>77.4</ele>
        <time>2017-12-02T10:39:38Z</time>
      </trkpt>
      <trkpt lat="62.636261397991" lon="17.983669707142">
        <ele>77.6</ele>
        <time>2017-12-02T10:39:39Z</time>
      </trkpt>
      <trkpt lat="62.636251255892" lon="17.983719663266">
        <ele>77.8</ele>
        <time>2017-12-02T10:39:40Z</time>
      </trkpt>
      <trkpt lat="62.636243125449" lon="17.983769954666">
        <ele>78</ele>
        <time>2017-12-02T10:39:41Z</time>
      </trkpt>
      <trkpt lat="62.63623801249" lon="17.983814127279">
        <ele>78</ele>
        <time>2017-12-02T10:39:42Z</time>
      </trkpt>
      <trkpt lat="62.636234240635" lon="17.983868441991">
        <ele>78.2</ele>
        <time>2017-12-02T10:39:43Z</time>
      </trkpt>
      <trkpt lat="62.636228540943" lon="17.983909848577">
        <ele>78.2</ele>
        <time>2017-12-02T10:39:44Z</time>
      </trkpt>
      <trkpt lat="62.636216387188" lon="17.983959385606">
        <ele>78.4</ele>
        <time>2017-12-02T10:39:45Z</time>
      </trkpt>
      <trkpt lat="62.636211860962" lon="17.983999618726">
        <ele>78.4</ele>
        <time>2017-12-02T10:39:46Z</time>
      </trkpt>
      <trkpt lat="62.636200377759" lon="17.984045216262">
        <ele>78.4</ele>
        <time>2017-12-02T10:39:47Z</time>
      </trkpt>
      <trkpt lat="62.636195935352" lon="17.984084359735">
        <ele>78.4</ele>
        <time>2017-12-02T10:39:48Z</time>
      </trkpt>
      <trkpt lat="62.636186296167" lon="17.984131885108">
        <ele>78.4</ele>
        <time>2017-12-02T10:39:49Z</time>
      </trkpt>
      <trkpt lat="62.636182943407" lon="17.984171028581">
        <ele>78.6</ele>
        <time>2017-12-02T10:39:50Z</time>
      </trkpt>
      <trkpt lat="62.636174477688" lon="17.984214111547">
        <ele>78.6</ele>
        <time>2017-12-02T10:39:51Z</time>
      </trkpt>
      <trkpt lat="62.63617933919" lon="17.984253171201">
        <ele>78.6</ele>
        <time>2017-12-02T10:39:52Z</time>
      </trkpt>
      <trkpt lat="62.636178836276" lon="17.984299439289">
        <ele>78.6</ele>
        <time>2017-12-02T10:39:53Z</time>
      </trkpt>
      <trkpt lat="62.636177495172" lon="17.984335481459">
        <ele>78.6</ele>
        <time>2017-12-02T10:39:54Z</time>
      </trkpt>
      <trkpt lat="62.636167269254" lon="17.984395914958">
        <ele>78.8</ele>
        <time>2017-12-02T10:39:55Z</time>
      </trkpt>
      <trkpt lat="62.636163078304" lon="17.984439081743">
        <ele>78.8</ele>
        <time>2017-12-02T10:39:56Z</time>
      </trkpt>
      <trkpt lat="62.636156037508" lon="17.984484846917">
        <ele>78.8</ele>
        <time>2017-12-02T10:39:57Z</time>
      </trkpt>
      <trkpt lat="62.636154528766" lon="17.984517955422">
        <ele>78.8</ele>
        <time>2017-12-02T10:39:58Z</time>
      </trkpt>
      <trkpt lat="62.636150086359" lon="17.984565145519">
        <ele>78.8</ele>
        <time>2017-12-02T10:39:59Z</time>
      </trkpt>
      <trkpt lat="62.636146314504" lon="17.984606384467">
        <ele>79</ele>
        <time>2017-12-02T10:40:00Z</time>
      </trkpt>
      <trkpt lat="62.636139273708" lon="17.984649132157">
        <ele>79.2</ele>
        <time>2017-12-02T10:40:01Z</time>
      </trkpt>
      <trkpt lat="62.636140614812" lon="17.984691796028">
        <ele>79.2</ele>
        <time>2017-12-02T10:40:02Z</time>
      </trkpt>
      <trkpt lat="62.636133993111" lon="17.984734711356">
        <ele>79.4</ele>
        <time>2017-12-02T10:40:03Z</time>
      </trkpt>
      <trkpt lat="62.636139776622" lon="17.984775866485">
        <ele>79.4</ele>
        <time>2017-12-02T10:40:04Z</time>
      </trkpt>
      <trkpt lat="62.636132903464" lon="17.984820961107">
        <ele>79.6</ele>
        <time>2017-12-02T10:40:05Z</time>
      </trkpt>
      <trkpt lat="62.636134496025" lon="17.984873431801">
        <ele>79.6</ele>
        <time>2017-12-02T10:40:06Z</time>
      </trkpt>
      <trkpt lat="62.636129215428" lon="17.984911317989">
        <ele>79.8</ele>
        <time>2017-12-02T10:40:07Z</time>
      </trkpt>
      <trkpt lat="62.63612737141" lon="17.984951634928">
        <ele>79.8</ele>
        <time>2017-12-02T10:40:08Z</time>
      </trkpt>
      <trkpt lat="62.636126952315" lon="17.984985916899">
        <ele>79.8</ele>
        <time>2017-12-02T10:40:09Z</time>
      </trkpt>
      <trkpt lat="62.63612569503" lon="17.985033777548">
        <ele>79.8</ele>
        <time>2017-12-02T10:40:10Z</time>
      </trkpt>
      <trkpt lat="62.63612234227" lon="17.985072921021">
        <ele>80</ele>
        <time>2017-12-02T10:40:11Z</time>
      </trkpt>
      <trkpt lat="62.636118486596" lon="17.985123128602">
        <ele>80</ele>
        <time>2017-12-02T10:40:12Z</time>
      </trkpt>
      <trkpt lat="62.636116055845" lon="17.98516269117">
        <ele>80.2</ele>
        <time>2017-12-02T10:40:13Z</time>
      </trkpt>
      <trkpt lat="62.636108512135" lon="17.985210551819">
        <ele>80.2</ele>
        <time>2017-12-02T10:40:14Z</time>
      </trkpt>
      <trkpt lat="62.636107338669" lon="17.985254724432">
        <ele>80.2</ele>
        <time>2017-12-02T10:40:15Z</time>
      </trkpt>
      <trkpt lat="62.636103315357" lon="17.985306608393">
        <ele>80.4</ele>
        <time>2017-12-02T10:40:16Z</time>
      </trkpt>
      <trkpt lat="62.636107841583" lon="17.985342985839">
        <ele>80.4</ele>
        <time>2017-12-02T10:40:17Z</time>
      </trkpt>
      <trkpt lat="62.636100214054" lon="17.985395624171">
        <ele>80.4</ele>
        <time>2017-12-02T10:40:18Z</time>
      </trkpt>
      <trkpt lat="62.636102896262" lon="17.985433175083">
        <ele>80.6</ele>
        <time>2017-12-02T10:40:19Z</time>
      </trkpt>
      <trkpt lat="62.636098202398" lon="17.985483466483">
        <ele>80.6</ele>
        <time>2017-12-02T10:40:20Z</time>
      </trkpt>
      <trkpt lat="62.636099292045" lon="17.985517832273">
        <ele>80.8</ele>
        <time>2017-12-02T10:40:21Z</time>
      </trkpt>
      <trkpt lat="62.636089066127" lon="17.985564854732">
        <ele>80.8</ele>
        <time>2017-12-02T10:40:22Z</time>
      </trkpt>
      <trkpt lat="62.636086551557" lon="17.985603160015">
        <ele>80.8</ele>
        <time>2017-12-02T10:40:23Z</time>
      </trkpt>
      <trkpt lat="62.636073475793" lon="17.985645656248">
        <ele>80.8</ele>
        <time>2017-12-02T10:40:24Z</time>
      </trkpt>
      <trkpt lat="62.636067189368" lon="17.985689242128">
        <ele>80.8</ele>
        <time>2017-12-02T10:40:25Z</time>
      </trkpt>
      <trkpt lat="62.636053778328" lon="17.985732576551">
        <ele>80.8</ele>
        <time>2017-12-02T10:40:26Z</time>
      </trkpt>
      <trkpt lat="62.636046737532" lon="17.985770714196">
        <ele>80.6</ele>
        <time>2017-12-02T10:40:27Z</time>
      </trkpt>
      <trkpt lat="62.636035673424" lon="17.985797033362">
        <ele>80.8</ele>
        <time>2017-12-02T10:40:28Z</time>
      </trkpt>
      <trkpt lat="62.636021675651" lon="17.985825783279">
        <ele>80.8</ele>
        <time>2017-12-02T10:40:29Z</time>
      </trkpt>
      <trkpt lat="62.636008096973" lon="17.985855203748">
        <ele>81</ele>
        <time>2017-12-02T10:40:30Z</time>
      </trkpt>
      <trkpt lat="62.635988567146" lon="17.985882528742">
        <ele>81</ele>
        <time>2017-12-02T10:40:31Z</time>
      </trkpt>
      <trkpt lat="62.635977251581" lon="17.985905243691">
        <ele>81.2</ele>
        <time>2017-12-02T10:40:32Z</time>
      </trkpt>
      <trkpt lat="62.635959984867" lon="17.985913290315">
        <ele>81.2</ele>
        <time>2017-12-02T10:40:33Z</time>
      </trkpt>
      <trkpt lat="62.635950094225" lon="17.985934496522">
        <ele>81.4</ele>
        <time>2017-12-02T10:40:34Z</time>
      </trkpt>
      <trkpt lat="62.635930983493" lon="17.985945141535">
        <ele>81.4</ele>
        <time>2017-12-02T10:40:35Z</time>
      </trkpt>
      <trkpt lat="62.635913884417" lon="17.985958804032">
        <ele>81.4</ele>
        <time>2017-12-02T10:40:36Z</time>
      </trkpt>
      <trkpt lat="62.635897372074" lon="17.985977076574">
        <ele>81.6</ele>
        <time>2017-12-02T10:40:37Z</time>
      </trkpt>
      <trkpt lat="62.635878512799" lon="17.985978752954">
        <ele>81.6</ele>
        <time>2017-12-02T10:40:38Z</time>
      </trkpt>
      <trkpt lat="62.635862587189" lon="17.985987973044">
        <ele>81.8</ele>
        <time>2017-12-02T10:40:39Z</time>
      </trkpt>
      <trkpt lat="62.63584154862" lon="17.986012112916">
        <ele>81.8</ele>
        <time>2017-12-02T10:40:40Z</time>
      </trkpt>
      <trkpt lat="62.635824533363" lon="17.986028122345">
        <ele>81.8</ele>
        <time>2017-12-02T10:40:41Z</time>
      </trkpt>
      <trkpt lat="62.635813217798" lon="17.986034744046">
        <ele>82</ele>
        <time>2017-12-02T10:40:42Z</time>
      </trkpt>
      <trkpt lat="62.635800980224" lon="17.986048574181">
        <ele>82</ele>
        <time>2017-12-02T10:40:43Z</time>
      </trkpt>
      <trkpt lat="62.635787988279" lon="17.986067181999">
        <ele>82</ele>
        <time>2017-12-02T10:40:44Z</time>
      </trkpt>
      <trkpt lat="62.635775163972" lon="17.986092579156">
        <ele>82</ele>
        <time>2017-12-02T10:40:45Z</time>
      </trkpt>
      <trkpt lat="62.63575772962" lon="17.986119317417">
        <ele>82</ele>
        <time>2017-12-02T10:40:46Z</time>
      </trkpt>
      <trkpt lat="62.635750688824" lon="17.986144798393">
        <ele>82</ele>
        <time>2017-12-02T10:40:47Z</time>
      </trkpt>
      <trkpt lat="62.635737780698" lon="17.98616516641">
        <ele>82.2</ele>
        <time>2017-12-02T10:40:48Z</time>
      </trkpt>
      <trkpt lat="62.635722944735" lon="17.986196933811">
        <ele>82.4</ele>
        <time>2017-12-02T10:40:49Z</time>
      </trkpt>
      <trkpt lat="62.635722777097" lon="17.98622216333">
        <ele>82.4</ele>
        <time>2017-12-02T10:40:50Z</time>
      </trkpt>
      <trkpt lat="62.635705007469" lon="17.986243034261">
        <ele>82.4</ele>
        <time>2017-12-02T10:40:51Z</time>
      </trkpt>
      <trkpt lat="62.635697631397" lon="17.98627999844">
        <ele>82.6</ele>
        <time>2017-12-02T10:40:52Z</time>
      </trkpt>
      <trkpt lat="62.635680532321" lon="17.986309418909">
        <ele>82.8</ele>
        <time>2017-12-02T10:40:53Z</time>
      </trkpt>
      <trkpt lat="62.635675335543" lon="17.986336073351">
        <ele>82.8</ele>
        <time>2017-12-02T10:40:54Z</time>
      </trkpt>
      <trkpt lat="62.635654883707" lon="17.986362643974">
        <ele>83</ele>
        <time>2017-12-02T10:40:55Z</time>
      </trkpt>
      <trkpt lat="62.635650692757" lon="17.986388376407">
        <ele>83.2</ele>
        <time>2017-12-02T10:40:56Z</time>
      </trkpt>
      <trkpt lat="62.635632671672" lon="17.9864258435">
        <ele>83.2</ele>
        <time>2017-12-02T10:40:57Z</time>
      </trkpt>
      <trkpt lat="62.635622613392" lon="17.986450821562">
        <ele>83.2</ele>
        <time>2017-12-02T10:40:58Z</time>
      </trkpt>
      <trkpt lat="62.635613980035" lon="17.986491809053">
        <ele>83.4</ele>
        <time>2017-12-02T10:40:59Z</time>
      </trkpt>
      <trkpt lat="62.635601574823" lon="17.986509411043">
        <ele>83.4</ele>
        <time>2017-12-02T10:41:00Z</time>
      </trkpt>
      <trkpt lat="62.63559763533" lon="17.986546626679">
        <ele>83.4</ele>
        <time>2017-12-02T10:41:01Z</time>
      </trkpt>
      <trkpt lat="62.635581542082" lon="17.986568168162">
        <ele>83.4</ele>
        <time>2017-12-02T10:41:02Z</time>
      </trkpt>
      <trkpt lat="62.635573244001" lon="17.986611586404">
        <ele>83.4</ele>
        <time>2017-12-02T10:41:03Z</time>
      </trkpt>
      <trkpt lat="62.635561425522" lon="17.986634385172">
        <ele>83.6</ele>
        <time>2017-12-02T10:41:04Z</time>
      </trkpt>
      <trkpt lat="62.635548601215" lon="17.986679563613">
        <ele>83.6</ele>
        <time>2017-12-02T10:41:05Z</time>
      </trkpt>
      <trkpt lat="62.635540135496" lon="17.986701943286">
        <ele>83.6</ele>
        <time>2017-12-02T10:41:06Z</time>
      </trkpt>
      <trkpt lat="62.635531083044" lon="17.986730357927">
        <ele>83.6</ele>
        <time>2017-12-02T10:41:07Z</time>
      </trkpt>
      <trkpt lat="62.635522617325" lon="17.986761790052">
        <ele>83.8</ele>
        <time>2017-12-02T10:41:08Z</time>
      </trkpt>
      <trkpt lat="62.635513313416" lon="17.986786768114">
        <ele>83.8</ele>
        <time>2017-12-02T10:41:09Z</time>
      </trkpt>
      <trkpt lat="62.635504512421" lon="17.986817026773">
        <ele>84.2</ele>
        <time>2017-12-02T10:41:10Z</time>
      </trkpt>
      <trkpt lat="62.635494286503" lon="17.986854745323">
        <ele>84.2</ele>
        <time>2017-12-02T10:41:11Z</time>
      </trkpt>
      <trkpt lat="62.635487329526" lon="17.986886512724">
        <ele>84.4</ele>
        <time>2017-12-02T10:41:12Z</time>
      </trkpt>
      <trkpt lat="62.635474505219" lon="17.986914256813">
        <ele>84.4</ele>
        <time>2017-12-02T10:41:13Z</time>
      </trkpt>
      <trkpt lat="62.635464949853" lon="17.986942755273">
        <ele>84.6</ele>
        <time>2017-12-02T10:41:14Z</time>
      </trkpt>
      <trkpt lat="62.635456567953" lon="17.986968403887">
        <ele>84.6</ele>
        <time>2017-12-02T10:41:15Z</time>
      </trkpt>
      <trkpt lat="62.635449610976" lon="17.986996818528">
        <ele>84.4</ele>
        <time>2017-12-02T10:41:16Z</time>
      </trkpt>
      <trkpt lat="62.635433936823" lon="17.987021712771">
        <ele>84.6</ele>
        <time>2017-12-02T10:41:17Z</time>
      </trkpt>
      <trkpt lat="62.635426141656" lon="17.987054905095">
        <ele>84.4</ele>
        <time>2017-12-02T10:41:18Z</time>
      </trkpt>
      <trkpt lat="62.635410048408" lon="17.987079212605">
        <ele>84.4</ele>
        <time>2017-12-02T10:41:19Z</time>
      </trkpt>
      <trkpt lat="62.635406863286" lon="17.987106537599">
        <ele>84.6</ele>
        <time>2017-12-02T10:41:20Z</time>
      </trkpt>
      <trkpt lat="62.635392194961" lon="17.987129001091">
        <ele>84.6</ele>
        <time>2017-12-02T10:41:21Z</time>
      </trkpt>
      <trkpt lat="62.635382891052" lon="17.987166719641">
        <ele>84.6</ele>
        <time>2017-12-02T10:41:22Z</time>
      </trkpt>
      <trkpt lat="62.635364283234" lon="17.987198235585">
        <ele>84.8</ele>
        <time>2017-12-02T10:41:23Z</time>
      </trkpt>
      <trkpt lat="62.635357577714" lon="17.987227404597">
        <ele>84.8</ele>
        <time>2017-12-02T10:41:24Z</time>
      </trkpt>
      <trkpt lat="62.635337880249" lon="17.987254561953">
        <ele>85</ele>
        <time>2017-12-02T10:41:25Z</time>
      </trkpt>
      <trkpt lat="62.63533025272" lon="17.987281886947">
        <ele>85</ele>
        <time>2017-12-02T10:41:26Z</time>
      </trkpt>
      <trkpt lat="62.635313908015" lon="17.987309379579">
        <ele>85.2</ele>
        <time>2017-12-02T10:41:27Z</time>
      </trkpt>
      <trkpt lat="62.635306867219" lon="17.987344583559">
        <ele>85.2</ele>
        <time>2017-12-02T10:41:28Z</time>
      </trkpt>
      <trkpt lat="62.635288678496" lon="17.9873729982">
        <ele>85.4</ele>
        <time>2017-12-02T10:41:29Z</time>
      </trkpt>
      <trkpt lat="62.635283062623" lon="17.987397640986">
        <ele>85.4</ele>
        <time>2017-12-02T10:41:30Z</time>
      </trkpt>
      <trkpt lat="62.635269986859" lon="17.987418595736">
        <ele>85.6</ele>
        <time>2017-12-02T10:41:31Z</time>
      </trkpt>
      <trkpt lat="62.63525733019" lon="17.987451955698">
        <ele>85.4</ele>
        <time>2017-12-02T10:41:32Z</time>
      </trkpt>
      <trkpt lat="62.635242997141" lon="17.987471988439">
        <ele>85.6</ele>
        <time>2017-12-02T10:41:33Z</time>
      </trkpt>
      <trkpt lat="62.635230424291" lon="17.987499481071">
        <ele>85.6</ele>
        <time>2017-12-02T10:41:34Z</time>
      </trkpt>
      <trkpt lat="62.635214414862" lon="17.987527476617">
        <ele>85.6</ele>
        <time>2017-12-02T10:41:35Z</time>
      </trkpt>
      <trkpt lat="62.63519865689" lon="17.987557735276">
        <ele>85.6</ele>
        <time>2017-12-02T10:41:36Z</time>
      </trkpt>
      <trkpt lat="62.635189017705" lon="17.987583970623">
        <ele>85.8</ele>
        <time>2017-12-02T10:41:37Z</time>
      </trkpt>
      <trkpt lat="62.635176109579" lon="17.987607523762">
        <ele>85.8</ele>
        <time>2017-12-02T10:41:38Z</time>
      </trkpt>
      <trkpt lat="62.635165716023" lon="17.987633088557">
        <ele>86</ele>
        <time>2017-12-02T10:41:39Z</time>
      </trkpt>
      <trkpt lat="62.635143839264" lon="17.987657815162">
        <ele>86</ele>
        <time>2017-12-02T10:41:40Z</time>
      </trkpt>
      <trkpt lat="62.635134283898" lon="17.987687738545">
        <ele>86</ele>
        <time>2017-12-02T10:41:41Z</time>
      </trkpt>
      <trkpt lat="62.635113664424" lon="17.987711375503">
        <ele>86.2</ele>
        <time>2017-12-02T10:41:42Z</time>
      </trkpt>
      <trkpt lat="62.635107880913" lon="17.987738868135">
        <ele>86.2</ele>
        <time>2017-12-02T10:41:43Z</time>
      </trkpt>
      <trkpt lat="62.635090278923" lon="17.987759152333">
        <ele>86.4</ele>
        <time>2017-12-02T10:41:44Z</time>
      </trkpt>
      <trkpt lat="62.635084914507" lon="17.987793266666">
        <ele>86.4</ele>
        <time>2017-12-02T10:41:45Z</time>
      </trkpt>
      <trkpt lat="62.635063792119" lon="17.987820004927">
        <ele>86.8</ele>
        <time>2017-12-02T10:41:46Z</time>
      </trkpt>
      <trkpt lat="62.635051386907" lon="17.987851101776">
        <ele>86.6</ele>
        <time>2017-12-02T10:41:47Z</time>
      </trkpt>
      <trkpt lat="62.63503185708" lon="17.987877420942">
        <ele>86.8</ele>
        <time>2017-12-02T10:41:48Z</time>
      </trkpt>
      <trkpt lat="62.635015847651" lon="17.987902231366">
        <ele>86.8</ele>
        <time>2017-12-02T10:41:49Z</time>
      </trkpt>
      <trkpt lat="62.634999251489" lon="17.987928550532">
        <ele>87</ele>
        <time>2017-12-02T10:41:50Z</time>
      </trkpt>
      <trkpt lat="62.634977542368" lon="17.98796643672">
        <ele>87</ele>
        <time>2017-12-02T10:41:51Z</time>
      </trkpt>
      <trkpt lat="62.634967987002" lon="17.987989570764">
        <ele>87.2</ele>
        <time>2017-12-02T10:41:52Z</time>
      </trkpt>
      <trkpt lat="62.634951055564" lon="17.987997198293">
        <ele>87.2</ele>
        <time>2017-12-02T10:41:53Z</time>
      </trkpt>
      <trkpt lat="62.634937476886" lon="17.988021673441">
        <ele>87.2</ele>
        <time>2017-12-02T10:41:54Z</time>
      </trkpt>
      <trkpt lat="62.634917444145" lon="17.988046567684">
        <ele>87.2</ele>
        <time>2017-12-02T10:41:55Z</time>
      </trkpt>
      <trkpt lat="62.634902356725" lon="17.988056206869">
        <ele>87.4</ele>
        <time>2017-12-02T10:41:56Z</time>
      </trkpt>
      <trkpt lat="62.634885509106" lon="17.988078251266">
        <ele>87.4</ele>
        <time>2017-12-02T10:41:57Z</time>
      </trkpt>
      <trkpt lat="62.634872098066" lon="17.988080095284">
        <ele>87.6</ele>
        <time>2017-12-02T10:41:58Z</time>
      </trkpt>
      <trkpt lat="62.634855082809" lon="17.988099792749">
        <ele>87.8</ele>
        <time>2017-12-02T10:41:59Z</time>
      </trkpt>
      <trkpt lat="62.634832703136" lon="17.988098116369">
        <ele>87.8</ele>
        <time>2017-12-02T10:42:00Z</time>
      </trkpt>
      <trkpt lat="62.634808563264" lon="17.988115718359">
        <ele>88</ele>
        <time>2017-12-02T10:42:01Z</time>
      </trkpt>
      <trkpt lat="62.634790542179" lon="17.988121334232">
        <ele>88</ele>
        <time>2017-12-02T10:42:02Z</time>
      </trkpt>
      <trkpt lat="62.634774448931" lon="17.988119238757">
        <ele>88.2</ele>
        <time>2017-12-02T10:42:03Z</time>
      </trkpt>
      <trkpt lat="62.634757601312" lon="17.988131308693">
        <ele>88.2</ele>
        <time>2017-12-02T10:42:04Z</time>
      </trkpt>
      <trkpt lat="62.63473346144" lon="17.988127704476">
        <ele>88.2</ele>
        <time>2017-12-02T10:42:05Z</time>
      </trkpt>
      <trkpt lat="62.634715943269" lon="17.988139187679">
        <ele>88.4</ele>
        <time>2017-12-02T10:42:06Z</time>
      </trkpt>
      <trkpt lat="62.634693312139" lon="17.988133487987">
        <ele>88.6</ele>
        <time>2017-12-02T10:42:07Z</time>
      </trkpt>
      <trkpt lat="62.634670094276" lon="17.988156873488">
        <ele>88.6</ele>
        <time>2017-12-02T10:42:08Z</time>
      </trkpt>
      <trkpt lat="62.634650396811" lon="17.988155364746">
        <ele>88.8</ele>
        <time>2017-12-02T10:42:09Z</time>
      </trkpt>
      <trkpt lat="62.634625418749" lon="17.988168189053">
        <ele>88.8</ele>
        <time>2017-12-02T10:42:10Z</time>
      </trkpt>
      <trkpt lat="62.634607565302" lon="17.98817095508">
        <ele>88.8</ele>
        <time>2017-12-02T10:42:11Z</time>
      </trkpt>
      <trkpt lat="62.634584347439" lon="17.988171374175">
        <ele>88.8</ele>
        <time>2017-12-02T10:42:12Z</time>
      </trkpt>
      <trkpt lat="62.634565320526" lon="17.988179085523">
        <ele>89</ele>
        <time>2017-12-02T10:42:13Z</time>
      </trkpt>
      <trkpt lat="62.634546209794" lon="17.988188724708">
        <ele>89</ele>
        <time>2017-12-02T10:42:14Z</time>
      </trkpt>
      <trkpt lat="62.634526763786" lon="17.988199788816">
        <ele>89.2</ele>
        <time>2017-12-02T10:42:15Z</time>
      </trkpt>
      <trkpt lat="62.634499354973" lon="17.98821202639">
        <ele>89.2</ele>
        <time>2017-12-02T10:42:16Z</time>
      </trkpt>
      <trkpt lat="62.63448032806" lon="17.988234238425">
        <ele>89.4</ele>
        <time>2017-12-02T10:42:17Z</time>
      </trkpt>
      <trkpt lat="62.634455852912" lon="17.988239183746">
        <ele>89.4</ele>
        <time>2017-12-02T10:42:18Z</time>
      </trkpt>
      <trkpt lat="62.634440849311" lon="17.988254690261">
        <ele>89.4</ele>
        <time>2017-12-02T10:42:19Z</time>
      </trkpt>
      <trkpt lat="62.634421990036" lon="17.988254103528">
        <ele>89.4</ele>
        <time>2017-12-02T10:42:20Z</time>
      </trkpt>
      <trkpt lat="62.634408746634" lon="17.98826734693">
        <ele>89.6</ele>
        <time>2017-12-02T10:42:21Z</time>
      </trkpt>
      <trkpt lat="62.634389719721" lon="17.988264999998">
        <ele>89.6</ele>
        <time>2017-12-02T10:42:22Z</time>
      </trkpt>
      <trkpt lat="62.634372453007" lon="17.988281512341">
        <ele>89.6</ele>
        <time>2017-12-02T10:42:23Z</time>
      </trkpt>
      <trkpt lat="62.634355186293" lon="17.988273381898">
        <ele>89.6</ele>
        <time>2017-12-02T10:42:24Z</time>
      </trkpt>
      <trkpt lat="62.63433196843" lon="17.988291402983">
        <ele>89.8</ele>
        <time>2017-12-02T10:42:25Z</time>
      </trkpt>
      <trkpt lat="62.634313276793" lon="17.988290229517">
        <ele>89.8</ele>
        <time>2017-12-02T10:42:26Z</time>
      </trkpt>
      <trkpt lat="62.634295758622" lon="17.988294085191">
        <ele>89.8</ele>
        <time>2017-12-02T10:42:27Z</time>
      </trkpt>
      <trkpt lat="62.634274720053" lon="17.98828746349">
        <ele>90</ele>
        <time>2017-12-02T10:42:28Z</time>
      </trkpt>
      <trkpt lat="62.634250915457" lon="17.988292241173">
        <ele>90</ele>
        <time>2017-12-02T10:42:29Z</time>
      </trkpt>
      <trkpt lat="62.634228787241" lon="17.988288972232">
        <ele>90</ele>
        <time>2017-12-02T10:42:30Z</time>
      </trkpt>
      <trkpt lat="62.634204228274" lon="17.98827908159">
        <ele>90</ele>
        <time>2017-12-02T10:42:31Z</time>
      </trkpt>
      <trkpt lat="62.634184782266" lon="17.988285954748">
        <ele>90.2</ele>
        <time>2017-12-02T10:42:32Z</time>
      </trkpt>
      <trkpt lat="62.634160223299" lon="17.988274220088">
        <ele>90.4</ele>
        <time>2017-12-02T10:42:33Z</time>
      </trkpt>
      <trkpt lat="62.634137424531" lon="17.988272292251">
        <ele>90.4</ele>
        <time>2017-12-02T10:42:34Z</time>
      </trkpt>
      <trkpt lat="62.634115128677" lon="17.988261647238">
        <ele>90.4</ele>
        <time>2017-12-02T10:42:35Z</time>
      </trkpt>
      <trkpt lat="62.634094341565" lon="17.988263491256">
        <ele>90.4</ele>
        <time>2017-12-02T10:42:36Z</time>
      </trkpt>
      <trkpt lat="62.634075901385" lon="17.988255863727">
        <ele>90.6</ele>
        <time>2017-12-02T10:42:37Z</time>
      </trkpt>
      <trkpt lat="62.63405536573" lon="17.988242787963">
        <ele>90.4</ele>
        <time>2017-12-02T10:42:38Z</time>
      </trkpt>
      <trkpt lat="62.634034075704" lon="17.988243542334">
        <ele>90.4</ele>
        <time>2017-12-02T10:42:39Z</time>
      </trkpt>
      <trkpt lat="62.634009852013" lon="17.98822208467">
        <ele>90.4</ele>
        <time>2017-12-02T10:42:40Z</time>
      </trkpt>
      <trkpt lat="62.633989819272" lon="17.988224515421">
        <ele>90.4</ele>
        <time>2017-12-02T10:42:41Z</time>
      </trkpt>
      <trkpt lat="62.633968110151" lon="17.988206578155">
        <ele>90.4</ele>
        <time>2017-12-02T10:42:42Z</time>
      </trkpt>
      <trkpt lat="62.633949167057" lon="17.9882028063">
        <ele>90.4</ele>
        <time>2017-12-02T10:42:43Z</time>
      </trkpt>
      <trkpt lat="62.633927793212" lon="17.988181264817">
        <ele>90.4</ele>
        <time>2017-12-02T10:42:44Z</time>
      </trkpt>
      <trkpt lat="62.63390952067" lon="17.988178834066">
        <ele>90.4</ele>
        <time>2017-12-02T10:42:45Z</time>
      </trkpt>
      <trkpt lat="62.633890996671" lon="17.988154023642">
        <ele>90.6</ele>
        <time>2017-12-02T10:42:46Z</time>
      </trkpt>
      <trkpt lat="62.633873227043" lon="17.988149245959">
        <ele>90.4</ele>
        <time>2017-12-02T10:42:47Z</time>
      </trkpt>
      <trkpt lat="62.633858139623" lon="17.988129716132">
        <ele>90.6</ele>
        <time>2017-12-02T10:42:48Z</time>
      </trkpt>
      <trkpt lat="62.633839196529" lon="17.988122926793">
        <ele>90.6</ele>
        <time>2017-12-02T10:42:49Z</time>
      </trkpt>
      <trkpt lat="62.633821762177" lon="17.988105911536">
        <ele>90.8</ele>
        <time>2017-12-02T10:42:50Z</time>
      </trkpt>
      <trkpt lat="62.633807512947" lon="17.988082777492">
        <ele>90.8</ele>
        <time>2017-12-02T10:42:51Z</time>
      </trkpt>
      <trkpt lat="62.633787647844" lon="17.988070288461">
        <ele>91.2</ele>
        <time>2017-12-02T10:42:52Z</time>
      </trkpt>
      <trkpt lat="62.633770464949" lon="17.988042292915">
        <ele>91.2</ele>
        <time>2017-12-02T10:42:53Z</time>
      </trkpt>
      <trkpt lat="62.633749594018" lon="17.988040448897">
        <ele>91.4</ele>
        <time>2017-12-02T10:42:54Z</time>
      </trkpt>
      <trkpt lat="62.633731237657" lon="17.988018069224">
        <ele>91.2</ele>
        <time>2017-12-02T10:42:55Z</time>
      </trkpt>
      <trkpt lat="62.63370416412" lon="17.98800583165">
        <ele>91.4</ele>
        <time>2017-12-02T10:42:56Z</time>
      </trkpt>
      <trkpt lat="62.633686981225" lon="17.987980937407">
        <ele>91.4</ele>
        <time>2017-12-02T10:42:57Z</time>
      </trkpt>
      <trkpt lat="62.633664433914" lon="17.98796643672">
        <ele>91.4</ele>
        <time>2017-12-02T10:42:58Z</time>
      </trkpt>
      <trkpt lat="62.633650184684" lon="17.987955121155">
        <ele>91.2</ele>
        <time>2017-12-02T10:42:59Z</time>
      </trkpt>
      <trkpt lat="62.633636606006" lon="17.987929053446">
        <ele>91.4</ele>
        <time>2017-12-02T10:43:00Z</time>
      </trkpt>
      <trkpt lat="62.633620848034" lon="17.987931987111">
        <ele>91.4</ele>
        <time>2017-12-02T10:43:01Z</time>
      </trkpt>
      <trkpt lat="62.633601485845" lon="17.98790860161">
        <ele>91.4</ele>
        <time>2017-12-02T10:43:02Z</time>
      </trkpt>
      <trkpt lat="62.633584805864" lon="17.987892508362">
        <ele>91.6</ele>
        <time>2017-12-02T10:43:03Z</time>
      </trkpt>
      <trkpt lat="62.63356753915" lon="17.987874068182">
        <ele>91.6</ele>
        <time>2017-12-02T10:43:04Z</time>
      </trkpt>
      <trkpt lat="62.633550691531" lon="17.987860405685">
        <ele>91.6</ele>
        <time>2017-12-02T10:43:05Z</time>
      </trkpt>
      <trkpt lat="62.633534933559" lon="17.987829476474">
        <ele>91.6</ele>
        <time>2017-12-02T10:43:06Z</time>
      </trkpt>
      <trkpt lat="62.633516325741" lon="17.987817155081">
        <ele>91.8</ele>
        <time>2017-12-02T10:43:07Z</time>
      </trkpt>
      <trkpt lat="62.633500819226" lon="17.987785974413">
        <ele>92</ele>
        <time>2017-12-02T10:43:08Z</time>
      </trkpt>
      <trkpt lat="62.633484809797" lon="17.987770803174">
        <ele>92.2</ele>
        <time>2017-12-02T10:43:09Z</time>
      </trkpt>
      <trkpt lat="62.633466621074" lon="17.987731156787">
        <ele>92.4</ele>
        <time>2017-12-02T10:43:10Z</time>
      </trkpt>
      <trkpt lat="62.633443654668" lon="17.987722188154">
        <ele>92.6</ele>
        <time>2017-12-02T10:43:11Z</time>
      </trkpt>
      <trkpt lat="62.633428986343" lon="17.987692432409">
        <ele>92.6</ele>
        <time>2017-12-02T10:43:12Z</time>
      </trkpt>
      <trkpt lat="62.633415072389" lon="17.987666783795">
        <ele>92.6</ele>
        <time>2017-12-02T10:43:13Z</time>
      </trkpt>
      <trkpt lat="62.633397805675" lon="17.987657396067">
        <ele>92.8</ele>
        <time>2017-12-02T10:43:14Z</time>
      </trkpt>
      <trkpt lat="62.633382885893" lon="17.987636608955">
        <ele>93</ele>
        <time>2017-12-02T10:43:15Z</time>
      </trkpt>
      <trkpt lat="62.633372073242" lon="17.987609703056">
        <ele>93.2</ele>
        <time>2017-12-02T10:43:16Z</time>
      </trkpt>
      <trkpt lat="62.63335882984" lon="17.987587071926">
        <ele>93.4</ele>
        <time>2017-12-02T10:43:17Z</time>
      </trkpt>
      <trkpt lat="62.633348939198" lon="17.987553544326">
        <ele>93.6</ele>
        <time>2017-12-02T10:43:18Z</time>
      </trkpt>
      <trkpt lat="62.633341898402" lon="17.987523369486">
        <ele>93.6</ele>
        <time>2017-12-02T10:43:19Z</time>
      </trkpt>
      <trkpt lat="62.633328738819" lon="17.987486489126">
        <ele>93.8</ele>
        <time>2017-12-02T10:43:20Z</time>
      </trkpt>
      <trkpt lat="62.633317087978" lon="17.987454218811">
        <ele>94</ele>
        <time>2017-12-02T10:43:21Z</time>
      </trkpt>
      <trkpt lat="62.633299150712" lon="17.987410046198">
        <ele>94</ele>
        <time>2017-12-02T10:43:22Z</time>
      </trkpt>
      <trkpt lat="62.63328255455" lon="17.987380290453">
        <ele>94</ele>
        <time>2017-12-02T10:43:23Z</time>
      </trkpt>
      <trkpt lat="62.633262521809" lon="17.987328741768">
        <ele>94</ele>
        <time>2017-12-02T10:43:24Z</time>
      </trkpt>
      <trkpt lat="62.633241567059" lon="17.987247018243">
        <ele>94</ele>
        <time>2017-12-02T10:43:25Z</time>
      </trkpt>
      <trkpt lat="62.63322639582" lon="17.987162193415">
        <ele>93.6</ele>
        <time>2017-12-02T10:43:26Z</time>
      </trkpt>
      <trkpt lat="62.633215080255" lon="17.98707879351">
        <ele>93.2</ele>
        <time>2017-12-02T10:43:27Z</time>
      </trkpt>
      <trkpt lat="62.633204183785" lon="17.987002350582">
        <ele>92.8</ele>
        <time>2017-12-02T10:43:28Z</time>
      </trkpt>
      <trkpt lat="62.63319370641" lon="17.986920207962">
        <ele>92.2</ele>
        <time>2017-12-02T10:43:29Z</time>
      </trkpt>
      <trkpt lat="62.633195298971" lon="17.986840244636">
        <ele>91.4</ele>
        <time>2017-12-02T10:43:30Z</time>
      </trkpt>
      <trkpt lat="62.633183815768" lon="17.986778805309">
        <ele>90.8</ele>
        <time>2017-12-02T10:43:31Z</time>
      </trkpt>
      <trkpt lat="62.633174008945" lon="17.986705044589">
        <ele>90.6</ele>
        <time>2017-12-02T10:43:32Z</time>
      </trkpt>
      <trkpt lat="62.633172332565" lon="17.986617872829">
        <ele>90.6</ele>
        <time>2017-12-02T10:43:33Z</time>
      </trkpt>
      <trkpt lat="62.633163447751" lon="17.986545453213">
        <ele>90.6</ele>
        <time>2017-12-02T10:43:34Z</time>
      </trkpt>
      <trkpt lat="62.633164705036" lon="17.986446379155">
        <ele>90.8</ele>
        <time>2017-12-02T10:43:35Z</time>
      </trkpt>
      <trkpt lat="62.63315934062" lon="17.986344371432">
        <ele>90.8</ele>
        <time>2017-12-02T10:43:36Z</time>
      </trkpt>
      <trkpt lat="62.633157245145" lon="17.986249907419">
        <ele>90.2</ele>
        <time>2017-12-02T10:43:37Z</time>
      </trkpt>
      <trkpt lat="62.633155736403" lon="17.986147815877">
        <ele>89.6</ele>
        <time>2017-12-02T10:43:38Z</time>
      </trkpt>
      <trkpt lat="62.633157245145" lon="17.986053184226">
        <ele>89.2</ele>
        <time>2017-12-02T10:43:39Z</time>
      </trkpt>
      <trkpt lat="62.633160262629" lon="17.985957127652">
        <ele>88.8</ele>
        <time>2017-12-02T10:43:40Z</time>
      </trkpt>
      <trkpt lat="62.633164956493" lon="17.985859143241">
        <ele>88.2</ele>
        <time>2017-12-02T10:43:41Z</time>
      </trkpt>
      <trkpt lat="62.63316520795" lon="17.985769456911">
        <ele>88</ele>
        <time>2017-12-02T10:43:42Z</time>
      </trkpt>
      <trkpt lat="62.633161519914" lon="17.985685386454">
        <ele>88</ele>
        <time>2017-12-02T10:43:43Z</time>
      </trkpt>
      <trkpt lat="62.633161771371" lon="17.985560579963">
        <ele>88</ele>
        <time>2017-12-02T10:43:44Z</time>
      </trkpt>
      <trkpt lat="62.633164788855" lon="17.985442143716">
        <ele>88.2</ele>
        <time>2017-12-02T10:43:45Z</time>
      </trkpt>
      <trkpt lat="62.633178451352" lon="17.985322198727">
        <ele>88.4</ele>
        <time>2017-12-02T10:43:46Z</time>
      </trkpt>
      <trkpt lat="62.633193874048" lon="17.985187753051">
        <ele>88.2</ele>
        <time>2017-12-02T10:43:47Z</time>
      </trkpt>
      <trkpt lat="62.633207201269" lon="17.985065964044">
        <ele>88</ele>
        <time>2017-12-02T10:43:48Z</time>
      </trkpt>
      <trkpt lat="62.633217427187" lon="17.984954987688">
        <ele>88</ele>
        <time>2017-12-02T10:43:49Z</time>
      </trkpt>
      <trkpt lat="62.633235196815" lon="17.984845268617">
        <ele>87.6</ele>
        <time>2017-12-02T10:43:50Z</time>
      </trkpt>
      <trkpt lat="62.633252631167" lon="17.984748290034">
        <ele>86.6</ele>
        <time>2017-12-02T10:43:51Z</time>
      </trkpt>
      <trkpt lat="62.633278866514" lon="17.984663465206">
        <ele>85.6</ele>
        <time>2017-12-02T10:43:52Z</time>
      </trkpt>
      <trkpt lat="62.633293870115" lon="17.98457847274">
        <ele>85.2</ele>
        <time>2017-12-02T10:43:53Z</time>
      </trkpt>
      <trkpt lat="62.633305520956" lon="17.984506975133">
        <ele>85</ele>
        <time>2017-12-02T10:43:54Z</time>
      </trkpt>
      <trkpt lat="62.633323039127" lon="17.984408487808">
        <ele>85</ele>
        <time>2017-12-02T10:43:55Z</time>
      </trkpt>
      <trkpt lat="62.63332614043" lon="17.984334224174">
        <ele>85.2</ele>
        <time>2017-12-02T10:43:56Z</time>
      </trkpt>
      <trkpt lat="62.633334354692" lon="17.98426163692">
        <ele>85.4</ele>
        <time>2017-12-02T10:43:57Z</time>
      </trkpt>
      <trkpt lat="62.633348017189" lon="17.984197431566">
        <ele>85.8</ele>
        <time>2017-12-02T10:43:58Z</time>
      </trkpt>
      <trkpt lat="62.633352040501" lon="17.984138758266">
        <ele>86</ele>
        <time>2017-12-02T10:43:59Z</time>
      </trkpt>
      <trkpt lat="62.633364613351" lon="17.984076899844">
        <ele>86</ele>
        <time>2017-12-02T10:44:00Z</time>
      </trkpt>
      <trkpt lat="62.63336637355" lon="17.984014538508">
        <ele>86</ele>
        <time>2017-12-02T10:44:01Z</time>
      </trkpt>
      <trkpt lat="62.633379114038" lon="17.983945974566">
        <ele>86</ele>
        <time>2017-12-02T10:44:02Z</time>
      </trkpt>
      <trkpt lat="62.633385065187" lon="17.983886714533">
        <ele>86</ele>
        <time>2017-12-02T10:44:03Z</time>
      </trkpt>
      <trkpt lat="62.633388920861" lon="17.98381655803">
        <ele>86</ele>
        <time>2017-12-02T10:44:04Z</time>
      </trkpt>
      <trkpt lat="62.633393530906" lon="17.983771631046">
        <ele>85.8</ele>
        <time>2017-12-02T10:44:05Z</time>
      </trkpt>
      <trkpt lat="62.63339990115" lon="17.983711029909">
        <ele>85.8</ele>
        <time>2017-12-02T10:44:06Z</time>
      </trkpt>
      <trkpt lat="62.633416162036" lon="17.983658056301">
        <ele>86</ele>
        <time>2017-12-02T10:44:07Z</time>
      </trkpt>
      <trkpt lat="62.633426471773" lon="17.98361455424">
        <ele>86</ele>
        <time>2017-12-02T10:44:08Z</time>
      </trkpt>
      <trkpt lat="62.633442481202" lon="17.983555461845">
        <ele>86</ele>
        <time>2017-12-02T10:44:09Z</time>
      </trkpt>
      <trkpt lat="62.633447929437" lon="17.98351229506">
        <ele>86</ele>
        <time>2017-12-02T10:44:10Z</time>
      </trkpt>
      <trkpt lat="62.633466034341" lon="17.983452699751">
        <ele>86</ele>
        <time>2017-12-02T10:44:11Z</time>
      </trkpt>
      <trkpt lat="62.633473913327" lon="17.983409952061">
        <ele>86</ele>
        <time>2017-12-02T10:44:12Z</time>
      </trkpt>
      <trkpt lat="62.633483803969" lon="17.983347842182">
        <ele>86.2</ele>
        <time>2017-12-02T10:44:13Z</time>
      </trkpt>
      <trkpt lat="62.633490844765" lon="17.983274919652">
        <ele>86.2</ele>
        <time>2017-12-02T10:44:14Z</time>
      </trkpt>
      <trkpt lat="62.633501992692" lon="17.983218174189">
        <ele>86.2</ele>
        <time>2017-12-02T10:44:15Z</time>
      </trkpt>
      <trkpt lat="62.633518337397" lon="17.983143240003">
        <ele>86.4</ele>
        <time>2017-12-02T10:44:16Z</time>
      </trkpt>
      <trkpt lat="62.633524204727" lon="17.983090936947">
        <ele>86.4</ele>
        <time>2017-12-02T10:44:17Z</time>
      </trkpt>
      <trkpt lat="62.633540465613" lon="17.98303452676">
        <ele>86.4</ele>
        <time>2017-12-02T10:44:18Z</time>
      </trkpt>
      <trkpt lat="62.633550523893" lon="17.982985660283">
        <ele>86.4</ele>
        <time>2017-12-02T10:44:19Z</time>
      </trkpt>
      <trkpt lat="62.63356921553" lon="17.982919359454">
        <ele>86.4</ele>
        <time>2017-12-02T10:44:20Z</time>
      </trkpt>
      <trkpt lat="62.633581453104" lon="17.982885412759">
        <ele>86.4</ele>
        <time>2017-12-02T10:44:21Z</time>
      </trkpt>
      <trkpt lat="62.633606514985" lon="17.982817603188">
        <ele>86.4</ele>
        <time>2017-12-02T10:44:22Z</time>
      </trkpt>
      <trkpt lat="62.633616405627" lon="17.982774855498">
        <ele>86.4</ele>
        <time>2017-12-02T10:44:23Z</time>
      </trkpt>
      <trkpt lat="62.63363207978" lon="17.982718445311">
        <ele>86.4</ele>
        <time>2017-12-02T10:44:24Z</time>
      </trkpt>
      <trkpt lat="62.633639288214" lon="17.982652144482">
        <ele>86.4</ele>
        <time>2017-12-02T10:44:25Z</time>
      </trkpt>
      <trkpt lat="62.633653537444" lon="17.982584167273">
        <ele>86.4</ele>
        <time>2017-12-02T10:44:26Z</time>
      </trkpt>
      <trkpt lat="62.633649765589" lon="17.982529517285">
        <ele>86.4</ele>
        <time>2017-12-02T10:44:27Z</time>
      </trkpt>
      <trkpt lat="62.633664014819" lon="17.982475034935">
        <ele>86.4</ele>
        <time>2017-12-02T10:44:28Z</time>
      </trkpt>
      <trkpt lat="62.633663931" lon="17.982418038015">
        <ele>86.4</ele>
        <time>2017-12-02T10:44:29Z</time>
      </trkpt>
      <trkpt lat="62.633673905461" lon="17.98235559286">
        <ele>86.2</ele>
        <time>2017-12-02T10:44:30Z</time>
      </trkpt>
      <trkpt lat="62.633678096411" lon="17.982304295632">
        <ele>86.2</ele>
        <time>2017-12-02T10:44:31Z</time>
      </trkpt>
      <trkpt lat="62.63368320937" lon="17.98223992264">
        <ele>86.4</ele>
        <time>2017-12-02T10:44:32Z</time>
      </trkpt>
      <trkpt lat="62.633687651777" lon="17.98217454382">
        <ele>86.6</ele>
        <time>2017-12-02T10:44:33Z</time>
      </trkpt>
      <trkpt lat="62.633689579614" lon="17.982127940456">
        <ele>86.4</ele>
        <time>2017-12-02T10:44:34Z</time>
      </trkpt>
      <trkpt lat="62.633699889351" lon="17.982059795609">
        <ele>86.6</ele>
        <time>2017-12-02T10:44:35Z</time>
      </trkpt>
      <trkpt lat="62.633700978998" lon="17.98203037514">
        <ele>86.6</ele>
        <time>2017-12-02T10:44:36Z</time>
      </trkpt>
      <trkpt lat="62.633708857984" lon="17.981967846166">
        <ele>86.4</ele>
        <time>2017-12-02T10:44:37Z</time>
      </trkpt>
      <trkpt lat="62.633709360898" lon="17.981917387128">
        <ele>86.4</ele>
        <time>2017-12-02T10:44:38Z</time>
      </trkpt>
      <trkpt lat="62.633714809133" lon="17.981864832615">
        <ele>86.4</ele>
        <time>2017-12-02T10:44:39Z</time>
      </trkpt>
      <trkpt lat="62.633715982599" lon="17.981807081324">
        <ele>86.6</ele>
        <time>2017-12-02T10:44:40Z</time>
      </trkpt>
      <trkpt lat="62.633727717259" lon="17.981709683646">
        <ele>86.6</ele>
        <time>2017-12-02T10:44:41Z</time>
      </trkpt>
      <trkpt lat="62.633728387811" lon="17.981640113876">
        <ele>86.6</ele>
        <time>2017-12-02T10:44:42Z</time>
      </trkpt>
      <trkpt lat="62.633733752227" lon="17.981593761969">
        <ele>86.6</ele>
        <time>2017-12-02T10:44:43Z</time>
      </trkpt>
      <trkpt lat="62.633739871014" lon="17.981536932687">
        <ele>86.6</ele>
        <time>2017-12-02T10:44:44Z</time>
      </trkpt>
      <trkpt lat="62.633750599846" lon="17.98149058078">
        <ele>86.8</ele>
        <time>2017-12-02T10:44:45Z</time>
      </trkpt>
      <trkpt lat="62.633757473004" lon="17.981413132024">
        <ele>86.8</ele>
        <time>2017-12-02T10:44:46Z</time>
      </trkpt>
      <trkpt lat="62.633761747773" lon="17.981372144533">
        <ele>86.8</ele>
        <time>2017-12-02T10:44:47Z</time>
      </trkpt>
      <trkpt lat="62.633776164641" lon="17.981307184808">
        <ele>86.8</ele>
        <time>2017-12-02T10:44:48Z</time>
      </trkpt>
      <trkpt lat="62.633786558197" lon="17.981276507054">
        <ele>86.8</ele>
        <time>2017-12-02T10:44:49Z</time>
      </trkpt>
      <trkpt lat="62.633796616477" lon="17.981217917573">
        <ele>86.8</ele>
        <time>2017-12-02T10:44:50Z</time>
      </trkpt>
      <trkpt lat="62.633805920386" lon="17.981182043041">
        <ele>86.8</ele>
        <time>2017-12-02T10:44:51Z</time>
      </trkpt>
      <trkpt lat="62.633825366394" lon="17.981146419966">
        <ele>86.6</ele>
        <time>2017-12-02T10:44:52Z</time>
      </trkpt>
      <trkpt lat="62.633839783262" lon="17.981098643136">
        <ele>86.6</ele>
        <time>2017-12-02T10:44:53Z</time>
      </trkpt>
      <trkpt lat="62.633852607569" lon="17.981058829111">
        <ele>86.8</ele>
        <time>2017-12-02T10:44:54Z</time>
      </trkpt>
      <trkpt lat="62.633867778808" lon="17.981022619303">
        <ele>86.8</ele>
        <time>2017-12-02T10:44:55Z</time>
      </trkpt>
      <trkpt lat="62.633879848744" lon="17.980982721459">
        <ele>86.8</ele>
        <time>2017-12-02T10:44:56Z</time>
      </trkpt>
      <trkpt lat="62.633899881485" lon="17.980951540791">
        <ele>87</ele>
        <time>2017-12-02T10:44:57Z</time>
      </trkpt>
      <trkpt lat="62.633913292525" lon="17.980912145861">
        <ele>87.2</ele>
        <time>2017-12-02T10:44:58Z</time>
      </trkpt>
      <trkpt lat="62.633930307782" lon="17.980869314352">
        <ele>87.4</ele>
        <time>2017-12-02T10:44:59Z</time>
      </trkpt>
      <trkpt lat="62.633946065754" lon="17.980814915821">
        <ele>87.6</ele>
        <time>2017-12-02T10:45:00Z</time>
      </trkpt>
      <trkpt lat="62.633959057699" lon="17.980766719896">
        <ele>87.6</ele>
        <time>2017-12-02T10:45:01Z</time>
      </trkpt>
      <trkpt lat="62.633985963598" lon="17.980735874504">
        <ele>87.8</ele>
        <time>2017-12-02T10:45:02Z</time>
      </trkpt>
      <trkpt lat="62.634000212828" lon="17.980688349131">
        <ele>88</ele>
        <time>2017-12-02T10:45:03Z</time>
      </trkpt>
      <trkpt lat="62.634013707687" lon="17.980653480427">
        <ele>88</ele>
        <time>2017-12-02T10:45:04Z</time>
      </trkpt>
      <trkpt lat="62.634030387668" lon="17.980608134348">
        <ele>88.2</ele>
        <time>2017-12-02T10:45:05Z</time>
      </trkpt>
      <trkpt lat="62.634038685749" lon="17.980556334206">
        <ele>88</ele>
        <time>2017-12-02T10:45:06Z</time>
      </trkpt>
      <trkpt lat="62.634045726545" lon="17.980492380309">
        <ele>88.2</ele>
        <time>2017-12-02T10:45:07Z</time>
      </trkpt>
      <trkpt lat="62.634064837277" lon="17.98044368147">
        <ele>88</ele>
        <time>2017-12-02T10:45:08Z</time>
      </trkpt>
      <trkpt lat="62.634072800082" lon="17.980397664839">
        <ele>88</ele>
        <time>2017-12-02T10:45:09Z</time>
      </trkpt>
      <trkpt lat="62.634090402072" lon="17.98035148057">
        <ele>88</ele>
        <time>2017-12-02T10:45:10Z</time>
      </trkpt>
      <trkpt lat="62.63410733351" lon="17.980319126436">
        <ele>87.8</ele>
        <time>2017-12-02T10:45:11Z</time>
      </trkpt>
      <trkpt lat="62.634124767862" lon="17.980264644086">
        <ele>87.8</ele>
        <time>2017-12-02T10:45:12Z</time>
      </trkpt>
      <trkpt lat="62.634141531662" lon="17.980212089573">
        <ele>87.8</ele>
        <time>2017-12-02T10:45:13Z</time>
      </trkpt>
      <trkpt lat="62.634162486412" lon="17.980185183674">
        <ele>87.8</ele>
        <time>2017-12-02T10:45:14Z</time>
      </trkpt>
      <trkpt lat="62.634192745071" lon="17.9801561823">
        <ele>88</ele>
        <time>2017-12-02T10:45:15Z</time>
      </trkpt>
      <trkpt lat="62.634206072292" lon="17.980116032999">
        <ele>88</ele>
        <time>2017-12-02T10:45:16Z</time>
      </trkpt>
      <trkpt lat="62.634232894372" lon="17.980076805707">
        <ele>88</ele>
        <time>2017-12-02T10:45:17Z</time>
      </trkpt>
      <trkpt lat="62.634246556869" lon="17.980012432715">
        <ele>88</ele>
        <time>2017-12-02T10:45:18Z</time>
      </trkpt>
      <trkpt lat="62.634261309013" lon="17.979960129659">
        <ele>88.2</ele>
        <time>2017-12-02T10:45:19Z</time>
      </trkpt>
      <trkpt lat="62.634270361465" lon="17.979909838259">
        <ele>88</ele>
        <time>2017-12-02T10:45:20Z</time>
      </trkpt>
      <trkpt lat="62.63428586798" lon="17.979863402533">
        <ele>88.2</ele>
        <time>2017-12-02T10:45:21Z</time>
      </trkpt>
      <trkpt lat="62.63429676445" lon="17.979811183296">
        <ele>88</ele>
        <time>2017-12-02T10:45:22Z</time>
      </trkpt>
      <trkpt lat="62.634307493282" lon="17.97975720386">
        <ele>88.2</ele>
        <time>2017-12-02T10:45:23Z</time>
      </trkpt>
      <trkpt lat="62.634316964829" lon="17.979711438686">
        <ele>88</ele>
        <time>2017-12-02T10:45:24Z</time>
      </trkpt>
      <trkpt lat="62.634337165208" lon="17.979666008788">
        <ele>88</ele>
        <time>2017-12-02T10:45:25Z</time>
      </trkpt>
      <trkpt lat="62.634355773026" lon="17.979619908338">
        <ele>88</ele>
        <time>2017-12-02T10:45:26Z</time>
      </trkpt>
      <trkpt lat="62.634365831306" lon="17.979569700757">
        <ele>88</ele>
        <time>2017-12-02T10:45:27Z</time>
      </trkpt>
      <trkpt lat="62.634376476319" lon="17.979503651385">
        <ele>87.8</ele>
        <time>2017-12-02T10:45:28Z</time>
      </trkpt>
      <trkpt lat="62.634381673097" lon="17.979461909523">
        <ele>87.8</ele>
        <time>2017-12-02T10:45:29Z</time>
      </trkpt>
      <trkpt lat="62.634392569567" lon="17.979405666974">
        <ele>87.8</ele>
        <time>2017-12-02T10:45:30Z</time>
      </trkpt>
      <trkpt lat="62.634405812969" lon="17.979352693366">
        <ele>88</ele>
        <time>2017-12-02T10:45:31Z</time>
      </trkpt>
      <trkpt lat="62.634410087738" lon="17.979305587088">
        <ele>88</ele>
        <time>2017-12-02T10:45:32Z</time>
      </trkpt>
      <trkpt lat="62.634420565113" lon="17.979267197986">
        <ele>87.8</ele>
        <time>2017-12-02T10:45:33Z</time>
      </trkpt>
      <trkpt lat="62.634429449927" lon="17.979231407273">
        <ele>88</ele>
        <time>2017-12-02T10:45:34Z</time>
      </trkpt>
      <trkpt lat="62.634444453528" lon="17.979171225231">
        <ele>88</ele>
        <time>2017-12-02T10:45:35Z</time>
      </trkpt>
      <trkpt lat="62.634450656134" lon="17.979119089813">
        <ele>88</ele>
        <time>2017-12-02T10:45:36Z</time>
      </trkpt>
      <trkpt lat="62.634464234812" lon="17.979056979934">
        <ele>88</ele>
        <time>2017-12-02T10:45:37Z</time>
      </trkpt>
      <trkpt lat="62.634487117399" lon="17.978958911704">
        <ele>87.8</ele>
        <time>2017-12-02T10:45:39Z</time>
      </trkpt>
      <trkpt lat="62.634503462104" lon="17.978911218693">
        <ele>87.8</ele>
        <time>2017-12-02T10:45:40Z</time>
      </trkpt>
      <trkpt lat="62.634522991931" lon="17.978883977518">
        <ele>87.8</ele>
        <time>2017-12-02T10:45:41Z</time>
      </trkpt>
      <trkpt lat="62.634541180654" lon="17.978863944777">
        <ele>87.8</ele>
        <time>2017-12-02T10:45:42Z</time>
      </trkpt>
      <trkpt lat="62.634556519531" lon="17.978857574533">
        <ele>87.8</ele>
        <time>2017-12-02T10:45:43Z</time>
      </trkpt>
      <trkpt lat="62.634569427657" lon="17.97885363504">
        <ele>87.8</ele>
        <time>2017-12-02T10:45:44Z</time>
      </trkpt>
      <trkpt lat="62.634582838697" lon="17.978845839873">
        <ele>88</ele>
        <time>2017-12-02T10:45:45Z</time>
      </trkpt>
      <trkpt lat="62.634593064615" lon="17.978837541792">
        <ele>88</ele>
        <time>2017-12-02T10:45:46Z</time>
      </trkpt>
      <trkpt lat="62.634605888922" lon="17.978835362498">
        <ele>88</ele>
        <time>2017-12-02T10:45:47Z</time>
      </trkpt>
      <trkpt lat="62.634624664378" lon="17.97883268029">
        <ele>88</ele>
        <time>2017-12-02T10:45:48Z</time>
      </trkpt>
      <trkpt lat="62.634639751798" lon="17.978827483512">
        <ele>88.2</ele>
        <time>2017-12-02T10:45:49Z</time>
      </trkpt>
      <trkpt lat="62.634664897498" lon="17.978831925919">
        <ele>88</ele>
        <time>2017-12-02T10:45:50Z</time>
      </trkpt>
      <trkpt lat="62.634688785913" lon="17.978845672235">
        <ele>88</ele>
        <time>2017-12-02T10:45:51Z</time>
      </trkpt>
      <trkpt lat="62.634712841966" lon="17.978863944777">
        <ele>88</ele>
        <time>2017-12-02T10:45:52Z</time>
      </trkpt>
      <trkpt lat="62.634734131992" lon="17.978874086876">
        <ele>88</ele>
        <time>2017-12-02T10:45:53Z</time>
      </trkpt>
      <trkpt lat="62.634758020407" lon="17.978881714405">
        <ele>88</ele>
        <time>2017-12-02T10:45:54Z</time>
      </trkpt>
      <trkpt lat="62.63478207646" lon="17.978882384957">
        <ele>87.8</ele>
        <time>2017-12-02T10:45:55Z</time>
      </trkpt>
      <trkpt lat="62.634812335119" lon="17.978897556196">
        <ele>87.8</ele>
        <time>2017-12-02T10:45:56Z</time>
      </trkpt>
      <trkpt lat="62.634840414484" lon="17.978906524829">
        <ele>87.6</ele>
        <time>2017-12-02T10:45:57Z</time>
      </trkpt>
      <trkpt lat="62.634868577668" lon="17.978920019688">
        <ele>87.4</ele>
        <time>2017-12-02T10:45:58Z</time>
      </trkpt>
      <trkpt lat="62.634895399748" lon="17.978933514547">
        <ele>87.2</ele>
        <time>2017-12-02T10:45:59Z</time>
      </trkpt>
      <trkpt lat="62.634923479113" lon="17.97894499775">
        <ele>87</ele>
        <time>2017-12-02T10:46:00Z</time>
      </trkpt>
      <trkpt lat="62.63494468532" lon="17.978955475125">
        <ele>87</ele>
        <time>2017-12-02T10:46:01Z</time>
      </trkpt>
      <trkpt lat="62.634966897355" lon="17.97896176155">
        <ele>87</ele>
        <time>2017-12-02T10:46:02Z</time>
      </trkpt>
      <trkpt lat="62.634978883472" lon="17.978964443758">
        <ele>86.8</ele>
        <time>2017-12-02T10:46:03Z</time>
      </trkpt>
      <trkpt lat="62.635002771887" lon="17.97897181983">
        <ele>86.8</ele>
        <time>2017-12-02T10:46:04Z</time>
      </trkpt>
      <trkpt lat="62.635020457696" lon="17.97898020173">
        <ele>86.8</ele>
        <time>2017-12-02T10:46:05Z</time>
      </trkpt>
      <trkpt lat="62.635045351939" lon="17.978982548662">
        <ele>86.8</ele>
        <time>2017-12-02T10:46:06Z</time>
      </trkpt>
      <trkpt lat="62.635064462671" lon="17.978985817603">
        <ele>86.6</ele>
        <time>2017-12-02T10:46:07Z</time>
      </trkpt>
      <trkpt lat="62.635094888968" lon="17.978996462616">
        <ele>86.4</ele>
        <time>2017-12-02T10:46:08Z</time>
      </trkpt>
      <trkpt lat="62.635114502614" lon="17.979001827032">
        <ele>86.4</ele>
        <time>2017-12-02T10:46:09Z</time>
      </trkpt>
      <trkpt lat="62.63514585092" lon="17.979008784009">
        <ele>86.4</ele>
        <time>2017-12-02T10:46:10Z</time>
      </trkpt>
      <trkpt lat="62.635171583353" lon="17.979014986615">
        <ele>86.2</ele>
        <time>2017-12-02T10:46:11Z</time>
      </trkpt>
      <trkpt lat="62.635195471768" lon="17.979007275267">
        <ele>86.2</ele>
        <time>2017-12-02T10:46:12Z</time>
      </trkpt>
      <trkpt lat="62.635216845613" lon="17.979013645511">
        <ele>86.2</ele>
        <time>2017-12-02T10:46:13Z</time>
      </trkpt>
      <trkpt lat="62.635239476743" lon="17.979016160081">
        <ele>86</ele>
        <time>2017-12-02T10:46:14Z</time>
      </trkpt>
      <trkpt lat="62.63526152114" lon="17.97901875847">
        <ele>85.8</ele>
        <time>2017-12-02T10:46:15Z</time>
      </trkpt>
      <trkpt lat="62.635285325736" lon="17.979019848117">
        <ele>85.6</ele>
        <time>2017-12-02T10:46:16Z</time>
      </trkpt>
      <trkpt lat="62.63530929797" lon="17.979019093746">
        <ele>85.4</ele>
        <time>2017-12-02T10:46:17Z</time>
      </trkpt>
      <trkpt lat="62.635332934928" lon="17.979020099574">
        <ele>85.2</ele>
        <time>2017-12-02T10:46:18Z</time>
      </trkpt>
      <trkpt lat="62.635355649877" lon="17.979016160081">
        <ele>85.2</ele>
        <time>2017-12-02T10:46:19Z</time>
      </trkpt>
      <trkpt lat="62.635385824717" lon="17.97901205295">
        <ele>85.2</ele>
        <time>2017-12-02T10:46:20Z</time>
      </trkpt>
      <trkpt lat="62.635411724788" lon="17.979007862">
        <ele>85</ele>
        <time>2017-12-02T10:46:21Z</time>
      </trkpt>
      <trkpt lat="62.635436116117" lon="17.978993696589">
        <ele>85</ele>
        <time>2017-12-02T10:46:22Z</time>
      </trkpt>
      <trkpt lat="62.635466961509" lon="17.978992104028">
        <ele>84.8</ele>
        <time>2017-12-02T10:46:23Z</time>
      </trkpt>
      <trkpt lat="62.635494705598" lon="17.978991265838">
        <ele>84.4</ele>
        <time>2017-12-02T10:46:24Z</time>
      </trkpt>
      <trkpt lat="62.63552219823" lon="17.978985566146">
        <ele>84.2</ele>
        <time>2017-12-02T10:46:25Z</time>
      </trkpt>
      <trkpt lat="62.635545164636" lon="17.978959163161">
        <ele>84</ele>
        <time>2017-12-02T10:46:26Z</time>
      </trkpt>
      <trkpt lat="62.635578273141" lon="17.978963186473">
        <ele>83.8</ele>
        <time>2017-12-02T10:46:27Z</time>
      </trkpt>
      <trkpt lat="62.635610543456" lon="17.978951535632">
        <ele>83.6</ele>
        <time>2017-12-02T10:46:28Z</time>
      </trkpt>
      <trkpt lat="62.635639293373" lon="17.978945500664">
        <ele>83.4</ele>
        <time>2017-12-02T10:46:29Z</time>
      </trkpt>
      <trkpt lat="62.635674078258" lon="17.978948434329">
        <ele>83.2</ele>
        <time>2017-12-02T10:46:30Z</time>
      </trkpt>
      <trkpt lat="62.635699810691" lon="17.978943656646">
        <ele>83.2</ele>
        <time>2017-12-02T10:46:31Z</time>
      </trkpt>
      <trkpt lat="62.635726548952" lon="17.978943405189">
        <ele>83</ele>
        <time>2017-12-02T10:46:32Z</time>
      </trkpt>
      <trkpt lat="62.635758903086" lon="17.978944913931">
        <ele>83</ele>
        <time>2017-12-02T10:46:33Z</time>
      </trkpt>
      <trkpt lat="62.63578706627" lon="17.978950278347">
        <ele>83</ele>
        <time>2017-12-02T10:46:34Z</time>
      </trkpt>
      <trkpt lat="62.635815900006" lon="17.978954050202">
        <ele>83.2</ele>
        <time>2017-12-02T10:46:35Z</time>
      </trkpt>
      <trkpt lat="62.635837525308" lon="17.978959079342">
        <ele>83.2</ele>
        <time>2017-12-02T10:46:36Z</time>
      </trkpt>
      <trkpt lat="62.635859821162" lon="17.978969975812">
        <ele>83.2</ele>
        <time>2017-12-02T10:46:37Z</time>
      </trkpt>
      <trkpt lat="62.635872896926" lon="17.978973999124">
        <ele>83.4</ele>
        <time>2017-12-02T10:46:38Z</time>
      </trkpt>
      <trkpt lat="62.635881027369" lon="17.978978692988">
        <ele>83.4</ele>
        <time>2017-12-02T10:46:39Z</time>
      </trkpt>
      <trkpt lat="62.635891253287" lon="17.978982297205">
        <ele>83.4</ele>
        <time>2017-12-02T10:46:40Z</time>
      </trkpt>
      <trkpt lat="62.635899551368" lon="17.978984476499">
        <ele>83.4</ele>
        <time>2017-12-02T10:46:41Z</time>
      </trkpt>
      <trkpt lat="62.635910950752" lon="17.978991014381">
        <ele>83.4</ele>
        <time>2017-12-02T10:46:42Z</time>
      </trkpt>
      <trkpt lat="62.635918159186" lon="17.978992523123">
        <ele>83.6</ele>
        <time>2017-12-02T10:46:43Z</time>
      </trkpt>
      <trkpt lat="62.635927044" lon="17.978994534779">
        <ele>83.8</ele>
        <time>2017-12-02T10:46:44Z</time>
      </trkpt>
      <trkpt lat="62.635940622678" lon="17.979005095973">
        <ele>83.8</ele>
        <time>2017-12-02T10:46:45Z</time>
      </trkpt>
      <trkpt lat="62.635948334026" lon="17.979008867828">
        <ele>84</ele>
        <time>2017-12-02T10:46:46Z</time>
      </trkpt>
      <trkpt lat="62.635962750894" lon="17.979017752642">
        <ele>84.2</ele>
        <time>2017-12-02T10:46:47Z</time>
      </trkpt>
      <trkpt lat="62.635971719527" lon="17.979019512841">
        <ele>84</ele>
        <time>2017-12-02T10:46:48Z</time>
      </trkpt>
      <trkpt lat="62.635982196902" lon="17.979027391827">
        <ele>84.2</ele>
        <time>2017-12-02T10:46:49Z</time>
      </trkpt>
      <trkpt lat="62.635993093372" lon="17.979038455935">
        <ele>84.2</ele>
        <time>2017-12-02T10:46:50Z</time>
      </trkpt>
      <trkpt lat="62.636000301806" lon="17.979046083464">
        <ele>84.2</ele>
        <time>2017-12-02T10:46:51Z</time>
      </trkpt>
      <trkpt lat="62.636006085317" lon="17.979051028785">
        <ele>84.2</ele>
        <time>2017-12-02T10:46:52Z</time>
      </trkpt>
      <trkpt lat="62.636010360086" lon="17.979058740133">
        <ele>84.2</ele>
        <time>2017-12-02T10:46:53Z</time>
      </trkpt>
      <trkpt lat="62.636014634855" lon="17.979065780929">
        <ele>84</ele>
        <time>2017-12-02T10:46:54Z</time>
      </trkpt>
      <trkpt lat="62.636018239072" lon="17.9790749172">
        <ele>84</ele>
        <time>2017-12-02T10:46:55Z</time>
      </trkpt>
      <trkpt lat="62.636019999271" lon="17.979080113978">
        <ele>84</ele>
        <time>2017-12-02T10:46:56Z</time>
      </trkpt>
      <trkpt lat="62.636024190221" lon="17.979093692656">
        <ele>84</ele>
        <time>2017-12-02T10:46:57Z</time>
      </trkpt>
      <trkpt lat="62.636026872429" lon="17.979107271334">
        <ele>84</ele>
        <time>2017-12-02T10:46:58Z</time>
      </trkpt>
      <trkpt lat="62.636029722275" lon="17.979132081758">
        <ele>84</ele>
        <time>2017-12-02T10:46:59Z</time>
      </trkpt>
      <trkpt lat="62.636029051723" lon="17.979128477541">
        <ele>84</ele>
        <time>2017-12-02T10:47:00Z</time>
      </trkpt>
      <trkpt lat="62.636027291524" lon="17.97915789801">
        <ele>84</ele>
        <time>2017-12-02T10:47:01Z</time>
      </trkpt>
      <trkpt lat="62.636025782782" lon="17.979170973774">
        <ele>84</ele>
        <time>2017-12-02T10:47:02Z</time>
      </trkpt>
      <trkpt lat="62.636025196049" lon="17.979173655982">
        <ele>83.8</ele>
        <time>2017-12-02T10:47:03Z</time>
      </trkpt>
      <trkpt lat="62.636022010927" lon="17.979188575764">
        <ele>83.8</ele>
        <time>2017-12-02T10:47:04Z</time>
      </trkpt>
      <trkpt lat="62.636020334547" lon="17.979199136958">
        <ele>83.8</ele>
        <time>2017-12-02T10:47:05Z</time>
      </trkpt>
      <trkpt lat="62.63601756852" lon="17.979208021772">
        <ele>83.8</ele>
        <time>2017-12-02T10:47:06Z</time>
      </trkpt>
      <trkpt lat="62.636016478873" lon="17.979217660957">
        <ele>83.8</ele>
        <time>2017-12-02T10:47:07Z</time>
      </trkpt>
      <trkpt lat="62.636016395054" lon="17.979219840251">
        <ele>83.8</ele>
        <time>2017-12-02T10:47:08Z</time>
      </trkpt>
      <trkpt lat="62.635987561318" lon="17.9795610674">
        <ele>83.6</ele>
        <time>2017-12-02T10:47:19Z</time>
      </trkpt>
      <trkpt lat="62.635980017608" lon="17.979665673512">
        <ele>83.6</ele>
        <time>2017-12-02T10:47:20Z</time>
      </trkpt>
      <trkpt lat="62.635976413391" lon="17.979788133071">
        <ele>83.4</ele>
        <time>2017-12-02T10:47:21Z</time>
      </trkpt>
      <trkpt lat="62.635973060631" lon="17.979869772777">
        <ele>83</ele>
        <time>2017-12-02T10:47:22Z</time>
      </trkpt>
      <trkpt lat="62.635969875509" lon="17.98001201362">
        <ele>82</ele>
        <time>2017-12-02T10:47:23Z</time>
      </trkpt>
      <trkpt lat="62.635976581029" lon="17.980131371876">
        <ele>81</ele>
        <time>2017-12-02T10:47:24Z</time>
      </trkpt>
      <trkpt lat="62.635980520522" lon="17.980246036268">
        <ele>79.8</ele>
        <time>2017-12-02T10:47:25Z</time>
      </trkpt>
      <trkpt lat="62.635996949046" lon="17.980361622669">
        <ele>78.6</ele>
        <time>2017-12-02T10:47:26Z</time>
      </trkpt>
      <trkpt lat="62.636010527724" lon="17.980462037831">
        <ele>78</ele>
        <time>2017-12-02T10:47:27Z</time>
      </trkpt>
      <trkpt lat="62.636026453334" lon="17.980565889572">
        <ele>77.6</ele>
        <time>2017-12-02T10:47:28Z</time>
      </trkpt>
      <trkpt lat="62.636044055324" lon="17.980655575902">
        <ele>77.2</ele>
        <time>2017-12-02T10:47:29Z</time>
      </trkpt>
      <trkpt lat="62.636065093893" lon="17.980751381019">
        <ele>77</ele>
        <time>2017-12-02T10:47:30Z</time>
      </trkpt>
      <trkpt lat="62.636080684227" lon="17.980842576091">
        <ele>76.8</ele>
        <time>2017-12-02T10:47:31Z</time>
      </trkpt>
      <trkpt lat="62.636098705312" lon="17.980934693172">
        <ele>76.8</ele>
        <time>2017-12-02T10:47:32Z</time>
      </trkpt>
      <trkpt lat="62.636119492424" lon="17.981041059483">
        <ele>76.8</ele>
        <time>2017-12-02T10:47:33Z</time>
      </trkpt>
      <trkpt lat="62.636142877925" lon="17.981115826031">
        <ele>77</ele>
        <time>2017-12-02T10:47:34Z</time>
      </trkpt>
      <trkpt lat="62.636153020024" lon="17.981226048016">
        <ele>77</ele>
        <time>2017-12-02T10:47:35Z</time>
      </trkpt>
      <trkpt lat="62.636160312277" lon="17.981312297767">
        <ele>77</ele>
        <time>2017-12-02T10:47:36Z</time>
      </trkpt>
      <trkpt lat="62.636168191263" lon="17.981409611626">
        <ele>77.2</ele>
        <time>2017-12-02T10:47:37Z</time>
      </trkpt>
      <trkpt lat="62.636181183208" lon="17.981507176942">
        <ele>77.2</ele>
        <time>2017-12-02T10:47:38Z</time>
      </trkpt>
      <trkpt lat="62.636192582592" lon="17.981589319562">
        <ele>77.2</ele>
        <time>2017-12-02T10:47:39Z</time>
      </trkpt>
      <trkpt lat="62.636206496546" lon="17.981691914018">
        <ele>77.2</ele>
        <time>2017-12-02T10:47:40Z</time>
      </trkpt>
      <trkpt lat="62.636221583966" lon="17.981755365001">
        <ele>77.2</ele>
        <time>2017-12-02T10:47:41Z</time>
      </trkpt>
      <trkpt lat="62.636233234807" lon="17.981840860381">
        <ele>77.2</ele>
        <time>2017-12-02T10:47:42Z</time>
      </trkpt>
      <trkpt lat="62.63624639439" lon="17.981922835363">
        <ele>77</ele>
        <time>2017-12-02T10:47:43Z</time>
      </trkpt>
      <trkpt lat="62.636253602824" lon="17.981998943015">
        <ele>77</ele>
        <time>2017-12-02T10:47:44Z</time>
      </trkpt>
      <trkpt lat="62.636260140706" lon="17.982081840006">
        <ele>77</ele>
        <time>2017-12-02T10:47:45Z</time>
      </trkpt>
      <trkpt lat="62.636277826515" lon="17.982142608781">
        <ele>76.8</ele>
        <time>2017-12-02T10:47:46Z</time>
      </trkpt>
      <trkpt lat="62.636279586714" lon="17.98221477694">
        <ele>76.8</ele>
        <time>2017-12-02T10:47:47Z</time>
      </trkpt>
      <trkpt lat="62.636280927818" lon="17.982295075542">
        <ele>76.8</ele>
        <time>2017-12-02T10:47:48Z</time>
      </trkpt>
      <trkpt lat="62.636284029121" lon="17.982363052751">
        <ele>77</ele>
        <time>2017-12-02T10:47:49Z</time>
      </trkpt>
      <trkpt lat="62.636288639166" lon="17.982426755191">
        <ele>77</ele>
        <time>2017-12-02T10:47:50Z</time>
      </trkpt>
      <trkpt lat="62.6362958476" lon="17.982498420436">
        <ele>76.8</ele>
        <time>2017-12-02T10:47:51Z</time>
      </trkpt>
      <trkpt lat="62.636291740469" lon="17.982582071798">
        <ele>76.8</ele>
        <time>2017-12-02T10:47:52Z</time>
      </trkpt>
      <trkpt lat="62.636296601971" lon="17.982635967415">
        <ele>76.8</ele>
        <time>2017-12-02T10:47:53Z</time>
      </trkpt>
      <trkpt lat="62.636290567003" lon="17.982711488334">
        <ele>76.8</ele>
        <time>2017-12-02T10:47:54Z</time>
      </trkpt>
      <trkpt lat="62.636292830116" lon="17.982783237398">
        <ele>76.8</ele>
        <time>2017-12-02T10:47:55Z</time>
      </trkpt>
      <trkpt lat="62.636286878967" lon="17.982846269286">
        <ele>77</ele>
        <time>2017-12-02T10:47:56Z</time>
      </trkpt>
      <trkpt lat="62.636286711329" lon="17.98290879826">
        <ele>77</ele>
        <time>2017-12-02T10:47:57Z</time>
      </trkpt>
      <trkpt lat="62.636285202587" lon="17.982964034981">
        <ele>77</ele>
        <time>2017-12-02T10:47:58Z</time>
      </trkpt>
      <trkpt lat="62.636285873139" lon="17.983021031901">
        <ele>76.8</ele>
        <time>2017-12-02T10:47:59Z</time>
      </trkpt>
      <trkpt lat="62.636285621682" lon="17.983074173147">
        <ele>76.8</ele>
        <time>2017-12-02T10:48:00Z</time>
      </trkpt>
      <trkpt lat="62.636287717157" lon="17.983136869759">
        <ele>77</ele>
        <time>2017-12-02T10:48:01Z</time>
      </trkpt>
      <trkpt lat="62.636293416849" lon="17.983192441756">
        <ele>77</ele>
        <time>2017-12-02T10:48:02Z</time>
      </trkpt>
      <trkpt lat="62.636290315546" lon="17.983251282694">
        <ele>77</ele>
        <time>2017-12-02T10:48:03Z</time>
      </trkpt>
      <trkpt lat="62.636301966387" lon="17.983295790583">
        <ele>77</ele>
        <time>2017-12-02T10:48:04Z</time>
      </trkpt>
      <trkpt lat="62.636289728813" lon="17.983365947086">
        <ele>77.2</ele>
        <time>2017-12-02T10:48:05Z</time>
      </trkpt>
      <trkpt lat="62.636294255039" lon="17.983417160495">
        <ele>77</ele>
        <time>2017-12-02T10:48:06Z</time>
      </trkpt>
      <trkpt lat="62.636291824288" lon="17.983466697524">
        <ele>77</ele>
        <time>2017-12-02T10:48:07Z</time>
      </trkpt>
      <trkpt lat="62.636293500668" lon="17.983522101883">
        <ele>77.2</ele>
        <time>2017-12-02T10:48:08Z</time>
      </trkpt>
      <trkpt lat="62.636286292234" lon="17.983558311691">
        <ele>77.2</ele>
        <time>2017-12-02T10:48:09Z</time>
      </trkpt>
      <trkpt lat="62.636279335257" lon="17.983607429625">
        <ele>77.4</ele>
        <time>2017-12-02T10:48:10Z</time>
      </trkpt>
      <trkpt lat="62.636276820687" lon="17.983645483451">
        <ele>77.4</ele>
        <time>2017-12-02T10:48:11Z</time>
      </trkpt>
      <trkpt lat="62.636262655276" lon="17.983686303304">
        <ele>77.6</ele>
        <time>2017-12-02T10:48:12Z</time>
      </trkpt>
      <trkpt lat="62.636260475982" lon="17.983725111501">
        <ele>77.8</ele>
        <time>2017-12-02T10:48:13Z</time>
      </trkpt>
      <trkpt lat="62.636247651675" lon="17.983762997689">
        <ele>77.8</ele>
        <time>2017-12-02T10:48:14Z</time>
      </trkpt>
      <trkpt lat="62.636242035802" lon="17.983807170302">
        <ele>78</ele>
        <time>2017-12-02T10:48:15Z</time>
      </trkpt>
      <trkpt lat="62.63623633611" lon="17.983855198589">
        <ele>78.2</ele>
        <time>2017-12-02T10:48:16Z</time>
      </trkpt>
      <trkpt lat="62.636237090481" lon="17.983909010387">
        <ele>78.2</ele>
        <time>2017-12-02T10:48:17Z</time>
      </trkpt>
      <trkpt lat="62.636227199839" lon="17.983950584611">
        <ele>78.4</ele>
        <time>2017-12-02T10:48:18Z</time>
      </trkpt>
      <trkpt lat="62.636219153215" lon="17.983997271794">
        <ele>78.4</ele>
        <time>2017-12-02T10:48:19Z</time>
      </trkpt>
      <trkpt lat="62.636210184582" lon="17.984040522398">
        <ele>78.4</ele>
        <time>2017-12-02T10:48:20Z</time>
      </trkpt>
      <trkpt lat="62.63620699946" lon="17.984088802142">
        <ele>78.4</ele>
        <time>2017-12-02T10:48:21Z</time>
      </trkpt>
      <trkpt lat="62.636198114646" lon="17.984128616167">
        <ele>78.4</ele>
        <time>2017-12-02T10:48:22Z</time>
      </trkpt>
      <trkpt lat="62.636197863189" lon="17.98418284706">
        <ele>78.4</ele>
        <time>2017-12-02T10:48:23Z</time>
      </trkpt>
      <trkpt lat="62.636190570936" lon="17.984219895058">
        <ele>78.6</ele>
        <time>2017-12-02T10:48:24Z</time>
      </trkpt>
      <trkpt lat="62.636187888728" lon="17.98427085701">
        <ele>78.6</ele>
        <time>2017-12-02T10:48:25Z</time>
      </trkpt>
      <trkpt lat="62.636171292566" lon="17.984307988827">
        <ele>78.8</ele>
        <time>2017-12-02T10:48:26Z</time>
      </trkpt>
      <trkpt lat="62.636169113272" lon="17.984358112589">
        <ele>78.6</ele>
        <time>2017-12-02T10:48:27Z</time>
      </trkpt>
      <trkpt lat="62.636165425236" lon="17.984402201383">
        <ele>78.8</ele>
        <time>2017-12-02T10:48:28Z</time>
      </trkpt>
      <trkpt lat="62.636170538195" lon="17.984452325145">
        <ele>78.8</ele>
        <time>2017-12-02T10:48:29Z</time>
      </trkpt>
      <trkpt lat="62.636168358901" lon="17.984500101975">
        <ele>78.8</ele>
        <time>2017-12-02T10:48:30Z</time>
      </trkpt>
      <trkpt lat="62.636164922322" lon="17.98455081247">
        <ele>78.8</ele>
        <time>2017-12-02T10:48:31Z</time>
      </trkpt>
      <trkpt lat="62.636165006141" lon="17.984591464685">
        <ele>79</ele>
        <time>2017-12-02T10:48:32Z</time>
      </trkpt>
      <trkpt lat="62.636159893182" lon="17.984639157696">
        <ele>79</ele>
        <time>2017-12-02T10:48:33Z</time>
      </trkpt>
      <trkpt lat="62.636159641725" lon="17.984674445495">
        <ele>79</ele>
        <time>2017-12-02T10:48:34Z</time>
      </trkpt>
      <trkpt lat="62.636149667264" lon="17.984725742723">
        <ele>79.2</ele>
        <time>2017-12-02T10:48:35Z</time>
      </trkpt>
      <trkpt lat="62.636152265653" lon="17.984764718558">
        <ele>79.4</ele>
        <time>2017-12-02T10:48:36Z</time>
      </trkpt>
      <trkpt lat="62.63614245883" lon="17.984809477904">
        <ele>79.4</ele>
        <time>2017-12-02T10:48:37Z</time>
      </trkpt>
      <trkpt lat="62.636144219029" lon="17.984850465395">
        <ele>79.4</ele>
        <time>2017-12-02T10:48:38Z</time>
      </trkpt>
      <trkpt lat="62.636136256224" lon="17.984885669375">
        <ele>79.6</ele>
        <time>2017-12-02T10:48:39Z</time>
      </trkpt>
      <trkpt lat="62.636138184061" lon="17.984931434549">
        <ele>79.6</ele>
        <time>2017-12-02T10:48:40Z</time>
      </trkpt>
      <trkpt lat="62.636132232912" lon="17.984977786456">
        <ele>79.6</ele>
        <time>2017-12-02T10:48:41Z</time>
      </trkpt>
      <trkpt lat="62.636131646179" lon="17.98502103706">
        <ele>79.8</ele>
        <time>2017-12-02T10:48:42Z</time>
      </trkpt>
      <trkpt lat="62.636126868496" lon="17.985061437818">
        <ele>79.8</ele>
        <time>2017-12-02T10:48:43Z</time>
      </trkpt>
      <trkpt lat="62.636125946487" lon="17.985104353146">
        <ele>79.8</ele>
        <time>2017-12-02T10:48:44Z</time>
      </trkpt>
      <trkpt lat="62.63612234227" lon="17.985143496619">
        <ele>80.2</ele>
        <time>2017-12-02T10:48:45Z</time>
      </trkpt>
      <trkpt lat="62.63612485684" lon="17.985186411947">
        <ele>80.2</ele>
        <time>2017-12-02T10:48:46Z</time>
      </trkpt>
      <trkpt lat="62.636114211827" lon="17.985226728886">
        <ele>80.2</ele>
        <time>2017-12-02T10:48:47Z</time>
      </trkpt>
      <trkpt lat="62.636120833528" lon="17.985271404413">
        <ele>80.2</ele>
        <time>2017-12-02T10:48:48Z</time>
      </trkpt>
      <trkpt lat="62.636115720569" lon="17.985306189298">
        <ele>80.2</ele>
        <time>2017-12-02T10:48:49Z</time>
      </trkpt>
      <trkpt lat="62.636111278162" lon="17.985350278092">
        <ele>80.2</ele>
        <time>2017-12-02T10:48:50Z</time>
      </trkpt>
      <trkpt lat="62.636105494651" lon="17.985388834832">
        <ele>80.4</ele>
        <time>2017-12-02T10:48:51Z</time>
      </trkpt>
      <trkpt lat="62.636102728624" lon="17.985430241418">
        <ele>80.4</ele>
        <time>2017-12-02T10:48:52Z</time>
      </trkpt>
      <trkpt lat="62.636098705312" lon="17.985476509506">
        <ele>80.6</ele>
        <time>2017-12-02T10:48:53Z</time>
      </trkpt>
      <trkpt lat="62.636101890434" lon="17.985512384038">
        <ele>80.6</ele>
        <time>2017-12-02T10:48:54Z</time>
      </trkpt>
      <trkpt lat="62.636095855466" lon="17.985562004886">
        <ele>80.6</ele>
        <time>2017-12-02T10:48:55Z</time>
      </trkpt>
      <trkpt lat="62.636100884606" lon="17.985600729264">
        <ele>80.6</ele>
        <time>2017-12-02T10:48:56Z</time>
      </trkpt>
      <trkpt lat="62.636092921801" lon="17.985642554945">
        <ele>80.6</ele>
        <time>2017-12-02T10:48:57Z</time>
      </trkpt>
      <trkpt lat="62.636078504933" lon="17.985673903251">
        <ele>80.6</ele>
        <time>2017-12-02T10:48:58Z</time>
      </trkpt>
      <trkpt lat="62.636071547956" lon="17.985712962905">
        <ele>80.6</ele>
        <time>2017-12-02T10:48:59Z</time>
      </trkpt>
      <trkpt lat="62.63605947802" lon="17.985760153002">
        <ele>80.6</ele>
        <time>2017-12-02T10:49:00Z</time>
      </trkpt>
      <trkpt lat="62.636052604862" lon="17.985782281218">
        <ele>80.8</ele>
        <time>2017-12-02T10:49:01Z</time>
      </trkpt>
      <trkpt lat="62.636048749188" lon="17.985818491026">
        <ele>80.8</ele>
        <time>2017-12-02T10:49:02Z</time>
      </trkpt>
      <trkpt lat="62.636031398655" lon="17.985844558735">
        <ele>80.8</ele>
        <time>2017-12-02T10:49:03Z</time>
      </trkpt>
      <trkpt lat="62.6360192449" lon="17.985869620616">
        <ele>80.8</ele>
        <time>2017-12-02T10:49:04Z</time>
      </trkpt>
      <trkpt lat="62.636002397281" lon="17.985905411329">
        <ele>81</ele>
        <time>2017-12-02T10:49:05Z</time>
      </trkpt>
      <trkpt lat="62.635981945445" lon="17.985925108794">
        <ele>81</ele>
        <time>2017-12-02T10:49:06Z</time>
      </trkpt>
      <trkpt lat="62.635964678731" lon="17.985952601426">
        <ele>81</ele>
        <time>2017-12-02T10:49:07Z</time>
      </trkpt>
      <trkpt lat="62.635943640162" lon="17.985963916991">
        <ele>81</ele>
        <time>2017-12-02T10:49:08Z</time>
      </trkpt>
      <trkpt lat="62.635928636561" lon="17.985976238384">
        <ele>81.4</ele>
        <time>2017-12-02T10:49:09Z</time>
      </trkpt>
      <trkpt lat="62.635910783114" lon="17.985987805406">
        <ele>81.4</ele>
        <time>2017-12-02T10:49:10Z</time>
      </trkpt>
      <trkpt lat="62.635887984346" lon="17.986000378256">
        <ele>81.6</ele>
        <time>2017-12-02T10:49:11Z</time>
      </trkpt>
      <trkpt lat="62.635868789795" lon="17.986019237531">
        <ele>81.6</ele>
        <time>2017-12-02T10:49:12Z</time>
      </trkpt>
      <trkpt lat="62.635847835045" lon="17.986029128173">
        <ele>81.8</ele>
        <time>2017-12-02T10:49:13Z</time>
      </trkpt>
      <trkpt lat="62.635832160892" lon="17.986049412371">
        <ele>81.8</ele>
        <time>2017-12-02T10:49:14Z</time>
      </trkpt>
      <trkpt lat="62.635811625237" lon="17.986052094579">
        <ele>82</ele>
        <time>2017-12-02T10:49:15Z</time>
      </trkpt>
      <trkpt lat="62.635797711283" lon="17.986077743193">
        <ele>82</ele>
        <time>2017-12-02T10:49:16Z</time>
      </trkpt>
      <trkpt lat="62.63577700799" lon="17.986092662975">
        <ele>82.2</ele>
        <time>2017-12-02T10:49:17Z</time>
      </trkpt>
      <trkpt lat="62.635761585294" lon="17.986129543335">
        <ele>82.2</ele>
        <time>2017-12-02T10:49:18Z</time>
      </trkpt>
      <trkpt lat="62.635748844806" lon="17.986156449234">
        <ele>82.2</ele>
        <time>2017-12-02T10:49:19Z</time>
      </trkpt>
      <trkpt lat="62.63573677487" lon="17.986166507514">
        <ele>82.2</ele>
        <time>2017-12-02T10:49:20Z</time>
      </trkpt>
      <trkpt lat="62.635728141513" lon="17.986195676526">
        <ele>82.4</ele>
        <time>2017-12-02T10:49:21Z</time>
      </trkpt>
      <trkpt lat="62.635712970274" lon="17.986221744235">
        <ele>82.4</ele>
        <time>2017-12-02T10:49:22Z</time>
      </trkpt>
      <trkpt lat="62.635706264754" lon="17.986247392849">
        <ele>82.4</ele>
        <time>2017-12-02T10:49:23Z</time>
      </trkpt>
      <trkpt lat="62.635700481243" lon="17.986281423363">
        <ele>82.4</ele>
        <time>2017-12-02T10:49:24Z</time>
      </trkpt>
      <trkpt lat="62.635685561461" lon="17.986315286239">
        <ele>82.4</ele>
        <time>2017-12-02T10:49:25Z</time>
      </trkpt>
      <trkpt lat="62.635678017751" lon="17.986344203794">
        <ele>82.6</ele>
        <time>2017-12-02T10:49:26Z</time>
      </trkpt>
      <trkpt lat="62.635664774349" lon="17.986376809385">
        <ele>82.8</ele>
        <time>2017-12-02T10:49:27Z</time>
      </trkpt>
      <trkpt lat="62.635652704413" lon="17.986417210143">
        <ele>83</ele>
        <time>2017-12-02T10:49:28Z</time>
      </trkpt>
      <trkpt lat="62.635640215382" lon="17.98645266558">
        <ele>83</ele>
        <time>2017-12-02T10:49:29Z</time>
      </trkpt>
      <trkpt lat="62.635632168758" lon="17.986492144329">
        <ele>83.2</ele>
        <time>2017-12-02T10:49:30Z</time>
      </trkpt>
      <trkpt lat="62.635617584252" lon="17.986520223694">
        <ele>83.4</ele>
        <time>2017-12-02T10:49:31Z</time>
      </trkpt>
      <trkpt lat="62.635610375818" lon="17.986552745466">
        <ele>83.4</ele>
        <time>2017-12-02T10:49:32Z</time>
      </trkpt>
      <trkpt lat="62.635597467692" lon="17.98658426141">
        <ele>83.4</ele>
        <time>2017-12-02T10:49:33Z</time>
      </trkpt>
      <trkpt lat="62.635580536254" lon="17.986620722675">
        <ele>83.4</ele>
        <time>2017-12-02T10:49:34Z</time>
      </trkpt>
      <trkpt lat="62.635569807422" lon="17.986650981334">
        <ele>83.6</ele>
        <time>2017-12-02T10:49:35Z</time>
      </trkpt>
      <trkpt lat="62.63555991678" lon="17.986679563613">
        <ele>83.6</ele>
        <time>2017-12-02T10:49:36Z</time>
      </trkpt>
      <trkpt lat="62.635556815477" lon="17.986712253023">
        <ele>83.6</ele>
        <time>2017-12-02T10:49:37Z</time>
      </trkpt>
      <trkpt lat="62.635544661722" lon="17.986746451175">
        <ele>83.8</ele>
        <time>2017-12-02T10:49:38Z</time>
      </trkpt>
      <trkpt lat="62.635540554591" lon="17.986773776169">
        <ele>83.8</ele>
        <time>2017-12-02T10:49:39Z</time>
      </trkpt>
      <trkpt lat="62.635523539334" lon="17.986804789199">
        <ele>83.8</ele>
        <time>2017-12-02T10:49:40Z</time>
      </trkpt>
      <trkpt lat="62.635515827986" lon="17.986839993179">
        <ele>84</ele>
        <time>2017-12-02T10:49:41Z</time>
      </trkpt>
      <trkpt lat="62.635499148005" lon="17.986872850227">
        <ele>84.2</ele>
        <time>2017-12-02T10:49:42Z</time>
      </trkpt>
      <trkpt lat="62.635496549616" lon="17.986907383655">
        <ele>84.2</ele>
        <time>2017-12-02T10:49:43Z</time>
      </trkpt>
      <trkpt lat="62.635480540187" lon="17.986936887943">
        <ele>84.2</ele>
        <time>2017-12-02T10:49:44Z</time>
      </trkpt>
      <trkpt lat="62.635474253762" lon="17.986972511018">
        <ele>84.4</ele>
        <time>2017-12-02T10:49:45Z</time>
      </trkpt>
      <trkpt lat="62.635459753075" lon="17.987001596211">
        <ele>84.4</ele>
        <time>2017-12-02T10:49:46Z</time>
      </trkpt>
      <trkpt lat="62.635444581836" lon="17.98702850211">
        <ele>84.4</ele>
        <time>2017-12-02T10:49:47Z</time>
      </trkpt>
      <trkpt lat="62.635432763357" lon="17.9870628679">
        <ele>84.4</ele>
        <time>2017-12-02T10:49:48Z</time>
      </trkpt>
      <trkpt lat="62.63542077724" lon="17.987088600333">
        <ele>84.6</ele>
        <time>2017-12-02T10:49:49Z</time>
      </trkpt>
      <trkpt lat="62.635414742272" lon="17.987118272259">
        <ele>84.6</ele>
        <time>2017-12-02T10:49:50Z</time>
      </trkpt>
      <trkpt lat="62.635394122798" lon="17.987146435443">
        <ele>84.6</ele>
        <time>2017-12-02T10:49:51Z</time>
      </trkpt>
      <trkpt lat="62.635387165821" lon="17.987180130681">
        <ele>84.8</ele>
        <time>2017-12-02T10:49:52Z</time>
      </trkpt>
      <trkpt lat="62.635363277406" lon="17.987212820091">
        <ele>85</ele>
        <time>2017-12-02T10:49:53Z</time>
      </trkpt>
      <trkpt lat="62.635353386764" lon="17.987236289411">
        <ele>85</ele>
        <time>2017-12-02T10:49:54Z</time>
      </trkpt>
      <trkpt lat="62.635332599652" lon="17.987262189482">
        <ele>85.2</ele>
        <time>2017-12-02T10:49:55Z</time>
      </trkpt>
      <trkpt lat="62.635325726494" lon="17.987294543616">
        <ele>85</ele>
        <time>2017-12-02T10:49:56Z</time>
      </trkpt>
      <trkpt lat="62.635305023201" lon="17.987327233026">
        <ele>85.2</ele>
        <time>2017-12-02T10:49:57Z</time>
      </trkpt>
      <trkpt lat="62.635298317681" lon="17.987362772282">
        <ele>85.2</ele>
        <time>2017-12-02T10:49:58Z</time>
      </trkpt>
      <trkpt lat="62.635280296596" lon="17.987382302109">
        <ele>85.4</ele>
        <time>2017-12-02T10:49:59Z</time>
      </trkpt>
      <trkpt lat="62.635271998515" lon="17.9874149077">
        <ele>85.4</ele>
        <time>2017-12-02T10:50:00Z</time>
      </trkpt>
      <trkpt lat="62.635253725973" lon="17.987445501635">
        <ele>85.6</ele>
        <time>2017-12-02T10:50:01Z</time>
      </trkpt>
      <trkpt lat="62.635238135639" lon="17.987478023407">
        <ele>85.6</ele>
        <time>2017-12-02T10:50:02Z</time>
      </trkpt>
      <trkpt lat="62.635222796762" lon="17.987503504383">
        <ele>85.6</ele>
        <time>2017-12-02T10:50:03Z</time>
      </trkpt>
      <trkpt lat="62.635207709342" lon="17.987534601232">
        <ele>85.8</ele>
        <time>2017-12-02T10:50:04Z</time>
      </trkpt>
      <trkpt lat="62.635195220311" lon="17.987557483819">
        <ele>85.8</ele>
        <time>2017-12-02T10:50:05Z</time>
      </trkpt>
      <trkpt lat="62.635175690484" lon="17.987585479365">
        <ele>85.8</ele>
        <time>2017-12-02T10:50:06Z</time>
      </trkpt>
      <trkpt lat="62.635165213109" lon="17.987610960341">
        <ele>86</ele>
        <time>2017-12-02T10:50:07Z</time>
      </trkpt>
      <trkpt lat="62.63514585092" lon="17.987636357498">
        <ele>85.8</ele>
        <time>2017-12-02T10:50:08Z</time>
      </trkpt>
      <trkpt lat="62.635134535355" lon="17.987662844302">
        <ele>86</ele>
        <time>2017-12-02T10:50:09Z</time>
      </trkpt>
      <trkpt lat="62.635115005528" lon="17.987692180952">
        <ele>86.2</ele>
        <time>2017-12-02T10:50:10Z</time>
      </trkpt>
      <trkpt lat="62.635103438506" lon="17.987722691068">
        <ele>86.4</ele>
        <time>2017-12-02T10:50:11Z</time>
      </trkpt>
      <trkpt lat="62.635084160136" lon="17.987747501492">
        <ele>86.6</ele>
        <time>2017-12-02T10:50:12Z</time>
      </trkpt>
      <trkpt lat="62.635074437132" lon="17.987782956929">
        <ele>86.8</ele>
        <time>2017-12-02T10:50:13Z</time>
      </trkpt>
      <trkpt lat="62.635060271721" lon="17.987812712674">
        <ele>87</ele>
        <time>2017-12-02T10:50:14Z</time>
      </trkpt>
      <trkpt lat="62.635045351939" lon="17.987841714048">
        <ele>86.8</ele>
        <time>2017-12-02T10:50:15Z</time>
      </trkpt>
      <trkpt lat="62.635025319198" lon="17.987871050698">
        <ele>87</ele>
        <time>2017-12-02T10:50:16Z</time>
      </trkpt>
      <trkpt lat="62.635009645045" lon="17.987900890262">
        <ele>87</ele>
        <time>2017-12-02T10:50:17Z</time>
      </trkpt>
      <trkpt lat="62.634993803254" lon="17.987933244396">
        <ele>87.2</ele>
        <time>2017-12-02T10:50:18Z</time>
      </trkpt>
      <trkpt lat="62.634973770513" lon="17.987950008196">
        <ele>87.2</ele>
        <time>2017-12-02T10:50:19Z</time>
      </trkpt>
      <trkpt lat="62.634963209319" lon="17.987975489172">
        <ele>87.2</ele>
        <time>2017-12-02T10:50:20Z</time>
      </trkpt>
      <trkpt lat="62.634943092759" lon="17.987997282112">
        <ele>87.2</ele>
        <time>2017-12-02T10:50:21Z</time>
      </trkpt>
      <trkpt lat="62.63493462704" lon="17.988019745604">
        <ele>87.4</ele>
        <time>2017-12-02T10:50:22Z</time>
      </trkpt>
      <trkpt lat="62.634908224055" lon="17.988047154417">
        <ele>87.4</ele>
        <time>2017-12-02T10:50:23Z</time>
      </trkpt>
      <trkpt lat="62.634887939857" lon="17.988059727267">
        <ele>87.6</ele>
        <time>2017-12-02T10:50:24Z</time>
      </trkpt>
      <trkpt lat="62.634871427514" lon="17.988090405021">
        <ele>87.6</ele>
        <time>2017-12-02T10:50:25Z</time>
      </trkpt>
      <trkpt lat="62.634850305126" lon="17.988101133853">
        <ele>87.8</ele>
        <time>2017-12-02T10:50:26Z</time>
      </trkpt>
      <trkpt lat="62.634832786955" lon="17.988116556549">
        <ele>87.8</ele>
        <time>2017-12-02T10:50:27Z</time>
      </trkpt>
      <trkpt lat="62.63480973673" lon="17.988121669508">
        <ele>87.8</ele>
        <time>2017-12-02T10:50:28Z</time>
      </trkpt>
      <trkpt lat="62.634784674849" lon="17.988127453019">
        <ele>87.8</ele>
        <time>2017-12-02T10:50:29Z</time>
      </trkpt>
      <trkpt lat="62.634764977384" lon="17.988139439136">
        <ele>88</ele>
        <time>2017-12-02T10:50:30Z</time>
      </trkpt>
      <trkpt lat="62.63474268153" lon="17.988151509072">
        <ele>88.2</ele>
        <time>2017-12-02T10:50:31Z</time>
      </trkpt>
      <trkpt lat="62.634727091196" lon="17.988171122718">
        <ele>88.4</ele>
        <time>2017-12-02T10:50:32Z</time>
      </trkpt>
      <trkpt lat="62.634706723179" lon="17.988179672256">
        <ele>88.6</ele>
        <time>2017-12-02T10:50:33Z</time>
      </trkpt>
      <trkpt lat="62.634684175868" lon="17.988176570953">
        <ele>88.6</ele>
        <time>2017-12-02T10:50:34Z</time>
      </trkpt>
      <trkpt lat="62.634660371272" lon="17.988195094952">
        <ele>88.6</ele>
        <time>2017-12-02T10:50:35Z</time>
      </trkpt>
      <trkpt lat="62.63463874597" lon="17.988187215966">
        <ele>88.8</ele>
        <time>2017-12-02T10:50:36Z</time>
      </trkpt>
      <trkpt lat="62.634621563075" lon="17.988201800472">
        <ele>88.8</ele>
        <time>2017-12-02T10:50:37Z</time>
      </trkpt>
      <trkpt lat="62.634601614153" lon="17.988200207911">
        <ele>89</ele>
        <time>2017-12-02T10:50:38Z</time>
      </trkpt>
      <trkpt lat="62.634582922516" lon="17.988206494336">
        <ele>89</ele>
        <time>2017-12-02T10:50:39Z</time>
      </trkpt>
      <trkpt lat="62.634569762933" lon="17.988171290356">
        <ele>89.2</ele>
        <time>2017-12-02T10:50:40Z</time>
      </trkpt>
      <trkpt lat="62.634549311097" lon="17.988169613976">
        <ele>89.2</ele>
        <time>2017-12-02T10:50:41Z</time>
      </trkpt>
      <trkpt lat="62.634530032727" lon="17.988177325324">
        <ele>89.2</ele>
        <time>2017-12-02T10:50:42Z</time>
      </trkpt>
      <trkpt lat="62.634505892855" lon="17.988180929541">
        <ele>89.2</ele>
        <time>2017-12-02T10:50:43Z</time>
      </trkpt>
      <trkpt lat="62.63448284263" lon="17.98819610078">
        <ele>89.4</ele>
        <time>2017-12-02T10:50:44Z</time>
      </trkpt>
      <trkpt lat="62.634455852912" lon="17.988203812128">
        <ele>89.4</ele>
        <time>2017-12-02T10:50:45Z</time>
      </trkpt>
      <trkpt lat="62.634439005293" lon="17.988223425774">
        <ele>89.4</ele>
        <time>2017-12-02T10:50:46Z</time>
      </trkpt>
      <trkpt lat="62.634416877077" lon="17.988220659747">
        <ele>89.4</ele>
        <time>2017-12-02T10:50:47Z</time>
      </trkpt>
      <trkpt lat="62.634399610363" lon="17.988233316416">
        <ele>89.6</ele>
        <time>2017-12-02T10:50:48Z</time>
      </trkpt>
      <trkpt lat="62.634376727776" lon="17.988234154606">
        <ele>89.6</ele>
        <time>2017-12-02T10:50:49Z</time>
      </trkpt>
      <trkpt lat="62.634355689207" lon="17.988254690261">
        <ele>89.8</ele>
        <time>2017-12-02T10:50:50Z</time>
      </trkpt>
      <trkpt lat="62.634328280394" lon="17.988255696089">
        <ele>89.8</ele>
        <time>2017-12-02T10:50:51Z</time>
      </trkpt>
      <trkpt lat="62.634307409463" lon="17.988265083817">
        <ele>89.8</ele>
        <time>2017-12-02T10:50:52Z</time>
      </trkpt>
      <trkpt lat="62.634282850496" lon="17.988254103528">
        <ele>90</ele>
        <time>2017-12-02T10:50:53Z</time>
      </trkpt>
      <trkpt lat="62.634262063384" lon="17.988269693862">
        <ele>90</ele>
        <time>2017-12-02T10:50:54Z</time>
      </trkpt>
      <trkpt lat="62.634236833865" lon="17.988265502912">
        <ele>89.8</ele>
        <time>2017-12-02T10:50:55Z</time>
      </trkpt>
      <trkpt lat="62.634206826663" lon="17.988287966404">
        <ele>89.8</ele>
        <time>2017-12-02T10:50:56Z</time>
      </trkpt>
      <trkpt lat="62.634185704275" lon="17.988274387726">
        <ele>89.8</ele>
        <time>2017-12-02T10:50:57Z</time>
      </trkpt>
      <trkpt lat="62.634162570231" lon="17.988276902296">
        <ele>89.8</ele>
        <time>2017-12-02T10:50:58Z</time>
      </trkpt>
      <trkpt lat="62.634141447843" lon="17.988274220088">
        <ele>90</ele>
        <time>2017-12-02T10:50:59Z</time>
      </trkpt>
      <trkpt lat="62.634114122849" lon="17.988267682206">
        <ele>90</ele>
        <time>2017-12-02T10:51:00Z</time>
      </trkpt>
      <trkpt lat="62.634096269402" lon="17.988263826532">
        <ele>90.2</ele>
        <time>2017-12-02T10:51:01Z</time>
      </trkpt>
      <trkpt lat="62.634073302996" lon="17.988248236198">
        <ele>90.2</ele>
        <time>2017-12-02T10:51:02Z</time>
      </trkpt>
      <trkpt lat="62.634059389042" lon="17.98824806856">
        <ele>90.2</ele>
        <time>2017-12-02T10:51:03Z</time>
      </trkpt>
      <trkpt lat="62.634037596102" lon="17.988240608669">
        <ele>90.2</ele>
        <time>2017-12-02T10:51:04Z</time>
      </trkpt>
      <trkpt lat="62.634015048791" lon="17.988237926461">
        <ele>90.4</ele>
        <time>2017-12-02T10:51:05Z</time>
      </trkpt>
      <trkpt lat="62.633994010222" lon="17.988222000851">
        <ele>90.4</ele>
        <time>2017-12-02T10:51:06Z</time>
      </trkpt>
      <trkpt lat="62.633974145119" lon="17.988224263964">
        <ele>90.4</ele>
        <time>2017-12-02T10:51:07Z</time>
      </trkpt>
      <trkpt lat="62.633954112378" lon="17.988202219567">
        <ele>90.4</ele>
        <time>2017-12-02T10:51:08Z</time>
      </trkpt>
      <trkpt lat="62.633933911999" lon="17.988188892346">
        <ele>90.6</ele>
        <time>2017-12-02T10:51:09Z</time>
      </trkpt>
      <trkpt lat="62.633911699964" lon="17.988175397487">
        <ele>90.6</ele>
        <time>2017-12-02T10:51:10Z</time>
      </trkpt>
      <trkpt lat="62.633888063006" lon="17.988162992275">
        <ele>90.6</ele>
        <time>2017-12-02T10:51:11Z</time>
      </trkpt>
      <trkpt lat="62.633870628654" lon="17.98815502947">
        <ele>90.6</ele>
        <time>2017-12-02T10:51:12Z</time>
      </trkpt>
      <trkpt lat="62.63385252375" lon="17.988127033924">
        <ele>90.6</ele>
        <time>2017-12-02T10:51:13Z</time>
      </trkpt>
      <trkpt lat="62.633829389706" lon="17.988119322576">
        <ele>90.8</ele>
        <time>2017-12-02T10:51:14Z</time>
      </trkpt>
      <trkpt lat="62.633804495463" lon="17.988096439989">
        <ele>91</ele>
        <time>2017-12-02T10:51:15Z</time>
      </trkpt>
      <trkpt lat="62.633781948152" lon="17.988082693673">
        <ele>91.2</ele>
        <time>2017-12-02T10:51:16Z</time>
      </trkpt>
      <trkpt lat="62.633760909583" lon="17.988066768063">
        <ele>91.2</ele>
        <time>2017-12-02T10:51:17Z</time>
      </trkpt>
      <trkpt lat="62.633740038652" lon="17.988048746978">
        <ele>91.2</ele>
        <time>2017-12-02T10:51:18Z</time>
      </trkpt>
      <trkpt lat="62.633720425006" lon="17.988043885476">
        <ele>91.2</ele>
        <time>2017-12-02T10:51:19Z</time>
      </trkpt>
      <trkpt lat="62.633698799704" lon="17.988023852735">
        <ele>91.4</ele>
        <time>2017-12-02T10:51:20Z</time>
      </trkpt>
      <trkpt lat="62.633673654004" lon="17.988004239089">
        <ele>91.4</ele>
        <time>2017-12-02T10:51:21Z</time>
      </trkpt>
      <trkpt lat="62.633653285987" lon="17.987974902439">
        <ele>91.4</ele>
        <time>2017-12-02T10:51:22Z</time>
      </trkpt>
      <trkpt lat="62.633635516359" lon="17.98795302568">
        <ele>91.4</ele>
        <time>2017-12-02T10:51:23Z</time>
      </trkpt>
      <trkpt lat="62.633618417283" lon="17.987943051219">
        <ele>91.6</ele>
        <time>2017-12-02T10:51:24Z</time>
      </trkpt>
      <trkpt lat="62.633598887456" lon="17.987924443401">
        <ele>91.6</ele>
        <time>2017-12-02T10:51:25Z</time>
      </trkpt>
      <trkpt lat="62.633584219131" lon="17.987903656289">
        <ele>91.6</ele>
        <time>2017-12-02T10:51:26Z</time>
      </trkpt>
      <trkpt lat="62.633564521666" lon="17.987890664344">
        <ele>91.8</ele>
        <time>2017-12-02T10:51:27Z</time>
      </trkpt>
      <trkpt lat="62.633550523893" lon="17.987869039042">
        <ele>91.8</ele>
        <time>2017-12-02T10:51:28Z</time>
      </trkpt>
      <trkpt lat="62.633534346826" lon="17.987838528926">
        <ele>92</ele>
        <time>2017-12-02T10:51:29Z</time>
      </trkpt>
      <trkpt lat="62.633513140619" lon="17.987822938592">
        <ele>91.8</ele>
        <time>2017-12-02T10:51:30Z</time>
      </trkpt>
      <trkpt lat="62.633493107878" lon="17.987799553091">
        <ele>92.2</ele>
        <time>2017-12-02T10:51:31Z</time>
      </trkpt>
      <trkpt lat="62.633467962178" lon="17.987777257237">
        <ele>92.2</ele>
        <time>2017-12-02T10:51:32Z</time>
      </trkpt>
      <trkpt lat="62.633450360188" lon="17.98774934551">
        <ele>92.4</ele>
        <time>2017-12-02T10:51:33Z</time>
      </trkpt>
      <trkpt lat="62.633426471773" lon="17.987726798199">
        <ele>92.4</ele>
        <time>2017-12-02T10:51:34Z</time>
      </trkpt>
      <trkpt lat="62.633408953602" lon="17.987711543141">
        <ele>92.6</ele>
        <time>2017-12-02T10:51:35Z</time>
      </trkpt>
      <trkpt lat="62.633395207286" lon="17.987682457948">
        <ele>92.6</ele>
        <time>2017-12-02T10:51:36Z</time>
      </trkpt>
      <trkpt lat="62.633379365495" lon="17.987667286709">
        <ele>92.8</ele>
        <time>2017-12-02T10:51:37Z</time>
      </trkpt>
      <trkpt lat="62.633360841496" lon="17.987634345842">
        <ele>92.8</ele>
        <time>2017-12-02T10:51:38Z</time>
      </trkpt>
      <trkpt lat="62.63334960975" lon="17.987608445771">
        <ele>93</ele>
        <time>2017-12-02T10:51:39Z</time>
      </trkpt>
      <trkpt lat="62.633334187054" lon="17.987581958967">
        <ele>93</ele>
        <time>2017-12-02T10:51:40Z</time>
      </trkpt>
      <trkpt lat="62.633321446566" lon="17.987546671168">
        <ele>93.4</ele>
        <time>2017-12-02T10:51:41Z</time>
      </trkpt>
      <trkpt lat="62.633308286983" lon="17.987502750012">
        <ele>93.4</ele>
        <time>2017-12-02T10:51:42Z</time>
      </trkpt>
      <trkpt lat="62.633294792124" lon="17.987464277091">
        <ele>93.6</ele>
        <time>2017-12-02T10:51:43Z</time>
      </trkpt>
      <trkpt lat="62.633269394967" lon="17.987409208008">
        <ele>93.8</ele>
        <time>2017-12-02T10:51:44Z</time>
      </trkpt>
      <trkpt lat="62.633238717213" lon="17.987365538309">
        <ele>93.8</ele>
        <time>2017-12-02T10:51:45Z</time>
      </trkpt>
      <trkpt lat="62.633220109395" lon="17.987279204739">
        <ele>93.8</ele>
        <time>2017-12-02T10:51:46Z</time>
      </trkpt>
      <trkpt lat="62.633197981179" lon="17.987178621939">
        <ele>93.4</ele>
        <time>2017-12-02T10:51:47Z</time>
      </trkpt>
      <trkpt lat="62.633177864619" lon="17.987078542053">
        <ele>92.6</ele>
        <time>2017-12-02T10:51:48Z</time>
      </trkpt>
      <trkpt lat="62.633163028656" lon="17.986998830184">
        <ele>92</ele>
        <time>2017-12-02T10:51:49Z</time>
      </trkpt>
      <trkpt lat="62.633152802738" lon="17.98690444999">
        <ele>91.6</ele>
        <time>2017-12-02T10:51:50Z</time>
      </trkpt>
      <trkpt lat="62.633144420838" lon="17.986810740348">
        <ele>91</ele>
        <time>2017-12-02T10:51:51Z</time>
      </trkpt>
      <trkpt lat="62.633132937635" lon="17.986723233312">
        <ele>90.6</ele>
        <time>2017-12-02T10:51:52Z</time>
      </trkpt>
      <trkpt lat="62.633126148296" lon="17.986639414312">
        <ele>90.2</ele>
        <time>2017-12-02T10:51:53Z</time>
      </trkpt>
      <trkpt lat="62.633111815247" lon="17.986557858425">
        <ele>90.2</ele>
        <time>2017-12-02T10:51:54Z</time>
      </trkpt>
      <trkpt lat="62.633103600985" lon="17.986469177923">
        <ele>90.4</ele>
        <time>2017-12-02T10:51:55Z</time>
      </trkpt>
      <trkpt lat="62.633097901293" lon="17.986387538217">
        <ele>90.4</ele>
        <time>2017-12-02T10:51:56Z</time>
      </trkpt>
      <trkpt lat="62.633098823302" lon="17.986277735327">
        <ele>90.6</ele>
        <time>2017-12-02T10:51:57Z</time>
      </trkpt>
      <trkpt lat="62.633099326216" lon="17.986169441179">
        <ele>90.2</ele>
        <time>2017-12-02T10:51:58Z</time>
      </trkpt>
      <trkpt lat="62.633103098071" lon="17.986056788443">
        <ele>89.6</ele>
        <time>2017-12-02T10:51:59Z</time>
      </trkpt>
      <trkpt lat="62.633120448604" lon="17.985932233409">
        <ele>88.8</ele>
        <time>2017-12-02T10:52:00Z</time>
      </trkpt>
      <trkpt lat="62.633128243771" lon="17.985815138266">
        <ele>88.4</ele>
        <time>2017-12-02T10:52:01Z</time>
      </trkpt>
      <trkpt lat="62.633117347301" lon="17.98572344028">
        <ele>88.2</ele>
        <time>2017-12-02T10:52:02Z</time>
      </trkpt>
      <trkpt lat="62.633119191319" lon="17.985618331254">
        <ele>88.2</ele>
        <time>2017-12-02T10:52:03Z</time>
      </trkpt>
      <trkpt lat="62.633109300677" lon="17.985548929122">
        <ele>88.2</ele>
        <time>2017-12-02T10:52:04Z</time>
      </trkpt>
      <trkpt lat="62.633116341473" lon="17.985417836206">
        <ele>88.6</ele>
        <time>2017-12-02T10:52:05Z</time>
      </trkpt>
      <trkpt lat="62.633130171608" lon="17.985298142674">
        <ele>88.2</ele>
        <time>2017-12-02T10:52:06Z</time>
      </trkpt>
      <trkpt lat="62.63315095872" lon="17.98517107307">
        <ele>87.6</ele>
        <time>2017-12-02T10:52:07Z</time>
      </trkpt>
      <trkpt lat="62.633168728348" lon="17.985045847484">
        <ele>86.8</ele>
        <time>2017-12-02T10:52:08Z</time>
      </trkpt>
      <trkpt lat="62.633186414157" lon="17.984942666295">
        <ele>86.4</ele>
        <time>2017-12-02T10:52:09Z</time>
      </trkpt>
      <trkpt lat="62.633210973124" lon="17.984820625831">
        <ele>85.6</ele>
        <time>2017-12-02T10:52:10Z</time>
      </trkpt>
      <trkpt lat="62.633239555403" lon="17.984727502922">
        <ele>84.8</ele>
        <time>2017-12-02T10:52:11Z</time>
      </trkpt>
      <trkpt lat="62.633261264524" lon="17.984636224031">
        <ele>84.4</ele>
        <time>2017-12-02T10:52:12Z</time>
      </trkpt>
      <trkpt lat="62.633279453247" lon="17.984547794986">
        <ele>84.4</ele>
        <time>2017-12-02T10:52:13Z</time>
      </trkpt>
      <trkpt lat="62.633292026097" lon="17.984460120312">
        <ele>84.4</ele>
        <time>2017-12-02T10:52:14Z</time>
      </trkpt>
      <trkpt lat="62.633290852631" lon="17.984356184752">
        <ele>84.6</ele>
        <time>2017-12-02T10:52:15Z</time>
      </trkpt>
      <trkpt lat="62.633303257843" lon="17.984266246965">
        <ele>84.8</ele>
        <time>2017-12-02T10:52:16Z</time>
      </trkpt>
      <trkpt lat="62.63330937663" lon="17.984198437394">
        <ele>85</ele>
        <time>2017-12-02T10:52:17Z</time>
      </trkpt>
      <trkpt lat="62.633305520956" lon="17.984100788259">
        <ele>85.2</ele>
        <time>2017-12-02T10:52:18Z</time>
      </trkpt>
      <trkpt lat="62.633314321951" lon="17.984027698091">
        <ele>85.6</ele>
        <time>2017-12-02T10:52:19Z</time>
      </trkpt>
      <trkpt lat="62.633320021643" lon="17.983964330927">
        <ele>85.8</ele>
        <time>2017-12-02T10:52:20Z</time>
      </trkpt>
      <trkpt lat="62.633323793498" lon="17.983888893827">
        <ele>85.6</ele>
        <time>2017-12-02T10:52:21Z</time>
      </trkpt>
      <trkpt lat="62.633332762131" lon="17.98382829269">
        <ele>85.8</ele>
        <time>2017-12-02T10:52:22Z</time>
      </trkpt>
      <trkpt lat="62.63333871328" lon="17.983747323536">
        <ele>85.8</ele>
        <time>2017-12-02T10:52:23Z</time>
      </trkpt>
      <trkpt lat="62.633353716881" lon="17.983657721025">
        <ele>85.8</ele>
        <time>2017-12-02T10:52:24Z</time>
      </trkpt>
      <trkpt lat="62.633370061586" lon="17.983599047725">
        <ele>85.6</ele>
        <time>2017-12-02T10:52:25Z</time>
      </trkpt>
      <trkpt lat="62.633385819558" lon="17.983533920362">
        <ele>85.6</ele>
        <time>2017-12-02T10:52:26Z</time>
      </trkpt>
      <trkpt lat="62.633403589186" lon="17.98347457651">
        <ele>85.6</ele>
        <time>2017-12-02T10:52:27Z</time>
      </trkpt>
      <trkpt lat="62.633414318018" lon="17.983417160495">
        <ele>85.6</ele>
        <time>2017-12-02T10:52:28Z</time>
      </trkpt>
      <trkpt lat="62.633429070162" lon="17.983355469711">
        <ele>85.6</ele>
        <time>2017-12-02T10:52:29Z</time>
      </trkpt>
      <trkpt lat="62.63343929608" lon="17.983279026783">
        <ele>85.6</ele>
        <time>2017-12-02T10:52:30Z</time>
      </trkpt>
      <trkpt lat="62.633454467319" lon="17.983210295203">
        <ele>85.8</ele>
        <time>2017-12-02T10:52:31Z</time>
      </trkpt>
      <trkpt lat="62.633468800368" lon="17.983148352962">
        <ele>85.8</ele>
        <time>2017-12-02T10:52:32Z</time>
      </trkpt>
      <trkpt lat="62.633480115933" lon="17.983079537563">
        <ele>85.8</ele>
        <time>2017-12-02T10:52:33Z</time>
      </trkpt>
      <trkpt lat="62.633498220837" lon="17.983017595322">
        <ele>86</ele>
        <time>2017-12-02T10:52:34Z</time>
      </trkpt>
      <trkpt lat="62.633507105651" lon="17.982948863742">
        <ele>86</ele>
        <time>2017-12-02T10:52:35Z</time>
      </trkpt>
      <trkpt lat="62.633526300202" lon="17.982879042515">
        <ele>85.8</ele>
        <time>2017-12-02T10:52:36Z</time>
      </trkpt>
      <trkpt lat="62.633537951043" lon="17.982819447206">
        <ele>85.8</ele>
        <time>2017-12-02T10:52:37Z</time>
      </trkpt>
      <trkpt lat="62.633552284092" lon="17.982752392006">
        <ele>85.8</ele>
        <time>2017-12-02T10:52:38Z</time>
      </trkpt>
      <trkpt lat="62.633572149195" lon="17.982689276299">
        <ele>86</ele>
        <time>2017-12-02T10:52:39Z</time>
      </trkpt>
      <trkpt lat="62.633580447276" lon="17.982614928846">
        <ele>86</ele>
        <time>2017-12-02T10:52:40Z</time>
      </trkpt>
      <trkpt lat="62.633595534696" lon="17.982555836451">
        <ele>86</ele>
        <time>2017-12-02T10:52:41Z</time>
      </trkpt>
      <trkpt lat="62.633605425338" lon="17.98249892335">
        <ele>86</ele>
        <time>2017-12-02T10:52:42Z</time>
      </trkpt>
      <trkpt lat="62.633618165826" lon="17.982430527046">
        <ele>86</ele>
        <time>2017-12-02T10:52:43Z</time>
      </trkpt>
      <trkpt lat="62.633630487219" lon="17.982389036641">
        <ele>86</ele>
        <time>2017-12-02T10:52:44Z</time>
      </trkpt>
      <trkpt lat="62.633634426712" lon="17.982318125767">
        <ele>85.8</ele>
        <time>2017-12-02T10:52:45Z</time>
      </trkpt>
      <trkpt lat="62.633648340666" lon="17.982245454694">
        <ele>86</ele>
        <time>2017-12-02T10:52:46Z</time>
      </trkpt>
      <trkpt lat="62.633653537444" lon="17.982173621811">
        <ele>85.8</ele>
        <time>2017-12-02T10:52:47Z</time>
      </trkpt>
      <trkpt lat="62.633666194113" lon="17.982099190539">
        <ele>86</ele>
        <time>2017-12-02T10:52:48Z</time>
      </trkpt>
      <trkpt lat="62.633667367579" lon="17.982058119229">
        <ele>85.8</ele>
        <time>2017-12-02T10:52:49Z</time>
      </trkpt>
      <trkpt lat="62.633667786674" lon="17.981983939414">
        <ele>85.6</ele>
        <time>2017-12-02T10:52:50Z</time>
      </trkpt>
      <trkpt lat="62.633669882149" lon="17.981922164811">
        <ele>85.6</ele>
        <time>2017-12-02T10:52:51Z</time>
      </trkpt>
      <trkpt lat="62.63366309281" lon="17.981875645266">
        <ele>85.8</ele>
        <time>2017-12-02T10:52:52Z</time>
      </trkpt>
      <trkpt lat="62.633670217425" lon="17.98181076936">
        <ele>86</ele>
        <time>2017-12-02T10:52:53Z</time>
      </trkpt>
      <trkpt lat="62.633665272104" lon="17.981782773814">
        <ele>86.2</ele>
        <time>2017-12-02T10:52:54Z</time>
      </trkpt>
      <trkpt lat="62.633669546873" lon="17.981705827972">
        <ele>86.2</ele>
        <time>2017-12-02T10:52:55Z</time>
      </trkpt>
      <trkpt lat="62.633678096411" lon="17.981628798311">
        <ele>86.4</ele>
        <time>2017-12-02T10:52:56Z</time>
      </trkpt>
      <trkpt lat="62.633687903234" lon="17.981575070332">
        <ele>86.4</ele>
        <time>2017-12-02T10:52:57Z</time>
      </trkpt>
      <trkpt lat="62.63369159127" lon="17.98152075562">
        <ele>86.4</ele>
        <time>2017-12-02T10:52:58Z</time>
      </trkpt>
      <trkpt lat="62.633690920718" lon="17.981439618828">
        <ele>86.6</ele>
        <time>2017-12-02T10:52:59Z</time>
      </trkpt>
      <trkpt lat="62.633709528536" lon="17.981368121221">
        <ele>86.4</ele>
        <time>2017-12-02T10:53:00Z</time>
      </trkpt>
      <trkpt lat="62.633716066418" lon="17.98131539907">
        <ele>86.6</ele>
        <time>2017-12-02T10:53:01Z</time>
      </trkpt>
      <trkpt lat="62.633729226001" lon="17.981258737426">
        <ele>86.4</ele>
        <time>2017-12-02T10:53:02Z</time>
      </trkpt>
      <trkpt lat="62.633746492715" lon="17.981207021103">
        <ele>86.4</ele>
        <time>2017-12-02T10:53:03Z</time>
      </trkpt>
      <trkpt lat="62.633763759429" lon="17.981179360833">
        <ele>86.6</ele>
        <time>2017-12-02T10:53:04Z</time>
      </trkpt>
      <trkpt lat="62.633780355591" lon="17.981148766898">
        <ele>86.6</ele>
        <time>2017-12-02T10:53:05Z</time>
      </trkpt>
      <trkpt lat="62.633799298685" lon="17.981093697815">
        <ele>87</ele>
        <time>2017-12-02T10:53:06Z</time>
      </trkpt>
      <trkpt lat="62.633820588711" lon="17.981047765003">
        <ele>86.8</ele>
        <time>2017-12-02T10:53:07Z</time>
      </trkpt>
      <trkpt lat="62.633837687787" lon="17.980989594617">
        <ele>86.8</ele>
        <time>2017-12-02T10:53:08Z</time>
      </trkpt>
      <trkpt lat="62.633847829886" lon="17.980928658204">
        <ele>86.8</ele>
        <time>2017-12-02T10:53:09Z</time>
      </trkpt>
      <trkpt lat="62.633866102428" lon="17.980890352921">
        <ele>86.8</ele>
        <time>2017-12-02T10:53:10Z</time>
      </trkpt>
      <trkpt lat="62.633879764925" lon="17.980854562208">
        <ele>86.8</ele>
        <time>2017-12-02T10:53:11Z</time>
      </trkpt>
      <trkpt lat="62.633892673051" lon="17.980789937759">
        <ele>86.8</ele>
        <time>2017-12-02T10:53:12Z</time>
      </trkpt>
      <trkpt lat="62.633902647512" lon="17.980732270287">
        <ele>86.8</ele>
        <time>2017-12-02T10:53:13Z</time>
      </trkpt>
      <trkpt lat="62.633917399656" lon="17.980685583104">
        <ele>86.8</ele>
        <time>2017-12-02T10:53:14Z</time>
      </trkpt>
      <trkpt lat="62.633935839836" lon="17.980629005279">
        <ele>87</ele>
        <time>2017-12-02T10:53:15Z</time>
      </trkpt>
      <trkpt lat="62.633950675799" lon="17.980583994476">
        <ele>87</ele>
        <time>2017-12-02T10:53:16Z</time>
      </trkpt>
      <trkpt lat="62.633970792359" lon="17.980538899854">
        <ele>87</ele>
        <time>2017-12-02T10:53:17Z</time>
      </trkpt>
      <trkpt lat="62.633986047417" lon="17.980482070572">
        <ele>87.2</ele>
        <time>2017-12-02T10:53:18Z</time>
      </trkpt>
      <trkpt lat="62.63399501605" lon="17.980423397272">
        <ele>87</ele>
        <time>2017-12-02T10:53:19Z</time>
      </trkpt>
      <trkpt lat="62.634018150094" lon="17.980379392297">
        <ele>87.2</ele>
        <time>2017-12-02T10:53:20Z</time>
      </trkpt>
      <trkpt lat="62.634037428464" lon="17.980319042617">
        <ele>87.2</ele>
        <time>2017-12-02T10:53:21Z</time>
      </trkpt>
      <trkpt lat="62.634056790653" lon="17.980250981589">
        <ele>87.2</ele>
        <time>2017-12-02T10:53:22Z</time>
      </trkpt>
      <trkpt lat="62.634078667412" lon="17.980206641338">
        <ele>87.2</ele>
        <time>2017-12-02T10:53:23Z</time>
      </trkpt>
      <trkpt lat="62.634107249691" lon="17.980150147332">
        <ele>87.4</ele>
        <time>2017-12-02T10:53:24Z</time>
      </trkpt>
      <trkpt lat="62.634137256893" lon="17.980106058538">
        <ele>87.4</ele>
        <time>2017-12-02T10:53:25Z</time>
      </trkpt>
      <trkpt lat="62.634150667933" lon="17.980051660007">
        <ele>87.6</ele>
        <time>2017-12-02T10:53:26Z</time>
      </trkpt>
      <trkpt lat="62.634177070918" lon="17.980006649204">
        <ele>87.6</ele>
        <time>2017-12-02T10:53:27Z</time>
      </trkpt>
      <trkpt lat="62.634198193306" lon="17.97995669308">
        <ele>87.6</ele>
        <time>2017-12-02T10:53:28Z</time>
      </trkpt>
      <trkpt lat="62.634221914083" lon="17.979903719472">
        <ele>87.6</ele>
        <time>2017-12-02T10:53:29Z</time>
      </trkpt>
      <trkpt lat="62.634239180797" lon="17.979854852995">
        <ele>87.6</ele>
        <time>2017-12-02T10:53:30Z</time>
      </trkpt>
      <trkpt lat="62.634247395059" lon="17.979783606845">
        <ele>87.4</ele>
        <time>2017-12-02T10:53:31Z</time>
      </trkpt>
      <trkpt lat="62.634264997049" lon="17.979731555246">
        <ele>87.4</ele>
        <time>2017-12-02T10:53:32Z</time>
      </trkpt>
      <trkpt lat="62.634278408089" lon="17.979667182254">
        <ele>87.4</ele>
        <time>2017-12-02T10:53:33Z</time>
      </trkpt>
      <trkpt lat="62.634294082242" lon="17.979583782349">
        <ele>87.4</ele>
        <time>2017-12-02T10:53:34Z</time>
      </trkpt>
      <trkpt lat="62.634308163834" lon="17.979505998317">
        <ele>87.4</ele>
        <time>2017-12-02T10:53:35Z</time>
      </trkpt>
      <trkpt lat="62.634326520195" lon="17.979396279246">
        <ele>87.4</ele>
        <time>2017-12-02T10:53:36Z</time>
      </trkpt>
      <trkpt lat="62.634339679778" lon="17.979332744444">
        <ele>87.4</ele>
        <time>2017-12-02T10:53:37Z</time>
      </trkpt>
      <trkpt lat="62.634337416665" lon="17.979287566003">
        <ele>87.4</ele>
        <time>2017-12-02T10:53:38Z</time>
      </trkpt>
      <trkpt lat="62.634348983687" lon="17.979258983724">
        <ele>87.4</ele>
        <time>2017-12-02T10:53:39Z</time>
      </trkpt>
      <trkpt lat="62.634365076935" lon="17.979203076451">
        <ele>87.4</ele>
        <time>2017-12-02T10:53:40Z</time>
      </trkpt>
      <trkpt lat="62.634380918726" lon="17.979149013196">
        <ele>87.4</ele>
        <time>2017-12-02T10:53:41Z</time>
      </trkpt>
      <trkpt lat="62.634399107449" lon="17.979109953542">
        <ele>87.4</ele>
        <time>2017-12-02T10:53:42Z</time>
      </trkpt>
      <trkpt lat="62.634411847937" lon="17.979057985762">
        <ele>87.4</ele>
        <time>2017-12-02T10:53:43Z</time>
      </trkpt>
      <trkpt lat="62.634420062199" lon="17.979006101801">
        <ele>87.2</ele>
        <time>2017-12-02T10:53:44Z</time>
      </trkpt>
      <trkpt lat="62.634434479067" lon="17.978954553116">
        <ele>87.2</ele>
        <time>2017-12-02T10:53:45Z</time>
      </trkpt>
      <trkpt lat="62.634451997238" lon="17.978905435182">
        <ele>87.4</ele>
        <time>2017-12-02T10:53:46Z</time>
      </trkpt>
      <trkpt lat="62.634464486269" lon="17.978866291709">
        <ele>87.2</ele>
        <time>2017-12-02T10:53:47Z</time>
      </trkpt>
      <trkpt lat="62.634478148766" lon="17.978822454372">
        <ele>87.4</ele>
        <time>2017-12-02T10:53:48Z</time>
      </trkpt>
      <trkpt lat="62.634494158195" lon="17.978797308672">
        <ele>87.2</ele>
        <time>2017-12-02T10:53:49Z</time>
      </trkpt>
      <trkpt lat="62.634514107117" lon="17.978782891804">
        <ele>87.2</ele>
        <time>2017-12-02T10:53:50Z</time>
      </trkpt>
      <trkpt lat="62.63452810489" lon="17.978781299243">
        <ele>87.2</ele>
        <time>2017-12-02T10:53:51Z</time>
      </trkpt>
      <trkpt lat="62.63453900136" lon="17.978786076926">
        <ele>87.2</ele>
        <time>2017-12-02T10:53:52Z</time>
      </trkpt>
      <trkpt lat="62.634534223677" lon="17.978774761361">
        <ele>87.2</ele>
        <time>2017-12-02T10:53:53Z</time>
      </trkpt>
      <trkpt lat="62.634536151514" lon="17.978781299243">
        <ele>87.4</ele>
        <time>2017-12-02T10:53:54Z</time>
      </trkpt>
      <trkpt lat="62.634753075086" lon="17.978821113268">
        <ele>87.4</ele>
        <time>2017-12-02T10:54:19Z</time>
      </trkpt>
      <trkpt lat="62.634776879682" lon="17.978836368326">
        <ele>87.2</ele>
        <time>2017-12-02T10:54:20Z</time>
      </trkpt>
      <trkpt lat="62.634796577147" lon="17.978843995855">
        <ele>87.2</ele>
        <time>2017-12-02T10:54:21Z</time>
      </trkpt>
      <trkpt lat="62.63483488243" lon="17.978859921465">
        <ele>87.2</ele>
        <time>2017-12-02T10:54:22Z</time>
      </trkpt>
      <trkpt lat="62.634856926827" lon="17.978867297537">
        <ele>87</ele>
        <time>2017-12-02T10:54:23Z</time>
      </trkpt>
      <trkpt lat="62.634884670916" lon="17.978879367473">
        <ele>86.8</ele>
        <time>2017-12-02T10:54:24Z</time>
      </trkpt>
      <trkpt lat="62.634910654806" lon="17.978883726061">
        <ele>86.8</ele>
        <time>2017-12-02T10:54:25Z</time>
      </trkpt>
      <trkpt lat="62.634934710859" lon="17.978888419925">
        <ele>86.8</ele>
        <time>2017-12-02T10:54:26Z</time>
      </trkpt>
      <trkpt lat="62.63495306722" lon="17.978902585336">
        <ele>86.6</ele>
        <time>2017-12-02T10:54:27Z</time>
      </trkpt>
      <trkpt lat="62.634973938151" lon="17.978910212865">
        <ele>86.4</ele>
        <time>2017-12-02T10:54:28Z</time>
      </trkpt>
      <trkpt lat="62.634995479634" lon="17.978920774059">
        <ele>86.2</ele>
        <time>2017-12-02T10:54:29Z</time>
      </trkpt>
      <trkpt lat="62.635013584538" lon="17.978926809027">
        <ele>86</ele>
        <time>2017-12-02T10:54:30Z</time>
      </trkpt>
      <trkpt lat="62.635031940899" lon="17.97893493947">
        <ele>85.8</ele>
        <time>2017-12-02T10:54:31Z</time>
      </trkpt>
      <trkpt lat="62.635052560373" lon="17.978946087397">
        <ele>85.8</ele>
        <time>2017-12-02T10:54:32Z</time>
      </trkpt>
      <trkpt lat="62.635068150707" lon="17.97895086508">
        <ele>85.8</ele>
        <time>2017-12-02T10:54:33Z</time>
      </trkpt>
      <trkpt lat="62.635094469873" lon="17.978960839541">
        <ele>85.8</ele>
        <time>2017-12-02T10:54:34Z</time>
      </trkpt>
      <trkpt lat="62.635114670252" lon="17.978965617224">
        <ele>85.8</ele>
        <time>2017-12-02T10:54:35Z</time>
      </trkpt>
      <trkpt lat="62.635140067409" lon="17.978978860626">
        <ele>85.8</ele>
        <time>2017-12-02T10:54:36Z</time>
      </trkpt>
      <trkpt lat="62.635163872005" lon="17.978986236698">
        <ele>85.8</ele>
        <time>2017-12-02T10:54:37Z</time>
      </trkpt>
      <trkpt lat="62.635186586954" lon="17.978992523123">
        <ele>85.4</ele>
        <time>2017-12-02T10:54:38Z</time>
      </trkpt>
      <trkpt lat="62.635207290247" lon="17.978996378797">
        <ele>85.2</ele>
        <time>2017-12-02T10:54:39Z</time>
      </trkpt>
      <trkpt lat="62.635232519766" lon="17.979000150652">
        <ele>85</ele>
        <time>2017-12-02T10:54:40Z</time>
      </trkpt>
      <trkpt lat="62.635252720145" lon="17.979003419593">
        <ele>84.8</ele>
        <time>2017-12-02T10:54:41Z</time>
      </trkpt>
      <trkpt lat="62.635271914696" lon="17.979004257783">
        <ele>84.6</ele>
        <time>2017-12-02T10:54:42Z</time>
      </trkpt>
      <trkpt lat="62.635299742604" lon="17.979002078489">
        <ele>84.6</ele>
        <time>2017-12-02T10:54:43Z</time>
      </trkpt>
      <trkpt lat="62.635317847508" lon="17.978996714073">
        <ele>84.4</ele>
        <time>2017-12-02T10:54:44Z</time>
      </trkpt>
      <trkpt lat="62.635347687072" lon="17.979000737385">
        <ele>84.4</ele>
        <time>2017-12-02T10:54:45Z</time>
      </trkpt>
      <trkpt lat="62.635374006238" lon="17.979004928335">
        <ele>84.4</ele>
        <time>2017-12-02T10:54:46Z</time>
      </trkpt>
      <trkpt lat="62.635402085603" lon="17.979003419593">
        <ele>84.6</ele>
        <time>2017-12-02T10:54:47Z</time>
      </trkpt>
      <trkpt lat="62.635430416425" lon="17.979001575575">
        <ele>84.6</ele>
        <time>2017-12-02T10:54:48Z</time>
      </trkpt>
      <trkpt lat="62.635456232677" lon="17.978995037693">
        <ele>84.8</ele>
        <time>2017-12-02T10:54:49Z</time>
      </trkpt>
      <trkpt lat="62.63548447968" lon="17.978989002725">
        <ele>85</ele>
        <time>2017-12-02T10:54:50Z</time>
      </trkpt>
      <trkpt lat="62.635512642864" lon="17.978977100427">
        <ele>85</ele>
        <time>2017-12-02T10:54:51Z</time>
      </trkpt>
      <trkpt lat="62.635544074989" lon="17.978977938617">
        <ele>84.8</ele>
        <time>2017-12-02T10:54:52Z</time>
      </trkpt>
      <trkpt lat="62.635575590933" lon="17.978974250581">
        <ele>84.6</ele>
        <time>2017-12-02T10:54:53Z</time>
      </trkpt>
      <trkpt lat="62.635603251203" lon="17.978973747667">
        <ele>84</ele>
        <time>2017-12-02T10:54:54Z</time>
      </trkpt>
      <trkpt lat="62.63563116293" lon="17.978977268065">
        <ele>83.6</ele>
        <time>2017-12-02T10:54:55Z</time>
      </trkpt>
      <trkpt lat="62.635661002494" lon="17.978976597513">
        <ele>83</ele>
        <time>2017-12-02T10:54:56Z</time>
      </trkpt>
      <trkpt lat="62.635687070203" lon="17.978974837314">
        <ele>82.8</ele>
        <time>2017-12-02T10:54:57Z</time>
      </trkpt>
      <trkpt lat="62.63571330555" lon="17.978975926961">
        <ele>82.4</ele>
        <time>2017-12-02T10:54:58Z</time>
      </trkpt>
      <trkpt lat="62.63573509849" lon="17.978976513694">
        <ele>82.2</ele>
        <time>2017-12-02T10:54:59Z</time>
      </trkpt>
      <trkpt lat="62.635758986905" lon="17.978977184246">
        <ele>82.2</ele>
        <time>2017-12-02T10:55:00Z</time>
      </trkpt>
      <trkpt lat="62.635780193112" lon="17.978977770979">
        <ele>82.2</ele>
        <time>2017-12-02T10:55:01Z</time>
      </trkpt>
      <trkpt lat="62.635797208369" lon="17.978976765151">
        <ele>82</ele>
        <time>2017-12-02T10:55:02Z</time>
      </trkpt>
      <trkpt lat="62.635825790648" lon="17.978991182019">
        <ele>82.2</ele>
        <time>2017-12-02T10:55:03Z</time>
      </trkpt>
      <trkpt lat="62.635846745398" lon="17.9789910982">
        <ele>82.2</ele>
        <time>2017-12-02T10:55:04Z</time>
      </trkpt>
      <trkpt lat="62.635863509198" lon="17.97899445096">
        <ele>82.4</ele>
        <time>2017-12-02T10:55:05Z</time>
      </trkpt>
      <trkpt lat="62.635879015713" lon="17.978997636082">
        <ele>82.4</ele>
        <time>2017-12-02T10:55:06Z</time>
      </trkpt>
      <trkpt lat="62.635897120617" lon="17.979004425421">
        <ele>82.6</ele>
        <time>2017-12-02T10:55:07Z</time>
      </trkpt>
      <trkpt lat="62.635911705123" lon="17.979013394054">
        <ele>82.6</ele>
        <time>2017-12-02T10:55:08Z</time>
      </trkpt>
      <trkpt lat="62.635923439783" lon="17.979019093746">
        <ele>82.8</ele>
        <time>2017-12-02T10:55:09Z</time>
      </trkpt>
      <trkpt lat="62.63593458771" lon="17.979024039067">
        <ele>82.8</ele>
        <time>2017-12-02T10:55:10Z</time>
      </trkpt>
      <trkpt lat="62.635951183872" lon="17.979034097347">
        <ele>83</ele>
        <time>2017-12-02T10:55:11Z</time>
      </trkpt>
      <trkpt lat="62.635964091998" lon="17.979038455935">
        <ele>83.2</ele>
        <time>2017-12-02T10:55:12Z</time>
      </trkpt>
      <trkpt lat="62.635976581029" lon="17.979045832007">
        <ele>83.2</ele>
        <time>2017-12-02T10:55:13Z</time>
      </trkpt>
      <trkpt lat="62.635988734784" lon="17.979055722649">
        <ele>83.4</ele>
        <time>2017-12-02T10:55:14Z</time>
      </trkpt>
      <trkpt lat="62.636000637082" lon="17.97907072625">
        <ele>83.4</ele>
        <time>2017-12-02T10:55:15Z</time>
      </trkpt>
      <trkpt lat="62.636012623199" lon="17.979092100095">
        <ele>83.4</ele>
        <time>2017-12-02T10:55:16Z</time>
      </trkpt>
      <trkpt lat="62.636022094746" lon="17.979113809216">
        <ele>83.4</ele>
        <time>2017-12-02T10:55:17Z</time>
      </trkpt>
      <trkpt lat="62.636027207705" lon="17.979145492798">
        <ele>83.4</ele>
        <time>2017-12-02T10:55:18Z</time>
      </trkpt>
      <trkpt lat="62.636026285696" lon="17.979177679294">
        <ele>83.4</ele>
        <time>2017-12-02T10:55:19Z</time>
      </trkpt>
      <trkpt lat="62.636021508013" lon="17.979206932125">
        <ele>83.4</ele>
        <time>2017-12-02T10:55:20Z</time>
      </trkpt>
      <trkpt lat="62.636017819977" lon="17.979227216323">
        <ele>83.4</ele>
        <time>2017-12-02T10:55:21Z</time>
      </trkpt>
      <trkpt lat="62.636015724502" lon="17.979245656503">
        <ele>83.4</ele>
        <time>2017-12-02T10:55:22Z</time>
      </trkpt>
      <trkpt lat="62.636012623199" lon="17.979241633191">
        <ele>83.4</ele>
        <time>2017-12-02T10:55:23Z</time>
      </trkpt>
      <trkpt lat="62.63602092128" lon="17.979239705354">
        <ele>83.2</ele>
        <time>2017-12-02T10:55:24Z</time>
      </trkpt>
      <trkpt lat="62.635971635708" lon="17.979849656217">
        <ele>82.4</ele>
        <time>2017-12-02T10:56:02Z</time>
      </trkpt>
      <trkpt lat="62.635974066459" lon="17.979968846835">
        <ele>82</ele>
        <time>2017-12-02T10:56:03Z</time>
      </trkpt>
      <trkpt lat="62.635982532178" lon="17.980094407697">
        <ele>81.2</ele>
        <time>2017-12-02T10:56:04Z</time>
      </trkpt>
      <trkpt lat="62.635998709245" lon="17.980217873084">
        <ele>80.2</ele>
        <time>2017-12-02T10:56:05Z</time>
      </trkpt>
      <trkpt lat="62.636010108629" lon="17.980319545531">
        <ele>79.6</ele>
        <time>2017-12-02T10:56:06Z</time>
      </trkpt>
      <trkpt lat="62.636031398655" lon="17.980436556855">
        <ele>79</ele>
        <time>2017-12-02T10:56:07Z</time>
      </trkpt>
      <trkpt lat="62.636050341749" lon="17.980542420252">
        <ele>78.4</ele>
        <time>2017-12-02T10:56:08Z</time>
      </trkpt>
      <trkpt lat="62.636066770273" lon="17.980629424374">
        <ele>78</ele>
        <time>2017-12-02T10:56:09Z</time>
      </trkpt>
      <trkpt lat="62.636080851865" lon="17.980727660242">
        <ele>77.6</ele>
        <time>2017-12-02T10:56:10Z</time>
      </trkpt>
      <trkpt lat="62.636096190742" lon="17.980830003241">
        <ele>77.2</ele>
        <time>2017-12-02T10:56:11Z</time>
      </trkpt>
      <trkpt lat="62.636121252623" lon="17.980916923544">
        <ele>77.2</ele>
        <time>2017-12-02T10:56:12Z</time>
      </trkpt>
      <trkpt lat="62.636145560133" lon="17.980992528282">
        <ele>77</ele>
        <time>2017-12-02T10:56:13Z</time>
      </trkpt>
      <trkpt lat="62.636165257598" lon="17.981080035318">
        <ele>77</ele>
        <time>2017-12-02T10:56:14Z</time>
      </trkpt>
      <trkpt lat="62.636188475461" lon="17.981173493503">
        <ele>76.8</ele>
        <time>2017-12-02T10:56:15Z</time>
      </trkpt>
      <trkpt lat="62.636214794627" lon="17.981261084358">
        <ele>77</ele>
        <time>2017-12-02T10:56:16Z</time>
      </trkpt>
      <trkpt lat="62.63623633611" lon="17.981347334109">
        <ele>76.8</ele>
        <time>2017-12-02T10:56:17Z</time>
      </trkpt>
      <trkpt lat="62.636251758806" lon="17.98142352558">
        <ele>77</ele>
        <time>2017-12-02T10:56:18Z</time>
      </trkpt>
      <trkpt lat="62.636256201213" lon="17.981509691512">
        <ele>77</ele>
        <time>2017-12-02T10:56:19Z</time>
      </trkpt>
      <trkpt lat="62.63626399638" lon="17.981587475544">
        <ele>76.8</ele>
        <time>2017-12-02T10:56:20Z</time>
      </trkpt>
      <trkpt lat="62.636273300289" lon="17.981673390019">
        <ele>76.6</ele>
        <time>2017-12-02T10:56:21Z</time>
      </trkpt>
      <trkpt lat="62.636281514551" lon="17.981755867915">
        <ele>76.6</ele>
        <time>2017-12-02T10:56:22Z</time>
      </trkpt>
      <trkpt lat="62.63629836217" lon="17.981806913686">
        <ele>76.6</ele>
        <time>2017-12-02T10:56:23Z</time>
      </trkpt>
      <trkpt lat="62.636306660251" lon="17.981880925863">
        <ele>76.4</ele>
        <time>2017-12-02T10:56:24Z</time>
      </trkpt>
      <trkpt lat="62.636314036323" lon="17.981957033515">
        <ele>76.2</ele>
        <time>2017-12-02T10:56:25Z</time>
      </trkpt>
      <trkpt lat="62.636319484558" lon="17.982035069004">
        <ele>76.2</ele>
        <time>2017-12-02T10:56:26Z</time>
      </trkpt>
      <trkpt lat="62.636319233101" lon="17.982108829724">
        <ele>76.2</ele>
        <time>2017-12-02T10:56:27Z</time>
      </trkpt>
      <trkpt lat="62.636320322748" lon="17.982180075874">
        <ele>76.2</ele>
        <time>2017-12-02T10:56:28Z</time>
      </trkpt>
      <trkpt lat="62.636318814006" lon="17.982255429155">
        <ele>76.2</ele>
        <time>2017-12-02T10:56:29Z</time>
      </trkpt>
      <trkpt lat="62.636317305264" lon="17.982342098001">
        <ele>76.2</ele>
        <time>2017-12-02T10:56:30Z</time>
      </trkpt>
      <trkpt lat="62.636313533409" lon="17.982406219536">
        <ele>76.2</ele>
        <time>2017-12-02T10:56:31Z</time>
      </trkpt>
      <trkpt lat="62.636310180649" lon="17.982475789306">
        <ele>76.2</ele>
        <time>2017-12-02T10:56:32Z</time>
      </trkpt>
      <trkpt lat="62.636311270296" lon="17.982528595276">
        <ele>76.2</ele>
        <time>2017-12-02T10:56:33Z</time>
      </trkpt>
      <trkpt lat="62.636307833717" lon="17.982595985752">
        <ele>76.2</ele>
        <time>2017-12-02T10:56:34Z</time>
      </trkpt>
      <trkpt lat="62.63630925864" lon="17.982673602146">
        <ele>76.2</ele>
        <time>2017-12-02T10:56:35Z</time>
      </trkpt>
      <trkpt lat="62.636306576432" lon="17.982733868007">
        <ele>76.2</ele>
        <time>2017-12-02T10:56:36Z</time>
      </trkpt>
      <trkpt lat="62.636302217844" lon="17.982806287623">
        <ele>76.2</ele>
        <time>2017-12-02T10:56:37Z</time>
      </trkpt>
      <trkpt lat="62.636304816233" lon="17.982862362534">
        <ele>76.4</ele>
        <time>2017-12-02T10:56:38Z</time>
      </trkpt>
      <trkpt lat="62.636302469301" lon="17.982919359454">
        <ele>76.4</ele>
        <time>2017-12-02T10:56:39Z</time>
      </trkpt>
      <trkpt lat="62.636301044378" lon="17.982981217876">
        <ele>76.4</ele>
        <time>2017-12-02T10:56:40Z</time>
      </trkpt>
      <trkpt lat="62.636302385482" lon="17.983038130977">
        <ele>76.6</ele>
        <time>2017-12-02T10:56:41Z</time>
      </trkpt>
      <trkpt lat="62.636301212016" lon="17.983093954431">
        <ele>76.6</ele>
        <time>2017-12-02T10:56:42Z</time>
      </trkpt>
      <trkpt lat="62.636307163165" lon="17.983151370446">
        <ele>76.6</ele>
        <time>2017-12-02T10:56:43Z</time>
      </trkpt>
      <trkpt lat="62.636305989699" lon="17.983223706243">
        <ele>76.6</ele>
        <time>2017-12-02T10:56:44Z</time>
      </trkpt>
      <trkpt lat="62.636306073518" lon="17.983281541353">
        <ele>76.4</ele>
        <time>2017-12-02T10:56:45Z</time>
      </trkpt>
      <trkpt lat="62.636303307491" lon="17.983338538273">
        <ele>76.4</ele>
        <time>2017-12-02T10:56:46Z</time>
      </trkpt>
      <trkpt lat="62.636301463473" lon="17.983397546849">
        <ele>76.4</ele>
        <time>2017-12-02T10:56:47Z</time>
      </trkpt>
      <trkpt lat="62.636300457645" lon="17.983445742774">
        <ele>76.4</ele>
        <time>2017-12-02T10:56:48Z</time>
      </trkpt>
      <trkpt lat="62.636296518152" lon="17.983493268147">
        <ele>76.4</ele>
        <time>2017-12-02T10:56:49Z</time>
      </trkpt>
      <trkpt lat="62.636298781265" lon="17.983543811004">
        <ele>76.8</ele>
        <time>2017-12-02T10:56:50Z</time>
      </trkpt>
      <trkpt lat="62.636296853428" lon="17.98359024673">
        <ele>76.8</ele>
        <time>2017-12-02T10:56:51Z</time>
      </trkpt>
      <trkpt lat="62.636294506496" lon="17.983651602238">
        <ele>76.8</ele>
        <time>2017-12-02T10:56:52Z</time>
      </trkpt>
      <trkpt lat="62.636292159564" lon="17.983709856443">
        <ele>77</ele>
        <time>2017-12-02T10:56:53Z</time>
      </trkpt>
      <trkpt lat="62.636282101284" lon="17.983754112875">
        <ele>77.2</ele>
        <time>2017-12-02T10:56:54Z</time>
      </trkpt>
      <trkpt lat="62.636270366624" lon="17.98380147061">
        <ele>77.2</ele>
        <time>2017-12-02T10:56:55Z</time>
      </trkpt>
      <trkpt lat="62.636267516778" lon="17.983854025123">
        <ele>77.2</ele>
        <time>2017-12-02T10:56:56Z</time>
      </trkpt>
      <trkpt lat="62.636257793774" lon="17.983907585464">
        <ele>77.4</ele>
        <time>2017-12-02T10:56:57Z</time>
      </trkpt>
      <trkpt lat="62.636253770462" lon="17.983965588212">
        <ele>77.4</ele>
        <time>2017-12-02T10:56:58Z</time>
      </trkpt>
      <trkpt lat="62.636242873992" lon="17.98400431259">
        <ele>77.4</ele>
        <time>2017-12-02T10:56:59Z</time>
      </trkpt>
      <trkpt lat="62.63623465973" lon="17.98405208942">
        <ele>77.6</ele>
        <time>2017-12-02T10:57:00Z</time>
      </trkpt>
      <trkpt lat="62.636228960038" lon="17.984092825454">
        <ele>77.6</ele>
        <time>2017-12-02T10:57:01Z</time>
      </trkpt>
      <trkpt lat="62.636214124075" lon="17.984145212329">
        <ele>77.8</ele>
        <time>2017-12-02T10:57:02Z</time>
      </trkpt>
      <trkpt lat="62.636207418555" lon="17.984190558408">
        <ele>78</ele>
        <time>2017-12-02T10:57:03Z</time>
      </trkpt>
      <trkpt lat="62.636200964492" lon="17.984236575039">
        <ele>78</ele>
        <time>2017-12-02T10:57:04Z</time>
      </trkpt>
      <trkpt lat="62.636195851533" lon="17.984295751253">
        <ele>78</ele>
        <time>2017-12-02T10:57:05Z</time>
      </trkpt>
      <trkpt lat="62.636198282284" lon="17.984336319649">
        <ele>78</ele>
        <time>2017-12-02T10:57:06Z</time>
      </trkpt>
      <trkpt lat="62.636194091334" lon="17.984394992949">
        <ele>78</ele>
        <time>2017-12-02T10:57:07Z</time>
      </trkpt>
      <trkpt lat="62.636192247316" lon="17.984438327372">
        <ele>78.2</ele>
        <time>2017-12-02T10:57:08Z</time>
      </trkpt>
      <trkpt lat="62.636182859588" lon="17.984485685107">
        <ele>78.2</ele>
        <time>2017-12-02T10:57:09Z</time>
      </trkpt>
      <trkpt lat="62.636177578991" lon="17.984534216308">
        <ele>78.2</ele>
        <time>2017-12-02T10:57:10Z</time>
      </trkpt>
      <trkpt lat="62.636173052765" lon="17.984573778876">
        <ele>78.2</ele>
        <time>2017-12-02T10:57:11Z</time>
      </trkpt>
      <trkpt lat="62.636170622014" lon="17.984617448575">
        <ele>78.4</ele>
        <time>2017-12-02T10:57:12Z</time>
      </trkpt>
      <trkpt lat="62.636172968946" lon="17.984658436066">
        <ele>78.4</ele>
        <time>2017-12-02T10:57:13Z</time>
      </trkpt>
      <trkpt lat="62.636164084132" lon="17.984696992806">
        <ele>78.4</ele>
        <time>2017-12-02T10:57:14Z</time>
      </trkpt>
      <trkpt lat="62.636164419408" lon="17.984739321401">
        <ele>78.6</ele>
        <time>2017-12-02T10:57:15Z</time>
      </trkpt>
      <trkpt lat="62.63616006082" lon="17.984783074919">
        <ele>78.6</ele>
        <time>2017-12-02T10:57:16Z</time>
      </trkpt>
      <trkpt lat="62.636154696404" lon="17.984824230048">
        <ele>78.6</ele>
        <time>2017-12-02T10:57:17Z</time>
      </trkpt>
      <trkpt lat="62.636153271481" lon="17.984862116236">
        <ele>78.8</ele>
        <time>2017-12-02T10:57:18Z</time>
      </trkpt>
      <trkpt lat="62.636146565961" lon="17.984902684632">
        <ele>79</ele>
        <time>2017-12-02T10:57:19Z</time>
      </trkpt>
      <trkpt lat="62.636151427463" lon="17.984950126186">
        <ele>79</ele>
        <time>2017-12-02T10:57:20Z</time>
      </trkpt>
      <trkpt lat="62.636146817418" lon="17.984980468664">
        <ele>79.2</ele>
        <time>2017-12-02T10:57:21Z</time>
      </trkpt>
      <trkpt lat="62.63614162064" lon="17.985046518036">
        <ele>79.2</ele>
        <time>2017-12-02T10:57:22Z</time>
      </trkpt>
      <trkpt lat="62.636137932604" lon="17.985083733672">
        <ele>79.4</ele>
        <time>2017-12-02T10:57:23Z</time>
      </trkpt>
      <trkpt lat="62.636132149093" lon="17.985130672312">
        <ele>79.6</ele>
        <time>2017-12-02T10:57:24Z</time>
      </trkpt>
      <trkpt lat="62.636130891808" lon="17.985170653975">
        <ele>79.6</ele>
        <time>2017-12-02T10:57:25Z</time>
      </trkpt>
      <trkpt lat="62.636127622867" lon="17.98522052628">
        <ele>79.8</ele>
        <time>2017-12-02T10:57:26Z</time>
      </trkpt>
      <trkpt lat="62.636131394722" lon="17.985261765228">
        <ele>79.8</ele>
        <time>2017-12-02T10:57:27Z</time>
      </trkpt>
      <trkpt lat="62.636126030306" lon="17.985310883162">
        <ele>79.8</ele>
        <time>2017-12-02T10:57:28Z</time>
      </trkpt>
      <trkpt lat="62.636127958143" lon="17.985351954472">
        <ele>79.8</ele>
        <time>2017-12-02T10:57:29Z</time>
      </trkpt>
      <trkpt lat="62.63612401865" lon="17.985398976931">
        <ele>79.8</ele>
        <time>2017-12-02T10:57:30Z</time>
      </trkpt>
      <trkpt lat="62.636129802161" lon="17.985446669942">
        <ele>79.8</ele>
        <time>2017-12-02T10:57:31Z</time>
      </trkpt>
      <trkpt lat="62.63612569503" lon="17.985487405976">
        <ele>80</ele>
        <time>2017-12-02T10:57:32Z</time>
      </trkpt>
      <trkpt lat="62.636123767193" lon="17.985534176978">
        <ele>80</ele>
        <time>2017-12-02T10:57:33Z</time>
      </trkpt>
      <trkpt lat="62.63611731313" lon="17.985575499745">
        <ele>80</ele>
        <time>2017-12-02T10:57:34Z</time>
      </trkpt>
      <trkpt lat="62.636105662289" lon="17.985612380105">
        <ele>80</ele>
        <time>2017-12-02T10:57:35Z</time>
      </trkpt>
      <trkpt lat="62.636100214054" lon="17.985651691216">
        <ele>80</ele>
        <time>2017-12-02T10:57:36Z</time>
      </trkpt>
      <trkpt lat="62.636084875177" lon="17.985692678707">
        <ele>80</ele>
        <time>2017-12-02T10:57:37Z</time>
      </trkpt>
      <trkpt lat="62.63608713829" lon="17.985737605691">
        <ele>80</ele>
        <time>2017-12-02T10:57:38Z</time>
      </trkpt>
      <trkpt lat="62.636078253476" lon="17.985767780531">
        <ele>80</ele>
        <time>2017-12-02T10:57:39Z</time>
      </trkpt>
      <trkpt lat="62.636065932083" lon="17.985801224312">
        <ele>80.2</ele>
        <time>2017-12-02T10:57:40Z</time>
      </trkpt>
      <trkpt lat="62.63605863983" lon="17.98583240498">
        <ele>80.2</ele>
        <time>2017-12-02T10:57:41Z</time>
      </trkpt>
      <trkpt lat="62.636044977333" lon="17.985864423838">
        <ele>80.2</ele>
        <time>2017-12-02T10:57:42Z</time>
      </trkpt>
      <trkpt lat="62.636029135542" lon="17.985890575366">
        <ele>80.4</ele>
        <time>2017-12-02T10:57:43Z</time>
      </trkpt>
      <trkpt lat="62.636010443905" lon="17.98591370941">
        <ele>80.4</ele>
        <time>2017-12-02T10:57:44Z</time>
      </trkpt>
      <trkpt lat="62.635992506639" lon="17.985936424359">
        <ele>80.6</ele>
        <time>2017-12-02T10:57:45Z</time>
      </trkpt>
      <trkpt lat="62.635975742839" lon="17.985961989154">
        <ele>80.8</ele>
        <time>2017-12-02T10:57:46Z</time>
      </trkpt>
      <trkpt lat="62.63595638065" lon="17.985975064918">
        <ele>80.8</ele>
        <time>2017-12-02T10:57:47Z</time>
      </trkpt>
      <trkpt lat="62.635941963782" lon="17.98599920479">
        <ele>81.2</ele>
        <time>2017-12-02T10:57:48Z</time>
      </trkpt>
      <trkpt lat="62.635923942697" lon="17.985998115143">
        <ele>81.2</ele>
        <time>2017-12-02T10:57:49Z</time>
      </trkpt>
      <trkpt lat="62.635904329051" lon="17.986023093205">
        <ele>81.2</ele>
        <time>2017-12-02T10:57:50Z</time>
      </trkpt>
      <trkpt lat="62.635883961034" lon="17.986029211992">
        <ele>81.4</ele>
        <time>2017-12-02T10:57:51Z</time>
      </trkpt>
      <trkpt lat="62.635865520854" lon="17.986049999104">
        <ele>81.4</ele>
        <time>2017-12-02T10:57:52Z</time>
      </trkpt>
      <trkpt lat="62.635844314647" lon="17.986052262217">
        <ele>81.4</ele>
        <time>2017-12-02T10:57:53Z</time>
      </trkpt>
      <trkpt lat="62.635825790648" lon="17.986078581383">
        <ele>81.2</ele>
        <time>2017-12-02T10:57:54Z</time>
      </trkpt>
      <trkpt lat="62.6358096974" lon="17.986079922487">
        <ele>81.2</ele>
        <time>2017-12-02T10:57:55Z</time>
      </trkpt>
      <trkpt lat="62.63579209541" lon="17.986108672404">
        <ele>81.4</ele>
        <time>2017-12-02T10:57:56Z</time>
      </trkpt>
      <trkpt lat="62.635773487592" lon="17.986127531679">
        <ele>81.2</ele>
        <time>2017-12-02T10:57:57Z</time>
      </trkpt>
      <trkpt lat="62.635759406" lon="17.986162903297">
        <ele>81.4</ele>
        <time>2017-12-02T10:57:58Z</time>
      </trkpt>
      <trkpt lat="62.635746916969" lon="17.986190395929">
        <ele>81.4</ele>
        <time>2017-12-02T10:57:59Z</time>
      </trkpt>
      <trkpt lat="62.635729985531" lon="17.986212272688">
        <ele>81.6</ele>
        <time>2017-12-02T10:58:00Z</time>
      </trkpt>
      <trkpt lat="62.635723531468" lon="17.986235322913">
        <ele>81.6</ele>
        <time>2017-12-02T10:58:01Z</time>
      </trkpt>
      <trkpt lat="62.635712215903" lon="17.986263737554">
        <ele>81.8</ele>
        <time>2017-12-02T10:58:02Z</time>
      </trkpt>
      <trkpt lat="62.635695787379" lon="17.986299360629">
        <ele>81.8</ele>
        <time>2017-12-02T10:58:03Z</time>
      </trkpt>
      <trkpt lat="62.635680280864" lon="17.986341102491">
        <ele>82</ele>
        <time>2017-12-02T10:58:04Z</time>
      </trkpt>
      <trkpt lat="62.635664858168" lon="17.986377731394">
        <ele>82.4</ele>
        <time>2017-12-02T10:58:05Z</time>
      </trkpt>
      <trkpt lat="62.635648010549" lon="17.986412935374">
        <ele>82.6</ele>
        <time>2017-12-02T10:58:06Z</time>
      </trkpt>
      <trkpt lat="62.635636275889" lon="17.98644093092">
        <ele>82.6</ele>
        <time>2017-12-02T10:58:07Z</time>
      </trkpt>
      <trkpt lat="62.635617165157" lon="17.986477727461">
        <ele>82.8</ele>
        <time>2017-12-02T10:58:08Z</time>
      </trkpt>
      <trkpt lat="62.635609453809" lon="17.986508405215">
        <ele>82.8</ele>
        <time>2017-12-02T10:58:09Z</time>
      </trkpt>
      <trkpt lat="62.635589923982" lon="17.986542603367">
        <ele>82.8</ele>
        <time>2017-12-02T10:58:10Z</time>
      </trkpt>
      <trkpt lat="62.635581374444" lon="17.986583758496">
        <ele>82.8</ele>
        <time>2017-12-02T10:58:11Z</time>
      </trkpt>
      <trkpt lat="62.635565029739" lon="17.98661359806">
        <ele>82.8</ele>
        <time>2017-12-02T10:58:12Z</time>
      </trkpt>
      <trkpt lat="62.635558827133" lon="17.986648718221">
        <ele>82.8</ele>
        <time>2017-12-02T10:58:13Z</time>
      </trkpt>
      <trkpt lat="62.635547176292" lon="17.986674283016">
        <ele>83</ele>
        <time>2017-12-02T10:58:14Z</time>
      </trkpt>
      <trkpt lat="62.635535106356" lon="17.986704541675">
        <ele>83</ele>
        <time>2017-12-02T10:58:15Z</time>
      </trkpt>
      <trkpt lat="62.635531166863" lon="17.98673345923">
        <ele>83</ele>
        <time>2017-12-02T10:58:16Z</time>
      </trkpt>
      <trkpt lat="62.635517336728" lon="17.986768411753">
        <ele>83</ele>
        <time>2017-12-02T10:58:17Z</time>
      </trkpt>
      <trkpt lat="62.635504763878" lon="17.986795904385">
        <ele>83.2</ele>
        <time>2017-12-02T10:58:18Z</time>
      </trkpt>
      <trkpt lat="62.635498142177" lon="17.986827587967">
        <ele>83.2</ele>
        <time>2017-12-02T10:58:19Z</time>
      </trkpt>
      <trkpt lat="62.635480037273" lon="17.986866060888">
        <ele>83.2</ele>
        <time>2017-12-02T10:58:20Z</time>
      </trkpt>
      <trkpt lat="62.63546939226" lon="17.986893050606">
        <ele>83.2</ele>
        <time>2017-12-02T10:58:21Z</time>
      </trkpt>
      <trkpt lat="62.635451622632" lon="17.986926326749">
        <ele>83.4</ele>
        <time>2017-12-02T10:58:22Z</time>
      </trkpt>
      <trkpt lat="62.635441815809" lon="17.986958764702">
        <ele>83.6</ele>
        <time>2017-12-02T10:58:23Z</time>
      </trkpt>
      <trkpt lat="62.635430500244" lon="17.98698575442">
        <ele>83.6</ele>
        <time>2017-12-02T10:58:24Z</time>
      </trkpt>
      <trkpt lat="62.6354157481" lon="17.987016348355">
        <ele>83.6</ele>
        <time>2017-12-02T10:58:25Z</time>
      </trkpt>
      <trkpt lat="62.635406192734" lon="17.987047361385">
        <ele>83.8</ele>
        <time>2017-12-02T10:58:26Z</time>
      </trkpt>
      <trkpt lat="62.635391943504" lon="17.987065550108">
        <ele>83.8</ele>
        <time>2017-12-02T10:58:27Z</time>
      </trkpt>
      <trkpt lat="62.635379873568" lon="17.987097149871">
        <ele>84</ele>
        <time>2017-12-02T10:58:28Z</time>
      </trkpt>
      <trkpt lat="62.635365624338" lon="17.987123636675">
        <ele>84.2</ele>
        <time>2017-12-02T10:58:29Z</time>
      </trkpt>
      <trkpt lat="62.635342993208" lon="17.987140400475">
        <ele>84.2</ele>
        <time>2017-12-02T10:58:30Z</time>
      </trkpt>
      <trkpt lat="62.635329330711" lon="17.987171078229">
        <ele>84.4</ele>
        <time>2017-12-02T10:58:31Z</time>
      </trkpt>
      <trkpt lat="62.635315752033" lon="17.98719278735">
        <ele>84.6</ele>
        <time>2017-12-02T10:58:32Z</time>
      </trkpt>
      <trkpt lat="62.635306699581" lon="17.987207790951">
        <ele>84.6</ele>
        <time>2017-12-02T10:58:33Z</time>
      </trkpt>
      <trkpt lat="62.635289600505" lon="17.987226901683">
        <ele>84.6</ele>
        <time>2017-12-02T10:58:34Z</time>
      </trkpt>
      <trkpt lat="62.63527828494" lon="17.98727073902">
        <ele>84.6</ele>
        <time>2017-12-02T10:58:35Z</time>
      </trkpt>
      <trkpt lat="62.635256743457" lon="17.987299740394">
        <ele>84.6</ele>
        <time>2017-12-02T10:58:36Z</time>
      </trkpt>
      <trkpt lat="62.635249283566" lon="17.987331591614">
        <ele>84.6</ele>
        <time>2017-12-02T10:58:37Z</time>
      </trkpt>
      <trkpt lat="62.635229418463" lon="17.987358078418">
        <ele>84.6</ele>
        <time>2017-12-02T10:58:38Z</time>
      </trkpt>
      <trkpt lat="62.635221120382" lon="17.987389845819">
        <ele>84.6</ele>
        <time>2017-12-02T10:58:39Z</time>
      </trkpt>
      <trkpt lat="62.635204608039" lon="17.987420607392">
        <ele>84.8</ele>
        <time>2017-12-02T10:58:40Z</time>
      </trkpt>
      <trkpt lat="62.635184659117" lon="17.987464696186">
        <ele>84.8</ele>
        <time>2017-12-02T10:58:41Z</time>
      </trkpt>
      <trkpt lat="62.635170409887" lon="17.987494787207">
        <ele>84.8</ele>
        <time>2017-12-02T10:58:42Z</time>
      </trkpt>
      <trkpt lat="62.635151634431" lon="17.987525464961">
        <ele>85</ele>
        <time>2017-12-02T10:58:43Z</time>
      </trkpt>
      <trkpt lat="62.635143503988" lon="17.987549940109">
        <ele>85</ele>
        <time>2017-12-02T10:58:44Z</time>
      </trkpt>
      <trkpt lat="62.635126153455" lon="17.987578270931">
        <ele>85.2</ele>
        <time>2017-12-02T10:58:45Z</time>
      </trkpt>
      <trkpt lat="62.635112742415" lon="17.987607188486">
        <ele>85.4</ele>
        <time>2017-12-02T10:58:46Z</time>
      </trkpt>
      <trkpt lat="62.635100672479" lon="17.987639710258">
        <ele>85.6</ele>
        <time>2017-12-02T10:58:47Z</time>
      </trkpt>
      <trkpt lat="62.635082735213" lon="17.98766049737">
        <ele>85.6</ele>
        <time>2017-12-02T10:58:48Z</time>
      </trkpt>
      <trkpt lat="62.635076532607" lon="17.987691342762">
        <ele>85.8</ele>
        <time>2017-12-02T10:58:49Z</time>
      </trkpt>
      <trkpt lat="62.635057924789" lon="17.987711794598">
        <ele>85.8</ele>
        <time>2017-12-02T10:58:50Z</time>
      </trkpt>
      <trkpt lat="62.635050548717" lon="17.987747082397">
        <ele>86</ele>
        <time>2017-12-02T10:58:51Z</time>
      </trkpt>
      <trkpt lat="62.635034036374" lon="17.987765690215">
        <ele>86</ele>
        <time>2017-12-02T10:58:52Z</time>
      </trkpt>
      <trkpt lat="62.635024481008" lon="17.987799720729">
        <ele>86</ele>
        <time>2017-12-02T10:58:53Z</time>
      </trkpt>
      <trkpt lat="62.635010231778" lon="17.987821848945">
        <ele>86.2</ele>
        <time>2017-12-02T10:58:54Z</time>
      </trkpt>
      <trkpt lat="62.634992629788" lon="17.987852945794">
        <ele>86.2</ele>
        <time>2017-12-02T10:58:55Z</time>
      </trkpt>
      <trkpt lat="62.634980140757" lon="17.987881611892">
        <ele>86.2</ele>
        <time>2017-12-02T10:58:56Z</time>
      </trkpt>
      <trkpt lat="62.634960443292" lon="17.987898124235">
        <ele>86.4</ele>
        <time>2017-12-02T10:58:57Z</time>
      </trkpt>
      <trkpt lat="62.634951055564" lon="17.987925449229">
        <ele>86.4</ele>
        <time>2017-12-02T10:58:58Z</time>
      </trkpt>
      <trkpt lat="62.634935381411" lon="17.987934334043">
        <ele>86.4</ele>
        <time>2017-12-02T10:58:59Z</time>
      </trkpt>
      <trkpt lat="62.634916941231" lon="17.987959815019">
        <ele>86.4</ele>
        <time>2017-12-02T10:59:00Z</time>
      </trkpt>
      <trkpt lat="62.634898836327" lon="17.987985882728">
        <ele>86.4</ele>
        <time>2017-12-02T10:59:01Z</time>
      </trkpt>
      <trkpt lat="62.634876875749" lon="17.987999880501">
        <ele>86.6</ele>
        <time>2017-12-02T10:59:02Z</time>
      </trkpt>
      <trkpt lat="62.63486421908" lon="17.988023182183">
        <ele>86.6</ele>
        <time>2017-12-02T10:59:03Z</time>
      </trkpt>
      <trkpt lat="62.634848042013" lon="17.988031480264">
        <ele>86.8</ele>
        <time>2017-12-02T10:59:04Z</time>
      </trkpt>
      <trkpt lat="62.634827757815" lon="17.988043969295">
        <ele>87</ele>
        <time>2017-12-02T10:59:05Z</time>
      </trkpt>
      <trkpt lat="62.634805713418" lon="17.988057128878">
        <ele>87</ele>
        <time>2017-12-02T10:59:06Z</time>
      </trkpt>
      <trkpt lat="62.634780316261" lon="17.988064421131">
        <ele>87.2</ele>
        <time>2017-12-02T10:59:07Z</time>
      </trkpt>
      <trkpt lat="62.634758355683" lon="17.988080765836">
        <ele>87.4</ele>
        <time>2017-12-02T10:59:08Z</time>
      </trkpt>
      <trkpt lat="62.634738574399" lon="17.988072970669">
        <ele>87.6</ele>
        <time>2017-12-02T10:59:09Z</time>
      </trkpt>
      <trkpt lat="62.6347200504" lon="17.988093338686">
        <ele>87.6</ele>
        <time>2017-12-02T10:59:10Z</time>
      </trkpt>
      <trkpt lat="62.634695910528" lon="17.988098116369">
        <ele>87.8</ele>
        <time>2017-12-02T10:59:11Z</time>
      </trkpt>
      <trkpt lat="62.634676380701" lon="17.988097278179">
        <ele>88</ele>
        <time>2017-12-02T10:59:12Z</time>
      </trkpt>
      <trkpt lat="62.634657353788" lon="17.988103648423">
        <ele>88</ele>
        <time>2017-12-02T10:59:13Z</time>
      </trkpt>
      <trkpt lat="62.634637153409" lon="17.988113622884">
        <ele>88.2</ele>
        <time>2017-12-02T10:59:14Z</time>
      </trkpt>
      <trkpt lat="62.634619299962" lon="17.988125860458">
        <ele>88.2</ele>
        <time>2017-12-02T10:59:15Z</time>
      </trkpt>
      <trkpt lat="62.634598596669" lon="17.988119406395">
        <ele>88.4</ele>
        <time>2017-12-02T10:59:16Z</time>
      </trkpt>
      <trkpt lat="62.634578563928" lon="17.988127872114">
        <ele>88.4</ele>
        <time>2017-12-02T10:59:17Z</time>
      </trkpt>
      <trkpt lat="62.634559620834" lon="17.988133990901">
        <ele>88.4</ele>
        <time>2017-12-02T10:59:18Z</time>
      </trkpt>
      <trkpt lat="62.63453481041" lon="17.988144133">
        <ele>88.4</ele>
        <time>2017-12-02T10:59:19Z</time>
      </trkpt>
      <trkpt lat="62.634512849832" lon="17.988154694194">
        <ele>88.6</ele>
        <time>2017-12-02T10:59:20Z</time>
      </trkpt>
      <trkpt lat="62.634488961417" lon="17.988180091351">
        <ele>88.6</ele>
        <time>2017-12-02T10:59:21Z</time>
      </trkpt>
      <trkpt lat="62.634468425762" lon="17.988197860979">
        <ele>88.6</ele>
        <time>2017-12-02T10:59:22Z</time>
      </trkpt>
      <trkpt lat="62.634443782976" lon="17.988198028617">
        <ele>88.8</ele>
        <time>2017-12-02T10:59:23Z</time>
      </trkpt>
      <trkpt lat="62.63442165476" lon="17.988221581756">
        <ele>88.8</ele>
        <time>2017-12-02T10:59:24Z</time>
      </trkpt>
      <trkpt lat="62.634399191268" lon="17.988229125466">
        <ele>89</ele>
        <time>2017-12-02T10:59:25Z</time>
      </trkpt>
      <trkpt lat="62.634376476319" lon="17.988247984741">
        <ele>89</ele>
        <time>2017-12-02T10:59:26Z</time>
      </trkpt>
      <trkpt lat="62.63435459956" lon="17.988252930062">
        <ele>89.2</ele>
        <time>2017-12-02T10:59:27Z</time>
      </trkpt>
      <trkpt lat="62.634327274566" lon="17.988249493483">
        <ele>89.2</ele>
        <time>2017-12-02T10:59:28Z</time>
      </trkpt>
      <trkpt lat="62.634309504938" lon="17.988258043021">
        <ele>89.2</ele>
        <time>2017-12-02T10:59:29Z</time>
      </trkpt>
      <trkpt lat="62.634284107781" lon="17.988250499311">
        <ele>89.2</ele>
        <time>2017-12-02T10:59:30Z</time>
      </trkpt>
      <trkpt lat="62.634265332325" lon="17.988267849844">
        <ele>89.2</ele>
        <time>2017-12-02T10:59:31Z</time>
      </trkpt>
      <trkpt lat="62.63424563486" lon="17.988257875383">
        <ele>89.4</ele>
        <time>2017-12-02T10:59:32Z</time>
      </trkpt>
      <trkpt lat="62.634228787241" lon="17.988261731057">
        <ele>89.4</ele>
        <time>2017-12-02T10:59:33Z</time>
      </trkpt>
      <trkpt lat="62.634205737016" lon="17.988247984741">
        <ele>89.4</ele>
        <time>2017-12-02T10:59:34Z</time>
      </trkpt>
      <trkpt lat="62.634182435334" lon="17.988253013881">
        <ele>89.4</ele>
        <time>2017-12-02T10:59:35Z</time>
      </trkpt>
      <trkpt lat="62.634157373453" lon="17.988244380524">
        <ele>89.4</ele>
        <time>2017-12-02T10:59:36Z</time>
      </trkpt>
      <trkpt lat="62.634133149762" lon="17.988231807674">
        <ele>89.4</ele>
        <time>2017-12-02T10:59:37Z</time>
      </trkpt>
      <trkpt lat="62.634110434813" lon="17.988226443258">
        <ele>89.4</ele>
        <time>2017-12-02T10:59:38Z</time>
      </trkpt>
      <trkpt lat="62.634085959665" lon="17.988218648091">
        <ele>89.6</ele>
        <time>2017-12-02T10:59:39Z</time>
      </trkpt>
      <trkpt lat="62.634061652155" lon="17.98821454096">
        <ele>89.6</ele>
        <time>2017-12-02T10:59:40Z</time>
      </trkpt>
      <trkpt lat="62.634038434292" lon="17.988199872635">
        <ele>89.6</ele>
        <time>2017-12-02T10:59:41Z</time>
      </trkpt>
      <trkpt lat="62.634013623868" lon="17.988191239278">
        <ele>89.6</ele>
        <time>2017-12-02T10:59:42Z</time>
      </trkpt>
      <trkpt lat="62.633992920575" lon="17.988175062211">
        <ele>89.8</ele>
        <time>2017-12-02T10:59:43Z</time>
      </trkpt>
      <trkpt lat="62.633967271961" lon="17.988155197108">
        <ele>89.8</ele>
        <time>2017-12-02T10:59:44Z</time>
      </trkpt>
      <trkpt lat="62.633945395202" lon="17.988139187679">
        <ele>89.8</ele>
        <time>2017-12-02T10:59:45Z</time>
      </trkpt>
      <trkpt lat="62.633918237846" lon="17.988132565978">
        <ele>89.8</ele>
        <time>2017-12-02T10:59:46Z</time>
      </trkpt>
      <trkpt lat="62.633896361087" lon="17.988131308693">
        <ele>90</ele>
        <time>2017-12-02T10:59:47Z</time>
      </trkpt>
      <trkpt lat="62.63387515488" lon="17.988112617056">
        <ele>90</ele>
        <time>2017-12-02T10:59:48Z</time>
      </trkpt>
      <trkpt lat="62.633855792691" lon="17.988107923192">
        <ele>90</ele>
        <time>2017-12-02T10:59:49Z</time>
      </trkpt>
      <trkpt lat="62.633835676131" lon="17.988078586542">
        <ele>90.2</ele>
        <time>2017-12-02T10:59:50Z</time>
      </trkpt>
      <trkpt lat="62.633816062485" lon="17.988073557402">
        <ele>90.4</ele>
        <time>2017-12-02T10:59:51Z</time>
      </trkpt>
      <trkpt lat="62.633792509346" lon="17.988046986779">
        <ele>90.4</ele>
        <time>2017-12-02T10:59:52Z</time>
      </trkpt>
      <trkpt lat="62.633773063338" lon="17.988021338165">
        <ele>90.6</ele>
        <time>2017-12-02T10:59:53Z</time>
      </trkpt>
      <trkpt lat="62.633753784968" lon="17.988009687324">
        <ele>90.6</ele>
        <time>2017-12-02T10:59:54Z</time>
      </trkpt>
      <trkpt lat="62.633732494942" lon="17.988000551053">
        <ele>90.6</ele>
        <time>2017-12-02T10:59:55Z</time>
      </trkpt>
      <trkpt lat="62.633705924319" lon="17.98799158242">
        <ele>90.6</ele>
        <time>2017-12-02T10:59:56Z</time>
      </trkpt>
      <trkpt lat="62.633681449171" lon="17.987976830276">
        <ele>90.6</ele>
        <time>2017-12-02T10:59:57Z</time>
      </trkpt>
      <trkpt lat="62.633654040358" lon="17.987959898838">
        <ele>90.6</ele>
        <time>2017-12-02T10:59:58Z</time>
      </trkpt>
      <trkpt lat="62.63364046168" lon="17.987946068703">
        <ele>90.6</ele>
        <time>2017-12-02T10:59:59Z</time>
      </trkpt>
      <trkpt lat="62.633622524414" lon="17.987911283818">
        <ele>90.6</ele>
        <time>2017-12-02T11:00:00Z</time>
      </trkpt>
      <trkpt lat="62.633600899112" lon="17.987904578298">
        <ele>90.6</ele>
        <time>2017-12-02T11:00:01Z</time>
      </trkpt>
      <trkpt lat="62.633583632398" lon="17.987883875005">
        <ele>90.8</ele>
        <time>2017-12-02T11:00:02Z</time>
      </trkpt>
      <trkpt lat="62.633565276037" lon="17.987859651314">
        <ele>90.8</ele>
        <time>2017-12-02T11:00:03Z</time>
      </trkpt>
      <trkpt lat="62.633547506409" lon="17.987831655768">
        <ele>91</ele>
        <time>2017-12-02T11:00:04Z</time>
      </trkpt>
      <trkpt lat="62.633527557487" lon="17.987822687135">
        <ele>91</ele>
        <time>2017-12-02T11:00:05Z</time>
      </trkpt>
      <trkpt lat="62.633510709868" lon="17.987793937218">
        <ele>91.2</ele>
        <time>2017-12-02T11:00:06Z</time>
      </trkpt>
      <trkpt lat="62.633488497833" lon="17.987778011608">
        <ele>91.4</ele>
        <time>2017-12-02T11:00:07Z</time>
      </trkpt>
      <trkpt lat="62.633468800368" lon="17.987751776261">
        <ele>91.4</ele>
        <time>2017-12-02T11:00:08Z</time>
      </trkpt>
      <trkpt lat="62.633449689636" lon="17.987721852878">
        <ele>91.8</ele>
        <time>2017-12-02T11:00:09Z</time>
      </trkpt>
      <trkpt lat="62.633430243628" lon="17.987694527884">
        <ele>91.8</ele>
        <time>2017-12-02T11:00:10Z</time>
      </trkpt>
      <trkpt lat="62.633411132896" lon="17.987661670836">
        <ele>91.8</ele>
        <time>2017-12-02T11:00:11Z</time>
      </trkpt>
      <trkpt lat="62.633395039648" lon="17.987643817389">
        <ele>92</ele>
        <time>2017-12-02T11:00:12Z</time>
      </trkpt>
      <trkpt lat="62.633378192029" lon="17.98762361701">
        <ele>92</ele>
        <time>2017-12-02T11:00:13Z</time>
      </trkpt>
      <trkpt lat="62.633366792645" lon="17.987589586496">
        <ele>92.2</ele>
        <time>2017-12-02T11:00:14Z</time>
      </trkpt>
      <trkpt lat="62.633352208139" lon="17.987558322009">
        <ele>92.4</ele>
        <time>2017-12-02T11:00:15Z</time>
      </trkpt>
      <trkpt lat="62.633338629461" lon="17.987534517413">
        <ele>92.6</ele>
        <time>2017-12-02T11:00:16Z</time>
      </trkpt>
      <trkpt lat="62.633325050783" lon="17.9874903448">
        <ele>92.6</ele>
        <time>2017-12-02T11:00:17Z</time>
      </trkpt>
      <trkpt lat="62.6333118912" lon="17.987447094196">
        <ele>92.8</ele>
        <time>2017-12-02T11:00:18Z</time>
      </trkpt>
      <trkpt lat="62.63328926007" lon="17.987418344279">
        <ele>93</ele>
        <time>2017-12-02T11:00:19Z</time>
      </trkpt>
      <trkpt lat="62.633259169049" lon="17.987364700119">
        <ele>93.2</ele>
        <time>2017-12-02T11:00:20Z</time>
      </trkpt>
      <trkpt lat="62.633243327258" lon="17.987328909406">
        <ele>93.2</ele>
        <time>2017-12-02T11:00:21Z</time>
      </trkpt>
      <trkpt lat="62.633229161847" lon="17.987257160342">
        <ele>93</ele>
        <time>2017-12-02T11:00:22Z</time>
      </trkpt>
      <trkpt lat="62.633209883477" lon="17.987128414358">
        <ele>93</ele>
        <time>2017-12-02T11:00:23Z</time>
      </trkpt>
      <trkpt lat="62.633198819369" lon="17.987034620897">
        <ele>92.8</ele>
        <time>2017-12-02T11:00:24Z</time>
      </trkpt>
      <trkpt lat="62.633183731949" lon="17.986937307038">
        <ele>92.2</ele>
        <time>2017-12-02T11:00:25Z</time>
      </trkpt>
      <trkpt lat="62.633176020601" lon="17.986838652075">
        <ele>91.8</ele>
        <time>2017-12-02T11:00:26Z</time>
      </trkpt>
      <trkpt lat="62.633156574593" lon="17.986753827247">
        <ele>91</ele>
        <time>2017-12-02T11:00:27Z</time>
      </trkpt>
      <trkpt lat="62.63314928234" lon="17.986657519216">
        <ele>90.6</ele>
        <time>2017-12-02T11:00:28Z</time>
      </trkpt>
      <trkpt lat="62.633139810793" lon="17.986577639709">
        <ele>90.2</ele>
        <time>2017-12-02T11:00:29Z</time>
      </trkpt>
      <trkpt lat="62.63313503311" lon="17.986497844021">
        <ele>90</ele>
        <time>2017-12-02T11:00:30Z</time>
      </trkpt>
      <trkpt lat="62.633132267083" lon="17.986405894578">
        <ele>90</ele>
        <time>2017-12-02T11:00:31Z</time>
      </trkpt>
      <trkpt lat="62.633128914323" lon="17.986303048665">
        <ele>90</ele>
        <time>2017-12-02T11:00:32Z</time>
      </trkpt>
      <trkpt lat="62.63313084216" lon="17.986192156128">
        <ele>90</ele>
        <time>2017-12-02T11:00:33Z</time>
      </trkpt>
      <trkpt lat="62.6331358713" lon="17.986090735138">
        <ele>89.8</ele>
        <time>2017-12-02T11:00:34Z</time>
      </trkpt>
      <trkpt lat="62.633133272911" lon="17.985974310547">
        <ele>89.2</ele>
        <time>2017-12-02T11:00:35Z</time>
      </trkpt>
      <trkpt lat="62.633136374214" lon="17.98586509439">
        <ele>88.6</ele>
        <time>2017-12-02T11:00:36Z</time>
      </trkpt>
      <trkpt lat="62.633140229888" lon="17.985759901545">
        <ele>87.8</ele>
        <time>2017-12-02T11:00:37Z</time>
      </trkpt>
      <trkpt lat="62.633145845761" lon="17.985669125568">
        <ele>87.4</ele>
        <time>2017-12-02T11:00:38Z</time>
      </trkpt>
      <trkpt lat="62.633146432494" lon="17.985584133102">
        <ele>87.4</ele>
        <time>2017-12-02T11:00:39Z</time>
      </trkpt>
      <trkpt lat="62.633146851589" lon="17.985487741252">
        <ele>87.2</ele>
        <time>2017-12-02T11:00:40Z</time>
      </trkpt>
      <trkpt lat="62.633149533797" lon="17.985370981385">
        <ele>87</ele>
        <time>2017-12-02T11:00:41Z</time>
      </trkpt>
      <trkpt lat="62.633161268457" lon="17.985249695292">
        <ele>86.8</ele>
        <time>2017-12-02T11:00:42Z</time>
      </trkpt>
      <trkpt lat="62.633175014773" lon="17.985127068095">
        <ele>86.6</ele>
        <time>2017-12-02T11:00:43Z</time>
      </trkpt>
      <trkpt lat="62.633189431641" lon="17.985019444499">
        <ele>86.2</ele>
        <time>2017-12-02T11:00:44Z</time>
      </trkpt>
      <trkpt lat="62.633206782174" lon="17.984899248053">
        <ele>86</ele>
        <time>2017-12-02T11:00:45Z</time>
      </trkpt>
      <trkpt lat="62.633226228182" lon="17.984787517326">
        <ele>85.6</ele>
        <time>2017-12-02T11:00:46Z</time>
      </trkpt>
      <trkpt lat="62.633245925647" lon="17.984688694725">
        <ele>85.2</ele>
        <time>2017-12-02T11:00:47Z</time>
      </trkpt>
      <trkpt lat="62.633265706931" lon="17.984606049191">
        <ele>84.8</ele>
        <time>2017-12-02T11:00:48Z</time>
      </trkpt>
      <trkpt lat="62.633276938677" lon="17.984531198824">
        <ele>84.6</ele>
        <time>2017-12-02T11:00:49Z</time>
      </trkpt>
      <trkpt lat="62.633290182079" lon="17.984442266865">
        <ele>84.4</ele>
        <time>2017-12-02T11:00:50Z</time>
      </trkpt>
      <trkpt lat="62.633297725789" lon="17.984378564425">
        <ele>84.2</ele>
        <time>2017-12-02T11:00:51Z</time>
      </trkpt>
      <trkpt lat="62.633312142657" lon="17.984303714058">
        <ele>84.2</ele>
        <time>2017-12-02T11:00:52Z</time>
      </trkpt>
      <trkpt lat="62.633321781842" lon="17.984240179256">
        <ele>84.6</ele>
        <time>2017-12-02T11:00:53Z</time>
      </trkpt>
      <trkpt lat="62.63332111129" lon="17.984159210102">
        <ele>84.6</ele>
        <time>2017-12-02T11:00:54Z</time>
      </trkpt>
      <trkpt lat="62.633331588665" lon="17.984082599536">
        <ele>85</ele>
        <time>2017-12-02T11:00:55Z</time>
      </trkpt>
      <trkpt lat="62.633340892574" lon="17.984013616499">
        <ele>85.4</ele>
        <time>2017-12-02T11:00:56Z</time>
      </trkpt>
      <trkpt lat="62.633344832067" lon="17.983949914059">
        <ele>85.6</ele>
        <time>2017-12-02T11:00:57Z</time>
      </trkpt>
      <trkpt lat="62.633349945026" lon="17.983886463076">
        <ele>85.6</ele>
        <time>2017-12-02T11:00:58Z</time>
      </trkpt>
      <trkpt lat="62.633365283903" lon="17.983820581342">
        <ele>85.8</ele>
        <time>2017-12-02T11:00:59Z</time>
      </trkpt>
      <trkpt lat="62.633379868409" lon="17.983760064024">
        <ele>85.6</ele>
        <time>2017-12-02T11:01:00Z</time>
      </trkpt>
      <trkpt lat="62.63338146097" lon="17.983701977457">
        <ele>85.8</ele>
        <time>2017-12-02T11:01:01Z</time>
      </trkpt>
      <trkpt lat="62.633396464571" lon="17.983637772103">
        <ele>85.6</ele>
        <time>2017-12-02T11:01:02Z</time>
      </trkpt>
      <trkpt lat="62.633408953602" lon="17.983568118514">
        <ele>85.8</ele>
        <time>2017-12-02T11:01:03Z</time>
      </trkpt>
      <trkpt lat="62.633418928063" lon="17.983514893449">
        <ele>85.8</ele>
        <time>2017-12-02T11:01:04Z</time>
      </trkpt>
      <trkpt lat="62.633439882813" lon="17.983448341163">
        <ele>85.6</ele>
        <time>2017-12-02T11:01:05Z</time>
      </trkpt>
      <trkpt lat="62.633441223917" lon="17.98337818466">
        <ele>85.8</ele>
        <time>2017-12-02T11:01:06Z</time>
      </trkpt>
      <trkpt lat="62.633447761799" lon="17.983291264357">
        <ele>85.8</ele>
        <time>2017-12-02T11:01:07Z</time>
      </trkpt>
      <trkpt lat="62.633462513943" lon="17.983229405935">
        <ele>85.6</ele>
        <time>2017-12-02T11:01:08Z</time>
      </trkpt>
      <trkpt lat="62.633468297454" lon="17.983175091223">
        <ele>85.6</ele>
        <time>2017-12-02T11:01:09Z</time>
      </trkpt>
      <trkpt lat="62.633484306883" lon="17.983109712403">
        <ele>85.4</ele>
        <time>2017-12-02T11:01:10Z</time>
      </trkpt>
      <trkpt lat="62.633494448982" lon="17.983045842325">
        <ele>85.6</ele>
        <time>2017-12-02T11:01:11Z</time>
      </trkpt>
      <trkpt lat="62.633503082339" lon="17.982982894256">
        <ele>85.4</ele>
        <time>2017-12-02T11:01:12Z</time>
      </trkpt>
      <trkpt lat="62.633521857795" lon="17.982935452702">
        <ele>85.4</ele>
        <time>2017-12-02T11:01:13Z</time>
      </trkpt>
      <trkpt lat="62.633544824201" lon="17.982879126334">
        <ele>85.4</ele>
        <time>2017-12-02T11:01:14Z</time>
      </trkpt>
      <trkpt lat="62.633562845286" lon="17.982823386699">
        <ele>85.6</ele>
        <time>2017-12-02T11:01:15Z</time>
      </trkpt>
      <trkpt lat="62.633564605485" lon="17.982760522449">
        <ele>85.8</ele>
        <time>2017-12-02T11:01:16Z</time>
      </trkpt>
      <trkpt lat="62.633565192218" lon="17.982717355664">
        <ele>85.8</ele>
        <time>2017-12-02T11:01:17Z</time>
      </trkpt>
      <trkpt lat="62.633579944362" lon="17.982673099232">
        <ele>85.8</ele>
        <time>2017-12-02T11:01:18Z</time>
      </trkpt>
      <trkpt lat="62.633589248271" lon="17.982611073172">
        <ele>85.8</ele>
        <time>2017-12-02T11:01:19Z</time>
      </trkpt>
      <trkpt lat="62.633609281012" lon="17.982551813139">
        <ele>85.8</ele>
        <time>2017-12-02T11:01:20Z</time>
      </trkpt>
      <trkpt lat="62.633626380088" lon="17.982497833703">
        <ele>85.8</ele>
        <time>2017-12-02T11:01:21Z</time>
      </trkpt>
      <trkpt lat="62.633616237989" lon="17.982417954196">
        <ele>85.8</ele>
        <time>2017-12-02T11:01:22Z</time>
      </trkpt>
      <trkpt lat="62.633630990133" lon="17.982340002526">
        <ele>85.8</ele>
        <time>2017-12-02T11:01:23Z</time>
      </trkpt>
      <trkpt lat="62.633635181083" lon="17.982272528231">
        <ele>85.6</ele>
        <time>2017-12-02T11:01:24Z</time>
      </trkpt>
      <trkpt lat="62.633644401173" lon="17.982201868814">
        <ele>85.8</ele>
        <time>2017-12-02T11:01:25Z</time>
      </trkpt>
      <trkpt lat="62.633652280159" lon="17.982139172202">
        <ele>85.6</ele>
        <time>2017-12-02T11:01:26Z</time>
      </trkpt>
      <trkpt lat="62.633654627091" lon="17.982080498902">
        <ele>85.8</ele>
        <time>2017-12-02T11:01:27Z</time>
      </trkpt>
      <trkpt lat="62.633651944883" lon="17.98199349478">
        <ele>85.8</ele>
        <time>2017-12-02T11:01:28Z</time>
      </trkpt>
      <trkpt lat="62.633649262675" lon="17.981952255832">
        <ele>85.8</ele>
        <time>2017-12-02T11:01:29Z</time>
      </trkpt>
      <trkpt lat="62.633660326783" lon="17.981889391582">
        <ele>85.8</ele>
        <time>2017-12-02T11:01:30Z</time>
      </trkpt>
      <trkpt lat="62.633656974023" lon="17.981853349412">
        <ele>85.8</ele>
        <time>2017-12-02T11:01:31Z</time>
      </trkpt>
      <trkpt lat="62.63366560738" lon="17.981801633089">
        <ele>85.8</ele>
        <time>2017-12-02T11:01:32Z</time>
      </trkpt>
      <trkpt lat="62.633669965968" lon="17.981753185707">
        <ele>85.8</ele>
        <time>2017-12-02T11:01:33Z</time>
      </trkpt>
      <trkpt lat="62.633673402547" lon="17.98168084991">
        <ele>85.8</ele>
        <time>2017-12-02T11:01:34Z</time>
      </trkpt>
      <trkpt lat="62.633677593497" lon="17.981597450005">
        <ele>85.8</ele>
        <time>2017-12-02T11:01:35Z</time>
      </trkpt>
      <trkpt lat="62.633675162746" lon="17.98153751942">
        <ele>85.8</ele>
        <time>2017-12-02T11:01:36Z</time>
      </trkpt>
      <trkpt lat="62.633684466655" lon="17.981493262988">
        <ele>86</ele>
        <time>2017-12-02T11:01:37Z</time>
      </trkpt>
      <trkpt lat="62.633691507451" lon="17.981418328802">
        <ele>86.2</ele>
        <time>2017-12-02T11:01:38Z</time>
      </trkpt>
      <trkpt lat="62.633699805532" lon="17.981367618307">
        <ele>86.2</ele>
        <time>2017-12-02T11:01:39Z</time>
      </trkpt>
      <trkpt lat="62.63371003145" lon="17.981298048537">
        <ele>86.2</ele>
        <time>2017-12-02T11:01:40Z</time>
      </trkpt>
      <trkpt lat="62.633727465802" lon="17.98122571274">
        <ele>86.2</ele>
        <time>2017-12-02T11:01:41Z</time>
      </trkpt>
      <trkpt lat="62.633745822163" lon="17.981162680852">
        <ele>86.2</ele>
        <time>2017-12-02T11:01:42Z</time>
      </trkpt>
      <trkpt lat="62.63376283742" lon="17.981114484927">
        <ele>86.2</ele>
        <time>2017-12-02T11:01:43Z</time>
      </trkpt>
      <trkpt lat="62.633782031971" lon="17.981075844368">
        <ele>86.2</ele>
        <time>2017-12-02T11:01:44Z</time>
      </trkpt>
      <trkpt lat="62.633800975065" lon="17.98103544361">
        <ele>86.2</ele>
        <time>2017-12-02T11:01:45Z</time>
      </trkpt>
      <trkpt lat="62.633820421073" lon="17.980996803051">
        <ele>86.2</ele>
        <time>2017-12-02T11:01:46Z</time>
      </trkpt>
      <trkpt lat="62.633832239552" lon="17.980947098384">
        <ele>86.4</ele>
        <time>2017-12-02T11:01:47Z</time>
      </trkpt>
      <trkpt lat="62.633844896221" lon="17.980882641573">
        <ele>86.6</ele>
        <time>2017-12-02T11:01:48Z</time>
      </trkpt>
      <trkpt lat="62.633863084944" lon="17.980840899711">
        <ele>86.6</ele>
        <time>2017-12-02T11:01:49Z</time>
      </trkpt>
      <trkpt lat="62.633885716074" lon="17.980790943587">
        <ele>86.8</ele>
        <time>2017-12-02T11:01:50Z</time>
      </trkpt>
      <trkpt lat="62.633901893141" lon="17.980742747662">
        <ele>86.8</ele>
        <time>2017-12-02T11:01:51Z</time>
      </trkpt>
      <trkpt lat="62.633917148199" lon="17.98069932942">
        <ele>86.8</ele>
        <time>2017-12-02T11:01:52Z</time>
      </trkpt>
      <trkpt lat="62.633935839836" lon="17.980645098527">
        <ele>86.8</ele>
        <time>2017-12-02T11:01:53Z</time>
      </trkpt>
      <trkpt lat="62.633946568668" lon="17.980598914258">
        <ele>86.8</ele>
        <time>2017-12-02T11:01:54Z</time>
      </trkpt>
      <trkpt lat="62.633965511762" lon="17.980557759129">
        <ele>87</ele>
        <time>2017-12-02T11:01:55Z</time>
      </trkpt>
      <trkpt lat="62.633987053245" lon="17.980507970643">
        <ele>87</ele>
        <time>2017-12-02T11:01:56Z</time>
      </trkpt>
      <trkpt lat="62.633993926403" lon="17.980461534917">
        <ele>87</ele>
        <time>2017-12-02T11:01:57Z</time>
      </trkpt>
      <trkpt lat="62.634013959144" lon="17.980415350648">
        <ele>87.2</ele>
        <time>2017-12-02T11:01:58Z</time>
      </trkpt>
      <trkpt lat="62.634027956917" lon="17.980360868298">
        <ele>87.2</ele>
        <time>2017-12-02T11:01:59Z</time>
      </trkpt>
      <trkpt lat="62.634049749857" lon="17.980313007649">
        <ele>87.4</ele>
        <time>2017-12-02T11:02:00Z</time>
      </trkpt>
      <trkpt lat="62.634068190037" lon="17.980274786185">
        <ele>87.4</ele>
        <time>2017-12-02T11:02:01Z</time>
      </trkpt>
      <trkpt lat="62.634090318253" lon="17.980236732359">
        <ele>87.8</ele>
        <time>2017-12-02T11:02:02Z</time>
      </trkpt>
      <trkpt lat="62.634112446469" lon="17.980196834515">
        <ele>87.8</ele>
        <time>2017-12-02T11:02:03Z</time>
      </trkpt>
      <trkpt lat="62.634136251065" lon="17.980149895875">
        <ele>87.8</ele>
        <time>2017-12-02T11:02:04Z</time>
      </trkpt>
      <trkpt lat="62.634151003209" lon="17.980107818737">
        <ele>87.8</ele>
        <time>2017-12-02T11:02:05Z</time>
      </trkpt>
      <trkpt lat="62.63418109423" lon="17.980072950033">
        <ele>87.8</ele>
        <time>2017-12-02T11:02:06Z</time>
      </trkpt>
      <trkpt lat="62.634193164166" lon="17.980024418832">
        <ele>87.4</ele>
        <time>2017-12-02T11:02:07Z</time>
      </trkpt>
      <trkpt lat="62.634214538011" lon="17.979978402201">
        <ele>87.4</ele>
        <time>2017-12-02T11:02:08Z</time>
      </trkpt>
      <trkpt lat="62.634230212164" lon="17.979944790782">
        <ele>87.4</ele>
        <time>2017-12-02T11:02:09Z</time>
      </trkpt>
      <trkpt lat="62.634250747819" lon="17.979885027835">
        <ele>87.2</ele>
        <time>2017-12-02T11:02:10Z</time>
      </trkpt>
      <trkpt lat="62.634273211311" lon="17.979835406987">
        <ele>87.4</ele>
        <time>2017-12-02T11:02:11Z</time>
      </trkpt>
      <trkpt lat="62.634281844668" lon="17.979775476402">
        <ele>87.4</ele>
        <time>2017-12-02T11:02:12Z</time>
      </trkpt>
      <trkpt lat="62.634294668975" lon="17.979719904405">
        <ele>87.6</ele>
        <time>2017-12-02T11:02:13Z</time>
      </trkpt>
      <trkpt lat="62.634311265137" lon="17.979659051811">
        <ele>87.4</ele>
        <time>2017-12-02T11:02:14Z</time>
      </trkpt>
      <trkpt lat="62.634322832159" lon="17.979596606656">
        <ele>87.4</ele>
        <time>2017-12-02T11:02:15Z</time>
      </trkpt>
      <trkpt lat="62.634340098873" lon="17.979537514261">
        <ele>87.4</ele>
        <time>2017-12-02T11:02:16Z</time>
      </trkpt>
      <trkpt lat="62.634347223488" lon="17.979469956147">
        <ele>87.4</ele>
        <time>2017-12-02T11:02:17Z</time>
      </trkpt>
      <trkpt lat="62.634352168809" lon="17.97941606053">
        <ele>87.2</ele>
        <time>2017-12-02T11:02:18Z</time>
      </trkpt>
      <trkpt lat="62.634364825478" lon="17.979353783013">
        <ele>87.2</ele>
        <time>2017-12-02T11:02:19Z</time>
      </trkpt>
      <trkpt lat="62.634372620645" lon="17.979288990926">
        <ele>87.2</ele>
        <time>2017-12-02T11:02:20Z</time>
      </trkpt>
      <trkpt lat="62.634381002545" lon="17.979230569083">
        <ele>87.2</ele>
        <time>2017-12-02T11:02:21Z</time>
      </trkpt>
      <trkpt lat="62.63439231811" lon="17.97917633819">
        <ele>87.2</ele>
        <time>2017-12-02T11:02:22Z</time>
      </trkpt>
      <trkpt lat="62.634400364734" lon="17.97913023774">
        <ele>87.4</ele>
        <time>2017-12-02T11:02:23Z</time>
      </trkpt>
      <trkpt lat="62.634414613964" lon="17.979077347951">
        <ele>87.4</ele>
        <time>2017-12-02T11:02:24Z</time>
      </trkpt>
      <trkpt lat="62.634430371936" lon="17.979020015755">
        <ele>87.4</ele>
        <time>2017-12-02T11:02:25Z</time>
      </trkpt>
      <trkpt lat="62.63444093313" lon="17.978966120138">
        <ele>87.4</ele>
        <time>2017-12-02T11:02:26Z</time>
      </trkpt>
      <trkpt lat="62.634449063573" lon="17.978912643616">
        <ele>87.4</ele>
        <time>2017-12-02T11:02:27Z</time>
      </trkpt>
      <trkpt lat="62.634459289491" lon="17.978858328904">
        <ele>87.4</ele>
        <time>2017-12-02T11:02:28Z</time>
      </trkpt>
      <trkpt lat="62.634472868169" lon="17.978822789648">
        <ele>87.2</ele>
        <time>2017-12-02T11:02:29Z</time>
      </trkpt>
      <trkpt lat="62.634490051064" lon="17.978804936201">
        <ele>87.2</ele>
        <time>2017-12-02T11:02:30Z</time>
      </trkpt>
      <trkpt lat="62.634503462104" lon="17.978797811586">
        <ele>87.2</ele>
        <time>2017-12-02T11:02:31Z</time>
      </trkpt>
      <trkpt lat="62.634512766013" lon="17.978795548473">
        <ele>87.2</ele>
        <time>2017-12-02T11:02:32Z</time>
      </trkpt>
      <trkpt lat="62.634520896456" lon="17.978793033903">
        <ele>87.2</ele>
        <time>2017-12-02T11:02:33Z</time>
      </trkpt>
      <trkpt lat="62.634508323606" lon="17.978796973396">
        <ele>87.2</ele>
        <time>2017-12-02T11:02:34Z</time>
      </trkpt>
      <trkpt lat="62.634678727633" lon="17.978788172401">
        <ele>87.4</ele>
        <time>2017-12-02T11:02:51Z</time>
      </trkpt>
      <trkpt lat="62.634701191125" lon="17.97879999088">
        <ele>87.4</ele>
        <time>2017-12-02T11:02:52Z</time>
      </trkpt>
      <trkpt lat="62.634730611594" lon="17.978813234282">
        <ele>87.2</ele>
        <time>2017-12-02T11:02:53Z</time>
      </trkpt>
      <trkpt lat="62.634759948244" lon="17.978826561503">
        <ele>87</ele>
        <time>2017-12-02T11:02:54Z</time>
      </trkpt>
      <trkpt lat="62.634784758668" lon="17.97883603305">
        <ele>86.8</ele>
        <time>2017-12-02T11:02:55Z</time>
      </trkpt>
      <trkpt lat="62.634821303752" lon="17.97885363504">
        <ele>86.8</ele>
        <time>2017-12-02T11:02:56Z</time>
      </trkpt>
      <trkpt lat="62.63485080804" lon="17.97886788427">
        <ele>86.8</ele>
        <time>2017-12-02T11:02:57Z</time>
      </trkpt>
      <trkpt lat="62.634870673143" lon="17.978877188179">
        <ele>86.8</ele>
        <time>2017-12-02T11:02:58Z</time>
      </trkpt>
      <trkpt lat="62.634898752508" lon="17.978882720233">
        <ele>86.6</ele>
        <time>2017-12-02T11:02:59Z</time>
      </trkpt>
      <trkpt lat="62.634927250968" lon="17.978894538712">
        <ele>86.6</ele>
        <time>2017-12-02T11:03:00Z</time>
      </trkpt>
      <trkpt lat="62.634951223202" lon="17.978902836793">
        <ele>86.6</ele>
        <time>2017-12-02T11:03:01Z</time>
      </trkpt>
      <trkpt lat="62.634969914839" lon="17.978905183725">
        <ele>86.4</ele>
        <time>2017-12-02T11:03:02Z</time>
      </trkpt>
      <trkpt lat="62.634988438838" lon="17.978907782114">
        <ele>86.4</ele>
        <time>2017-12-02T11:03:03Z</time>
      </trkpt>
      <trkpt lat="62.635010315597" lon="17.978921696068">
        <ele>86.4</ele>
        <time>2017-12-02T11:03:04Z</time>
      </trkpt>
      <trkpt lat="62.635044513749" lon="17.978937537859">
        <ele>86.2</ele>
        <time>2017-12-02T11:03:05Z</time>
      </trkpt>
      <trkpt lat="62.635065300861" lon="17.978943824284">
        <ele>86</ele>
        <time>2017-12-02T11:03:06Z</time>
      </trkpt>
      <trkpt lat="62.635095056606" lon="17.978956313315">
        <ele>86</ele>
        <time>2017-12-02T11:03:07Z</time>
      </trkpt>
      <trkpt lat="62.635123471247" lon="17.978974753495">
        <ele>86</ele>
        <time>2017-12-02T11:03:08Z</time>
      </trkpt>
      <trkpt lat="62.635144425997" lon="17.978972155106">
        <ele>86</ele>
        <time>2017-12-02T11:03:09Z</time>
      </trkpt>
      <trkpt lat="62.635175271389" lon="17.978978692988">
        <ele>86</ele>
        <time>2017-12-02T11:03:10Z</time>
      </trkpt>
      <trkpt lat="62.635206871152" lon="17.978985147051">
        <ele>86</ele>
        <time>2017-12-02T11:03:11Z</time>
      </trkpt>
      <trkpt lat="62.635234363784" lon="17.978994953874">
        <ele>85.8</ele>
        <time>2017-12-02T11:03:12Z</time>
      </trkpt>
      <trkpt lat="62.635267723746" lon="17.979006269439">
        <ele>85.8</ele>
        <time>2017-12-02T11:03:13Z</time>
      </trkpt>
      <trkpt lat="62.635287588849" lon="17.978997887539">
        <ele>85.6</ele>
        <time>2017-12-02T11:03:14Z</time>
      </trkpt>
      <trkpt lat="62.635315081481" lon="17.978993948046">
        <ele>85.4</ele>
        <time>2017-12-02T11:03:15Z</time>
      </trkpt>
      <trkpt lat="62.635345256321" lon="17.978998055177">
        <ele>85.2</ele>
        <time>2017-12-02T11:03:16Z</time>
      </trkpt>
      <trkpt lat="62.635368306546" lon="17.978999983014">
        <ele>85.2</ele>
        <time>2017-12-02T11:03:17Z</time>
      </trkpt>
      <trkpt lat="62.635396134454" lon="17.978998390453">
        <ele>85.2</ele>
        <time>2017-12-02T11:03:18Z</time>
      </trkpt>
      <trkpt lat="62.635423878543" lon="17.978994199503">
        <ele>85</ele>
        <time>2017-12-02T11:03:19Z</time>
      </trkpt>
      <trkpt lat="62.635454891573" lon="17.97898942182">
        <ele>84.8</ele>
        <time>2017-12-02T11:03:20Z</time>
      </trkpt>
      <trkpt lat="62.635482887119" lon="17.978979866454">
        <ele>84.6</ele>
        <time>2017-12-02T11:03:21Z</time>
      </trkpt>
      <trkpt lat="62.635516163262" lon="17.978979698816">
        <ele>84.4</ele>
        <time>2017-12-02T11:03:22Z</time>
      </trkpt>
      <trkpt lat="62.635548265939" lon="17.978979028264">
        <ele>84.2</ele>
        <time>2017-12-02T11:03:23Z</time>
      </trkpt>
      <trkpt lat="62.635575674752" lon="17.978977184246">
        <ele>84.2</ele>
        <time>2017-12-02T11:03:24Z</time>
      </trkpt>
      <trkpt lat="62.635609034714" lon="17.978975507866">
        <ele>84</ele>
        <time>2017-12-02T11:03:25Z</time>
      </trkpt>
      <trkpt lat="62.635643149047" lon="17.978972825658">
        <ele>83.8</ele>
        <time>2017-12-02T11:03:26Z</time>
      </trkpt>
      <trkpt lat="62.63567139605" lon="17.978970897821">
        <ele>83.8</ele>
        <time>2017-12-02T11:03:27Z</time>
      </trkpt>
      <trkpt lat="62.635701906166" lon="17.97898020173">
        <ele>83.6</ele>
        <time>2017-12-02T11:03:28Z</time>
      </trkpt>
      <trkpt lat="62.635730572264" lon="17.97897936354">
        <ele>83.6</ele>
        <time>2017-12-02T11:03:29Z</time>
      </trkpt>
      <trkpt lat="62.635759825095" lon="17.978976346056">
        <ele>83.4</ele>
        <time>2017-12-02T11:03:30Z</time>
      </trkpt>
      <trkpt lat="62.635786898632" lon="17.978977854798">
        <ele>83.4</ele>
        <time>2017-12-02T11:03:31Z</time>
      </trkpt>
      <trkpt lat="62.635811876694" lon="17.978977938617">
        <ele>83.2</ele>
        <time>2017-12-02T11:03:32Z</time>
      </trkpt>
      <trkpt lat="62.635832999082" lon="17.978985398508">
        <ele>83.2</ele>
        <time>2017-12-02T11:03:33Z</time>
      </trkpt>
      <trkpt lat="62.635861748999" lon="17.978991517295">
        <ele>83</ele>
        <time>2017-12-02T11:03:34Z</time>
      </trkpt>
      <trkpt lat="62.635877255514" lon="17.978996043521">
        <ele>83</ele>
        <time>2017-12-02T11:03:35Z</time>
      </trkpt>
      <trkpt lat="62.635893348762" lon="17.979001659394">
        <ele>83</ele>
        <time>2017-12-02T11:03:36Z</time>
      </trkpt>
      <trkpt lat="62.635911034571" lon="17.979005850344">
        <ele>83</ele>
        <time>2017-12-02T11:03:37Z</time>
      </trkpt>
      <trkpt lat="62.63593123495" lon="17.979022278868">
        <ele>83</ele>
        <time>2017-12-02T11:03:38Z</time>
      </trkpt>
      <trkpt lat="62.635944813628" lon="17.979035354632">
        <ele>83</ele>
        <time>2017-12-02T11:03:39Z</time>
      </trkpt>
      <trkpt lat="62.635954368994" lon="17.979034432623">
        <ele>83</ele>
        <time>2017-12-02T11:03:40Z</time>
      </trkpt>
      <trkpt lat="62.63597482083" lon="17.979044909998">
        <ele>83</ele>
        <time>2017-12-02T11:03:41Z</time>
      </trkpt>
      <trkpt lat="62.635992590458" lon="17.979046167283">
        <ele>83.2</ele>
        <time>2017-12-02T11:03:42Z</time>
      </trkpt>
      <trkpt lat="62.636006336774" lon="17.979055890287">
        <ele>83</ele>
        <time>2017-12-02T11:03:43Z</time>
      </trkpt>
      <trkpt lat="62.636018574348" lon="17.979073324639">
        <ele>83</ele>
        <time>2017-12-02T11:03:44Z</time>
      </trkpt>
      <trkpt lat="62.636035421967" lon="17.979099895262">
        <ele>83.2</ele>
        <time>2017-12-02T11:03:45Z</time>
      </trkpt>
      <trkpt lat="62.636044055324" lon="17.979129818645">
        <ele>83.2</ele>
        <time>2017-12-02T11:03:46Z</time>
      </trkpt>
      <trkpt lat="62.636042127487" lon="17.979172733973">
        <ele>83.2</ele>
        <time>2017-12-02T11:03:47Z</time>
      </trkpt>
      <trkpt lat="62.63603433232" lon="17.979217325681">
        <ele>83.4</ele>
        <time>2017-12-02T11:03:48Z</time>
      </trkpt>
      <trkpt lat="62.636031147198" lon="17.979232664558">
        <ele>83.4</ele>
        <time>2017-12-02T11:03:49Z</time>
      </trkpt>
      <trkpt lat="62.636030895741" lon="17.979239453897">
        <ele>83.4</ele>
        <time>2017-12-02T11:03:50Z</time>
      </trkpt>
      <trkpt lat="62.636028884085" lon="17.979241465553">
        <ele>83.4</ele>
        <time>2017-12-02T11:03:51Z</time>
      </trkpt>
      <trkpt lat="62.636028967904" lon="17.979240627363">
        <ele>83.4</ele>
        <time>2017-12-02T11:03:52Z</time>
      </trkpt>
      <trkpt lat="62.636029386999" lon="17.979240627363">
        <ele>83.4</ele>
        <time>2017-12-02T11:03:53Z</time>
      </trkpt>
      <trkpt lat="62.635996446132" lon="17.979699955483">
        <ele>82.8</ele>
        <time>2017-12-02T11:04:08Z</time>
      </trkpt>
      <trkpt lat="62.63599661377" lon="17.979791988745">
        <ele>82.8</ele>
        <time>2017-12-02T11:04:09Z</time>
      </trkpt>
      <trkpt lat="62.635998038693" lon="17.979970690853">
        <ele>82.6</ele>
        <time>2017-12-02T11:04:10Z</time>
      </trkpt>
      <trkpt lat="62.636008767525" lon="17.980103543968">
        <ele>82</ele>
        <time>2017-12-02T11:04:11Z</time>
      </trkpt>
      <trkpt lat="62.636027878257" lon="17.980222902224">
        <ele>81.4</ele>
        <time>2017-12-02T11:04:12Z</time>
      </trkpt>
      <trkpt lat="62.636044977333" lon="17.980340667919">
        <ele>80.8</ele>
        <time>2017-12-02T11:04:13Z</time>
      </trkpt>
      <trkpt lat="62.636064088065" lon="17.980447956239">
        <ele>79.8</ele>
        <time>2017-12-02T11:04:14Z</time>
      </trkpt>
      <trkpt lat="62.636083031159" lon="17.980554574007">
        <ele>79</ele>
        <time>2017-12-02T11:04:15Z</time>
      </trkpt>
      <trkpt lat="62.63610222571" lon="17.98066161087">
        <ele>78.2</ele>
        <time>2017-12-02T11:04:16Z</time>
      </trkpt>
      <trkpt lat="62.636119157148" lon="17.980757583625">
        <ele>77.2</ele>
        <time>2017-12-02T11:04:17Z</time>
      </trkpt>
      <trkpt lat="62.636141704459" lon="17.980851209448">
        <ele>76.8</ele>
        <time>2017-12-02T11:04:18Z</time>
      </trkpt>
      <trkpt lat="62.636158468259" lon="17.980940057588">
        <ele>76.6</ele>
        <time>2017-12-02T11:04:19Z</time>
      </trkpt>
      <trkpt lat="62.636179506828" lon="17.981048435555">
        <ele>76.4</ele>
        <time>2017-12-02T11:04:20Z</time>
      </trkpt>
      <trkpt lat="62.636192666411" lon="17.981134517668">
        <ele>76.2</ele>
        <time>2017-12-02T11:04:21Z</time>
      </trkpt>
      <trkpt lat="62.636205155442" lon="17.981223701084">
        <ele>75.8</ele>
        <time>2017-12-02T11:04:22Z</time>
      </trkpt>
      <trkpt lat="62.636203981976" lon="17.981339203666">
        <ele>75.8</ele>
        <time>2017-12-02T11:04:23Z</time>
      </trkpt>
      <trkpt lat="62.636222170699" lon="17.98143358386">
        <ele>75.8</ele>
        <time>2017-12-02T11:04:24Z</time>
      </trkpt>
      <trkpt lat="62.636230384961" lon="17.981511200254">
        <ele>76</ele>
        <time>2017-12-02T11:04:25Z</time>
      </trkpt>
      <trkpt lat="62.636248238408" lon="17.981588229915">
        <ele>76</ele>
        <time>2017-12-02T11:04:26Z</time>
      </trkpt>
      <trkpt lat="62.636250417702" lon="17.981669618164">
        <ele>76.2</ele>
        <time>2017-12-02T11:04:27Z</time>
      </trkpt>
      <trkpt lat="62.636256787946" lon="17.981752012241">
        <ele>76.4</ele>
        <time>2017-12-02T11:04:28Z</time>
      </trkpt>
      <trkpt lat="62.636262739095" lon="17.981827449341">
        <ele>76.4</ele>
        <time>2017-12-02T11:04:29Z</time>
      </trkpt>
      <trkpt lat="62.636271959185" lon="17.981924930838">
        <ele>76.6</ele>
        <time>2017-12-02T11:04:30Z</time>
      </trkpt>
      <trkpt lat="62.636283945302" lon="17.981992740409">
        <ele>76.4</ele>
        <time>2017-12-02T11:04:31Z</time>
      </trkpt>
      <trkpt lat="62.636288722985" lon="17.982084689852">
        <ele>76.4</ele>
        <time>2017-12-02T11:04:32Z</time>
      </trkpt>
      <trkpt lat="62.636291572831" lon="17.98216532373">
        <ele>76.4</ele>
        <time>2017-12-02T11:04:33Z</time>
      </trkpt>
      <trkpt lat="62.636294841772" lon="17.982235815509">
        <ele>76.2</ele>
        <time>2017-12-02T11:04:34Z</time>
      </trkpt>
      <trkpt lat="62.636307833717" lon="17.98231787431">
        <ele>76.2</ele>
        <time>2017-12-02T11:04:35Z</time>
      </trkpt>
      <trkpt lat="62.636303558948" lon="17.982383420768">
        <ele>76.2</ele>
        <time>2017-12-02T11:04:36Z</time>
      </trkpt>
      <trkpt lat="62.636299116541" lon="17.982459276963">
        <ele>76</ele>
        <time>2017-12-02T11:04:37Z</time>
      </trkpt>
      <trkpt lat="62.636299116541" lon="17.982530942208">
        <ele>76</ele>
        <time>2017-12-02T11:04:38Z</time>
      </trkpt>
      <trkpt lat="62.636292913935" lon="17.982596656304">
        <ele>76</ele>
        <time>2017-12-02T11:04:39Z</time>
      </trkpt>
      <trkpt lat="62.63629920036" lon="17.982667483359">
        <ele>76</ele>
        <time>2017-12-02T11:04:40Z</time>
      </trkpt>
      <trkpt lat="62.636293752125" lon="17.982727581582">
        <ele>76</ele>
        <time>2017-12-02T11:04:41Z</time>
      </trkpt>
      <trkpt lat="62.636287884795" lon="17.982794888239">
        <ele>76</ele>
        <time>2017-12-02T11:04:42Z</time>
      </trkpt>
      <trkpt lat="62.636288136252" lon="17.98284844858">
        <ele>76.2</ele>
        <time>2017-12-02T11:04:43Z</time>
      </trkpt>
      <trkpt lat="62.636281682189" lon="17.982919359454">
        <ele>76.2</ele>
        <time>2017-12-02T11:04:44Z</time>
      </trkpt>
      <trkpt lat="62.636281179275" lon="17.982958419108">
        <ele>76.2</ele>
        <time>2017-12-02T11:04:45Z</time>
      </trkpt>
      <trkpt lat="62.636283107112" lon="17.983020361349">
        <ele>76.2</ele>
        <time>2017-12-02T11:04:46Z</time>
      </trkpt>
      <trkpt lat="62.636284532035" lon="17.983088841472">
        <ele>76.2</ele>
        <time>2017-12-02T11:04:47Z</time>
      </trkpt>
      <trkpt lat="62.636291237555" lon="17.983144664926">
        <ele>76.4</ele>
        <time>2017-12-02T11:04:48Z</time>
      </trkpt>
      <trkpt lat="62.636289812632" lon="17.983200991294">
        <ele>76.4</ele>
        <time>2017-12-02T11:04:49Z</time>
      </trkpt>
      <trkpt lat="62.636298110713" lon="17.983241978785">
        <ele>76.4</ele>
        <time>2017-12-02T11:04:50Z</time>
      </trkpt>
      <trkpt lat="62.636292243383" lon="17.983308363433">
        <ele>76.4</ele>
        <time>2017-12-02T11:04:51Z</time>
      </trkpt>
      <trkpt lat="62.636296350514" lon="17.983352871322">
        <ele>76.4</ele>
        <time>2017-12-02T11:04:52Z</time>
      </trkpt>
      <trkpt lat="62.636291572831" lon="17.98341506502">
        <ele>76.4</ele>
        <time>2017-12-02T11:04:53Z</time>
      </trkpt>
      <trkpt lat="62.636287884795" lon="17.983468122447">
        <ele>76.4</ele>
        <time>2017-12-02T11:04:54Z</time>
      </trkpt>
      <trkpt lat="62.636284196759" lon="17.983506595368">
        <ele>76.2</ele>
        <time>2017-12-02T11:04:55Z</time>
      </trkpt>
      <trkpt lat="62.63627740742" lon="17.983576081319">
        <ele>76.4</ele>
        <time>2017-12-02T11:04:56Z</time>
      </trkpt>
      <trkpt lat="62.636268941701" lon="17.983634754619">
        <ele>76.4</ele>
        <time>2017-12-02T11:04:57Z</time>
      </trkpt>
      <trkpt lat="62.636260559801" lon="17.983673478997">
        <ele>76.6</ele>
        <time>2017-12-02T11:04:58Z</time>
      </trkpt>
      <trkpt lat="62.636251088254" lon="17.983719244171">
        <ele>76.6</ele>
        <time>2017-12-02T11:04:59Z</time>
      </trkpt>
      <trkpt lat="62.636248489865" lon="17.983754196694">
        <ele>77</ele>
        <time>2017-12-02T11:05:00Z</time>
      </trkpt>
      <trkpt lat="62.636238180128" lon="17.983800464782">
        <ele>77</ele>
        <time>2017-12-02T11:05:01Z</time>
      </trkpt>
      <trkpt lat="62.636232228979" lon="17.983845307947">
        <ele>77.2</ele>
        <time>2017-12-02T11:05:02Z</time>
      </trkpt>
      <trkpt lat="62.636234492092" lon="17.983883864687">
        <ele>77.2</ele>
        <time>2017-12-02T11:05:03Z</time>
      </trkpt>
      <trkpt lat="62.636223679441" lon="17.983939352865">
        <ele>77.2</ele>
        <time>2017-12-02T11:05:04Z</time>
      </trkpt>
      <trkpt lat="62.636228540943" lon="17.983987464971">
        <ele>77.4</ele>
        <time>2017-12-02T11:05:05Z</time>
      </trkpt>
      <trkpt lat="62.636217309197" lon="17.984034738887">
        <ele>77.6</ele>
        <time>2017-12-02T11:05:06Z</time>
      </trkpt>
      <trkpt lat="62.636214124075" lon="17.984068601763">
        <ele>77.6</ele>
        <time>2017-12-02T11:05:07Z</time>
      </trkpt>
      <trkpt lat="62.636210519858" lon="17.984106655589">
        <ele>77.6</ele>
        <time>2017-12-02T11:05:08Z</time>
      </trkpt>
      <trkpt lat="62.636205909813" lon="17.984141021379">
        <ele>77.6</ele>
        <time>2017-12-02T11:05:09Z</time>
      </trkpt>
      <trkpt lat="62.636198198465" lon="17.984174213703">
        <ele>77.8</ele>
        <time>2017-12-02T11:05:10Z</time>
      </trkpt>
      <trkpt lat="62.636190319479" lon="17.984227438768">
        <ele>77.8</ele>
        <time>2017-12-02T11:05:11Z</time>
      </trkpt>
      <trkpt lat="62.636193085506" lon="17.984271024648">
        <ele>77.6</ele>
        <time>2017-12-02T11:05:12Z</time>
      </trkpt>
      <trkpt lat="62.636189481289" lon="17.984315867813">
        <ele>77.8</ele>
        <time>2017-12-02T11:05:13Z</time>
      </trkpt>
      <trkpt lat="62.636187888728" lon="17.984365907756">
        <ele>77.8</ele>
        <time>2017-12-02T11:05:14Z</time>
      </trkpt>
      <trkpt lat="62.636188810737" lon="17.984403207211">
        <ele>77.8</ele>
        <time>2017-12-02T11:05:15Z</time>
      </trkpt>
      <trkpt lat="62.636186128529" lon="17.984465149452">
        <ele>77.8</ele>
        <time>2017-12-02T11:05:16Z</time>
      </trkpt>
      <trkpt lat="62.636187301995" lon="17.984511166083">
        <ele>78</ele>
        <time>2017-12-02T11:05:17Z</time>
      </trkpt>
      <trkpt lat="62.636181099389" lon="17.984553829954">
        <ele>78</ele>
        <time>2017-12-02T11:05:18Z</time>
      </trkpt>
      <trkpt lat="62.636177327534" lon="17.98460445663">
        <ele>78</ele>
        <time>2017-12-02T11:05:19Z</time>
      </trkpt>
      <trkpt lat="62.636176992258" lon="17.984642007542">
        <ele>78.2</ele>
        <time>2017-12-02T11:05:20Z</time>
      </trkpt>
      <trkpt lat="62.636172549851" lon="17.9846824083">
        <ele>78.2</ele>
        <time>2017-12-02T11:05:21Z</time>
      </trkpt>
      <trkpt lat="62.636179087733" lon="17.984721970868">
        <ele>78.2</ele>
        <time>2017-12-02T11:05:22Z</time>
      </trkpt>
      <trkpt lat="62.636172549851" lon="17.984776201761">
        <ele>78.6</ele>
        <time>2017-12-02T11:05:23Z</time>
      </trkpt>
      <trkpt lat="62.636172214575" lon="17.984824816781">
        <ele>78.6</ele>
        <time>2017-12-02T11:05:24Z</time>
      </trkpt>
      <trkpt lat="62.636167772168" lon="17.984866055729">
        <ele>78.8</ele>
        <time>2017-12-02T11:05:25Z</time>
      </trkpt>
      <trkpt lat="62.636170789652" lon="17.984917017681">
        <ele>79</ele>
        <time>2017-12-02T11:05:26Z</time>
      </trkpt>
      <trkpt lat="62.636171879299" lon="17.984954568593">
        <ele>78.8</ele>
        <time>2017-12-02T11:05:27Z</time>
      </trkpt>
      <trkpt lat="62.636169783824" lon="17.985008212753">
        <ele>79</ele>
        <time>2017-12-02T11:05:28Z</time>
      </trkpt>
      <trkpt lat="62.636171208747" lon="17.985032604082">
        <ele>79</ele>
        <time>2017-12-02T11:05:29Z</time>
      </trkpt>
      <trkpt lat="62.636172885127" lon="17.985085074776">
        <ele>79</ele>
        <time>2017-12-02T11:05:30Z</time>
      </trkpt>
      <trkpt lat="62.636170873471" lon="17.985118937652">
        <ele>79</ele>
        <time>2017-12-02T11:05:31Z</time>
      </trkpt>
      <trkpt lat="62.636164419408" lon="17.985162523532">
        <ele>79.2</ele>
        <time>2017-12-02T11:05:32Z</time>
      </trkpt>
      <trkpt lat="62.636165509055" lon="17.985175934572">
        <ele>79.2</ele>
        <time>2017-12-02T11:05:33Z</time>
      </trkpt>
      <trkpt lat="62.6361617372" lon="17.985231590388">
        <ele>79.2</ele>
        <time>2017-12-02T11:05:34Z</time>
      </trkpt>
      <trkpt lat="62.636163078304" lon="17.985287246204">
        <ele>79.2</ele>
        <time>2017-12-02T11:05:35Z</time>
      </trkpt>
      <trkpt lat="62.63615586987" lon="17.98532613822">
        <ele>79.2</ele>
        <time>2017-12-02T11:05:36Z</time>
      </trkpt>
      <trkpt lat="62.636149834902" lon="17.985377854543">
        <ele>79.4</ele>
        <time>2017-12-02T11:05:37Z</time>
      </trkpt>
      <trkpt lat="62.636148829074" lon="17.985417165654">
        <ele>79.4</ele>
        <time>2017-12-02T11:05:38Z</time>
      </trkpt>
      <trkpt lat="62.636141536821" lon="17.985461757362">
        <ele>79.6</ele>
        <time>2017-12-02T11:05:39Z</time>
      </trkpt>
      <trkpt lat="62.636143967572" lon="17.985510875296">
        <ele>79.6</ele>
        <time>2017-12-02T11:05:40Z</time>
      </trkpt>
      <trkpt lat="62.636131059446" lon="17.985557059565">
        <ele>79.8</ele>
        <time>2017-12-02T11:05:41Z</time>
      </trkpt>
      <trkpt lat="62.6361282096" lon="17.98559435902">
        <ele>79.8</ele>
        <time>2017-12-02T11:05:42Z</time>
      </trkpt>
      <trkpt lat="62.636120162976" lon="17.9856379449">
        <ele>79.8</ele>
        <time>2017-12-02T11:05:43Z</time>
      </trkpt>
      <trkpt lat="62.636107673945" lon="17.985670299034">
        <ele>80</ele>
        <time>2017-12-02T11:05:44Z</time>
      </trkpt>
      <trkpt lat="62.636102477167" lon="17.985706341204">
        <ele>80</ele>
        <time>2017-12-02T11:05:45Z</time>
      </trkpt>
      <trkpt lat="62.636084791358" lon="17.985742970107">
        <ele>80</ele>
        <time>2017-12-02T11:05:46Z</time>
      </trkpt>
      <trkpt lat="62.636078002019" lon="17.985771133291">
        <ele>80</ele>
        <time>2017-12-02T11:05:47Z</time>
      </trkpt>
      <trkpt lat="62.636063920427" lon="17.985805750538">
        <ele>80.2</ele>
        <time>2017-12-02T11:05:48Z</time>
      </trkpt>
      <trkpt lat="62.636055454708" lon="17.985828130211">
        <ele>80.2</ele>
        <time>2017-12-02T11:05:49Z</time>
      </trkpt>
      <trkpt lat="62.636040786383" lon="17.985862998915">
        <ele>80.4</ele>
        <time>2017-12-02T11:05:50Z</time>
      </trkpt>
      <trkpt lat="62.636022346203" lon="17.985884456579">
        <ele>80.4</ele>
        <time>2017-12-02T11:05:51Z</time>
      </trkpt>
      <trkpt lat="62.636003822204" lon="17.985895520687">
        <ele>80.4</ele>
        <time>2017-12-02T11:05:52Z</time>
      </trkpt>
      <trkpt lat="62.63598823187" lon="17.985921839853">
        <ele>80.6</ele>
        <time>2017-12-02T11:05:53Z</time>
      </trkpt>
      <trkpt lat="62.635965768378" lon="17.985936256721">
        <ele>80.6</ele>
        <time>2017-12-02T11:05:54Z</time>
      </trkpt>
      <trkpt lat="62.635946406189" lon="17.985949248666">
        <ele>80.8</ele>
        <time>2017-12-02T11:05:55Z</time>
      </trkpt>
      <trkpt lat="62.635926373448" lon="17.985959474584">
        <ele>80.8</ele>
        <time>2017-12-02T11:05:56Z</time>
      </trkpt>
      <trkpt lat="62.635919332652" lon="17.985963581715">
        <ele>80.8</ele>
        <time>2017-12-02T11:05:57Z</time>
      </trkpt>
      <trkpt lat="62.635895108961" lon="17.98597573547">
        <ele>81</ele>
        <time>2017-12-02T11:05:58Z</time>
      </trkpt>
      <trkpt lat="62.635874070392" lon="17.985990739071">
        <ele>81</ele>
        <time>2017-12-02T11:05:59Z</time>
      </trkpt>
      <trkpt lat="62.635858731515" lon="17.986005658853">
        <ele>81</ele>
        <time>2017-12-02T11:06:00Z</time>
      </trkpt>
      <trkpt lat="62.635840123697" lon="17.98601345402">
        <ele>81</ele>
        <time>2017-12-02T11:06:01Z</time>
      </trkpt>
      <trkpt lat="62.635823024621" lon="17.986036420426">
        <ele>81</ele>
        <time>2017-12-02T11:06:02Z</time>
      </trkpt>
      <trkpt lat="62.63579880093" lon="17.986051843122">
        <ele>81.2</ele>
        <time>2017-12-02T11:06:03Z</time>
      </trkpt>
      <trkpt lat="62.635778432913" lon="17.986092830613">
        <ele>81.2</ele>
        <time>2017-12-02T11:06:04Z</time>
      </trkpt>
      <trkpt lat="62.635759322181" lon="17.986104984368">
        <ele>81.4</ele>
        <time>2017-12-02T11:06:05Z</time>
      </trkpt>
      <trkpt lat="62.635737696879" lon="17.986136751769">
        <ele>81.4</ele>
        <time>2017-12-02T11:06:06Z</time>
      </trkpt>
      <trkpt lat="62.635730656083" lon="17.986162819478">
        <ele>81.6</ele>
        <time>2017-12-02T11:06:07Z</time>
      </trkpt>
      <trkpt lat="62.635706348573" lon="17.986169022084">
        <ele>81.6</ele>
        <time>2017-12-02T11:06:08Z</time>
      </trkpt>
      <trkpt lat="62.635697296121" lon="17.986185785884">
        <ele>81.6</ele>
        <time>2017-12-02T11:06:09Z</time>
      </trkpt>
      <trkpt lat="62.635690925877" lon="17.986220151674">
        <ele>81.6</ele>
        <time>2017-12-02T11:06:10Z</time>
      </trkpt>
      <trkpt lat="62.635676509009" lon="17.986243537175">
        <ele>81.8</ele>
        <time>2017-12-02T11:06:11Z</time>
      </trkpt>
      <trkpt lat="62.635670390222" lon="17.986284105571">
        <ele>81.8</ele>
        <time>2017-12-02T11:06:12Z</time>
      </trkpt>
      <trkpt lat="62.635656811544" lon="17.986308413081">
        <ele>82</ele>
        <time>2017-12-02T11:06:13Z</time>
      </trkpt>
      <trkpt lat="62.63564792673" lon="17.986346131631">
        <ele>82.2</ele>
        <time>2017-12-02T11:06:14Z</time>
      </trkpt>
      <trkpt lat="62.635629067455" lon="17.986368092209">
        <ele>82.4</ele>
        <time>2017-12-02T11:06:15Z</time>
      </trkpt>
      <trkpt lat="62.635623451582" lon="17.986401871266">
        <ele>82.4</ele>
        <time>2017-12-02T11:06:16Z</time>
      </trkpt>
      <trkpt lat="62.635614985863" lon="17.98642919626">
        <ele>82.6</ele>
        <time>2017-12-02T11:06:17Z</time>
      </trkpt>
      <trkpt lat="62.635597551511" lon="17.986465741344">
        <ele>82.6</ele>
        <time>2017-12-02T11:06:18Z</time>
      </trkpt>
      <trkpt lat="62.635588163783" lon="17.986495077994">
        <ele>82.6</ele>
        <time>2017-12-02T11:06:19Z</time>
      </trkpt>
      <trkpt lat="62.635574920381" lon="17.986552829285">
        <ele>82.6</ele>
        <time>2017-12-02T11:06:20Z</time>
      </trkpt>
      <trkpt lat="62.635562096074" lon="17.986573700216">
        <ele>82.8</ele>
        <time>2017-12-02T11:06:21Z</time>
      </trkpt>
      <trkpt lat="62.635555558192" lon="17.986624075435">
        <ele>82.8</ele>
        <time>2017-12-02T11:06:22Z</time>
      </trkpt>
      <trkpt lat="62.635544158808" lon="17.986642431796">
        <ele>82.8</ele>
        <time>2017-12-02T11:06:23Z</time>
      </trkpt>
      <trkpt lat="62.635536615098" lon="17.986669170057">
        <ele>82.8</ele>
        <time>2017-12-02T11:06:24Z</time>
      </trkpt>
      <trkpt lat="62.635530161035" lon="17.98670328439">
        <ele>83</ele>
        <time>2017-12-02T11:06:25Z</time>
      </trkpt>
      <trkpt lat="62.635512642864" lon="17.986723233312">
        <ele>83</ele>
        <time>2017-12-02T11:06:26Z</time>
      </trkpt>
      <trkpt lat="62.635511217941" lon="17.986758353473">
        <ele>83.2</ele>
        <time>2017-12-02T11:06:27Z</time>
      </trkpt>
      <trkpt lat="62.635494789417" lon="17.98680051443">
        <ele>83.4</ele>
        <time>2017-12-02T11:06:28Z</time>
      </trkpt>
      <trkpt lat="62.635492107209" lon="17.986846782518">
        <ele>83.4</ele>
        <time>2017-12-02T11:06:29Z</time>
      </trkpt>
      <trkpt lat="62.635473667029" lon="17.986881651222">
        <ele>83.6</ele>
        <time>2017-12-02T11:06:30Z</time>
      </trkpt>
      <trkpt lat="62.635467045328" lon="17.986926745844">
        <ele>83.6</ele>
        <time>2017-12-02T11:06:31Z</time>
      </trkpt>
      <trkpt lat="62.635449778614" lon="17.986947030042">
        <ele>83.6</ele>
        <time>2017-12-02T11:06:32Z</time>
      </trkpt>
      <trkpt lat="62.635444162741" lon="17.98698575442">
        <ele>83.6</ele>
        <time>2017-12-02T11:06:33Z</time>
      </trkpt>
      <trkpt lat="62.63543167371" lon="17.987014504337">
        <ele>83.6</ele>
        <time>2017-12-02T11:06:34Z</time>
      </trkpt>
      <trkpt lat="62.635411808607" lon="17.987039650037">
        <ele>83.8</ele>
        <time>2017-12-02T11:06:35Z</time>
      </trkpt>
      <trkpt lat="62.63540820439" lon="17.987072423266">
        <ele>83.6</ele>
        <time>2017-12-02T11:06:36Z</time>
      </trkpt>
      <trkpt lat="62.635390015667" lon="17.987100502631">
        <ele>83.6</ele>
        <time>2017-12-02T11:06:37Z</time>
      </trkpt>
      <trkpt lat="62.635383561604" lon="17.987136209525">
        <ele>83.8</ele>
        <time>2017-12-02T11:06:38Z</time>
      </trkpt>
      <trkpt lat="62.635369899107" lon="17.98716596527">
        <ele>83.8</ele>
        <time>2017-12-02T11:06:39Z</time>
      </trkpt>
      <trkpt lat="62.635349866366" lon="17.987202929449">
        <ele>84</ele>
        <time>2017-12-02T11:06:40Z</time>
      </trkpt>
      <trkpt lat="62.63533863462" lon="17.987232685194">
        <ele>84</ele>
        <time>2017-12-02T11:06:41Z</time>
      </trkpt>
      <trkpt lat="62.63532270901" lon="17.987263698224">
        <ele>84.2</ele>
        <time>2017-12-02T11:06:42Z</time>
      </trkpt>
      <trkpt lat="62.635310387617" lon="17.987292448141">
        <ele>84.2</ele>
        <time>2017-12-02T11:06:43Z</time>
      </trkpt>
      <trkpt lat="62.635293623817" lon="17.987301584412">
        <ele>84.6</ele>
        <time>2017-12-02T11:06:44Z</time>
      </trkpt>
      <trkpt lat="62.635284822822" lon="17.98734449974">
        <ele>84.6</ele>
        <time>2017-12-02T11:06:45Z</time>
      </trkpt>
      <trkpt lat="62.635260515312" lon="17.987363610472">
        <ele>84.8</ele>
        <time>2017-12-02T11:06:46Z</time>
      </trkpt>
      <trkpt lat="62.635255318534" lon="17.98739646752">
        <ele>84.8</ele>
        <time>2017-12-02T11:06:47Z</time>
      </trkpt>
      <trkpt lat="62.635239895838" lon="17.98742664236">
        <ele>84.8</ele>
        <time>2017-12-02T11:06:48Z</time>
      </trkpt>
      <trkpt lat="62.635224556961" lon="17.987456314286">
        <ele>84.8</ele>
        <time>2017-12-02T11:06:49Z</time>
      </trkpt>
      <trkpt lat="62.635210978283" lon="17.987488836058">
        <ele>84.8</ele>
        <time>2017-12-02T11:06:50Z</time>
      </trkpt>
      <trkpt lat="62.635192370465" lon="17.987510126084">
        <ele>84.8</ele>
        <time>2017-12-02T11:06:51Z</time>
      </trkpt>
      <trkpt lat="62.635183653289" lon="17.987546252073">
        <ele>85</ele>
        <time>2017-12-02T11:06:52Z</time>
      </trkpt>
      <trkpt lat="62.63516680567" lon="17.987561171855">
        <ele>85.2</ele>
        <time>2017-12-02T11:06:53Z</time>
      </trkpt>
      <trkpt lat="62.635154316639" lon="17.987603416631">
        <ele>85.4</ele>
        <time>2017-12-02T11:06:54Z</time>
      </trkpt>
      <trkpt lat="62.635133361889" lon="17.987624119924">
        <ele>85.4</ele>
        <time>2017-12-02T11:06:55Z</time>
      </trkpt>
      <trkpt lat="62.635125399084" lon="17.987668376356">
        <ele>85.6</ele>
        <time>2017-12-02T11:06:56Z</time>
      </trkpt>
      <trkpt lat="62.63510645599" lon="17.987680027197">
        <ele>85.6</ele>
        <time>2017-12-02T11:06:57Z</time>
      </trkpt>
      <trkpt lat="62.635095308063" lon="17.987718248661">
        <ele>85.6</ele>
        <time>2017-12-02T11:06:58Z</time>
      </trkpt>
      <trkpt lat="62.635078460444" lon="17.987728223122">
        <ele>85.8</ele>
        <time>2017-12-02T11:06:59Z</time>
      </trkpt>
      <trkpt lat="62.63507041382" lon="17.987765857853">
        <ele>85.8</ele>
        <time>2017-12-02T11:07:00Z</time>
      </trkpt>
      <trkpt lat="62.635053063287" lon="17.987779101255">
        <ele>85.8</ele>
        <time>2017-12-02T11:07:01Z</time>
      </trkpt>
      <trkpt lat="62.635044932844" lon="17.987806090973">
        <ele>86</ele>
        <time>2017-12-02T11:07:02Z</time>
      </trkpt>
      <trkpt lat="62.635025319198" lon="17.987827464818">
        <ele>86</ele>
        <time>2017-12-02T11:07:03Z</time>
      </trkpt>
      <trkpt lat="62.635010818511" lon="17.987860154228">
        <ele>86.2</ele>
        <time>2017-12-02T11:07:04Z</time>
      </trkpt>
      <trkpt lat="62.634996988376" lon="17.987878678227">
        <ele>86</ele>
        <time>2017-12-02T11:07:05Z</time>
      </trkpt>
      <trkpt lat="62.634980224576" lon="17.987905081212">
        <ele>86.2</ele>
        <time>2017-12-02T11:07:06Z</time>
      </trkpt>
      <trkpt lat="62.634965807708" lon="17.987929723998">
        <ele>86.2</ele>
        <time>2017-12-02T11:07:07Z</time>
      </trkpt>
      <trkpt lat="62.634949379184" lon="17.987939111726">
        <ele>86.4</ele>
        <time>2017-12-02T11:07:08Z</time>
      </trkpt>
      <trkpt lat="62.634940913465" lon="17.987959898838">
        <ele>86.4</ele>
        <time>2017-12-02T11:07:09Z</time>
      </trkpt>
      <trkpt lat="62.634918952887" lon="17.987969286566">
        <ele>86.6</ele>
        <time>2017-12-02T11:07:10Z</time>
      </trkpt>
      <trkpt lat="62.634898836327" lon="17.987990576592">
        <ele>86.8</ele>
        <time>2017-12-02T11:07:11Z</time>
      </trkpt>
      <trkpt lat="62.634881150518" lon="17.988002897985">
        <ele>87</ele>
        <time>2017-12-02T11:07:12Z</time>
      </trkpt>
      <trkpt lat="62.634859692854" lon="17.98801169898">
        <ele>87</ele>
        <time>2017-12-02T11:07:13Z</time>
      </trkpt>
      <trkpt lat="62.63484410252" lon="17.988036677042">
        <ele>87</ele>
        <time>2017-12-02T11:07:14Z</time>
      </trkpt>
      <trkpt lat="62.634817783354" lon="17.988045310399">
        <ele>87.2</ele>
        <time>2017-12-02T11:07:15Z</time>
      </trkpt>
      <trkpt lat="62.634800851916" lon="17.988049249892">
        <ele>87.2</ele>
        <time>2017-12-02T11:07:16Z</time>
      </trkpt>
      <trkpt lat="62.634780148623" lon="17.988066851882">
        <ele>87.2</ele>
        <time>2017-12-02T11:07:17Z</time>
      </trkpt>
      <trkpt lat="62.634754667647" lon="17.98805528486">
        <ele>87.4</ele>
        <time>2017-12-02T11:07:18Z</time>
      </trkpt>
      <trkpt lat="62.634735389277" lon="17.988054698127">
        <ele>87.6</ele>
        <time>2017-12-02T11:07:19Z</time>
      </trkpt>
      <trkpt lat="62.634715943269" lon="17.988071378108">
        <ele>87.6</ele>
        <time>2017-12-02T11:07:20Z</time>
      </trkpt>
      <trkpt lat="62.634696161985" lon="17.988075988153">
        <ele>87.6</ele>
        <time>2017-12-02T11:07:21Z</time>
      </trkpt>
      <trkpt lat="62.634670932466" lon="17.988085711157">
        <ele>87.8</ele>
        <time>2017-12-02T11:07:22Z</time>
      </trkpt>
      <trkpt lat="62.634656599417" lon="17.988081687845">
        <ele>88</ele>
        <time>2017-12-02T11:07:23Z</time>
      </trkpt>
      <trkpt lat="62.634637237228" lon="17.988094176876">
        <ele>88</ele>
        <time>2017-12-02T11:07:24Z</time>
      </trkpt>
      <trkpt lat="62.63462282036" lon="17.988105743898">
        <ele>88.2</ele>
        <time>2017-12-02T11:07:25Z</time>
      </trkpt>
      <trkpt lat="62.634602787619" lon="17.988105073346">
        <ele>88.2</ele>
        <time>2017-12-02T11:07:26Z</time>
      </trkpt>
      <trkpt lat="62.634583593068" lon="17.988133655625">
        <ele>88.2</ele>
        <time>2017-12-02T11:07:27Z</time>
      </trkpt>
      <trkpt lat="62.634566913087" lon="17.988143462448">
        <ele>88.2</ele>
        <time>2017-12-02T11:07:28Z</time>
      </trkpt>
      <trkpt lat="62.634551322753" lon="17.988148659226">
        <ele>88.2</ele>
        <time>2017-12-02T11:07:29Z</time>
      </trkpt>
      <trkpt lat="62.634535564781" lon="17.988156538212">
        <ele>88</ele>
        <time>2017-12-02T11:07:30Z</time>
      </trkpt>
      <trkpt lat="62.634508072149" lon="17.988161986447">
        <ele>88.2</ele>
        <time>2017-12-02T11:07:31Z</time>
      </trkpt>
      <trkpt lat="62.634495164023" lon="17.988186796871">
        <ele>88.2</ele>
        <time>2017-12-02T11:07:32Z</time>
      </trkpt>
      <trkpt lat="62.634474125454" lon="17.988183192654">
        <ele>88.2</ele>
        <time>2017-12-02T11:07:33Z</time>
      </trkpt>
      <trkpt lat="62.634451410505" lon="17.988188221794">
        <ele>88.4</ele>
        <time>2017-12-02T11:07:34Z</time>
      </trkpt>
      <trkpt lat="62.634430120479" lon="17.98820029173">
        <ele>88.4</ele>
        <time>2017-12-02T11:07:35Z</time>
      </trkpt>
      <trkpt lat="62.63441159648" lon="17.988203979766">
        <ele>88.4</ele>
        <time>2017-12-02T11:07:36Z</time>
      </trkpt>
      <trkpt lat="62.634389216807" lon="17.988211355838">
        <ele>88.4</ele>
        <time>2017-12-02T11:07:37Z</time>
      </trkpt>
      <trkpt lat="62.634373458835" lon="17.988217558444">
        <ele>88.4</ele>
        <time>2017-12-02T11:07:38Z</time>
      </trkpt>
      <trkpt lat="62.634357533225" lon="17.98820783544">
        <ele>88.4</ele>
        <time>2017-12-02T11:07:39Z</time>
      </trkpt>
      <trkpt lat="62.634336746113" lon="17.988206745793">
        <ele>88.6</ele>
        <time>2017-12-02T11:07:40Z</time>
      </trkpt>
      <trkpt lat="62.63430598454" lon="17.988218145177">
        <ele>88.6</ele>
        <time>2017-12-02T11:07:41Z</time>
      </trkpt>
      <trkpt lat="62.634286203256" lon="17.988215546788">
        <ele>88.6</ele>
        <time>2017-12-02T11:07:42Z</time>
      </trkpt>
      <trkpt lat="62.63426491323" lon="17.988207919259">
        <ele>88.8</ele>
        <time>2017-12-02T11:07:43Z</time>
      </trkpt>
      <trkpt lat="62.63423725296" lon="17.988213870408">
        <ele>88.8</ele>
        <time>2017-12-02T11:07:44Z</time>
      </trkpt>
      <trkpt lat="62.63421797459" lon="17.988226527077">
        <ele>89</ele>
        <time>2017-12-02T11:07:45Z</time>
      </trkpt>
      <trkpt lat="62.634178914936" lon="17.988224431602">
        <ele>89</ele>
        <time>2017-12-02T11:07:46Z</time>
      </trkpt>
      <trkpt lat="62.634166845" lon="17.988231891493">
        <ele>89</ele>
        <time>2017-12-02T11:07:47Z</time>
      </trkpt>
      <trkpt lat="62.634138178902" lon="17.988213870408">
        <ele>89</ele>
        <time>2017-12-02T11:07:48Z</time>
      </trkpt>
      <trkpt lat="62.634117559428" lon="17.988214792417">
        <ele>89.2</ele>
        <time>2017-12-02T11:07:49Z</time>
      </trkpt>
      <trkpt lat="62.634096185583" lon="17.988200375549">
        <ele>89</ele>
        <time>2017-12-02T11:07:50Z</time>
      </trkpt>
      <trkpt lat="62.634075985204" lon="17.988202387205">
        <ele>89</ele>
        <time>2017-12-02T11:07:51Z</time>
      </trkpt>
      <trkpt lat="62.634048241115" lon="17.988203057757">
        <ele>89.2</ele>
        <time>2017-12-02T11:07:52Z</time>
      </trkpt>
      <trkpt lat="62.634028878926" lon="17.98820364449">
        <ele>89.4</ele>
        <time>2017-12-02T11:07:53Z</time>
      </trkpt>
      <trkpt lat="62.634003565588" lon="17.988184282301">
        <ele>89.4</ele>
        <time>2017-12-02T11:07:54Z</time>
      </trkpt>
      <trkpt lat="62.633978838983" lon="17.988165758302">
        <ele>89.6</ele>
        <time>2017-12-02T11:07:55Z</time>
      </trkpt>
      <trkpt lat="62.633957129862" lon="17.988160310067">
        <ele>89.6</ele>
        <time>2017-12-02T11:07:56Z</time>
      </trkpt>
      <trkpt lat="62.633949334695" lon="17.988149413597">
        <ele>89.6</ele>
        <time>2017-12-02T11:07:57Z</time>
      </trkpt>
      <trkpt lat="62.633915890914" lon="17.988124267897">
        <ele>89.8</ele>
        <time>2017-12-02T11:07:58Z</time>
      </trkpt>
      <trkpt lat="62.633893427422" lon="17.988118819662">
        <ele>89.8</ele>
        <time>2017-12-02T11:07:59Z</time>
      </trkpt>
      <trkpt lat="62.633872472672" lon="17.988089147736">
        <ele>90</ele>
        <time>2017-12-02T11:08:00Z</time>
      </trkpt>
      <trkpt lat="62.633850512094" lon="17.988080346741">
        <ele>90.2</ele>
        <time>2017-12-02T11:08:01Z</time>
      </trkpt>
      <trkpt lat="62.633835843769" lon="17.988053776118">
        <ele>90.4</ele>
        <time>2017-12-02T11:08:02Z</time>
      </trkpt>
      <trkpt lat="62.633827126593" lon="17.988044136933">
        <ele>90.4</ele>
        <time>2017-12-02T11:08:03Z</time>
      </trkpt>
      <trkpt lat="62.633799382504" lon="17.988018739776">
        <ele>90.4</ele>
        <time>2017-12-02T11:08:04Z</time>
      </trkpt>
      <trkpt lat="62.633770967863" lon="17.987990576592">
        <ele>90.6</ele>
        <time>2017-12-02T11:08:05Z</time>
      </trkpt>
      <trkpt lat="62.633752024769" lon="17.987977165552">
        <ele>90.6</ele>
        <time>2017-12-02T11:08:06Z</time>
      </trkpt>
      <trkpt lat="62.633729980372" lon="17.987959060648">
        <ele>90.6</ele>
        <time>2017-12-02T11:08:07Z</time>
      </trkpt>
      <trkpt lat="62.633703828844" lon="17.98794045283">
        <ele>90.8</ele>
        <time>2017-12-02T11:08:08Z</time>
      </trkpt>
      <trkpt lat="62.633686981225" lon="17.987913463112">
        <ele>90.8</ele>
        <time>2017-12-02T11:08:09Z</time>
      </trkpt>
      <trkpt lat="62.633667954312" lon="17.987877169485">
        <ele>90.8</ele>
        <time>2017-12-02T11:08:10Z</time>
      </trkpt>
      <trkpt lat="62.633649346494" lon="17.987856130916">
        <ele>91</ele>
        <time>2017-12-02T11:08:11Z</time>
      </trkpt>
      <trkpt lat="62.633632666513" lon="17.98783819365">
        <ele>91</ele>
        <time>2017-12-02T11:08:12Z</time>
      </trkpt>
      <trkpt lat="62.633617411455" lon="17.987812796493">
        <ele>91.2</ele>
        <time>2017-12-02T11:08:13Z</time>
      </trkpt>
      <trkpt lat="62.633598803637" lon="17.987794021037">
        <ele>91.2</ele>
        <time>2017-12-02T11:08:14Z</time>
      </trkpt>
      <trkpt lat="62.633582458932" lon="17.987769629708">
        <ele>91.4</ele>
        <time>2017-12-02T11:08:15Z</time>
      </trkpt>
      <trkpt lat="62.63356502458" lon="17.987742723809">
        <ele>91.4</ele>
        <time>2017-12-02T11:08:16Z</time>
      </trkpt>
      <trkpt lat="62.633543483097" lon="17.987723193982">
        <ele>91.6</ele>
        <time>2017-12-02T11:08:17Z</time>
      </trkpt>
      <trkpt lat="62.633525881107" lon="17.98770324506">
        <ele>91.8</ele>
        <time>2017-12-02T11:08:18Z</time>
      </trkpt>
      <trkpt lat="62.633505932185" lon="17.987671896754">
        <ele>91.8</ele>
        <time>2017-12-02T11:08:19Z</time>
      </trkpt>
      <trkpt lat="62.633486486177" lon="17.987655384411">
        <ele>92</ele>
        <time>2017-12-02T11:08:20Z</time>
      </trkpt>
      <trkpt lat="62.633469638558" lon="17.987625963942">
        <ele>91.8</ele>
        <time>2017-12-02T11:08:21Z</time>
      </trkpt>
      <trkpt lat="62.63344181065" lon="17.987609870694">
        <ele>92</ele>
        <time>2017-12-02T11:08:22Z</time>
      </trkpt>
      <trkpt lat="62.633422113185" lon="17.987575756361">
        <ele>92</ele>
        <time>2017-12-02T11:08:23Z</time>
      </trkpt>
      <trkpt lat="62.633412557819" lon="17.987546252073">
        <ele>92</ele>
        <time>2017-12-02T11:08:24Z</time>
      </trkpt>
      <trkpt lat="62.633392776535" lon="17.987525716418">
        <ele>92.2</ele>
        <time>2017-12-02T11:08:25Z</time>
      </trkpt>
      <trkpt lat="62.63337978459" lon="17.987492524094">
        <ele>92.2</ele>
        <time>2017-12-02T11:08:26Z</time>
      </trkpt>
      <trkpt lat="62.633373581984" lon="17.987447429472">
        <ele>92.4</ele>
        <time>2017-12-02T11:08:27Z</time>
      </trkpt>
      <trkpt lat="62.633356231451" lon="17.987410213836">
        <ele>92.4</ele>
        <time>2017-12-02T11:08:28Z</time>
      </trkpt>
      <trkpt lat="62.633342401316" lon="17.987380374272">
        <ele>92.4</ele>
        <time>2017-12-02T11:08:29Z</time>
      </trkpt>
      <trkpt lat="62.633316668883" lon="17.987315582185">
        <ele>92.6</ele>
        <time>2017-12-02T11:08:30Z</time>
      </trkpt>
      <trkpt lat="62.633305688594" lon="17.987255483962">
        <ele>92.8</ele>
        <time>2017-12-02T11:08:31Z</time>
      </trkpt>
      <trkpt lat="62.633290852631" lon="17.98718189088">
        <ele>93</ele>
        <time>2017-12-02T11:08:32Z</time>
      </trkpt>
      <trkpt lat="62.633272999184" lon="17.987083738831">
        <ele>93</ele>
        <time>2017-12-02T11:08:33Z</time>
      </trkpt>
      <trkpt lat="62.633258917592" lon="17.986987263162">
        <ele>92.4</ele>
        <time>2017-12-02T11:08:34Z</time>
      </trkpt>
      <trkpt lat="62.633250619511" lon="17.986912161338">
        <ele>91.8</ele>
        <time>2017-12-02T11:08:35Z</time>
      </trkpt>
      <trkpt lat="62.633228742752" lon="17.986825995406">
        <ele>91</ele>
        <time>2017-12-02T11:08:36Z</time>
      </trkpt>
      <trkpt lat="62.633198232636" lon="17.986748127555">
        <ele>90.4</ele>
        <time>2017-12-02T11:08:37Z</time>
      </trkpt>
      <trkpt lat="62.633180714465" lon="17.986672858093">
        <ele>90.2</ele>
        <time>2017-12-02T11:08:38Z</time>
      </trkpt>
      <trkpt lat="62.633176020601" lon="17.986589122912">
        <ele>90</ele>
        <time>2017-12-02T11:08:39Z</time>
      </trkpt>
      <trkpt lat="62.633171410556" lon="17.986487618103">
        <ele>90.2</ele>
        <time>2017-12-02T11:08:40Z</time>
      </trkpt>
      <trkpt lat="62.633165710864" lon="17.98642249074">
        <ele>90.2</ele>
        <time>2017-12-02T11:08:41Z</time>
      </trkpt>
      <trkpt lat="62.633162525742" lon="17.986306401425">
        <ele>90.2</ele>
        <time>2017-12-02T11:08:42Z</time>
      </trkpt>
      <trkpt lat="62.633160430267" lon="17.986194419241">
        <ele>90</ele>
        <time>2017-12-02T11:08:43Z</time>
      </trkpt>
      <trkpt lat="62.633164202122" lon="17.98608637655">
        <ele>89.8</ele>
        <time>2017-12-02T11:08:44Z</time>
      </trkpt>
      <trkpt lat="62.633163615389" lon="17.985969700502">
        <ele>89.8</ele>
        <time>2017-12-02T11:08:45Z</time>
      </trkpt>
      <trkpt lat="62.633167219606" lon="17.985855706662">
        <ele>89.4</ele>
        <time>2017-12-02T11:08:46Z</time>
      </trkpt>
      <trkpt lat="62.633163447751" lon="17.985758141346">
        <ele>89</ele>
        <time>2017-12-02T11:08:47Z</time>
      </trkpt>
      <trkpt lat="62.633165459407" lon="17.98565303232">
        <ele>88.8</ele>
        <time>2017-12-02T11:08:48Z</time>
      </trkpt>
      <trkpt lat="62.633160094991" lon="17.985573571908">
        <ele>88.6</ele>
        <time>2017-12-02T11:08:49Z</time>
      </trkpt>
      <trkpt lat="62.63316017881" lon="17.985485813415">
        <ele>88.4</ele>
        <time>2017-12-02T11:08:50Z</time>
      </trkpt>
      <trkpt lat="62.633162777199" lon="17.985405430994">
        <ele>88.2</ele>
        <time>2017-12-02T11:08:51Z</time>
      </trkpt>
      <trkpt lat="62.633175852963" lon="17.985297388303">
        <ele>88</ele>
        <time>2017-12-02T11:08:52Z</time>
      </trkpt>
      <trkpt lat="62.633191359478" lon="17.985189429431">
        <ele>88</ele>
        <time>2017-12-02T11:08:53Z</time>
      </trkpt>
      <trkpt lat="62.633207452726" lon="17.985087086432">
        <ele>88</ele>
        <time>2017-12-02T11:08:54Z</time>
      </trkpt>
      <trkpt lat="62.633231257322" lon="17.9849673929">
        <ele>87.8</ele>
        <time>2017-12-02T11:08:55Z</time>
      </trkpt>
      <trkpt lat="62.633247099113" lon="17.984843005504">
        <ele>87.4</ele>
        <time>2017-12-02T11:08:56Z</time>
      </trkpt>
      <trkpt lat="62.633245003638" lon="17.984812914483">
        <ele>87.2</ele>
        <time>2017-12-02T11:08:57Z</time>
      </trkpt>
      <trkpt lat="62.633266042207" lon="17.984668242889">
        <ele>86.8</ele>
        <time>2017-12-02T11:08:58Z</time>
      </trkpt>
      <trkpt lat="62.633281883998" lon="17.984561289845">
        <ele>86.4</ele>
        <time>2017-12-02T11:08:59Z</time>
      </trkpt>
      <trkpt lat="62.633297306694" lon="17.984483505813">
        <ele>86</ele>
        <time>2017-12-02T11:09:00Z</time>
      </trkpt>
      <trkpt lat="62.633317087978" lon="17.984412930215">
        <ele>85.6</ele>
        <time>2017-12-02T11:09:01Z</time>
      </trkpt>
      <trkpt lat="62.633331672484" lon="17.984372780914">
        <ele>85.4</ele>
        <time>2017-12-02T11:09:02Z</time>
      </trkpt>
      <trkpt lat="62.633351789044" lon="17.984325004084">
        <ele>85.4</ele>
        <time>2017-12-02T11:09:03Z</time>
      </trkpt>
      <trkpt lat="62.633361679686" lon="17.984274796503">
        <ele>85.6</ele>
        <time>2017-12-02T11:09:04Z</time>
      </trkpt>
      <trkpt lat="62.633354135976" lon="17.984200784326">
        <ele>85.4</ele>
        <time>2017-12-02T11:09:05Z</time>
      </trkpt>
      <trkpt lat="62.63336385898" lon="17.984142111026">
        <ele>85.4</ele>
        <time>2017-12-02T11:09:06Z</time>
      </trkpt>
      <trkpt lat="62.63336804993" lon="17.984087377219">
        <ele>85.4</ele>
        <time>2017-12-02T11:09:07Z</time>
      </trkpt>
      <trkpt lat="62.633368469025" lon="17.984032978688">
        <ele>85.4</ele>
        <time>2017-12-02T11:09:08Z</time>
      </trkpt>
      <trkpt lat="62.633370061586" lon="17.98395821214">
        <ele>85.4</ele>
        <time>2017-12-02T11:09:09Z</time>
      </trkpt>
      <trkpt lat="62.633373581984" lon="17.983906663455">
        <ele>85.4</ele>
        <time>2017-12-02T11:09:10Z</time>
      </trkpt>
      <trkpt lat="62.633381712427" lon="17.983845391766">
        <ele>85</ele>
        <time>2017-12-02T11:09:11Z</time>
      </trkpt>
      <trkpt lat="62.633390513422" lon="17.983794178357">
        <ele>85</ele>
        <time>2017-12-02T11:09:12Z</time>
      </trkpt>
      <trkpt lat="62.633400404064" lon="17.98374028274">
        <ele>85</ele>
        <time>2017-12-02T11:09:13Z</time>
      </trkpt>
      <trkpt lat="62.633416329674" lon="17.9836681984">
        <ele>85</ele>
        <time>2017-12-02T11:09:14Z</time>
      </trkpt>
      <trkpt lat="62.633421861728" lon="17.983615308611">
        <ele>84.8</ele>
        <time>2017-12-02T11:09:15Z</time>
      </trkpt>
      <trkpt lat="62.633430243628" lon="17.983553198732">
        <ele>85</ele>
        <time>2017-12-02T11:09:16Z</time>
      </trkpt>
      <trkpt lat="62.633440301908" lon="17.983503577884">
        <ele>85</ele>
        <time>2017-12-02T11:09:17Z</time>
      </trkpt>
      <trkpt lat="62.633455556966" lon="17.983467703352">
        <ele>85</ele>
        <time>2017-12-02T11:09:18Z</time>
      </trkpt>
      <trkpt lat="62.633470225291" lon="17.983410203518">
        <ele>85</ele>
        <time>2017-12-02T11:09:19Z</time>
      </trkpt>
      <trkpt lat="62.633470057653" lon="17.983337197169">
        <ele>85</ele>
        <time>2017-12-02T11:09:20Z</time>
      </trkpt>
      <trkpt lat="62.633481289399" lon="17.983279613516">
        <ele>85.2</ele>
        <time>2017-12-02T11:09:21Z</time>
      </trkpt>
      <trkpt lat="62.633494281344" lon="17.983205768977">
        <ele>85.2</ele>
        <time>2017-12-02T11:09:22Z</time>
      </trkpt>
      <trkpt lat="62.633499394303" lon="17.983145670754">
        <ele>85.2</ele>
        <time>2017-12-02T11:09:23Z</time>
      </trkpt>
      <trkpt lat="62.633514649361" lon="17.983100576132">
        <ele>85.2</ele>
        <time>2017-12-02T11:09:24Z</time>
      </trkpt>
      <trkpt lat="62.633524037089" lon="17.983047183429">
        <ele>85.2</ele>
        <time>2017-12-02T11:09:25Z</time>
      </trkpt>
      <trkpt lat="62.633536609939" lon="17.982984402998">
        <ele>85.2</ele>
        <time>2017-12-02T11:09:26Z</time>
      </trkpt>
      <trkpt lat="62.633548428418" lon="17.982931680847">
        <ele>85.2</ele>
        <time>2017-12-02T11:09:27Z</time>
      </trkpt>
      <trkpt lat="62.633560079259" lon="17.982882059999">
        <ele>85.2</ele>
        <time>2017-12-02T11:09:28Z</time>
      </trkpt>
      <trkpt lat="62.633577429792" lon="17.982820369215">
        <ele>85.2</ele>
        <time>2017-12-02T11:09:29Z</time>
      </trkpt>
      <trkpt lat="62.633586398425" lon="17.982767227969">
        <ele>85.4</ele>
        <time>2017-12-02T11:09:30Z</time>
      </trkpt>
      <trkpt lat="62.633607353175" lon="17.982706375375">
        <ele>85.4</ele>
        <time>2017-12-02T11:09:31Z</time>
      </trkpt>
      <trkpt lat="62.633607604632" lon="17.982662118943">
        <ele>85.4</ele>
        <time>2017-12-02T11:09:32Z</time>
      </trkpt>
      <trkpt lat="62.633626883002" lon="17.982609899706">
        <ele>85.2</ele>
        <time>2017-12-02T11:09:33Z</time>
      </trkpt>
      <trkpt lat="62.6336304034" lon="17.982552399872">
        <ele>85.2</ele>
        <time>2017-12-02T11:09:34Z</time>
      </trkpt>
      <trkpt lat="62.633639372033" lon="17.982489451803">
        <ele>85.2</ele>
        <time>2017-12-02T11:09:35Z</time>
      </trkpt>
      <trkpt lat="62.633647837752" lon="17.982429772675">
        <ele>85.2</ele>
        <time>2017-12-02T11:09:36Z</time>
      </trkpt>
      <trkpt lat="62.633650855236" lon="17.982371602289">
        <ele>85.2</ele>
        <time>2017-12-02T11:09:37Z</time>
      </trkpt>
      <trkpt lat="62.633651609607" lon="17.982304882365">
        <ele>85</ele>
        <time>2017-12-02T11:09:38Z</time>
      </trkpt>
      <trkpt lat="62.633654962367" lon="17.982254088051">
        <ele>85.2</ele>
        <time>2017-12-02T11:09:39Z</time>
      </trkpt>
      <trkpt lat="62.633667032303" lon="17.982193486914">
        <ele>85.2</ele>
        <time>2017-12-02T11:09:40Z</time>
      </trkpt>
      <trkpt lat="62.633676336212" lon="17.982124839153">
        <ele>85.2</ele>
        <time>2017-12-02T11:09:41Z</time>
      </trkpt>
      <trkpt lat="62.633684718112" lon="17.982071697907">
        <ele>85.2</ele>
        <time>2017-12-02T11:09:42Z</time>
      </trkpt>
      <trkpt lat="62.633686813587" lon="17.98201361134">
        <ele>85.2</ele>
        <time>2017-12-02T11:09:43Z</time>
      </trkpt>
      <trkpt lat="62.633694860211" lon="17.981974803143">
        <ele>85.2</ele>
        <time>2017-12-02T11:09:44Z</time>
      </trkpt>
      <trkpt lat="62.633705421405" lon="17.981911268341">
        <ele>85.4</ele>
        <time>2017-12-02T11:09:45Z</time>
      </trkpt>
      <trkpt lat="62.633707349242" lon="17.981864581158">
        <ele>85.4</ele>
        <time>2017-12-02T11:09:46Z</time>
      </trkpt>
      <trkpt lat="62.633715228228" lon="17.981800124347">
        <ele>85.4</ele>
        <time>2017-12-02T11:09:47Z</time>
      </trkpt>
      <trkpt lat="62.633718078074" lon="17.981741953961">
        <ele>85.4</ele>
        <time>2017-12-02T11:09:48Z</time>
      </trkpt>
      <trkpt lat="62.633718580988" lon="17.981694093312">
        <ele>85.4</ele>
        <time>2017-12-02T11:09:49Z</time>
      </trkpt>
      <trkpt lat="62.633716653151" lon="17.981618572393">
        <ele>85.6</ele>
        <time>2017-12-02T11:09:50Z</time>
      </trkpt>
      <trkpt lat="62.633718580988" lon="17.981579764196">
        <ele>85.6</ele>
        <time>2017-12-02T11:09:51Z</time>
      </trkpt>
      <trkpt lat="62.633728639268" lon="17.981516732308">
        <ele>85.6</ele>
        <time>2017-12-02T11:09:52Z</time>
      </trkpt>
      <trkpt lat="62.633735260969" lon="17.981452610773">
        <ele>85.6</ele>
        <time>2017-12-02T11:09:53Z</time>
      </trkpt>
      <trkpt lat="62.633734422779" lon="17.981388573057">
        <ele>85.6</ele>
        <time>2017-12-02T11:09:54Z</time>
      </trkpt>
      <trkpt lat="62.633745319249" lon="17.981313555052">
        <ele>85.6</ele>
        <time>2017-12-02T11:09:55Z</time>
      </trkpt>
      <trkpt lat="62.633756299538" lon="17.981266029679">
        <ele>85.6</ele>
        <time>2017-12-02T11:09:56Z</time>
      </trkpt>
      <trkpt lat="62.633765184352" lon="17.981218588125">
        <ele>85.6</ele>
        <time>2017-12-02T11:09:57Z</time>
      </trkpt>
      <trkpt lat="62.633777338107" lon="17.981168296725">
        <ele>85.4</ele>
        <time>2017-12-02T11:09:58Z</time>
      </trkpt>
      <trkpt lat="62.633786222921" lon="17.981120268438">
        <ele>85.6</ele>
        <time>2017-12-02T11:09:59Z</time>
      </trkpt>
      <trkpt lat="62.6338064233" lon="17.981076598739">
        <ele>85.6</ele>
        <time>2017-12-02T11:10:00Z</time>
      </trkpt>
      <trkpt lat="62.633826120765" lon="17.981042484406">
        <ele>85.6</ele>
        <time>2017-12-02T11:10:01Z</time>
      </trkpt>
      <trkpt lat="62.633833329199" lon="17.980983224373">
        <ele>85.8</ele>
        <time>2017-12-02T11:10:02Z</time>
      </trkpt>
      <trkpt lat="62.633851517922" lon="17.980947014565">
        <ele>86</ele>
        <time>2017-12-02T11:10:03Z</time>
      </trkpt>
      <trkpt lat="62.633861827659" lon="17.980892196939">
        <ele>86</ele>
        <time>2017-12-02T11:10:04Z</time>
      </trkpt>
      <trkpt lat="62.633881273667" lon="17.980855065122">
        <ele>86.2</ele>
        <time>2017-12-02T11:10:05Z</time>
      </trkpt>
      <trkpt lat="62.633900803494" lon="17.980811479242">
        <ele>86.2</ele>
        <time>2017-12-02T11:10:06Z</time>
      </trkpt>
      <trkpt lat="62.633911532326" lon="17.980782561687">
        <ele>86.4</ele>
        <time>2017-12-02T11:10:07Z</time>
      </trkpt>
      <trkpt lat="62.633936594207" lon="17.980750878105">
        <ele>86.4</ele>
        <time>2017-12-02T11:10:08Z</time>
      </trkpt>
      <trkpt lat="62.633939611691" lon="17.980697150126">
        <ele>86.4</ele>
        <time>2017-12-02T11:10:09Z</time>
      </trkpt>
      <trkpt lat="62.633955285844" lon="17.980646355812">
        <ele>86.4</ele>
        <time>2017-12-02T11:10:10Z</time>
      </trkpt>
      <trkpt lat="62.633968445427" lon="17.980593130747">
        <ele>86.6</ele>
        <time>2017-12-02T11:10:11Z</time>
      </trkpt>
      <trkpt lat="62.633979425716" lon="17.980558345862">
        <ele>86.4</ele>
        <time>2017-12-02T11:10:12Z</time>
      </trkpt>
      <trkpt lat="62.633998536448" lon="17.980503695874">
        <ele>86.6</ele>
        <time>2017-12-02T11:10:13Z</time>
      </trkpt>
      <trkpt lat="62.634004571416" lon="17.98047301812">
        <ele>86.6</ele>
        <time>2017-12-02T11:10:14Z</time>
      </trkpt>
      <trkpt lat="62.634037428464" lon="17.980427588222">
        <ele>86.6</ele>
        <time>2017-12-02T11:10:15Z</time>
      </trkpt>
      <trkpt lat="62.634042876699" lon="17.980386852188">
        <ele>86.6</ele>
        <time>2017-12-02T11:10:16Z</time>
      </trkpt>
      <trkpt lat="62.634063579992" lon="17.980359108099">
        <ele>86.6</ele>
        <time>2017-12-02T11:10:17Z</time>
      </trkpt>
      <trkpt lat="62.634079589421" lon="17.980308649061">
        <ele>86.6</ele>
        <time>2017-12-02T11:10:18Z</time>
      </trkpt>
      <trkpt lat="62.634095347393" lon="17.980277300755">
        <ele>86.6</ele>
        <time>2017-12-02T11:10:19Z</time>
      </trkpt>
      <trkpt lat="62.634119151989" lon="17.980233128142">
        <ele>86.6</ele>
        <time>2017-12-02T11:10:20Z</time>
      </trkpt>
      <trkpt lat="62.634132982124" lon="17.980201360741">
        <ele>86.6</ele>
        <time>2017-12-02T11:10:21Z</time>
      </trkpt>
      <trkpt lat="62.634151170847" lon="17.980157104309">
        <ele>86.8</ele>
        <time>2017-12-02T11:10:22Z</time>
      </trkpt>
      <trkpt lat="62.634167767009" lon="17.980130282229">
        <ele>86.6</ele>
        <time>2017-12-02T11:10:23Z</time>
      </trkpt>
      <trkpt lat="62.634191068691" lon="17.980086193435">
        <ele>86.6</ele>
        <time>2017-12-02T11:10:24Z</time>
      </trkpt>
      <trkpt lat="62.634209089776" lon="17.980041098813">
        <ele>86.6</ele>
        <time>2017-12-02T11:10:25Z</time>
      </trkpt>
      <trkpt lat="62.634233397286" lon="17.980008493222">
        <ele>86.6</ele>
        <time>2017-12-02T11:10:26Z</time>
      </trkpt>
      <trkpt lat="62.634244042299" lon="17.97994914937">
        <ele>86.6</ele>
        <time>2017-12-02T11:10:27Z</time>
      </trkpt>
      <trkpt lat="62.634265583782" lon="17.97991394539">
        <ele>86.6</ele>
        <time>2017-12-02T11:10:28Z</time>
      </trkpt>
      <trkpt lat="62.634278240451" lon="17.979858289574">
        <ele>86.8</ele>
        <time>2017-12-02T11:10:29Z</time>
      </trkpt>
      <trkpt lat="62.634291902948" lon="17.979816296255">
        <ele>86.8</ele>
        <time>2017-12-02T11:10:30Z</time>
      </trkpt>
      <trkpt lat="62.634300368667" lon="17.979766507769">
        <ele>86.6</ele>
        <time>2017-12-02T11:10:31Z</time>
      </trkpt>
      <trkpt lat="62.63431185187" lon="17.979732225798">
        <ele>86.6</ele>
        <time>2017-12-02T11:10:32Z</time>
      </trkpt>
      <trkpt lat="62.634327609842" lon="17.979682772588">
        <ele>86.8</ele>
        <time>2017-12-02T11:10:33Z</time>
      </trkpt>
      <trkpt lat="62.634334566819" lon="17.979653855033">
        <ele>86.6</ele>
        <time>2017-12-02T11:10:34Z</time>
      </trkpt>
      <trkpt lat="62.634357449406" lon="17.97959794776">
        <ele>86.6</ele>
        <time>2017-12-02T11:10:35Z</time>
      </trkpt>
      <trkpt lat="62.634358455234" lon="17.979557211726">
        <ele>86.6</ele>
        <time>2017-12-02T11:10:36Z</time>
      </trkpt>
      <trkpt lat="62.634376979233" lon="17.979494347476">
        <ele>86.6</ele>
        <time>2017-12-02T11:10:37Z</time>
      </trkpt>
      <trkpt lat="62.634388043341" lon="17.979449252854">
        <ele>86.6</ele>
        <time>2017-12-02T11:10:38Z</time>
      </trkpt>
      <trkpt lat="62.634397179612" lon="17.979412037218">
        <ele>86.6</ele>
        <time>2017-12-02T11:10:39Z</time>
      </trkpt>
      <trkpt lat="62.634413775774" lon="17.979343138">
        <ele>86.4</ele>
        <time>2017-12-02T11:10:40Z</time>
      </trkpt>
      <trkpt lat="62.634423750235" lon="17.979286476356">
        <ele>86.4</ele>
        <time>2017-12-02T11:10:41Z</time>
      </trkpt>
      <trkpt lat="62.634432970325" lon="17.979234843852">
        <ele>86.6</ele>
        <time>2017-12-02T11:10:42Z</time>
      </trkpt>
      <trkpt lat="62.634436490723" lon="17.979187486117">
        <ele>86.4</ele>
        <time>2017-12-02T11:10:43Z</time>
      </trkpt>
      <trkpt lat="62.634448728297" lon="17.979139625468">
        <ele>86.6</ele>
        <time>2017-12-02T11:10:44Z</time>
      </trkpt>
      <trkpt lat="62.634457780749" lon="17.979083466738">
        <ele>86.4</ele>
        <time>2017-12-02T11:10:45Z</time>
      </trkpt>
      <trkpt lat="62.63446775521" lon="17.979027056551">
        <ele>86.4</ele>
        <time>2017-12-02T11:10:46Z</time>
      </trkpt>
      <trkpt lat="62.634483094087" lon="17.978966036319">
        <ele>86.4</ele>
        <time>2017-12-02T11:10:47Z</time>
      </trkpt>
      <trkpt lat="62.634490805435" lon="17.978918259489">
        <ele>86.4</ele>
        <time>2017-12-02T11:10:48Z</time>
      </trkpt>
      <trkpt lat="62.634503378285" lon="17.97886620789">
        <ele>86.4</ele>
        <time>2017-12-02T11:10:49Z</time>
      </trkpt>
      <trkpt lat="62.634527099062" lon="17.978829578987">
        <ele>86.6</ele>
        <time>2017-12-02T11:10:50Z</time>
      </trkpt>
      <trkpt lat="62.634544449595" lon="17.978819772164">
        <ele>86.4</ele>
        <time>2017-12-02T11:10:51Z</time>
      </trkpt>
      <trkpt lat="62.634558782644" lon="17.978818850155">
        <ele>86.4</ele>
        <time>2017-12-02T11:10:52Z</time>
      </trkpt>
      <trkpt lat="62.634564314698" lon="17.978819688345">
        <ele>86.4</ele>
        <time>2017-12-02T11:10:53Z</time>
      </trkpt>
      <trkpt lat="62.634559285558" lon="17.978818011965">
        <ele>86.6</ele>
        <time>2017-12-02T11:10:55Z</time>
      </trkpt>
      <trkpt lat="62.6345607943" lon="17.978502852525">
        <ele>86.6</ele>
        <time>2017-12-02T11:11:11Z</time>
      </trkpt>
      <trkpt lat="62.634569427657" lon="17.978440323551">
        <ele>86.8</ele>
        <time>2017-12-02T11:11:12Z</time>
      </trkpt>
      <trkpt lat="62.634578312471" lon="17.978326664987">
        <ele>86.6</ele>
        <time>2017-12-02T11:11:14Z</time>
      </trkpt>
      <trkpt lat="62.634576300815" lon="17.978313505404">
        <ele>86.6</ele>
        <time>2017-12-02T11:11:15Z</time>
      </trkpt>
      <trkpt lat="62.634599183402" lon="17.978155338951">
        <ele>86.4</ele>
        <time>2017-12-02T11:11:16Z</time>
      </trkpt>
      <trkpt lat="62.634610079872" lon="17.97808250024">
        <ele>86.4</ele>
        <time>2017-12-02T11:11:17Z</time>
      </trkpt>
      <trkpt lat="62.634619802876" lon="17.978003794199">
        <ele>86.2</ele>
        <time>2017-12-02T11:11:18Z</time>
      </trkpt>
      <trkpt lat="62.634626927491" lon="17.97794419889">
        <ele>86</ele>
        <time>2017-12-02T11:11:19Z</time>
      </trkpt>
      <trkpt lat="62.634637488685" lon="17.977866079582">
        <ele>85.8</ele>
        <time>2017-12-02T11:11:20Z</time>
      </trkpt>
      <trkpt lat="62.634642685463" lon="17.977814363259">
        <ele>85.4</ele>
        <time>2017-12-02T11:11:21Z</time>
      </trkpt>
      <trkpt lat="62.634651570277" lon="17.977746469869">
        <ele>85.4</ele>
        <time>2017-12-02T11:11:22Z</time>
      </trkpt>
      <trkpt lat="62.634659449263" lon="17.977678995574">
        <ele>85.2</ele>
        <time>2017-12-02T11:11:23Z</time>
      </trkpt>
      <trkpt lat="62.634668753172" lon="17.977622082473">
        <ele>85</ele>
        <time>2017-12-02T11:11:24Z</time>
      </trkpt>
      <trkpt lat="62.634680320194" lon="17.977553518531">
        <ele>85</ele>
        <time>2017-12-02T11:11:25Z</time>
      </trkpt>
      <trkpt lat="62.634691971035" lon="17.977493755584">
        <ele>84.8</ele>
        <time>2017-12-02T11:11:26Z</time>
      </trkpt>
      <trkpt lat="62.634702280772" lon="17.977439776148">
        <ele>85</ele>
        <time>2017-12-02T11:11:27Z</time>
      </trkpt>
      <trkpt lat="62.634715943269" lon="17.977372050396">
        <ele>84.8</ele>
        <time>2017-12-02T11:11:28Z</time>
      </trkpt>
      <trkpt lat="62.634727091196" lon="17.977313460915">
        <ele>84.8</ele>
        <time>2017-12-02T11:11:29Z</time>
      </trkpt>
      <trkpt lat="62.63473765239" lon="17.977250512846">
        <ele>84.6</ele>
        <time>2017-12-02T11:11:30Z</time>
      </trkpt>
      <trkpt lat="62.634747794489" lon="17.97719150427">
        <ele>84.8</ele>
        <time>2017-12-02T11:11:31Z</time>
      </trkpt>
      <trkpt lat="62.634762462814" lon="17.977127634192">
        <ele>84.8</ele>
        <time>2017-12-02T11:11:32Z</time>
      </trkpt>
      <trkpt lat="62.634775287121" lon="17.97706829034">
        <ele>84.8</ele>
        <time>2017-12-02T11:11:33Z</time>
      </trkpt>
      <trkpt lat="62.63479045836" lon="17.976990925403">
        <ele>84.6</ele>
        <time>2017-12-02T11:11:34Z</time>
      </trkpt>
      <trkpt lat="62.634803450305" lon="17.976920601262">
        <ele>84.8</ele>
        <time>2017-12-02T11:11:35Z</time>
      </trkpt>
      <trkpt lat="62.634818202449" lon="17.976850277121">
        <ele>84.6</ele>
        <time>2017-12-02T11:11:36Z</time>
      </trkpt>
      <trkpt lat="62.63482733872" lon="17.9767698947">
        <ele>84.8</ele>
        <time>2017-12-02T11:11:37Z</time>
      </trkpt>
      <trkpt lat="62.634836642629" lon="17.976700576387">
        <ele>84.6</ele>
        <time>2017-12-02T11:11:38Z</time>
      </trkpt>
      <trkpt lat="62.63484745528" lon="17.976641064897">
        <ele>84.6</ele>
        <time>2017-12-02T11:11:39Z</time>
      </trkpt>
      <trkpt lat="62.634863045614" lon="17.976555485698">
        <ele>84.4</ele>
        <time>2017-12-02T11:11:40Z</time>
      </trkpt>
      <trkpt lat="62.634882156346" lon="17.976482060254">
        <ele>84.4</ele>
        <time>2017-12-02T11:11:41Z</time>
      </trkpt>
      <trkpt lat="62.634890035332" lon="17.976416346158">
        <ele>84.4</ele>
        <time>2017-12-02T11:11:42Z</time>
      </trkpt>
      <trkpt lat="62.634906212399" lon="17.976343339809">
        <ele>84.2</ele>
        <time>2017-12-02T11:11:43Z</time>
      </trkpt>
      <trkpt lat="62.634924149665" lon="17.976273434763">
        <ele>84</ele>
        <time>2017-12-02T11:11:44Z</time>
      </trkpt>
      <trkpt lat="62.634941835474" lon="17.976204703183">
        <ele>84</ele>
        <time>2017-12-02T11:11:45Z</time>
      </trkpt>
      <trkpt lat="62.634961700577" lon="17.976125158952">
        <ele>83.8</ele>
        <time>2017-12-02T11:11:46Z</time>
      </trkpt>
      <trkpt lat="62.634982320051" lon="17.976057600838">
        <ele>83.6</ele>
        <time>2017-12-02T11:11:47Z</time>
      </trkpt>
      <trkpt lat="62.635001095507" lon="17.975976044951">
        <ele>83.6</ele>
        <time>2017-12-02T11:11:48Z</time>
      </trkpt>
      <trkpt lat="62.635028588139" lon="17.975913683615">
        <ele>83.4</ele>
        <time>2017-12-02T11:11:49Z</time>
      </trkpt>
      <trkpt lat="62.635050800174" lon="17.975830367529">
        <ele>83.4</ele>
        <time>2017-12-02T11:11:50Z</time>
      </trkpt>
      <trkpt lat="62.635063959757" lon="17.975756606809">
        <ele>83.2</ele>
        <time>2017-12-02T11:11:51Z</time>
      </trkpt>
      <trkpt lat="62.635076784064" lon="17.975682426994">
        <ele>83</ele>
        <time>2017-12-02T11:11:52Z</time>
      </trkpt>
      <trkpt lat="62.635088267267" lon="17.975609923559">
        <ele>83</ele>
        <time>2017-12-02T11:11:53Z</time>
      </trkpt>
      <trkpt lat="62.635095224244" lon="17.975561811453">
        <ele>83</ele>
        <time>2017-12-02T11:11:54Z</time>
      </trkpt>
      <trkpt lat="62.635103689963" lon="17.975490649122">
        <ele>82.8</ele>
        <time>2017-12-02T11:11:55Z</time>
      </trkpt>
      <trkpt lat="62.635108551465" lon="17.975419067696">
        <ele>82.8</ele>
        <time>2017-12-02T11:11:56Z</time>
      </trkpt>
      <trkpt lat="62.635111988044" lon="17.975346731899">
        <ele>82.6</ele>
        <time>2017-12-02T11:11:57Z</time>
      </trkpt>
      <trkpt lat="62.635120956677" lon="17.975270624247">
        <ele>82.6</ele>
        <time>2017-12-02T11:11:58Z</time>
      </trkpt>
      <trkpt lat="62.635119531754" lon="17.975214297879">
        <ele>82.6</ele>
        <time>2017-12-02T11:11:59Z</time>
      </trkpt>
      <trkpt lat="62.635115927537" lon="17.975124863006">
        <ele>82.6</ele>
        <time>2017-12-02T11:12:00Z</time>
      </trkpt>
      <trkpt lat="62.635103187049" lon="17.975062417851">
        <ele>82.2</ele>
        <time>2017-12-02T11:12:01Z</time>
      </trkpt>
      <trkpt lat="62.635088602543" lon="17.974984885276">
        <ele>82.4</ele>
        <time>2017-12-02T11:12:02Z</time>
      </trkpt>
      <trkpt lat="62.635068905078" lon="17.974919422637">
        <ele>82</ele>
        <time>2017-12-02T11:12:03Z</time>
      </trkpt>
      <trkpt lat="62.635048201785" lon="17.97485546874">
        <ele>81.8</ele>
        <time>2017-12-02T11:12:04Z</time>
      </trkpt>
      <trkpt lat="62.635020373877" lon="17.97479344268">
        <ele>81.8</ele>
        <time>2017-12-02T11:12:05Z</time>
      </trkpt>
      <trkpt lat="62.63499749129" lon="17.974734685561">
        <ele>81.4</ele>
        <time>2017-12-02T11:12:06Z</time>
      </trkpt>
      <trkpt lat="62.634974441065" lon="17.974651704751">
        <ele>81.2</ele>
        <time>2017-12-02T11:12:07Z</time>
      </trkpt>
      <trkpt lat="62.6349547436" lon="17.974580039506">
        <ele>80.6</ele>
        <time>2017-12-02T11:12:08Z</time>
      </trkpt>
      <trkpt lat="62.634940997284" lon="17.974520611835">
        <ele>80.4</ele>
        <time>2017-12-02T11:12:09Z</time>
      </trkpt>
      <trkpt lat="62.634921132181" lon="17.974427237469">
        <ele>80</ele>
        <time>2017-12-02T11:12:10Z</time>
      </trkpt>
      <trkpt lat="62.634914007566" lon="17.974353895844">
        <ele>79.6</ele>
        <time>2017-12-02T11:12:11Z</time>
      </trkpt>
      <trkpt lat="62.634903697829" lon="17.974279967486">
        <ele>79.4</ele>
        <time>2017-12-02T11:12:12Z</time>
      </trkpt>
      <trkpt lat="62.634898249594" lon="17.974204949481">
        <ele>79.4</ele>
        <time>2017-12-02T11:12:13Z</time>
      </trkpt>
      <trkpt lat="62.634889951513" lon="17.974143593973">
        <ele>79.4</ele>
        <time>2017-12-02T11:12:14Z</time>
      </trkpt>
      <trkpt lat="62.634877462482" lon="17.974083831026">
        <ele>79.4</ele>
        <time>2017-12-02T11:12:15Z</time>
      </trkpt>
      <trkpt lat="62.634857178284" lon="17.974037814395">
        <ele>79.4</ele>
        <time>2017-12-02T11:12:16Z</time>
      </trkpt>
      <trkpt lat="62.634842174683" lon="17.973967657892">
        <ele>79.4</ele>
        <time>2017-12-02T11:12:17Z</time>
      </trkpt>
      <trkpt lat="62.634819878829" lon="17.973900099778">
        <ele>79.4</ele>
        <time>2017-12-02T11:12:18Z</time>
      </trkpt>
      <trkpt lat="62.634805461961" lon="17.973856765355">
        <ele>79.4</ele>
        <time>2017-12-02T11:12:19Z</time>
      </trkpt>
      <trkpt lat="62.634783585202" lon="17.973808150335">
        <ele>79.2</ele>
        <time>2017-12-02T11:12:20Z</time>
      </trkpt>
      <trkpt lat="62.634769335972" lon="17.973761127876">
        <ele>79.2</ele>
        <time>2017-12-02T11:12:21Z</time>
      </trkpt>
      <trkpt lat="62.634753997095" lon="17.973691809563">
        <ele>79.2</ele>
        <time>2017-12-02T11:12:22Z</time>
      </trkpt>
      <trkpt lat="62.634738658218" lon="17.973621401603">
        <ele>79</ele>
        <time>2017-12-02T11:12:23Z</time>
      </trkpt>
      <trkpt lat="62.634727091196" lon="17.973557782982">
        <ele>79</ele>
        <time>2017-12-02T11:12:24Z</time>
      </trkpt>
      <trkpt lat="62.634716530002" lon="17.973474885991">
        <ele>79</ele>
        <time>2017-12-02T11:12:25Z</time>
      </trkpt>
      <trkpt lat="62.634715356536" lon="17.97338863624">
        <ele>79</ele>
        <time>2017-12-02T11:12:26Z</time>
      </trkpt>
      <trkpt lat="62.634715440355" lon="17.973307750905">
        <ele>78.6</ele>
        <time>2017-12-02T11:12:27Z</time>
      </trkpt>
      <trkpt lat="62.634717871106" lon="17.973222423163">
        <ele>78.6</ele>
        <time>2017-12-02T11:12:28Z</time>
      </trkpt>
      <trkpt lat="62.634722313513" lon="17.973152099022">
        <ele>78.6</ele>
        <time>2017-12-02T11:12:29Z</time>
      </trkpt>
      <trkpt lat="62.634732287974" lon="17.973059562846">
        <ele>78.4</ele>
        <time>2017-12-02T11:12:30Z</time>
      </trkpt>
      <trkpt lat="62.634741424245" lon="17.972977755502">
        <ele>78.2</ele>
        <time>2017-12-02T11:12:31Z</time>
      </trkpt>
      <trkpt lat="62.634755589656" lon="17.972902066945">
        <ele>78.2</ele>
        <time>2017-12-02T11:12:32Z</time>
      </trkpt>
      <trkpt lat="62.634772940189" lon="17.972825204922">
        <ele>78.2</ele>
        <time>2017-12-02T11:12:33Z</time>
      </trkpt>
      <trkpt lat="62.634792721473" lon="17.972755048419">
        <ele>78</ele>
        <time>2017-12-02T11:12:34Z</time>
      </trkpt>
      <trkpt lat="62.634817531897" lon="17.972685897744">
        <ele>78</ele>
        <time>2017-12-02T11:12:35Z</time>
      </trkpt>
      <trkpt lat="62.634836307353" lon="17.972615070689">
        <ele>78</ele>
        <time>2017-12-02T11:12:36Z</time>
      </trkpt>
      <trkpt lat="62.634857429741" lon="17.972533514802">
        <ele>77.8</ele>
        <time>2017-12-02T11:12:37Z</time>
      </trkpt>
      <trkpt lat="62.63488014469" lon="17.97245656896">
        <ele>77.6</ele>
        <time>2017-12-02T11:12:38Z</time>
      </trkpt>
      <trkpt lat="62.634897914318" lon="17.972402505705">
        <ele>77.6</ele>
        <time>2017-12-02T11:12:39Z</time>
      </trkpt>
      <trkpt lat="62.634919791077" lon="17.972313573746">
        <ele>77.4</ele>
        <time>2017-12-02T11:12:40Z</time>
      </trkpt>
      <trkpt lat="62.634944098587" lon="17.972239729207">
        <ele>77.4</ele>
        <time>2017-12-02T11:12:41Z</time>
      </trkpt>
      <trkpt lat="62.63496144912" lon="17.972171835817">
        <ele>77.2</ele>
        <time>2017-12-02T11:12:42Z</time>
      </trkpt>
      <trkpt lat="62.634981398042" lon="17.972099835296">
        <ele>77</ele>
        <time>2017-12-02T11:12:43Z</time>
      </trkpt>
      <trkpt lat="62.635000676412" lon="17.972028170051">
        <ele>77</ele>
        <time>2017-12-02T11:12:44Z</time>
      </trkpt>
      <trkpt lat="62.635023307542" lon="17.971941165929">
        <ele>77</ele>
        <time>2017-12-02T11:12:45Z</time>
      </trkpt>
      <trkpt lat="62.635046190129" lon="17.971833877609">
        <ele>76.8</ele>
        <time>2017-12-02T11:12:46Z</time>
      </trkpt>
      <trkpt lat="62.635063875938" lon="17.971737737216">
        <ele>76.6</ele>
        <time>2017-12-02T11:12:47Z</time>
      </trkpt>
      <trkpt lat="62.635078963358" lon="17.971621061168">
        <ele>75.8</ele>
        <time>2017-12-02T11:12:48Z</time>
      </trkpt>
      <trkpt lat="62.635091200932" lon="17.971520478368">
        <ele>75</ele>
        <time>2017-12-02T11:12:49Z</time>
      </trkpt>
      <trkpt lat="62.635104947248" lon="17.971411262211">
        <ele>74</ele>
        <time>2017-12-02T11:12:50Z</time>
      </trkpt>
      <trkpt lat="62.635116598089" lon="17.97131411599">
        <ele>73.2</ele>
        <time>2017-12-02T11:12:51Z</time>
      </trkpt>
      <trkpt lat="62.635131769328" lon="17.971199116322">
        <ele>72.6</ele>
        <time>2017-12-02T11:12:52Z</time>
      </trkpt>
      <trkpt lat="62.635143001074" lon="17.971094007296">
        <ele>72.2</ele>
        <time>2017-12-02T11:12:53Z</time>
      </trkpt>
      <trkpt lat="62.635154568096" lon="17.970994514143">
        <ele>72</ele>
        <time>2017-12-02T11:12:54Z</time>
      </trkpt>
      <trkpt lat="62.635168230593" lon="17.970882615778">
        <ele>71.6</ele>
        <time>2017-12-02T11:12:55Z</time>
      </trkpt>
      <trkpt lat="62.635180049072" lon="17.970780691874">
        <ele>71.2</ele>
        <time>2017-12-02T11:12:56Z</time>
      </trkpt>
      <trkpt lat="62.635191699913" lon="17.970688155698">
        <ele>71</ele>
        <time>2017-12-02T11:12:57Z</time>
      </trkpt>
      <trkpt lat="62.635205194772" lon="17.970578771903">
        <ele>70.6</ele>
        <time>2017-12-02T11:12:58Z</time>
      </trkpt>
      <trkpt lat="62.63521625888" lon="17.97048430789">
        <ele>70.4</ele>
        <time>2017-12-02T11:12:59Z</time>
      </trkpt>
      <trkpt lat="62.635227825902" lon="17.970377438665">
        <ele>70.2</ele>
        <time>2017-12-02T11:13:00Z</time>
      </trkpt>
      <trkpt lat="62.635236710716" lon="17.970272497277">
        <ele>70</ele>
        <time>2017-12-02T11:13:01Z</time>
      </trkpt>
      <trkpt lat="62.635250540851" lon="17.970177027436">
        <ele>69.8</ele>
        <time>2017-12-02T11:13:02Z</time>
      </trkpt>
      <trkpt lat="62.635266969375" lon="17.970077618102">
        <ele>69.6</ele>
        <time>2017-12-02T11:13:03Z</time>
      </trkpt>
      <trkpt lat="62.635287672668" lon="17.969974101637">
        <ele>69.4</ele>
        <time>2017-12-02T11:13:04Z</time>
      </trkpt>
      <trkpt lat="62.635311728721" lon="17.969867064774">
        <ele>69.4</ele>
        <time>2017-12-02T11:13:05Z</time>
      </trkpt>
      <trkpt lat="62.635334611308" lon="17.969771259657">
        <ele>69.6</ele>
        <time>2017-12-02T11:13:06Z</time>
      </trkpt>
      <trkpt lat="62.635356990981" lon="17.969675957454">
        <ele>69.4</ele>
        <time>2017-12-02T11:13:07Z</time>
      </trkpt>
      <trkpt lat="62.635379957387" lon="17.969586103486">
        <ele>69.4</ele>
        <time>2017-12-02T11:13:08Z</time>
      </trkpt>
      <trkpt lat="62.635398062291" lon="17.969514270603">
        <ele>69.4</ele>
        <time>2017-12-02T11:13:09Z</time>
      </trkpt>
      <trkpt lat="62.635426812208" lon="17.969401869324">
        <ele>69.2</ele>
        <time>2017-12-02T11:13:10Z</time>
      </trkpt>
      <trkpt lat="62.635452712279" lon="17.969310171338">
        <ele>68.8</ele>
        <time>2017-12-02T11:13:11Z</time>
      </trkpt>
      <trkpt lat="62.635480121092" lon="17.969218724809">
        <ele>68.2</ele>
        <time>2017-12-02T11:13:12Z</time>
      </trkpt>
      <trkpt lat="62.635506691715" lon="17.969117722914">
        <ele>67.6</ele>
        <time>2017-12-02T11:13:13Z</time>
      </trkpt>
      <trkpt lat="62.635532172691" lon="17.969024348548">
        <ele>67</ele>
        <time>2017-12-02T11:13:14Z</time>
      </trkpt>
      <trkpt lat="62.635558827133" lon="17.968927872879">
        <ele>66.4</ele>
        <time>2017-12-02T11:13:15Z</time>
      </trkpt>
      <trkpt lat="62.635587828507" lon="17.96882804445">
        <ele>65.8</ele>
        <time>2017-12-02T11:13:16Z</time>
      </trkpt>
      <trkpt lat="62.635614902044" lon="17.968745734192">
        <ele>65.4</ele>
        <time>2017-12-02T11:13:17Z</time>
      </trkpt>
      <trkpt lat="62.635645579798" lon="17.968661663735">
        <ele>64.8</ele>
        <time>2017-12-02T11:13:18Z</time>
      </trkpt>
      <trkpt lat="62.635676006095" lon="17.968595111449">
        <ele>64.6</ele>
        <time>2017-12-02T11:13:19Z</time>
      </trkpt>
      <trkpt lat="62.635713473188" lon="17.968531576647">
        <ele>64</ele>
        <time>2017-12-02T11:13:20Z</time>
      </trkpt>
      <trkpt lat="62.635748006616" lon="17.968490170061">
        <ele>63.8</ele>
        <time>2017-12-02T11:13:21Z</time>
      </trkpt>
      <trkpt lat="62.635788910288" lon="17.968456139547">
        <ele>63.6</ele>
        <time>2017-12-02T11:13:22Z</time>
      </trkpt>
      <trkpt lat="62.635831155064" lon="17.968431664399">
        <ele>63.2</ele>
        <time>2017-12-02T11:13:23Z</time>
      </trkpt>
      <trkpt lat="62.635870298537" lon="17.968420851748">
        <ele>63.2</ele>
        <time>2017-12-02T11:13:24Z</time>
      </trkpt>
      <trkpt lat="62.635919667928" lon="17.968419678282">
        <ele>63</ele>
        <time>2017-12-02T11:13:25Z</time>
      </trkpt>
      <trkpt lat="62.635961074514" lon="17.96842487506">
        <ele>62.8</ele>
        <time>2017-12-02T11:13:26Z</time>
      </trkpt>
      <trkpt lat="62.635996949046" lon="17.968422779585">
        <ele>62.6</ele>
        <time>2017-12-02T11:13:27Z</time>
      </trkpt>
      <trkpt lat="62.636033577949" lon="17.968422611947">
        <ele>62.4</ele>
        <time>2017-12-02T11:13:28Z</time>
      </trkpt>
      <trkpt lat="62.636049922654" lon="17.968416660798">
        <ele>62.2</ele>
        <time>2017-12-02T11:13:29Z</time>
      </trkpt>
      <trkpt lat="62.636050174111" lon="17.968412637486">
        <ele>62</ele>
        <time>2017-12-02T11:13:30Z</time>
      </trkpt>
      <trkpt lat="62.636043887686" lon="17.968422863404">
        <ele>61.8</ele>
        <time>2017-12-02T11:13:31Z</time>
      </trkpt>
    </trkseg>
  </trk>
</gpx>